<?xml version="1.0" encoding="UTF-8" standalone="no" ?>
<gpx xmlns="http://www.topografix.com/GPX/1/1" xmlns:xsi="http://www.w3.org/2001/XMLSchema-instance" xsi:schemaLocation="http://www.topografix.com/GPX/1/1 http://www.topografix.com/GPX/1/1/gpx.xsd" version="1.1" creator="VisuGPX - https://www.visugpx.com">
  <metadata>
    <name>2018-11-10 13:54 Chamrousse</name>
    <desc><![CDATA[Petite balade au dessus de Grenoble, le grand tour des routes de Chamrousse par le Col de Luitel]]></desc>
  </metadata>
  <wpt lat="45.20107" lon="5.71794">
    <ele>228.05</ele>
    <name><![CDATA[0000287]]></name>
    <type><![CDATA[Point de départ]]></type>
  </wpt>
  <wpt lat="45.20108" lon="5.71815">
    <ele>249.95</ele>
    <name><![CDATA[0000288]]></name>
    <desc><![CDATA[<p><br /><h3>Nom: Segment: 1</h3><br />Heure de départ: 11/10/2018 13:54<br/>Heure d'arrivée: 11/10/2018 18:08<br/>Distance: 94,2km (04:13)<br/>Temps déplacement: 03:01<br/>Vitesse moyenne: 22,26 km/h<br/>Vitesse moyenne mouv.: 31,15 km/h<br/>Vitesse Max.: 129,52 km/h<br/>Altitude minimale: 192 m<br/>Altitude maximale: 1706 m<br/>Vitesse de montée: 705,5 m/h<br/>Vitesse de descente: -1941 m/h<br/>Gain d'altitude: 2182 m<br/>Perte d'altitude: -2160 m<br/>Temps de montée: 03:05<br/>Temps de descente: 01:06<br/></p>]]></desc>
    <type><![CDATA[Point d'arrivée]]></type>
  </wpt>
  <trk>
    <name><![CDATA[2018-11-10 13:54 Chamrousse]]></name>
    <desc><![CDATA[<p>Heure de départ: 11/10/2018 13:54<br/>Heure d'arrivée: 11/10/2018 18:08<br/>Distance: 94,2 km (04:13)<br/>Temps déplacement: 03:01<br/>Vitesse moyenne: 22,26 km/h<br/>Vitesse moyenne mouv.: 31,15 km/h<br/>Vitesse Max.: 129,52 km/h<br/>Altitude minimale: 192 m<br/>Altitude maximale: 1706 m<br/>Vitesse de montée: 790,2 m/h<br/>Vitesse de descente: -1014 m/h<br/>Gain d'altitude: 1862 m<br/>Perte d'altitude: -1849 m<br/>Temps de montée: 02:21<br/>Temps de descente: 01:49<br/></p><hr align="center" width="480" style="height: 2px; width: 517px"/>]]></desc>
    <trkseg>
      <trkpt lat="45.20107" lon="5.71794">
        <ele>228.05</ele>
        <time>2018-11-10T12:54:07Z</time>
      </trkpt>
      <trkpt lat="45.20091" lon="5.71806">
        <ele>225.1</ele>
        <time>2018-11-10T12:55:16Z</time>
      </trkpt>
      <trkpt lat="45.20072" lon="5.71793">
        <ele>223.07</ele>
        <time>2018-11-10T12:55:20Z</time>
      </trkpt>
      <trkpt lat="45.20081" lon="5.71764">
        <ele>218.52</ele>
        <time>2018-11-10T12:55:24Z</time>
      </trkpt>
      <trkpt lat="45.20096" lon="5.71743">
        <ele>217.85</ele>
        <time>2018-11-10T12:55:27Z</time>
      </trkpt>
      <trkpt lat="45.20081" lon="5.71764">
        <ele>217.2</ele>
        <time>2018-11-10T12:55:41Z</time>
      </trkpt>
      <trkpt lat="45.20057" lon="5.71775">
        <ele>216.36</ele>
        <time>2018-11-10T12:55:43Z</time>
      </trkpt>
      <trkpt lat="45.2003" lon="5.71777">
        <ele>215.38</ele>
        <time>2018-11-10T12:55:45Z</time>
      </trkpt>
      <trkpt lat="45.20006" lon="5.71776">
        <ele>215.08</ele>
        <time>2018-11-10T12:55:47Z</time>
      </trkpt>
      <trkpt lat="45.19984" lon="5.71783">
        <ele>213.93</ele>
        <time>2018-11-10T12:55:49Z</time>
      </trkpt>
      <trkpt lat="45.19963" lon="5.71787">
        <ele>214.04</ele>
        <time>2018-11-10T12:55:51Z</time>
      </trkpt>
      <trkpt lat="45.19942" lon="5.71788">
        <ele>214.05</ele>
        <time>2018-11-10T12:55:53Z</time>
      </trkpt>
      <trkpt lat="45.19922" lon="5.71793">
        <ele>214.05</ele>
        <time>2018-11-10T12:55:55Z</time>
      </trkpt>
      <trkpt lat="45.19899" lon="5.71795">
        <ele>213.14</ele>
        <time>2018-11-10T12:55:57Z</time>
      </trkpt>
      <trkpt lat="45.19876" lon="5.71795">
        <ele>213.97</ele>
        <time>2018-11-10T12:55:59Z</time>
      </trkpt>
      <trkpt lat="45.19856" lon="5.71797">
        <ele>212.01</ele>
        <time>2018-11-10T12:56:01Z</time>
      </trkpt>
      <trkpt lat="45.19831" lon="5.71806">
        <ele>212.75</ele>
        <time>2018-11-10T12:56:04Z</time>
      </trkpt>
      <trkpt lat="45.19808" lon="5.7181">
        <ele>213.07</ele>
        <time>2018-11-10T12:56:08Z</time>
      </trkpt>
      <trkpt lat="45.19789" lon="5.71811">
        <ele>213.05</ele>
        <time>2018-11-10T12:56:10Z</time>
      </trkpt>
      <trkpt lat="45.1977" lon="5.71818">
        <ele>213.05</ele>
        <time>2018-11-10T12:56:12Z</time>
      </trkpt>
      <trkpt lat="45.19753" lon="5.71834">
        <ele>212.84</ele>
        <time>2018-11-10T12:56:14Z</time>
      </trkpt>
      <trkpt lat="45.19736" lon="5.71858">
        <ele>212.12</ele>
        <time>2018-11-10T12:56:16Z</time>
      </trkpt>
      <trkpt lat="45.19714" lon="5.71862">
        <ele>212.27</ele>
        <time>2018-11-10T12:56:18Z</time>
      </trkpt>
      <trkpt lat="45.19697" lon="5.71875">
        <ele>210.67</ele>
        <time>2018-11-10T12:56:20Z</time>
      </trkpt>
      <trkpt lat="45.19677" lon="5.71883">
        <ele>211.01</ele>
        <time>2018-11-10T12:56:22Z</time>
      </trkpt>
      <trkpt lat="45.19656" lon="5.71881">
        <ele>211.05</ele>
        <time>2018-11-10T12:56:24Z</time>
      </trkpt>
      <trkpt lat="45.19635" lon="5.71881">
        <ele>210.35</ele>
        <time>2018-11-10T12:56:26Z</time>
      </trkpt>
      <trkpt lat="45.19611" lon="5.7189">
        <ele>211.74</ele>
        <time>2018-11-10T12:56:30Z</time>
      </trkpt>
      <trkpt lat="45.19591" lon="5.71894">
        <ele>211.32</ele>
        <time>2018-11-10T12:56:32Z</time>
      </trkpt>
      <trkpt lat="45.19564" lon="5.71908">
        <ele>210.91</ele>
        <time>2018-11-10T12:56:35Z</time>
      </trkpt>
      <trkpt lat="45.19544" lon="5.7191">
        <ele>210.34</ele>
        <time>2018-11-10T12:56:37Z</time>
      </trkpt>
      <trkpt lat="45.19525" lon="5.71912">
        <ele>207.13</ele>
        <time>2018-11-10T12:56:39Z</time>
      </trkpt>
      <trkpt lat="45.19503" lon="5.71912">
        <ele>206.15</ele>
        <time>2018-11-10T12:56:41Z</time>
      </trkpt>
      <trkpt lat="45.19483" lon="5.71911">
        <ele>207.67</ele>
        <time>2018-11-10T12:56:43Z</time>
      </trkpt>
      <trkpt lat="45.19459" lon="5.71913">
        <ele>207.77</ele>
        <time>2018-11-10T12:56:46Z</time>
      </trkpt>
      <trkpt lat="45.19437" lon="5.71903">
        <ele>208.31</ele>
        <time>2018-11-10T12:56:49Z</time>
      </trkpt>
      <trkpt lat="45.19421" lon="5.71889">
        <ele>207.99</ele>
        <time>2018-11-10T12:56:52Z</time>
      </trkpt>
      <trkpt lat="45.1941" lon="5.71869">
        <ele>208.67</ele>
        <time>2018-11-10T12:56:56Z</time>
      </trkpt>
      <trkpt lat="45.19389" lon="5.71845">
        <ele>210.68</ele>
        <time>2018-11-10T12:57:35Z</time>
      </trkpt>
      <trkpt lat="45.19366" lon="5.71849">
        <ele>211.25</ele>
        <time>2018-11-10T12:57:38Z</time>
      </trkpt>
      <trkpt lat="45.19346" lon="5.71866">
        <ele>210.35</ele>
        <time>2018-11-10T12:57:41Z</time>
      </trkpt>
      <trkpt lat="45.19333" lon="5.71897">
        <ele>210.99</ele>
        <time>2018-11-10T12:57:43Z</time>
      </trkpt>
      <trkpt lat="45.19337" lon="5.71927">
        <ele>211.03</ele>
        <time>2018-11-10T12:57:44Z</time>
      </trkpt>
      <trkpt lat="45.19332" lon="5.7196">
        <ele>212.66</ele>
        <time>2018-11-10T12:57:46Z</time>
      </trkpt>
      <trkpt lat="45.1932" lon="5.71978">
        <ele>213.5</ele>
        <time>2018-11-10T12:57:48Z</time>
      </trkpt>
      <trkpt lat="45.19297" lon="5.71995">
        <ele>212.15</ele>
        <time>2018-11-10T12:57:51Z</time>
      </trkpt>
      <trkpt lat="45.19277" lon="5.72009">
        <ele>210.38</ele>
        <time>2018-11-10T12:57:54Z</time>
      </trkpt>
      <trkpt lat="45.1926" lon="5.72023">
        <ele>208.11</ele>
        <time>2018-11-10T12:57:58Z</time>
      </trkpt>
      <trkpt lat="45.19246" lon="5.72039">
        <ele>209.02</ele>
        <time>2018-11-10T12:58:15Z</time>
      </trkpt>
      <trkpt lat="45.1923" lon="5.72022">
        <ele>210.38</ele>
        <time>2018-11-10T12:58:41Z</time>
      </trkpt>
      <trkpt lat="45.19236" lon="5.71993">
        <ele>210.78</ele>
        <time>2018-11-10T12:58:43Z</time>
      </trkpt>
      <trkpt lat="45.1924" lon="5.71957">
        <ele>210.32</ele>
        <time>2018-11-10T12:58:45Z</time>
      </trkpt>
      <trkpt lat="45.19245" lon="5.71913">
        <ele>210.98</ele>
        <time>2018-11-10T12:58:47Z</time>
      </trkpt>
      <trkpt lat="45.19254" lon="5.71869">
        <ele>210.13</ele>
        <time>2018-11-10T12:58:49Z</time>
      </trkpt>
      <trkpt lat="45.19262" lon="5.71829">
        <ele>210.06</ele>
        <time>2018-11-10T12:58:51Z</time>
      </trkpt>
      <trkpt lat="45.19261" lon="5.71801">
        <ele>210.05</ele>
        <time>2018-11-10T12:58:52Z</time>
      </trkpt>
      <trkpt lat="45.19277" lon="5.71764">
        <ele>210.05</ele>
        <time>2018-11-10T12:58:54Z</time>
      </trkpt>
      <trkpt lat="45.19289" lon="5.71726">
        <ele>209.35</ele>
        <time>2018-11-10T12:58:56Z</time>
      </trkpt>
      <trkpt lat="45.19312" lon="5.71692">
        <ele>210.69</ele>
        <time>2018-11-10T12:58:58Z</time>
      </trkpt>
      <trkpt lat="45.19326" lon="5.71664">
        <ele>211.72</ele>
        <time>2018-11-10T12:59:00Z</time>
      </trkpt>
      <trkpt lat="45.19348" lon="5.71629">
        <ele>211.11</ele>
        <time>2018-11-10T12:59:02Z</time>
      </trkpt>
      <trkpt lat="45.19364" lon="5.71616">
        <ele>211.07</ele>
        <time>2018-11-10T12:59:03Z</time>
      </trkpt>
      <trkpt lat="45.19383" lon="5.71589">
        <ele>211.75</ele>
        <time>2018-11-10T12:59:05Z</time>
      </trkpt>
      <trkpt lat="45.19405" lon="5.71562">
        <ele>212.02</ele>
        <time>2018-11-10T12:59:07Z</time>
      </trkpt>
      <trkpt lat="45.19426" lon="5.71533">
        <ele>211.84</ele>
        <time>2018-11-10T12:59:09Z</time>
      </trkpt>
      <trkpt lat="45.19446" lon="5.71507">
        <ele>210.84</ele>
        <time>2018-11-10T12:59:11Z</time>
      </trkpt>
      <trkpt lat="45.1947" lon="5.71489">
        <ele>208.51</ele>
        <time>2018-11-10T12:59:13Z</time>
      </trkpt>
      <trkpt lat="45.19498" lon="5.71472">
        <ele>207.88</ele>
        <time>2018-11-10T12:59:15Z</time>
      </trkpt>
      <trkpt lat="45.19527" lon="5.71449">
        <ele>207.33</ele>
        <time>2018-11-10T12:59:17Z</time>
      </trkpt>
      <trkpt lat="45.19557" lon="5.71437">
        <ele>206.37</ele>
        <time>2018-11-10T12:59:19Z</time>
      </trkpt>
      <trkpt lat="45.19587" lon="5.71438">
        <ele>206.08</ele>
        <time>2018-11-10T12:59:21Z</time>
      </trkpt>
      <trkpt lat="45.19613" lon="5.71437">
        <ele>206.05</ele>
        <time>2018-11-10T12:59:23Z</time>
      </trkpt>
      <trkpt lat="45.19646" lon="5.71432">
        <ele>206.26</ele>
        <time>2018-11-10T12:59:25Z</time>
      </trkpt>
      <trkpt lat="45.19676" lon="5.71433">
        <ele>206.77</ele>
        <time>2018-11-10T12:59:27Z</time>
      </trkpt>
      <trkpt lat="45.19708" lon="5.71437">
        <ele>205.13</ele>
        <time>2018-11-10T12:59:29Z</time>
      </trkpt>
      <trkpt lat="45.1974" lon="5.71437">
        <ele>202.54</ele>
        <time>2018-11-10T12:59:31Z</time>
      </trkpt>
      <trkpt lat="45.19771" lon="5.71437">
        <ele>201.39</ele>
        <time>2018-11-10T12:59:33Z</time>
      </trkpt>
      <trkpt lat="45.19797" lon="5.71438">
        <ele>200.17</ele>
        <time>2018-11-10T12:59:35Z</time>
      </trkpt>
      <trkpt lat="45.19823" lon="5.71436">
        <ele>200.06</ele>
        <time>2018-11-10T12:59:37Z</time>
      </trkpt>
      <trkpt lat="45.19851" lon="5.71435">
        <ele>200.96</ele>
        <time>2018-11-10T12:59:39Z</time>
      </trkpt>
      <trkpt lat="45.19879" lon="5.71432">
        <ele>202.65</ele>
        <time>2018-11-10T12:59:41Z</time>
      </trkpt>
      <trkpt lat="45.19897" lon="5.71427">
        <ele>204.33</ele>
        <time>2018-11-10T12:59:42Z</time>
      </trkpt>
      <trkpt lat="45.1992" lon="5.71426">
        <ele>207.29</ele>
        <time>2018-11-10T12:59:44Z</time>
      </trkpt>
      <trkpt lat="45.19937" lon="5.7142">
        <ele>208.47</ele>
        <time>2018-11-10T12:59:46Z</time>
      </trkpt>
      <trkpt lat="45.19959" lon="5.71416">
        <ele>212.01</ele>
        <time>2018-11-10T12:59:48Z</time>
      </trkpt>
      <trkpt lat="45.1996" lon="5.71388">
        <ele>212.47</ele>
        <time>2018-11-10T12:59:51Z</time>
      </trkpt>
      <trkpt lat="45.19953" lon="5.71356">
        <ele>214.71</ele>
        <time>2018-11-10T12:59:54Z</time>
      </trkpt>
      <trkpt lat="45.19942" lon="5.71323">
        <ele>211.27</ele>
        <time>2018-11-10T12:59:57Z</time>
      </trkpt>
      <trkpt lat="45.19936" lon="5.71298">
        <ele>211.07</ele>
        <time>2018-11-10T12:59:59Z</time>
      </trkpt>
      <trkpt lat="45.19928" lon="5.71264">
        <ele>212.23</ele>
        <time>2018-11-10T13:00:02Z</time>
      </trkpt>
      <trkpt lat="45.19921" lon="5.71239">
        <ele>213.68</ele>
        <time>2018-11-10T13:00:04Z</time>
      </trkpt>
      <trkpt lat="45.19915" lon="5.71205">
        <ele>215.63</ele>
        <time>2018-11-10T13:00:06Z</time>
      </trkpt>
      <trkpt lat="45.19907" lon="5.7118">
        <ele>215.31</ele>
        <time>2018-11-10T13:00:08Z</time>
      </trkpt>
      <trkpt lat="45.19899" lon="5.71147">
        <ele>215.98</ele>
        <time>2018-11-10T13:00:10Z</time>
      </trkpt>
      <trkpt lat="45.19892" lon="5.71114">
        <ele>216.04</ele>
        <time>2018-11-10T13:00:12Z</time>
      </trkpt>
      <trkpt lat="45.19885" lon="5.71077">
        <ele>216.96</ele>
        <time>2018-11-10T13:00:14Z</time>
      </trkpt>
      <trkpt lat="45.19879" lon="5.71046">
        <ele>217.74</ele>
        <time>2018-11-10T13:00:16Z</time>
      </trkpt>
      <trkpt lat="45.19873" lon="5.71012">
        <ele>218.95</ele>
        <time>2018-11-10T13:00:19Z</time>
      </trkpt>
      <trkpt lat="45.19869" lon="5.70983">
        <ele>218.78</ele>
        <time>2018-11-10T13:00:24Z</time>
      </trkpt>
      <trkpt lat="45.19857" lon="5.70952">
        <ele>221.69</ele>
        <time>2018-11-10T13:00:32Z</time>
      </trkpt>
      <trkpt lat="45.19841" lon="5.70935">
        <ele>221.11</ele>
        <time>2018-11-10T13:00:34Z</time>
      </trkpt>
      <trkpt lat="45.19819" lon="5.70936">
        <ele>221.75</ele>
        <time>2018-11-10T13:00:36Z</time>
      </trkpt>
      <trkpt lat="45.19795" lon="5.70948">
        <ele>220.41</ele>
        <time>2018-11-10T13:00:38Z</time>
      </trkpt>
      <trkpt lat="45.19772" lon="5.70961">
        <ele>220.78</ele>
        <time>2018-11-10T13:00:40Z</time>
      </trkpt>
      <trkpt lat="45.19744" lon="5.70979">
        <ele>218.92</ele>
        <time>2018-11-10T13:00:42Z</time>
      </trkpt>
      <trkpt lat="45.19715" lon="5.70995">
        <ele>216.52</ele>
        <time>2018-11-10T13:00:44Z</time>
      </trkpt>
      <trkpt lat="45.19688" lon="5.71012">
        <ele>217</ele>
        <time>2018-11-10T13:00:46Z</time>
      </trkpt>
      <trkpt lat="45.19664" lon="5.71024">
        <ele>217.04</ele>
        <time>2018-11-10T13:00:48Z</time>
      </trkpt>
      <trkpt lat="45.19641" lon="5.71035">
        <ele>216.14</ele>
        <time>2018-11-10T13:00:50Z</time>
      </trkpt>
      <trkpt lat="45.19616" lon="5.71047">
        <ele>215.85</ele>
        <time>2018-11-10T13:00:52Z</time>
      </trkpt>
      <trkpt lat="45.19592" lon="5.71056">
        <ele>215.12</ele>
        <time>2018-11-10T13:00:54Z</time>
      </trkpt>
      <trkpt lat="45.19573" lon="5.71069">
        <ele>214.36</ele>
        <time>2018-11-10T13:00:56Z</time>
      </trkpt>
      <trkpt lat="45.19555" lon="5.71076">
        <ele>214.99</ele>
        <time>2018-11-10T13:00:58Z</time>
      </trkpt>
      <trkpt lat="45.19536" lon="5.71076">
        <ele>214.34</ele>
        <time>2018-11-10T13:01:00Z</time>
      </trkpt>
      <trkpt lat="45.19516" lon="5.71072">
        <ele>213.17</ele>
        <time>2018-11-10T13:01:02Z</time>
      </trkpt>
      <trkpt lat="45.19495" lon="5.71067">
        <ele>211.66</ele>
        <time>2018-11-10T13:01:04Z</time>
      </trkpt>
      <trkpt lat="45.19475" lon="5.71062">
        <ele>210.4</ele>
        <time>2018-11-10T13:01:06Z</time>
      </trkpt>
      <trkpt lat="45.19455" lon="5.71049">
        <ele>210.08</ele>
        <time>2018-11-10T13:01:08Z</time>
      </trkpt>
      <trkpt lat="45.19436" lon="5.71031">
        <ele>210.75</ele>
        <time>2018-11-10T13:01:10Z</time>
      </trkpt>
      <trkpt lat="45.19421" lon="5.71012">
        <ele>211.72</ele>
        <time>2018-11-10T13:01:12Z</time>
      </trkpt>
      <trkpt lat="45.19406" lon="5.7099">
        <ele>212.02</ele>
        <time>2018-11-10T13:01:14Z</time>
      </trkpt>
      <trkpt lat="45.19389" lon="5.70968">
        <ele>211.35</ele>
        <time>2018-11-10T13:01:16Z</time>
      </trkpt>
      <trkpt lat="45.19368" lon="5.70939">
        <ele>211.78</ele>
        <time>2018-11-10T13:01:18Z</time>
      </trkpt>
      <trkpt lat="45.19345" lon="5.70909">
        <ele>212.72</ele>
        <time>2018-11-10T13:01:20Z</time>
      </trkpt>
      <trkpt lat="45.19322" lon="5.70885">
        <ele>212.11</ele>
        <time>2018-11-10T13:01:22Z</time>
      </trkpt>
      <trkpt lat="45.193" lon="5.70856">
        <ele>212.75</ele>
        <time>2018-11-10T13:01:24Z</time>
      </trkpt>
      <trkpt lat="45.19278" lon="5.70822">
        <ele>213.72</ele>
        <time>2018-11-10T13:01:26Z</time>
      </trkpt>
      <trkpt lat="45.19254" lon="5.7079">
        <ele>213.32</ele>
        <time>2018-11-10T13:01:28Z</time>
      </trkpt>
      <trkpt lat="45.19242" lon="5.7077">
        <ele>214.53</ele>
        <time>2018-11-10T13:01:29Z</time>
      </trkpt>
      <trkpt lat="45.19224" lon="5.70744">
        <ele>215</ele>
        <time>2018-11-10T13:01:31Z</time>
      </trkpt>
      <trkpt lat="45.19202" lon="5.70714">
        <ele>214.83</ele>
        <time>2018-11-10T13:01:33Z</time>
      </trkpt>
      <trkpt lat="45.19189" lon="5.70686">
        <ele>214.28</ele>
        <time>2018-11-10T13:01:34Z</time>
      </trkpt>
      <trkpt lat="45.19174" lon="5.70656">
        <ele>216.59</ele>
        <time>2018-11-10T13:01:36Z</time>
      </trkpt>
      <trkpt lat="45.1916" lon="5.70633">
        <ele>217.01</ele>
        <time>2018-11-10T13:01:38Z</time>
      </trkpt>
      <trkpt lat="45.19147" lon="5.7061">
        <ele>216.43</ele>
        <time>2018-11-10T13:01:42Z</time>
      </trkpt>
      <trkpt lat="45.19146" lon="5.70574">
        <ele>216.05</ele>
        <time>2018-11-10T13:01:47Z</time>
      </trkpt>
      <trkpt lat="45.19163" lon="5.7056">
        <ele>215.35</ele>
        <time>2018-11-10T13:01:48Z</time>
      </trkpt>
      <trkpt lat="45.19178" lon="5.70539">
        <ele>215.99</ele>
        <time>2018-11-10T13:01:50Z</time>
      </trkpt>
      <trkpt lat="45.1919" lon="5.70508">
        <ele>217.44</ele>
        <time>2018-11-10T13:01:52Z</time>
      </trkpt>
      <trkpt lat="45.19203" lon="5.70482">
        <ele>217.08</ele>
        <time>2018-11-10T13:01:54Z</time>
      </trkpt>
      <trkpt lat="45.19218" lon="5.70453">
        <ele>217.26</ele>
        <time>2018-11-10T13:01:56Z</time>
      </trkpt>
      <trkpt lat="45.19234" lon="5.70421">
        <ele>217.28</ele>
        <time>2018-11-10T13:01:58Z</time>
      </trkpt>
      <trkpt lat="45.19241" lon="5.70392">
        <ele>218.89</ele>
        <time>2018-11-10T13:02:00Z</time>
      </trkpt>
      <trkpt lat="45.19249" lon="5.70366">
        <ele>220.43</ele>
        <time>2018-11-10T13:02:02Z</time>
      </trkpt>
      <trkpt lat="45.19245" lon="5.70336">
        <ele>221.31</ele>
        <time>2018-11-10T13:02:05Z</time>
      </trkpt>
      <trkpt lat="45.19245" lon="5.70297">
        <ele>220.15</ele>
        <time>2018-11-10T13:02:08Z</time>
      </trkpt>
      <trkpt lat="45.1924" lon="5.7027">
        <ele>220.06</ele>
        <time>2018-11-10T13:02:10Z</time>
      </trkpt>
      <trkpt lat="45.19215" lon="5.70252">
        <ele>218.17</ele>
        <time>2018-11-10T13:02:13Z</time>
      </trkpt>
      <trkpt lat="45.19184" lon="5.70254">
        <ele>216.24</ele>
        <time>2018-11-10T13:02:15Z</time>
      </trkpt>
      <trkpt lat="45.19164" lon="5.7026">
        <ele>216.11</ele>
        <time>2018-11-10T13:02:16Z</time>
      </trkpt>
      <trkpt lat="45.19145" lon="5.70262">
        <ele>216.07</ele>
        <time>2018-11-10T13:02:17Z</time>
      </trkpt>
      <trkpt lat="45.19124" lon="5.70263">
        <ele>216.05</ele>
        <time>2018-11-10T13:02:18Z</time>
      </trkpt>
      <trkpt lat="45.19103" lon="5.70265">
        <ele>215.35</ele>
        <time>2018-11-10T13:02:19Z</time>
      </trkpt>
      <trkpt lat="45.19083" lon="5.70266">
        <ele>215.14</ele>
        <time>2018-11-10T13:02:20Z</time>
      </trkpt>
      <trkpt lat="45.19062" lon="5.70267">
        <ele>214.38</ele>
        <time>2018-11-10T13:02:21Z</time>
      </trkpt>
      <trkpt lat="45.1904" lon="5.70267">
        <ele>214.15</ele>
        <time>2018-11-10T13:02:22Z</time>
      </trkpt>
      <trkpt lat="45.19019" lon="5.70268">
        <ele>214.08</ele>
        <time>2018-11-10T13:02:23Z</time>
      </trkpt>
      <trkpt lat="45.18999" lon="5.70271">
        <ele>214.06</ele>
        <time>2018-11-10T13:02:24Z</time>
      </trkpt>
      <trkpt lat="45.18977" lon="5.70266">
        <ele>214.05</ele>
        <time>2018-11-10T13:02:25Z</time>
      </trkpt>
      <trkpt lat="45.18958" lon="5.70269">
        <ele>214.75</ele>
        <time>2018-11-10T13:02:26Z</time>
      </trkpt>
      <trkpt lat="45.18939" lon="5.70267">
        <ele>213.56</ele>
        <time>2018-11-10T13:02:27Z</time>
      </trkpt>
      <trkpt lat="45.18917" lon="5.70264">
        <ele>213.9</ele>
        <time>2018-11-10T13:02:28Z</time>
      </trkpt>
      <trkpt lat="45.18897" lon="5.70264">
        <ele>212.6</ele>
        <time>2018-11-10T13:02:29Z</time>
      </trkpt>
      <trkpt lat="45.18873" lon="5.70266">
        <ele>213.62</ele>
        <time>2018-11-10T13:02:30Z</time>
      </trkpt>
      <trkpt lat="45.18848" lon="5.70263">
        <ele>213.22</ele>
        <time>2018-11-10T13:02:31Z</time>
      </trkpt>
      <trkpt lat="45.18824" lon="5.70262">
        <ele>213.8</ele>
        <time>2018-11-10T13:02:32Z</time>
      </trkpt>
      <trkpt lat="45.18804" lon="5.70268">
        <ele>214.67</ele>
        <time>2018-11-10T13:02:33Z</time>
      </trkpt>
      <trkpt lat="45.18779" lon="5.70268">
        <ele>214.94</ele>
        <time>2018-11-10T13:02:34Z</time>
      </trkpt>
      <trkpt lat="45.18761" lon="5.70268">
        <ele>214.32</ele>
        <time>2018-11-10T13:02:35Z</time>
      </trkpt>
      <trkpt lat="45.18743" lon="5.70276">
        <ele>212.03</ele>
        <time>2018-11-10T13:02:36Z</time>
      </trkpt>
      <trkpt lat="45.18724" lon="5.70277">
        <ele>210.64</ele>
        <time>2018-11-10T13:02:37Z</time>
      </trkpt>
      <trkpt lat="45.18698" lon="5.70273">
        <ele>211.63</ele>
        <time>2018-11-10T13:02:38Z</time>
      </trkpt>
      <trkpt lat="45.18677" lon="5.70271">
        <ele>210.52</ele>
        <time>2018-11-10T13:02:39Z</time>
      </trkpt>
      <trkpt lat="45.18655" lon="5.7027">
        <ele>209.49</ele>
        <time>2018-11-10T13:02:40Z</time>
      </trkpt>
      <trkpt lat="45.18631" lon="5.70266">
        <ele>210.58</ele>
        <time>2018-11-10T13:02:41Z</time>
      </trkpt>
      <trkpt lat="45.18607" lon="5.70265">
        <ele>210.91</ele>
        <time>2018-11-10T13:02:42Z</time>
      </trkpt>
      <trkpt lat="45.18584" lon="5.70264">
        <ele>211.01</ele>
        <time>2018-11-10T13:02:43Z</time>
      </trkpt>
      <trkpt lat="45.1856" lon="5.70263">
        <ele>211.74</ele>
        <time>2018-11-10T13:02:44Z</time>
      </trkpt>
      <trkpt lat="45.18537" lon="5.70261">
        <ele>212.66</ele>
        <time>2018-11-10T13:02:45Z</time>
      </trkpt>
      <trkpt lat="45.18514" lon="5.70261">
        <ele>214.33</ele>
        <time>2018-11-10T13:02:46Z</time>
      </trkpt>
      <trkpt lat="45.18491" lon="5.70259">
        <ele>214.83</ele>
        <time>2018-11-10T13:02:47Z</time>
      </trkpt>
      <trkpt lat="45.18468" lon="5.70259">
        <ele>213.58</ele>
        <time>2018-11-10T13:02:48Z</time>
      </trkpt>
      <trkpt lat="45.18445" lon="5.70258">
        <ele>213.21</ele>
        <time>2018-11-10T13:02:49Z</time>
      </trkpt>
      <trkpt lat="45.18424" lon="5.70258">
        <ele>213.1</ele>
        <time>2018-11-10T13:02:50Z</time>
      </trkpt>
      <trkpt lat="45.184" lon="5.70256">
        <ele>213.76</ele>
        <time>2018-11-10T13:02:51Z</time>
      </trkpt>
      <trkpt lat="45.18379" lon="5.70256">
        <ele>213.96</ele>
        <time>2018-11-10T13:02:52Z</time>
      </trkpt>
      <trkpt lat="45.18357" lon="5.70256">
        <ele>213.32</ele>
        <time>2018-11-10T13:02:53Z</time>
      </trkpt>
      <trkpt lat="45.18337" lon="5.70255">
        <ele>213.13</ele>
        <time>2018-11-10T13:02:54Z</time>
      </trkpt>
      <trkpt lat="45.18318" lon="5.70255">
        <ele>213.07</ele>
        <time>2018-11-10T13:02:55Z</time>
      </trkpt>
      <trkpt lat="45.18298" lon="5.70254">
        <ele>213.76</ele>
        <time>2018-11-10T13:02:56Z</time>
      </trkpt>
      <trkpt lat="45.18279" lon="5.70254">
        <ele>213.96</ele>
        <time>2018-11-10T13:02:57Z</time>
      </trkpt>
      <trkpt lat="45.1826" lon="5.70256">
        <ele>213.32</ele>
        <time>2018-11-10T13:02:58Z</time>
      </trkpt>
      <trkpt lat="45.18239" lon="5.70257">
        <ele>213.13</ele>
        <time>2018-11-10T13:02:59Z</time>
      </trkpt>
      <trkpt lat="45.1822" lon="5.70259">
        <ele>210.97</ele>
        <time>2018-11-10T13:03:00Z</time>
      </trkpt>
      <trkpt lat="45.18197" lon="5.70259">
        <ele>211.03</ele>
        <time>2018-11-10T13:03:01Z</time>
      </trkpt>
      <trkpt lat="45.18174" lon="5.70259">
        <ele>210.34</ele>
        <time>2018-11-10T13:03:02Z</time>
      </trkpt>
      <trkpt lat="45.18151" lon="5.70258">
        <ele>210.84</ele>
        <time>2018-11-10T13:03:03Z</time>
      </trkpt>
      <trkpt lat="45.18128" lon="5.70257">
        <ele>210.99</ele>
        <time>2018-11-10T13:03:04Z</time>
      </trkpt>
      <trkpt lat="45.18106" lon="5.70256">
        <ele>210.33</ele>
        <time>2018-11-10T13:03:05Z</time>
      </trkpt>
      <trkpt lat="45.18084" lon="5.70256">
        <ele>210.13</ele>
        <time>2018-11-10T13:03:06Z</time>
      </trkpt>
      <trkpt lat="45.18063" lon="5.70255">
        <ele>209.37</ele>
        <time>2018-11-10T13:03:07Z</time>
      </trkpt>
      <trkpt lat="45.18041" lon="5.70254">
        <ele>208.45</ele>
        <time>2018-11-10T13:03:08Z</time>
      </trkpt>
      <trkpt lat="45.1802" lon="5.70252">
        <ele>208.17</ele>
        <time>2018-11-10T13:03:09Z</time>
      </trkpt>
      <trkpt lat="45.17997" lon="5.70249">
        <ele>208.78</ele>
        <time>2018-11-10T13:03:10Z</time>
      </trkpt>
      <trkpt lat="45.17975" lon="5.70246">
        <ele>209.67</ele>
        <time>2018-11-10T13:03:11Z</time>
      </trkpt>
      <trkpt lat="45.17954" lon="5.70245">
        <ele>209.24</ele>
        <time>2018-11-10T13:03:12Z</time>
      </trkpt>
      <trkpt lat="45.17931" lon="5.70244">
        <ele>209.1</ele>
        <time>2018-11-10T13:03:13Z</time>
      </trkpt>
      <trkpt lat="45.17908" lon="5.70242">
        <ele>209.77</ele>
        <time>2018-11-10T13:03:14Z</time>
      </trkpt>
      <trkpt lat="45.17887" lon="5.70243">
        <ele>209.96</ele>
        <time>2018-11-10T13:03:15Z</time>
      </trkpt>
      <trkpt lat="45.17864" lon="5.70243">
        <ele>210.72</ele>
        <time>2018-11-10T13:03:16Z</time>
      </trkpt>
      <trkpt lat="45.17844" lon="5.70242">
        <ele>209.55</ele>
        <time>2018-11-10T13:03:17Z</time>
      </trkpt>
      <trkpt lat="45.17822" lon="5.70241">
        <ele>209.2</ele>
        <time>2018-11-10T13:03:18Z</time>
      </trkpt>
      <trkpt lat="45.178" lon="5.70239">
        <ele>208.39</ele>
        <time>2018-11-10T13:03:19Z</time>
      </trkpt>
      <trkpt lat="45.17778" lon="5.70237">
        <ele>208.15</ele>
        <time>2018-11-10T13:03:20Z</time>
      </trkpt>
      <trkpt lat="45.17756" lon="5.70237">
        <ele>208.08</ele>
        <time>2018-11-10T13:03:21Z</time>
      </trkpt>
      <trkpt lat="45.17734" lon="5.70234">
        <ele>209.46</ele>
        <time>2018-11-10T13:03:22Z</time>
      </trkpt>
      <trkpt lat="45.17711" lon="5.70232">
        <ele>209.87</ele>
        <time>2018-11-10T13:03:23Z</time>
      </trkpt>
      <trkpt lat="45.1769" lon="5.7023">
        <ele>210</ele>
        <time>2018-11-10T13:03:24Z</time>
      </trkpt>
      <trkpt lat="45.17668" lon="5.7023">
        <ele>209.33</ele>
        <time>2018-11-10T13:03:25Z</time>
      </trkpt>
      <trkpt lat="45.17646" lon="5.70227">
        <ele>209.13</ele>
        <time>2018-11-10T13:03:26Z</time>
      </trkpt>
      <trkpt lat="45.17624" lon="5.70226">
        <ele>209.07</ele>
        <time>2018-11-10T13:03:27Z</time>
      </trkpt>
      <trkpt lat="45.17604" lon="5.70228">
        <ele>207.66</ele>
        <time>2018-11-10T13:03:28Z</time>
      </trkpt>
      <trkpt lat="45.17581" lon="5.70226">
        <ele>207.23</ele>
        <time>2018-11-10T13:03:29Z</time>
      </trkpt>
      <trkpt lat="45.17559" lon="5.70225">
        <ele>207.1</ele>
        <time>2018-11-10T13:03:30Z</time>
      </trkpt>
      <trkpt lat="45.17536" lon="5.70225">
        <ele>206.37</ele>
        <time>2018-11-10T13:03:31Z</time>
      </trkpt>
      <trkpt lat="45.17514" lon="5.70225">
        <ele>206.14</ele>
        <time>2018-11-10T13:03:32Z</time>
      </trkpt>
      <trkpt lat="45.17493" lon="5.70226">
        <ele>206.08</ele>
        <time>2018-11-10T13:03:33Z</time>
      </trkpt>
      <trkpt lat="45.17469" lon="5.70224">
        <ele>206.76</ele>
        <time>2018-11-10T13:03:34Z</time>
      </trkpt>
      <trkpt lat="45.17446" lon="5.70222">
        <ele>208.36</ele>
        <time>2018-11-10T13:03:35Z</time>
      </trkpt>
      <trkpt lat="45.17423" lon="5.70221">
        <ele>209.54</ele>
        <time>2018-11-10T13:03:36Z</time>
      </trkpt>
      <trkpt lat="45.17401" lon="5.7022">
        <ele>210.6</ele>
        <time>2018-11-10T13:03:37Z</time>
      </trkpt>
      <trkpt lat="45.17378" lon="5.7022">
        <ele>210.91</ele>
        <time>2018-11-10T13:03:38Z</time>
      </trkpt>
      <trkpt lat="45.17355" lon="5.70217">
        <ele>212.41</ele>
        <time>2018-11-10T13:03:39Z</time>
      </trkpt>
      <trkpt lat="45.17333" lon="5.70216">
        <ele>212.16</ele>
        <time>2018-11-10T13:03:40Z</time>
      </trkpt>
      <trkpt lat="45.17311" lon="5.70215">
        <ele>212.08</ele>
        <time>2018-11-10T13:03:41Z</time>
      </trkpt>
      <trkpt lat="45.17287" lon="5.70213">
        <ele>212.76</ele>
        <time>2018-11-10T13:03:42Z</time>
      </trkpt>
      <trkpt lat="45.17263" lon="5.70212">
        <ele>213.66</ele>
        <time>2018-11-10T13:03:43Z</time>
      </trkpt>
      <trkpt lat="45.17241" lon="5.70211">
        <ele>215.33</ele>
        <time>2018-11-10T13:03:44Z</time>
      </trkpt>
      <trkpt lat="45.17218" lon="5.7021">
        <ele>215.83</ele>
        <time>2018-11-10T13:03:45Z</time>
      </trkpt>
      <trkpt lat="45.17195" lon="5.7021">
        <ele>215.98</ele>
        <time>2018-11-10T13:03:46Z</time>
      </trkpt>
      <trkpt lat="45.17173" lon="5.70208">
        <ele>215.33</ele>
        <time>2018-11-10T13:03:47Z</time>
      </trkpt>
      <trkpt lat="45.17151" lon="5.70208">
        <ele>215.13</ele>
        <time>2018-11-10T13:03:48Z</time>
      </trkpt>
      <trkpt lat="45.17128" lon="5.70206">
        <ele>215.07</ele>
        <time>2018-11-10T13:03:49Z</time>
      </trkpt>
      <trkpt lat="45.17105" lon="5.70204">
        <ele>215.76</ele>
        <time>2018-11-10T13:03:50Z</time>
      </trkpt>
      <trkpt lat="45.17082" lon="5.70203">
        <ele>215.96</ele>
        <time>2018-11-10T13:03:51Z</time>
      </trkpt>
      <trkpt lat="45.1706" lon="5.70201">
        <ele>216.72</ele>
        <time>2018-11-10T13:03:52Z</time>
      </trkpt>
      <trkpt lat="45.17038" lon="5.702">
        <ele>216.25</ele>
        <time>2018-11-10T13:03:53Z</time>
      </trkpt>
      <trkpt lat="45.17016" lon="5.702">
        <ele>216.11</ele>
        <time>2018-11-10T13:03:54Z</time>
      </trkpt>
      <trkpt lat="45.16994" lon="5.702">
        <ele>215.37</ele>
        <time>2018-11-10T13:03:55Z</time>
      </trkpt>
      <trkpt lat="45.16971" lon="5.70199">
        <ele>215.14</ele>
        <time>2018-11-10T13:03:56Z</time>
      </trkpt>
      <trkpt lat="45.16948" lon="5.70197">
        <ele>215.78</ele>
        <time>2018-11-10T13:03:57Z</time>
      </trkpt>
      <trkpt lat="45.16925" lon="5.70195">
        <ele>215.97</ele>
        <time>2018-11-10T13:03:58Z</time>
      </trkpt>
      <trkpt lat="45.16903" lon="5.70193">
        <ele>216.02</ele>
        <time>2018-11-10T13:03:59Z</time>
      </trkpt>
      <trkpt lat="45.1688" lon="5.70192">
        <ele>216.74</ele>
        <time>2018-11-10T13:04:00Z</time>
      </trkpt>
      <trkpt lat="45.16858" lon="5.70191">
        <ele>216.96</ele>
        <time>2018-11-10T13:04:01Z</time>
      </trkpt>
      <trkpt lat="45.16836" lon="5.7019">
        <ele>217.02</ele>
        <time>2018-11-10T13:04:02Z</time>
      </trkpt>
      <trkpt lat="45.16813" lon="5.70189">
        <ele>217.04</ele>
        <time>2018-11-10T13:04:03Z</time>
      </trkpt>
      <trkpt lat="45.1679" lon="5.70188">
        <ele>217.05</ele>
        <time>2018-11-10T13:04:04Z</time>
      </trkpt>
      <trkpt lat="45.16769" lon="5.70187">
        <ele>215.65</ele>
        <time>2018-11-10T13:04:05Z</time>
      </trkpt>
      <trkpt lat="45.16745" lon="5.70186">
        <ele>215.93</ele>
        <time>2018-11-10T13:04:06Z</time>
      </trkpt>
      <trkpt lat="45.16724" lon="5.70186">
        <ele>215.31</ele>
        <time>2018-11-10T13:04:07Z</time>
      </trkpt>
      <trkpt lat="45.16702" lon="5.70186">
        <ele>215.13</ele>
        <time>2018-11-10T13:04:08Z</time>
      </trkpt>
      <trkpt lat="45.16679" lon="5.70185">
        <ele>215.07</ele>
        <time>2018-11-10T13:04:09Z</time>
      </trkpt>
      <trkpt lat="45.16653" lon="5.70182">
        <ele>216.46</ele>
        <time>2018-11-10T13:04:10Z</time>
      </trkpt>
      <trkpt lat="45.16631" lon="5.70181">
        <ele>216.87</ele>
        <time>2018-11-10T13:04:11Z</time>
      </trkpt>
      <trkpt lat="45.16607" lon="5.70178">
        <ele>217.7</ele>
        <time>2018-11-10T13:04:12Z</time>
      </trkpt>
      <trkpt lat="45.16582" lon="5.70177">
        <ele>218.64</ele>
        <time>2018-11-10T13:04:13Z</time>
      </trkpt>
      <trkpt lat="45.16559" lon="5.70174">
        <ele>219.63</ele>
        <time>2018-11-10T13:04:14Z</time>
      </trkpt>
      <trkpt lat="45.16538" lon="5.70175">
        <ele>218.52</ele>
        <time>2018-11-10T13:04:15Z</time>
      </trkpt>
      <trkpt lat="45.16514" lon="5.70175">
        <ele>217.49</ele>
        <time>2018-11-10T13:04:16Z</time>
      </trkpt>
      <trkpt lat="45.16491" lon="5.70173">
        <ele>217.18</ele>
        <time>2018-11-10T13:04:17Z</time>
      </trkpt>
      <trkpt lat="45.16468" lon="5.70173">
        <ele>216.39</ele>
        <time>2018-11-10T13:04:18Z</time>
      </trkpt>
      <trkpt lat="45.16441" lon="5.70171">
        <ele>215.45</ele>
        <time>2018-11-10T13:04:19Z</time>
      </trkpt>
      <trkpt lat="45.16416" lon="5.70164">
        <ele>215.17</ele>
        <time>2018-11-10T13:04:20Z</time>
      </trkpt>
      <trkpt lat="45.16391" lon="5.70163">
        <ele>214.39</ele>
        <time>2018-11-10T13:04:21Z</time>
      </trkpt>
      <trkpt lat="45.16366" lon="5.70159">
        <ele>215.55</ele>
        <time>2018-11-10T13:04:22Z</time>
      </trkpt>
      <trkpt lat="45.16344" lon="5.70158">
        <ele>217.3</ele>
        <time>2018-11-10T13:04:23Z</time>
      </trkpt>
      <trkpt lat="45.16321" lon="5.70158">
        <ele>217.82</ele>
        <time>2018-11-10T13:04:24Z</time>
      </trkpt>
      <trkpt lat="45.16301" lon="5.70156">
        <ele>218.68</ele>
        <time>2018-11-10T13:04:25Z</time>
      </trkpt>
      <trkpt lat="45.1628" lon="5.70155">
        <ele>219.64</ele>
        <time>2018-11-10T13:04:26Z</time>
      </trkpt>
      <trkpt lat="45.16261" lon="5.70153">
        <ele>219.93</ele>
        <time>2018-11-10T13:04:27Z</time>
      </trkpt>
      <trkpt lat="45.16241" lon="5.70151">
        <ele>220.71</ele>
        <time>2018-11-10T13:04:28Z</time>
      </trkpt>
      <trkpt lat="45.16221" lon="5.70147">
        <ele>221.65</ele>
        <time>2018-11-10T13:04:29Z</time>
      </trkpt>
      <trkpt lat="45.16203" lon="5.70143">
        <ele>221.93</ele>
        <time>2018-11-10T13:04:30Z</time>
      </trkpt>
      <trkpt lat="45.16185" lon="5.70139">
        <ele>222.71</ele>
        <time>2018-11-10T13:04:31Z</time>
      </trkpt>
      <trkpt lat="45.1615" lon="5.70125">
        <ele>221.9</ele>
        <time>2018-11-10T13:04:33Z</time>
      </trkpt>
      <trkpt lat="45.16133" lon="5.70117">
        <ele>221.3</ele>
        <time>2018-11-10T13:04:34Z</time>
      </trkpt>
      <trkpt lat="45.16115" lon="5.70107">
        <ele>220.43</ele>
        <time>2018-11-10T13:04:35Z</time>
      </trkpt>
      <trkpt lat="45.16097" lon="5.70099">
        <ele>218.76</ele>
        <time>2018-11-10T13:04:36Z</time>
      </trkpt>
      <trkpt lat="45.16078" lon="5.70084">
        <ele>218.26</ele>
        <time>2018-11-10T13:04:37Z</time>
      </trkpt>
      <trkpt lat="45.16059" lon="5.70073">
        <ele>219.51</ele>
        <time>2018-11-10T13:04:38Z</time>
      </trkpt>
      <trkpt lat="45.16025" lon="5.70057">
        <ele>221.61</ele>
        <time>2018-11-10T13:04:40Z</time>
      </trkpt>
      <trkpt lat="45.15994" lon="5.70043">
        <ele>223.62</ele>
        <time>2018-11-10T13:04:42Z</time>
      </trkpt>
      <trkpt lat="45.15965" lon="5.70035">
        <ele>224.22</ele>
        <time>2018-11-10T13:04:44Z</time>
      </trkpt>
      <trkpt lat="45.15936" lon="5.70021">
        <ele>224.27</ele>
        <time>2018-11-10T13:04:46Z</time>
      </trkpt>
      <trkpt lat="45.15909" lon="5.7001">
        <ele>223.37</ele>
        <time>2018-11-10T13:04:48Z</time>
      </trkpt>
      <trkpt lat="45.15883" lon="5.7">
        <ele>222.38</ele>
        <time>2018-11-10T13:04:50Z</time>
      </trkpt>
      <trkpt lat="45.15862" lon="5.69994">
        <ele>222.99</ele>
        <time>2018-11-10T13:04:52Z</time>
      </trkpt>
      <trkpt lat="45.15838" lon="5.69991">
        <ele>224.86</ele>
        <time>2018-11-10T13:04:54Z</time>
      </trkpt>
      <trkpt lat="45.15816" lon="5.69992">
        <ele>224.82</ele>
        <time>2018-11-10T13:04:56Z</time>
      </trkpt>
      <trkpt lat="45.15797" lon="5.7">
        <ele>223.91</ele>
        <time>2018-11-10T13:04:58Z</time>
      </trkpt>
      <trkpt lat="45.15779" lon="5.70011">
        <ele>225.86</ele>
        <time>2018-11-10T13:05:00Z</time>
      </trkpt>
      <trkpt lat="45.15764" lon="5.70028">
        <ele>226.94</ele>
        <time>2018-11-10T13:05:02Z</time>
      </trkpt>
      <trkpt lat="45.15745" lon="5.70055">
        <ele>228.93</ele>
        <time>2018-11-10T13:05:05Z</time>
      </trkpt>
      <trkpt lat="45.15744" lon="5.70088">
        <ele>231.35</ele>
        <time>2018-11-10T13:05:07Z</time>
      </trkpt>
      <trkpt lat="45.15748" lon="5.70125">
        <ele>232.9</ele>
        <time>2018-11-10T13:05:09Z</time>
      </trkpt>
      <trkpt lat="45.15765" lon="5.70156">
        <ele>232.13</ele>
        <time>2018-11-10T13:05:11Z</time>
      </trkpt>
      <trkpt lat="45.15779" lon="5.70191">
        <ele>232.06</ele>
        <time>2018-11-10T13:05:13Z</time>
      </trkpt>
      <trkpt lat="45.158" lon="5.7022">
        <ele>230.93</ele>
        <time>2018-11-10T13:05:15Z</time>
      </trkpt>
      <trkpt lat="45.15819" lon="5.70256">
        <ele>231.04</ele>
        <time>2018-11-10T13:05:17Z</time>
      </trkpt>
      <trkpt lat="45.15833" lon="5.70293">
        <ele>231.05</ele>
        <time>2018-11-10T13:05:19Z</time>
      </trkpt>
      <trkpt lat="45.15847" lon="5.70333">
        <ele>231.96</ele>
        <time>2018-11-10T13:05:21Z</time>
      </trkpt>
      <trkpt lat="45.15861" lon="5.7038">
        <ele>232.25</ele>
        <time>2018-11-10T13:05:23Z</time>
      </trkpt>
      <trkpt lat="45.15861" lon="5.70406">
        <ele>232.81</ele>
        <time>2018-11-10T13:05:24Z</time>
      </trkpt>
      <trkpt lat="45.15857" lon="5.70433">
        <ele>233.68</ele>
        <time>2018-11-10T13:05:25Z</time>
      </trkpt>
      <trkpt lat="45.15862" lon="5.70471">
        <ele>232.2</ele>
        <time>2018-11-10T13:05:27Z</time>
      </trkpt>
      <trkpt lat="45.15863" lon="5.70515">
        <ele>232.27</ele>
        <time>2018-11-10T13:05:29Z</time>
      </trkpt>
      <trkpt lat="45.15866" lon="5.70552">
        <ele>232.82</ele>
        <time>2018-11-10T13:05:30Z</time>
      </trkpt>
      <trkpt lat="45.15867" lon="5.70588">
        <ele>232.98</ele>
        <time>2018-11-10T13:05:31Z</time>
      </trkpt>
      <trkpt lat="45.15869" lon="5.70616">
        <ele>231.63</ele>
        <time>2018-11-10T13:05:32Z</time>
      </trkpt>
      <trkpt lat="45.15868" lon="5.70648">
        <ele>231.22</ele>
        <time>2018-11-10T13:05:33Z</time>
      </trkpt>
      <trkpt lat="45.15867" lon="5.7068">
        <ele>231.1</ele>
        <time>2018-11-10T13:05:34Z</time>
      </trkpt>
      <trkpt lat="45.15868" lon="5.70712">
        <ele>231.76</ele>
        <time>2018-11-10T13:05:35Z</time>
      </trkpt>
      <trkpt lat="45.15866" lon="5.70743">
        <ele>232.66</ele>
        <time>2018-11-10T13:05:36Z</time>
      </trkpt>
      <trkpt lat="45.15867" lon="5.7077">
        <ele>230.83</ele>
        <time>2018-11-10T13:05:37Z</time>
      </trkpt>
      <trkpt lat="45.15865" lon="5.70801">
        <ele>230.98</ele>
        <time>2018-11-10T13:05:38Z</time>
      </trkpt>
      <trkpt lat="45.15862" lon="5.70833">
        <ele>231.03</ele>
        <time>2018-11-10T13:05:39Z</time>
      </trkpt>
      <trkpt lat="45.15859" lon="5.70862">
        <ele>228.94</ele>
        <time>2018-11-10T13:05:40Z</time>
      </trkpt>
      <trkpt lat="45.15857" lon="5.70892">
        <ele>228.32</ele>
        <time>2018-11-10T13:05:41Z</time>
      </trkpt>
      <trkpt lat="45.15854" lon="5.70922">
        <ele>228.13</ele>
        <time>2018-11-10T13:05:42Z</time>
      </trkpt>
      <trkpt lat="45.15849" lon="5.70951">
        <ele>227.37</ele>
        <time>2018-11-10T13:05:43Z</time>
      </trkpt>
      <trkpt lat="45.1584" lon="5.7098">
        <ele>227.15</ele>
        <time>2018-11-10T13:05:44Z</time>
      </trkpt>
      <trkpt lat="45.15834" lon="5.71005">
        <ele>225.68</ele>
        <time>2018-11-10T13:05:45Z</time>
      </trkpt>
      <trkpt lat="45.15825" lon="5.71033">
        <ele>225.24</ele>
        <time>2018-11-10T13:05:46Z</time>
      </trkpt>
      <trkpt lat="45.15813" lon="5.71061">
        <ele>225.11</ele>
        <time>2018-11-10T13:05:47Z</time>
      </trkpt>
      <trkpt lat="45.15793" lon="5.71106">
        <ele>221.62</ele>
        <time>2018-11-10T13:05:49Z</time>
      </trkpt>
      <trkpt lat="45.15779" lon="5.71132">
        <ele>221.22</ele>
        <time>2018-11-10T13:05:50Z</time>
      </trkpt>
      <trkpt lat="45.15767" lon="5.71156">
        <ele>221.1</ele>
        <time>2018-11-10T13:05:51Z</time>
      </trkpt>
      <trkpt lat="45.15752" lon="5.71179">
        <ele>221.76</ele>
        <time>2018-11-10T13:05:52Z</time>
      </trkpt>
      <trkpt lat="45.15738" lon="5.71199">
        <ele>220.56</ele>
        <time>2018-11-10T13:05:53Z</time>
      </trkpt>
      <trkpt lat="45.15722" lon="5.7122">
        <ele>220.2</ele>
        <time>2018-11-10T13:05:54Z</time>
      </trkpt>
      <trkpt lat="45.15705" lon="5.7124">
        <ele>222.2</ele>
        <time>2018-11-10T13:05:55Z</time>
      </trkpt>
      <trkpt lat="45.15689" lon="5.71258">
        <ele>222.79</ele>
        <time>2018-11-10T13:05:56Z</time>
      </trkpt>
      <trkpt lat="45.15672" lon="5.71276">
        <ele>222.97</ele>
        <time>2018-11-10T13:05:57Z</time>
      </trkpt>
      <trkpt lat="45.15654" lon="5.71292">
        <ele>223.03</ele>
        <time>2018-11-10T13:05:58Z</time>
      </trkpt>
      <trkpt lat="45.15636" lon="5.71308">
        <ele>222.34</ele>
        <time>2018-11-10T13:05:59Z</time>
      </trkpt>
      <trkpt lat="45.15617" lon="5.71323">
        <ele>222.84</ele>
        <time>2018-11-10T13:06:00Z</time>
      </trkpt>
      <trkpt lat="45.15598" lon="5.71338">
        <ele>222.99</ele>
        <time>2018-11-10T13:06:01Z</time>
      </trkpt>
      <trkpt lat="45.15579" lon="5.71354">
        <ele>223.73</ele>
        <time>2018-11-10T13:06:02Z</time>
      </trkpt>
      <trkpt lat="45.15562" lon="5.71369">
        <ele>222.55</ele>
        <time>2018-11-10T13:06:03Z</time>
      </trkpt>
      <trkpt lat="45.15544" lon="5.71384">
        <ele>222.9</ele>
        <time>2018-11-10T13:06:04Z</time>
      </trkpt>
      <trkpt lat="45.15525" lon="5.714">
        <ele>223</ele>
        <time>2018-11-10T13:06:05Z</time>
      </trkpt>
      <trkpt lat="45.15508" lon="5.71417">
        <ele>223.04</ele>
        <time>2018-11-10T13:06:06Z</time>
      </trkpt>
      <trkpt lat="45.1549" lon="5.71435">
        <ele>223.74</ele>
        <time>2018-11-10T13:06:07Z</time>
      </trkpt>
      <trkpt lat="45.15474" lon="5.71456">
        <ele>223.26</ele>
        <time>2018-11-10T13:06:08Z</time>
      </trkpt>
      <trkpt lat="45.15457" lon="5.71476">
        <ele>223.11</ele>
        <time>2018-11-10T13:06:09Z</time>
      </trkpt>
      <trkpt lat="45.15439" lon="5.71497">
        <ele>223.07</ele>
        <time>2018-11-10T13:06:10Z</time>
      </trkpt>
      <trkpt lat="45.15422" lon="5.71517">
        <ele>223.75</ele>
        <time>2018-11-10T13:06:11Z</time>
      </trkpt>
      <trkpt lat="45.15405" lon="5.71535">
        <ele>222.56</ele>
        <time>2018-11-10T13:06:12Z</time>
      </trkpt>
      <trkpt lat="45.15388" lon="5.71557">
        <ele>222.9</ele>
        <time>2018-11-10T13:06:13Z</time>
      </trkpt>
      <trkpt lat="45.15369" lon="5.71578">
        <ele>223.71</ele>
        <time>2018-11-10T13:06:14Z</time>
      </trkpt>
      <trkpt lat="45.15351" lon="5.71599">
        <ele>224.65</ele>
        <time>2018-11-10T13:06:15Z</time>
      </trkpt>
      <trkpt lat="45.15334" lon="5.71619">
        <ele>225.63</ele>
        <time>2018-11-10T13:06:16Z</time>
      </trkpt>
      <trkpt lat="45.15317" lon="5.7164">
        <ele>226.62</ele>
        <time>2018-11-10T13:06:17Z</time>
      </trkpt>
      <trkpt lat="45.15301" lon="5.71662">
        <ele>226.22</ele>
        <time>2018-11-10T13:06:18Z</time>
      </trkpt>
      <trkpt lat="45.15286" lon="5.71683">
        <ele>226.1</ele>
        <time>2018-11-10T13:06:19Z</time>
      </trkpt>
      <trkpt lat="45.15273" lon="5.71705">
        <ele>225.36</ele>
        <time>2018-11-10T13:06:20Z</time>
      </trkpt>
      <trkpt lat="45.1526" lon="5.71727">
        <ele>225.14</ele>
        <time>2018-11-10T13:06:21Z</time>
      </trkpt>
      <trkpt lat="45.15248" lon="5.71751">
        <ele>224.38</ele>
        <time>2018-11-10T13:06:22Z</time>
      </trkpt>
      <trkpt lat="45.15235" lon="5.7178">
        <ele>224.15</ele>
        <time>2018-11-10T13:06:23Z</time>
      </trkpt>
      <trkpt lat="45.15222" lon="5.71808">
        <ele>224.08</ele>
        <time>2018-11-10T13:06:24Z</time>
      </trkpt>
      <trkpt lat="45.15213" lon="5.71835">
        <ele>224.06</ele>
        <time>2018-11-10T13:06:25Z</time>
      </trkpt>
      <trkpt lat="45.15206" lon="5.71861">
        <ele>223.35</ele>
        <time>2018-11-10T13:06:26Z</time>
      </trkpt>
      <trkpt lat="45.15199" lon="5.71895">
        <ele>223.14</ele>
        <time>2018-11-10T13:06:27Z</time>
      </trkpt>
      <trkpt lat="45.15191" lon="5.71926">
        <ele>223.08</ele>
        <time>2018-11-10T13:06:28Z</time>
      </trkpt>
      <trkpt lat="45.15183" lon="5.71957">
        <ele>222.36</ele>
        <time>2018-11-10T13:06:29Z</time>
      </trkpt>
      <trkpt lat="45.15184" lon="5.71983">
        <ele>220.04</ele>
        <time>2018-11-10T13:06:30Z</time>
      </trkpt>
      <trkpt lat="45.15178" lon="5.72016">
        <ele>219.35</ele>
        <time>2018-11-10T13:06:31Z</time>
      </trkpt>
      <trkpt lat="45.15173" lon="5.72041">
        <ele>216.34</ele>
        <time>2018-11-10T13:06:32Z</time>
      </trkpt>
      <trkpt lat="45.15166" lon="5.72073">
        <ele>214.74</ele>
        <time>2018-11-10T13:06:33Z</time>
      </trkpt>
      <trkpt lat="45.15162" lon="5.72102">
        <ele>214.96</ele>
        <time>2018-11-10T13:06:34Z</time>
      </trkpt>
      <trkpt lat="45.15154" lon="5.72133">
        <ele>215.02</ele>
        <time>2018-11-10T13:06:35Z</time>
      </trkpt>
      <trkpt lat="45.15149" lon="5.72162">
        <ele>213.64</ele>
        <time>2018-11-10T13:06:36Z</time>
      </trkpt>
      <trkpt lat="45.15143" lon="5.72195">
        <ele>213.23</ele>
        <time>2018-11-10T13:06:37Z</time>
      </trkpt>
      <trkpt lat="45.15136" lon="5.72227">
        <ele>213.1</ele>
        <time>2018-11-10T13:06:38Z</time>
      </trkpt>
      <trkpt lat="45.15131" lon="5.72259">
        <ele>212.36</ele>
        <time>2018-11-10T13:06:39Z</time>
      </trkpt>
      <trkpt lat="45.15126" lon="5.72292">
        <ele>211.44</ele>
        <time>2018-11-10T13:06:40Z</time>
      </trkpt>
      <trkpt lat="45.1512" lon="5.72324">
        <ele>211.87</ele>
        <time>2018-11-10T13:06:41Z</time>
      </trkpt>
      <trkpt lat="45.15114" lon="5.72355">
        <ele>212.69</ele>
        <time>2018-11-10T13:06:42Z</time>
      </trkpt>
      <trkpt lat="45.15111" lon="5.72386">
        <ele>211.54</ele>
        <time>2018-11-10T13:06:43Z</time>
      </trkpt>
      <trkpt lat="45.15106" lon="5.72419">
        <ele>212.6</ele>
        <time>2018-11-10T13:06:44Z</time>
      </trkpt>
      <trkpt lat="45.151" lon="5.72451">
        <ele>213.61</ele>
        <time>2018-11-10T13:06:45Z</time>
      </trkpt>
      <trkpt lat="45.15095" lon="5.72481">
        <ele>213.22</ele>
        <time>2018-11-10T13:06:46Z</time>
      </trkpt>
      <trkpt lat="45.15091" lon="5.7251">
        <ele>213.1</ele>
        <time>2018-11-10T13:06:47Z</time>
      </trkpt>
      <trkpt lat="45.15088" lon="5.72543">
        <ele>214.46</ele>
        <time>2018-11-10T13:06:48Z</time>
      </trkpt>
      <trkpt lat="45.15084" lon="5.72576">
        <ele>215.57</ele>
        <time>2018-11-10T13:06:49Z</time>
      </trkpt>
      <trkpt lat="45.1508" lon="5.7261">
        <ele>216.61</ele>
        <time>2018-11-10T13:06:50Z</time>
      </trkpt>
      <trkpt lat="45.15076" lon="5.72642">
        <ele>217.62</ele>
        <time>2018-11-10T13:06:51Z</time>
      </trkpt>
      <trkpt lat="45.15073" lon="5.72675">
        <ele>219.32</ele>
        <time>2018-11-10T13:06:52Z</time>
      </trkpt>
      <trkpt lat="45.15071" lon="5.72706">
        <ele>219.13</ele>
        <time>2018-11-10T13:06:53Z</time>
      </trkpt>
      <trkpt lat="45.15068" lon="5.72737">
        <ele>219.07</ele>
        <time>2018-11-10T13:06:54Z</time>
      </trkpt>
      <trkpt lat="45.15066" lon="5.72769">
        <ele>219.76</ele>
        <time>2018-11-10T13:06:55Z</time>
      </trkpt>
      <trkpt lat="45.15066" lon="5.728">
        <ele>218.56</ele>
        <time>2018-11-10T13:06:56Z</time>
      </trkpt>
      <trkpt lat="45.15063" lon="5.7283">
        <ele>218.2</ele>
        <time>2018-11-10T13:06:57Z</time>
      </trkpt>
      <trkpt lat="45.15061" lon="5.72862">
        <ele>219.5</ele>
        <time>2018-11-10T13:06:58Z</time>
      </trkpt>
      <trkpt lat="45.15061" lon="5.72894">
        <ele>219.88</ele>
        <time>2018-11-10T13:06:59Z</time>
      </trkpt>
      <trkpt lat="45.15062" lon="5.72925">
        <ele>219.3</ele>
        <time>2018-11-10T13:07:00Z</time>
      </trkpt>
      <trkpt lat="45.15062" lon="5.72955">
        <ele>219.12</ele>
        <time>2018-11-10T13:07:01Z</time>
      </trkpt>
      <trkpt lat="45.15065" lon="5.72986">
        <ele>216.97</ele>
        <time>2018-11-10T13:07:02Z</time>
      </trkpt>
      <trkpt lat="45.15064" lon="5.73018">
        <ele>216.33</ele>
        <time>2018-11-10T13:07:03Z</time>
      </trkpt>
      <trkpt lat="45.15065" lon="5.7305">
        <ele>217.53</ele>
        <time>2018-11-10T13:07:04Z</time>
      </trkpt>
      <trkpt lat="45.15066" lon="5.73082">
        <ele>217.19</ele>
        <time>2018-11-10T13:07:05Z</time>
      </trkpt>
      <trkpt lat="45.15067" lon="5.73114">
        <ele>217.09</ele>
        <time>2018-11-10T13:07:06Z</time>
      </trkpt>
      <trkpt lat="45.15067" lon="5.73147">
        <ele>217.76</ele>
        <time>2018-11-10T13:07:07Z</time>
      </trkpt>
      <trkpt lat="45.1507" lon="5.73179">
        <ele>217.96</ele>
        <time>2018-11-10T13:07:08Z</time>
      </trkpt>
      <trkpt lat="45.15072" lon="5.73211">
        <ele>218.02</ele>
        <time>2018-11-10T13:07:09Z</time>
      </trkpt>
      <trkpt lat="45.15075" lon="5.73243">
        <ele>218.74</ele>
        <time>2018-11-10T13:07:10Z</time>
      </trkpt>
      <trkpt lat="45.15076" lon="5.73276">
        <ele>219.66</ele>
        <time>2018-11-10T13:07:11Z</time>
      </trkpt>
      <trkpt lat="45.15078" lon="5.73308">
        <ele>219.93</ele>
        <time>2018-11-10T13:07:12Z</time>
      </trkpt>
      <trkpt lat="45.15082" lon="5.73339">
        <ele>220.01</ele>
        <time>2018-11-10T13:07:13Z</time>
      </trkpt>
      <trkpt lat="45.15086" lon="5.7337">
        <ele>220.74</ele>
        <time>2018-11-10T13:07:14Z</time>
      </trkpt>
      <trkpt lat="45.1509" lon="5.73402">
        <ele>220.96</ele>
        <time>2018-11-10T13:07:15Z</time>
      </trkpt>
      <trkpt lat="45.15093" lon="5.73432">
        <ele>221.02</ele>
        <time>2018-11-10T13:07:16Z</time>
      </trkpt>
      <trkpt lat="45.15098" lon="5.73465">
        <ele>219.64</ele>
        <time>2018-11-10T13:07:17Z</time>
      </trkpt>
      <trkpt lat="45.15103" lon="5.73495">
        <ele>217.83</ele>
        <time>2018-11-10T13:07:18Z</time>
      </trkpt>
      <trkpt lat="45.15108" lon="5.73527">
        <ele>217.28</ele>
        <time>2018-11-10T13:07:19Z</time>
      </trkpt>
      <trkpt lat="45.15111" lon="5.73558">
        <ele>217.82</ele>
        <time>2018-11-10T13:07:20Z</time>
      </trkpt>
      <trkpt lat="45.15118" lon="5.73589">
        <ele>217.28</ele>
        <time>2018-11-10T13:07:21Z</time>
      </trkpt>
      <trkpt lat="45.15125" lon="5.7362">
        <ele>218.52</ele>
        <time>2018-11-10T13:07:22Z</time>
      </trkpt>
      <trkpt lat="45.15132" lon="5.73652">
        <ele>220.29</ele>
        <time>2018-11-10T13:07:23Z</time>
      </trkpt>
      <trkpt lat="45.15136" lon="5.7368">
        <ele>220.82</ele>
        <time>2018-11-10T13:07:24Z</time>
      </trkpt>
      <trkpt lat="45.15142" lon="5.7371">
        <ele>221.68</ele>
        <time>2018-11-10T13:07:25Z</time>
      </trkpt>
      <trkpt lat="45.15156" lon="5.73739">
        <ele>219.84</ele>
        <time>2018-11-10T13:07:26Z</time>
      </trkpt>
      <trkpt lat="45.15165" lon="5.73769">
        <ele>220.69</ele>
        <time>2018-11-10T13:07:27Z</time>
      </trkpt>
      <trkpt lat="45.15173" lon="5.73799">
        <ele>221.64</ele>
        <time>2018-11-10T13:07:28Z</time>
      </trkpt>
      <trkpt lat="45.15179" lon="5.73829">
        <ele>221.93</ele>
        <time>2018-11-10T13:07:29Z</time>
      </trkpt>
      <trkpt lat="45.15186" lon="5.73859">
        <ele>222.01</ele>
        <time>2018-11-10T13:07:30Z</time>
      </trkpt>
      <trkpt lat="45.15193" lon="5.73888">
        <ele>222.74</ele>
        <time>2018-11-10T13:07:31Z</time>
      </trkpt>
      <trkpt lat="45.15206" lon="5.73919">
        <ele>222.26</ele>
        <time>2018-11-10T13:07:32Z</time>
      </trkpt>
      <trkpt lat="45.15218" lon="5.73949">
        <ele>222.11</ele>
        <time>2018-11-10T13:07:33Z</time>
      </trkpt>
      <trkpt lat="45.1523" lon="5.7398">
        <ele>222.07</ele>
        <time>2018-11-10T13:07:34Z</time>
      </trkpt>
      <trkpt lat="45.15241" lon="5.7401">
        <ele>221.35</ele>
        <time>2018-11-10T13:07:35Z</time>
      </trkpt>
      <trkpt lat="45.15249" lon="5.7404">
        <ele>221.84</ele>
        <time>2018-11-10T13:07:36Z</time>
      </trkpt>
      <trkpt lat="45.15261" lon="5.74069">
        <ele>221.99</ele>
        <time>2018-11-10T13:07:37Z</time>
      </trkpt>
      <trkpt lat="45.15271" lon="5.74097">
        <ele>222.03</ele>
        <time>2018-11-10T13:07:38Z</time>
      </trkpt>
      <trkpt lat="45.15282" lon="5.74125">
        <ele>220.64</ele>
        <time>2018-11-10T13:07:39Z</time>
      </trkpt>
      <trkpt lat="45.15293" lon="5.74153">
        <ele>220.93</ele>
        <time>2018-11-10T13:07:40Z</time>
      </trkpt>
      <trkpt lat="45.15307" lon="5.74181">
        <ele>220.31</ele>
        <time>2018-11-10T13:07:41Z</time>
      </trkpt>
      <trkpt lat="45.15319" lon="5.74209">
        <ele>220.83</ele>
        <time>2018-11-10T13:07:42Z</time>
      </trkpt>
      <trkpt lat="45.15332" lon="5.74237">
        <ele>221.68</ele>
        <time>2018-11-10T13:07:43Z</time>
      </trkpt>
      <trkpt lat="45.15344" lon="5.74262">
        <ele>221.24</ele>
        <time>2018-11-10T13:07:44Z</time>
      </trkpt>
      <trkpt lat="45.15358" lon="5.7429">
        <ele>220.41</ele>
        <time>2018-11-10T13:07:45Z</time>
      </trkpt>
      <trkpt lat="45.1537" lon="5.74315">
        <ele>220.86</ele>
        <time>2018-11-10T13:07:46Z</time>
      </trkpt>
      <trkpt lat="45.15384" lon="5.74343">
        <ele>220.29</ele>
        <time>2018-11-10T13:07:47Z</time>
      </trkpt>
      <trkpt lat="45.15396" lon="5.74368">
        <ele>220.82</ele>
        <time>2018-11-10T13:07:48Z</time>
      </trkpt>
      <trkpt lat="45.15411" lon="5.74393">
        <ele>218.88</ele>
        <time>2018-11-10T13:07:49Z</time>
      </trkpt>
      <trkpt lat="45.15425" lon="5.74416">
        <ele>217.6</ele>
        <time>2018-11-10T13:07:50Z</time>
      </trkpt>
      <trkpt lat="45.15439" lon="5.74441">
        <ele>217.21</ele>
        <time>2018-11-10T13:07:51Z</time>
      </trkpt>
      <trkpt lat="45.15452" lon="5.74467">
        <ele>217.8</ele>
        <time>2018-11-10T13:07:52Z</time>
      </trkpt>
      <trkpt lat="45.15468" lon="5.74491">
        <ele>217.27</ele>
        <time>2018-11-10T13:07:53Z</time>
      </trkpt>
      <trkpt lat="45.15484" lon="5.74518">
        <ele>217.82</ele>
        <time>2018-11-10T13:07:54Z</time>
      </trkpt>
      <trkpt lat="45.15499" lon="5.74542">
        <ele>217.28</ele>
        <time>2018-11-10T13:07:55Z</time>
      </trkpt>
      <trkpt lat="45.15514" lon="5.74567">
        <ele>217.12</ele>
        <time>2018-11-10T13:07:56Z</time>
      </trkpt>
      <trkpt lat="45.1553" lon="5.74592">
        <ele>217.77</ele>
        <time>2018-11-10T13:07:57Z</time>
      </trkpt>
      <trkpt lat="45.15544" lon="5.74616">
        <ele>217.27</ele>
        <time>2018-11-10T13:07:58Z</time>
      </trkpt>
      <trkpt lat="45.1556" lon="5.74639">
        <ele>217.11</ele>
        <time>2018-11-10T13:07:59Z</time>
      </trkpt>
      <trkpt lat="45.15575" lon="5.74662">
        <ele>216.37</ele>
        <time>2018-11-10T13:08:00Z</time>
      </trkpt>
      <trkpt lat="45.15593" lon="5.74685">
        <ele>215.44</ele>
        <time>2018-11-10T13:08:01Z</time>
      </trkpt>
      <trkpt lat="45.15609" lon="5.74709">
        <ele>215.17</ele>
        <time>2018-11-10T13:08:02Z</time>
      </trkpt>
      <trkpt lat="45.15628" lon="5.74731">
        <ele>215.08</ele>
        <time>2018-11-10T13:08:03Z</time>
      </trkpt>
      <trkpt lat="45.15645" lon="5.74752">
        <ele>214.36</ele>
        <time>2018-11-10T13:08:04Z</time>
      </trkpt>
      <trkpt lat="45.15664" lon="5.74774">
        <ele>214.14</ele>
        <time>2018-11-10T13:08:05Z</time>
      </trkpt>
      <trkpt lat="45.15681" lon="5.74793">
        <ele>214.78</ele>
        <time>2018-11-10T13:08:06Z</time>
      </trkpt>
      <trkpt lat="45.157" lon="5.74813">
        <ele>215.67</ele>
        <time>2018-11-10T13:08:07Z</time>
      </trkpt>
      <trkpt lat="45.15719" lon="5.74832">
        <ele>215.93</ele>
        <time>2018-11-10T13:08:08Z</time>
      </trkpt>
      <trkpt lat="45.15737" lon="5.7485">
        <ele>214.61</ele>
        <time>2018-11-10T13:08:09Z</time>
      </trkpt>
      <trkpt lat="45.15756" lon="5.74871">
        <ele>214.22</ele>
        <time>2018-11-10T13:08:10Z</time>
      </trkpt>
      <trkpt lat="45.15774" lon="5.74891">
        <ele>214.8</ele>
        <time>2018-11-10T13:08:11Z</time>
      </trkpt>
      <trkpt lat="45.15792" lon="5.74912">
        <ele>214.97</ele>
        <time>2018-11-10T13:08:12Z</time>
      </trkpt>
      <trkpt lat="45.1581" lon="5.74931">
        <ele>215.03</ele>
        <time>2018-11-10T13:08:13Z</time>
      </trkpt>
      <trkpt lat="45.15828" lon="5.74952">
        <ele>215.04</ele>
        <time>2018-11-10T13:08:14Z</time>
      </trkpt>
      <trkpt lat="45.15846" lon="5.7497">
        <ele>215.05</ele>
        <time>2018-11-10T13:08:15Z</time>
      </trkpt>
      <trkpt lat="45.15864" lon="5.7499">
        <ele>215.05</ele>
        <time>2018-11-10T13:08:16Z</time>
      </trkpt>
      <trkpt lat="45.15883" lon="5.7501">
        <ele>214.13</ele>
        <time>2018-11-10T13:08:17Z</time>
      </trkpt>
      <trkpt lat="45.15903" lon="5.7503">
        <ele>213.86</ele>
        <time>2018-11-10T13:08:18Z</time>
      </trkpt>
      <trkpt lat="45.15921" lon="5.7505">
        <ele>213.78</ele>
        <time>2018-11-10T13:08:19Z</time>
      </trkpt>
      <trkpt lat="45.15939" lon="5.75069">
        <ele>213.05</ele>
        <time>2018-11-10T13:08:20Z</time>
      </trkpt>
      <trkpt lat="45.15958" lon="5.75088">
        <ele>212.13</ele>
        <time>2018-11-10T13:08:21Z</time>
      </trkpt>
      <trkpt lat="45.15976" lon="5.75108">
        <ele>211.16</ele>
        <time>2018-11-10T13:08:22Z</time>
      </trkpt>
      <trkpt lat="45.15994" lon="5.75131">
        <ele>211.57</ele>
        <time>2018-11-10T13:08:23Z</time>
      </trkpt>
      <trkpt lat="45.16012" lon="5.75152">
        <ele>211.69</ele>
        <time>2018-11-10T13:08:24Z</time>
      </trkpt>
      <trkpt lat="45.16028" lon="5.7517">
        <ele>211.03</ele>
        <time>2018-11-10T13:08:25Z</time>
      </trkpt>
      <trkpt lat="45.16045" lon="5.75188">
        <ele>210.13</ele>
        <time>2018-11-10T13:08:26Z</time>
      </trkpt>
      <trkpt lat="45.16062" lon="5.75205">
        <ele>209.86</ele>
        <time>2018-11-10T13:08:27Z</time>
      </trkpt>
      <trkpt lat="45.1608" lon="5.75223">
        <ele>209.78</ele>
        <time>2018-11-10T13:08:28Z</time>
      </trkpt>
      <trkpt lat="45.16097" lon="5.7524">
        <ele>208.35</ele>
        <time>2018-11-10T13:08:29Z</time>
      </trkpt>
      <trkpt lat="45.16112" lon="5.75259">
        <ele>207.92</ele>
        <time>2018-11-10T13:08:30Z</time>
      </trkpt>
      <trkpt lat="45.16128" lon="5.75278">
        <ele>207.8</ele>
        <time>2018-11-10T13:08:31Z</time>
      </trkpt>
      <trkpt lat="45.16144" lon="5.75298">
        <ele>208.46</ele>
        <time>2018-11-10T13:08:32Z</time>
      </trkpt>
      <trkpt lat="45.16162" lon="5.75317">
        <ele>207.96</ele>
        <time>2018-11-10T13:08:33Z</time>
      </trkpt>
      <trkpt lat="45.1618" lon="5.75335">
        <ele>207.81</ele>
        <time>2018-11-10T13:08:34Z</time>
      </trkpt>
      <trkpt lat="45.16196" lon="5.75354">
        <ele>207.76</ele>
        <time>2018-11-10T13:08:35Z</time>
      </trkpt>
      <trkpt lat="45.16214" lon="5.7537">
        <ele>207.75</ele>
        <time>2018-11-10T13:08:36Z</time>
      </trkpt>
      <trkpt lat="45.1623" lon="5.75385">
        <ele>207.04</ele>
        <time>2018-11-10T13:08:37Z</time>
      </trkpt>
      <trkpt lat="45.16245" lon="5.75402">
        <ele>206.83</ele>
        <time>2018-11-10T13:08:38Z</time>
      </trkpt>
      <trkpt lat="45.1626" lon="5.75418">
        <ele>207.47</ele>
        <time>2018-11-10T13:08:39Z</time>
      </trkpt>
      <trkpt lat="45.16276" lon="5.75434">
        <ele>206.96</ele>
        <time>2018-11-10T13:08:40Z</time>
      </trkpt>
      <trkpt lat="45.16292" lon="5.75452">
        <ele>207.51</ele>
        <time>2018-11-10T13:08:41Z</time>
      </trkpt>
      <trkpt lat="45.16309" lon="5.75468">
        <ele>207.67</ele>
        <time>2018-11-10T13:08:42Z</time>
      </trkpt>
      <trkpt lat="45.16326" lon="5.75486">
        <ele>207.72</ele>
        <time>2018-11-10T13:08:43Z</time>
      </trkpt>
      <trkpt lat="45.16342" lon="5.75504">
        <ele>208.43</ele>
        <time>2018-11-10T13:08:44Z</time>
      </trkpt>
      <trkpt lat="45.16357" lon="5.75523">
        <ele>208.65</ele>
        <time>2018-11-10T13:08:45Z</time>
      </trkpt>
      <trkpt lat="45.16373" lon="5.75541">
        <ele>208.71</ele>
        <time>2018-11-10T13:08:46Z</time>
      </trkpt>
      <trkpt lat="45.16388" lon="5.75559">
        <ele>208.03</ele>
        <time>2018-11-10T13:08:47Z</time>
      </trkpt>
      <trkpt lat="45.16403" lon="5.75577">
        <ele>208.53</ele>
        <time>2018-11-10T13:08:48Z</time>
      </trkpt>
      <trkpt lat="45.16419" lon="5.75595">
        <ele>207.98</ele>
        <time>2018-11-10T13:08:49Z</time>
      </trkpt>
      <trkpt lat="45.16434" lon="5.75614">
        <ele>208.51</ele>
        <time>2018-11-10T13:08:50Z</time>
      </trkpt>
      <trkpt lat="45.1645" lon="5.75632">
        <ele>209.37</ele>
        <time>2018-11-10T13:08:51Z</time>
      </trkpt>
      <trkpt lat="45.16464" lon="5.7565">
        <ele>209.63</ele>
        <time>2018-11-10T13:08:52Z</time>
      </trkpt>
      <trkpt lat="45.16479" lon="5.75668">
        <ele>210.41</ele>
        <time>2018-11-10T13:08:53Z</time>
      </trkpt>
      <trkpt lat="45.16493" lon="5.75685">
        <ele>210.64</ele>
        <time>2018-11-10T13:08:54Z</time>
      </trkpt>
      <trkpt lat="45.16507" lon="5.75703">
        <ele>211.41</ele>
        <time>2018-11-10T13:08:55Z</time>
      </trkpt>
      <trkpt lat="45.16522" lon="5.7572">
        <ele>213.04</ele>
        <time>2018-11-10T13:08:56Z</time>
      </trkpt>
      <trkpt lat="45.16548" lon="5.75749">
        <ele>213.68</ele>
        <time>2018-11-10T13:08:58Z</time>
      </trkpt>
      <trkpt lat="45.16571" lon="5.75774">
        <ele>213.95</ele>
        <time>2018-11-10T13:09:00Z</time>
      </trkpt>
      <trkpt lat="45.16585" lon="5.75794">
        <ele>214.46</ele>
        <time>2018-11-10T13:09:02Z</time>
      </trkpt>
      <trkpt lat="45.16599" lon="5.75812">
        <ele>214.73</ele>
        <time>2018-11-10T13:09:05Z</time>
      </trkpt>
      <trkpt lat="45.16617" lon="5.75804">
        <ele>218.28</ele>
        <time>2018-11-10T13:09:17Z</time>
      </trkpt>
      <trkpt lat="45.16641" lon="5.75773">
        <ele>219.19</ele>
        <time>2018-11-10T13:09:19Z</time>
      </trkpt>
      <trkpt lat="45.16661" lon="5.75746">
        <ele>219.69</ele>
        <time>2018-11-10T13:09:21Z</time>
      </trkpt>
      <trkpt lat="45.16683" lon="5.75722">
        <ele>220.44</ele>
        <time>2018-11-10T13:09:23Z</time>
      </trkpt>
      <trkpt lat="45.16704" lon="5.75698">
        <ele>220.5</ele>
        <time>2018-11-10T13:09:25Z</time>
      </trkpt>
      <trkpt lat="45.16726" lon="5.75676">
        <ele>221.63</ele>
        <time>2018-11-10T13:09:27Z</time>
      </trkpt>
      <trkpt lat="45.16747" lon="5.75656">
        <ele>222.43</ele>
        <time>2018-11-10T13:09:29Z</time>
      </trkpt>
      <trkpt lat="45.16768" lon="5.75637">
        <ele>221.8</ele>
        <time>2018-11-10T13:09:31Z</time>
      </trkpt>
      <trkpt lat="45.16789" lon="5.75617">
        <ele>222.45</ele>
        <time>2018-11-10T13:09:33Z</time>
      </trkpt>
      <trkpt lat="45.16802" lon="5.75598">
        <ele>219.7</ele>
        <time>2018-11-10T13:09:35Z</time>
      </trkpt>
      <trkpt lat="45.16817" lon="5.7558">
        <ele>217.64</ele>
        <time>2018-11-10T13:09:38Z</time>
      </trkpt>
      <trkpt lat="45.16835" lon="5.75562">
        <ele>215.65</ele>
        <time>2018-11-10T13:09:44Z</time>
      </trkpt>
      <trkpt lat="45.16856" lon="5.75553">
        <ele>213.46</ele>
        <time>2018-11-10T13:09:48Z</time>
      </trkpt>
      <trkpt lat="45.16869" lon="5.75532">
        <ele>215.98</ele>
        <time>2018-11-10T13:09:52Z</time>
      </trkpt>
      <trkpt lat="45.16887" lon="5.75522">
        <ele>215.81</ele>
        <time>2018-11-10T13:09:56Z</time>
      </trkpt>
      <trkpt lat="45.16903" lon="5.755">
        <ele>213.81</ele>
        <time>2018-11-10T13:10:01Z</time>
      </trkpt>
      <trkpt lat="45.16915" lon="5.75457">
        <ele>222.04</ele>
        <time>2018-11-10T13:19:18Z</time>
      </trkpt>
      <trkpt lat="45.16914" lon="5.75511">
        <ele>224.64</ele>
        <time>2018-11-10T13:26:00Z</time>
      </trkpt>
      <trkpt lat="45.16914" lon="5.75485">
        <ele>212.76</ele>
        <time>2018-11-10T13:35:14Z</time>
      </trkpt>
      <trkpt lat="45.16929" lon="5.7547">
        <ele>232.53</ele>
        <time>2018-11-10T13:35:59Z</time>
      </trkpt>
      <trkpt lat="45.1692" lon="5.75445">
        <ele>216.86</ele>
        <time>2018-11-10T13:36:27Z</time>
      </trkpt>
      <trkpt lat="45.16906" lon="5.75461">
        <ele>215.14</ele>
        <time>2018-11-10T13:36:29Z</time>
      </trkpt>
      <trkpt lat="45.16891" lon="5.75482">
        <ele>215.51</ele>
        <time>2018-11-10T13:36:32Z</time>
      </trkpt>
      <trkpt lat="45.16877" lon="5.75499">
        <ele>215.02</ele>
        <time>2018-11-10T13:36:36Z</time>
      </trkpt>
      <trkpt lat="45.16864" lon="5.75519">
        <ele>214.74</ele>
        <time>2018-11-10T13:36:43Z</time>
      </trkpt>
      <trkpt lat="45.16845" lon="5.75525">
        <ele>213.81</ele>
        <time>2018-11-10T13:36:52Z</time>
      </trkpt>
      <trkpt lat="45.16832" lon="5.75548">
        <ele>215.42</ele>
        <time>2018-11-10T13:36:55Z</time>
      </trkpt>
      <trkpt lat="45.1682" lon="5.75581">
        <ele>212.81</ele>
        <time>2018-11-10T13:36:58Z</time>
      </trkpt>
      <trkpt lat="45.16806" lon="5.75598">
        <ele>211.35</ele>
        <time>2018-11-10T13:37:00Z</time>
      </trkpt>
      <trkpt lat="45.1679" lon="5.75615">
        <ele>210.1</ele>
        <time>2018-11-10T13:37:02Z</time>
      </trkpt>
      <trkpt lat="45.16771" lon="5.75638">
        <ele>209.56</ele>
        <time>2018-11-10T13:37:04Z</time>
      </trkpt>
      <trkpt lat="45.16754" lon="5.75657">
        <ele>208.32</ele>
        <time>2018-11-10T13:37:06Z</time>
      </trkpt>
      <trkpt lat="45.16732" lon="5.75673">
        <ele>211.22</ele>
        <time>2018-11-10T13:37:08Z</time>
      </trkpt>
      <trkpt lat="45.16714" lon="5.7569">
        <ele>213.3</ele>
        <time>2018-11-10T13:37:10Z</time>
      </trkpt>
      <trkpt lat="45.16696" lon="5.75706">
        <ele>215.52</ele>
        <time>2018-11-10T13:37:12Z</time>
      </trkpt>
      <trkpt lat="45.16681" lon="5.75719">
        <ele>216.63</ele>
        <time>2018-11-10T13:37:14Z</time>
      </trkpt>
      <trkpt lat="45.16664" lon="5.75738">
        <ele>215.77</ele>
        <time>2018-11-10T13:37:17Z</time>
      </trkpt>
      <trkpt lat="45.16647" lon="5.75755">
        <ele>214.83</ele>
        <time>2018-11-10T13:37:19Z</time>
      </trkpt>
      <trkpt lat="45.1663" lon="5.75774">
        <ele>214.26</ele>
        <time>2018-11-10T13:37:21Z</time>
      </trkpt>
      <trkpt lat="45.16614" lon="5.75794">
        <ele>213.79</ele>
        <time>2018-11-10T13:37:23Z</time>
      </trkpt>
      <trkpt lat="45.16611" lon="5.75823">
        <ele>211.14</ele>
        <time>2018-11-10T13:37:27Z</time>
      </trkpt>
      <trkpt lat="45.16633" lon="5.75844">
        <ele>208.23</ele>
        <time>2018-11-10T13:37:30Z</time>
      </trkpt>
      <trkpt lat="45.16658" lon="5.7586">
        <ele>210.1</ele>
        <time>2018-11-10T13:37:32Z</time>
      </trkpt>
      <trkpt lat="45.16682" lon="5.75861">
        <ele>208.86</ele>
        <time>2018-11-10T13:37:34Z</time>
      </trkpt>
      <trkpt lat="45.16699" lon="5.75874">
        <ele>209.48</ele>
        <time>2018-11-10T13:37:35Z</time>
      </trkpt>
      <trkpt lat="45.16719" lon="5.75895">
        <ele>209.66</ele>
        <time>2018-11-10T13:37:36Z</time>
      </trkpt>
      <trkpt lat="45.16735" lon="5.75908">
        <ele>209.72</ele>
        <time>2018-11-10T13:37:37Z</time>
      </trkpt>
      <trkpt lat="45.1675" lon="5.7592">
        <ele>209.03</ele>
        <time>2018-11-10T13:37:38Z</time>
      </trkpt>
      <trkpt lat="45.16767" lon="5.75932">
        <ele>208.83</ele>
        <time>2018-11-10T13:37:39Z</time>
      </trkpt>
      <trkpt lat="45.16782" lon="5.75946">
        <ele>208.77</ele>
        <time>2018-11-10T13:37:40Z</time>
      </trkpt>
      <trkpt lat="45.16815" lon="5.75971">
        <ele>211.26</ele>
        <time>2018-11-10T13:37:42Z</time>
      </trkpt>
      <trkpt lat="45.16845" lon="5.75996">
        <ele>213.31</ele>
        <time>2018-11-10T13:37:44Z</time>
      </trkpt>
      <trkpt lat="45.16873" lon="5.76022">
        <ele>214.61</ele>
        <time>2018-11-10T13:37:46Z</time>
      </trkpt>
      <trkpt lat="45.16887" lon="5.76039">
        <ele>215.4</ele>
        <time>2018-11-10T13:37:47Z</time>
      </trkpt>
      <trkpt lat="45.16915" lon="5.76065">
        <ele>215.71</ele>
        <time>2018-11-10T13:37:49Z</time>
      </trkpt>
      <trkpt lat="45.16944" lon="5.76088">
        <ele>215.95</ele>
        <time>2018-11-10T13:37:51Z</time>
      </trkpt>
      <trkpt lat="45.16972" lon="5.76112">
        <ele>217.37</ele>
        <time>2018-11-10T13:37:53Z</time>
      </trkpt>
      <trkpt lat="45.17" lon="5.76136">
        <ele>219.32</ele>
        <time>2018-11-10T13:37:55Z</time>
      </trkpt>
      <trkpt lat="45.17026" lon="5.7616">
        <ele>220.4</ele>
        <time>2018-11-10T13:37:57Z</time>
      </trkpt>
      <trkpt lat="45.17055" lon="5.76186">
        <ele>219.8</ele>
        <time>2018-11-10T13:37:59Z</time>
      </trkpt>
      <trkpt lat="45.17082" lon="5.76213">
        <ele>219.75</ele>
        <time>2018-11-10T13:38:01Z</time>
      </trkpt>
      <trkpt lat="45.17109" lon="5.76243">
        <ele>221.35</ele>
        <time>2018-11-10T13:38:03Z</time>
      </trkpt>
      <trkpt lat="45.17137" lon="5.76272">
        <ele>220.8</ele>
        <time>2018-11-10T13:38:05Z</time>
      </trkpt>
      <trkpt lat="45.17164" lon="5.76302">
        <ele>221.66</ele>
        <time>2018-11-10T13:38:07Z</time>
      </trkpt>
      <trkpt lat="45.17189" lon="5.76335">
        <ele>223.34</ele>
        <time>2018-11-10T13:38:09Z</time>
      </trkpt>
      <trkpt lat="45.17215" lon="5.76366">
        <ele>224.2</ele>
        <time>2018-11-10T13:38:11Z</time>
      </trkpt>
      <trkpt lat="45.1724" lon="5.76399">
        <ele>224.69</ele>
        <time>2018-11-10T13:38:13Z</time>
      </trkpt>
      <trkpt lat="45.17267" lon="5.76432">
        <ele>225.44</ele>
        <time>2018-11-10T13:38:15Z</time>
      </trkpt>
      <trkpt lat="45.17294" lon="5.76465">
        <ele>225.5</ele>
        <time>2018-11-10T13:38:17Z</time>
      </trkpt>
      <trkpt lat="45.17321" lon="5.76496">
        <ele>224.11</ele>
        <time>2018-11-10T13:38:19Z</time>
      </trkpt>
      <trkpt lat="45.17348" lon="5.76529">
        <ele>223.07</ele>
        <time>2018-11-10T13:38:21Z</time>
      </trkpt>
      <trkpt lat="45.17375" lon="5.76563">
        <ele>221.86</ele>
        <time>2018-11-10T13:38:23Z</time>
      </trkpt>
      <trkpt lat="45.17388" lon="5.76582">
        <ele>221.78</ele>
        <time>2018-11-10T13:38:24Z</time>
      </trkpt>
      <trkpt lat="45.17401" lon="5.766">
        <ele>221.75</ele>
        <time>2018-11-10T13:38:25Z</time>
      </trkpt>
      <trkpt lat="45.17414" lon="5.76618">
        <ele>221.74</ele>
        <time>2018-11-10T13:38:26Z</time>
      </trkpt>
      <trkpt lat="45.17438" lon="5.76654">
        <ele>221.04</ele>
        <time>2018-11-10T13:38:28Z</time>
      </trkpt>
      <trkpt lat="45.17451" lon="5.76673">
        <ele>220.83</ele>
        <time>2018-11-10T13:38:29Z</time>
      </trkpt>
      <trkpt lat="45.17465" lon="5.76692">
        <ele>220.77</ele>
        <time>2018-11-10T13:38:30Z</time>
      </trkpt>
      <trkpt lat="45.17478" lon="5.76711">
        <ele>220.75</ele>
        <time>2018-11-10T13:38:31Z</time>
      </trkpt>
      <trkpt lat="45.17493" lon="5.76732">
        <ele>220.04</ele>
        <time>2018-11-10T13:38:32Z</time>
      </trkpt>
      <trkpt lat="45.17508" lon="5.76755">
        <ele>219.83</ele>
        <time>2018-11-10T13:38:33Z</time>
      </trkpt>
      <trkpt lat="45.17522" lon="5.76779">
        <ele>219.07</ele>
        <time>2018-11-10T13:38:34Z</time>
      </trkpt>
      <trkpt lat="45.17536" lon="5.76801">
        <ele>218.84</ele>
        <time>2018-11-10T13:38:35Z</time>
      </trkpt>
      <trkpt lat="45.17549" lon="5.76822">
        <ele>218.77</ele>
        <time>2018-11-10T13:38:36Z</time>
      </trkpt>
      <trkpt lat="45.17562" lon="5.76844">
        <ele>218.75</ele>
        <time>2018-11-10T13:38:37Z</time>
      </trkpt>
      <trkpt lat="45.17575" lon="5.76867">
        <ele>218.74</ele>
        <time>2018-11-10T13:38:38Z</time>
      </trkpt>
      <trkpt lat="45.17587" lon="5.76889">
        <ele>218.04</ele>
        <time>2018-11-10T13:38:39Z</time>
      </trkpt>
      <trkpt lat="45.17598" lon="5.76911">
        <ele>217.83</ele>
        <time>2018-11-10T13:38:40Z</time>
      </trkpt>
      <trkpt lat="45.1761" lon="5.76933">
        <ele>217.77</ele>
        <time>2018-11-10T13:38:41Z</time>
      </trkpt>
      <trkpt lat="45.17622" lon="5.76954">
        <ele>217.05</ele>
        <time>2018-11-10T13:38:42Z</time>
      </trkpt>
      <trkpt lat="45.17643" lon="5.76993">
        <ele>216.56</ele>
        <time>2018-11-10T13:38:44Z</time>
      </trkpt>
      <trkpt lat="45.17664" lon="5.77031">
        <ele>215.32</ele>
        <time>2018-11-10T13:38:46Z</time>
      </trkpt>
      <trkpt lat="45.17685" lon="5.77069">
        <ele>214.09</ele>
        <time>2018-11-10T13:38:48Z</time>
      </trkpt>
      <trkpt lat="45.17704" lon="5.77105">
        <ele>213.77</ele>
        <time>2018-11-10T13:38:50Z</time>
      </trkpt>
      <trkpt lat="45.17713" lon="5.77127">
        <ele>214.45</ele>
        <time>2018-11-10T13:38:51Z</time>
      </trkpt>
      <trkpt lat="45.17724" lon="5.77149">
        <ele>214.65</ele>
        <time>2018-11-10T13:38:52Z</time>
      </trkpt>
      <trkpt lat="45.17734" lon="5.7717">
        <ele>214.71</ele>
        <time>2018-11-10T13:38:53Z</time>
      </trkpt>
      <trkpt lat="45.17744" lon="5.77192">
        <ele>214.73</ele>
        <time>2018-11-10T13:38:54Z</time>
      </trkpt>
      <trkpt lat="45.17766" lon="5.77229">
        <ele>214.74</ele>
        <time>2018-11-10T13:38:56Z</time>
      </trkpt>
      <trkpt lat="45.17782" lon="5.77267">
        <ele>216.35</ele>
        <time>2018-11-10T13:38:58Z</time>
      </trkpt>
      <trkpt lat="45.17799" lon="5.77301">
        <ele>218.32</ele>
        <time>2018-11-10T13:39:00Z</time>
      </trkpt>
      <trkpt lat="45.17816" lon="5.77339">
        <ele>219.19</ele>
        <time>2018-11-10T13:39:02Z</time>
      </trkpt>
      <trkpt lat="45.17837" lon="5.77375">
        <ele>220.6</ele>
        <time>2018-11-10T13:39:04Z</time>
      </trkpt>
      <trkpt lat="45.1786" lon="5.77411">
        <ele>220.73</ele>
        <time>2018-11-10T13:39:06Z</time>
      </trkpt>
      <trkpt lat="45.17882" lon="5.77447">
        <ele>218.01</ele>
        <time>2018-11-10T13:39:08Z</time>
      </trkpt>
      <trkpt lat="45.17902" lon="5.77488">
        <ele>217.56</ele>
        <time>2018-11-10T13:39:10Z</time>
      </trkpt>
      <trkpt lat="45.17923" lon="5.77523">
        <ele>219.54</ele>
        <time>2018-11-10T13:39:12Z</time>
      </trkpt>
      <trkpt lat="45.17943" lon="5.77557">
        <ele>220.42</ele>
        <time>2018-11-10T13:39:14Z</time>
      </trkpt>
      <trkpt lat="45.17965" lon="5.77592">
        <ele>221.41</ele>
        <time>2018-11-10T13:39:16Z</time>
      </trkpt>
      <trkpt lat="45.1799" lon="5.77626">
        <ele>221.71</ele>
        <time>2018-11-10T13:39:18Z</time>
      </trkpt>
      <trkpt lat="45.18012" lon="5.77662">
        <ele>222.65</ele>
        <time>2018-11-10T13:39:20Z</time>
      </trkpt>
      <trkpt lat="45.18036" lon="5.77696">
        <ele>224.34</ele>
        <time>2018-11-10T13:39:22Z</time>
      </trkpt>
      <trkpt lat="45.18057" lon="5.77735">
        <ele>225.41</ele>
        <time>2018-11-10T13:39:24Z</time>
      </trkpt>
      <trkpt lat="45.18076" lon="5.77777">
        <ele>226.41</ele>
        <time>2018-11-10T13:39:26Z</time>
      </trkpt>
      <trkpt lat="45.18091" lon="5.77816">
        <ele>226.01</ele>
        <time>2018-11-10T13:39:28Z</time>
      </trkpt>
      <trkpt lat="45.18098" lon="5.77849">
        <ele>225.07</ele>
        <time>2018-11-10T13:39:30Z</time>
      </trkpt>
      <trkpt lat="45.18104" lon="5.77884">
        <ele>223.16</ele>
        <time>2018-11-10T13:39:32Z</time>
      </trkpt>
      <trkpt lat="45.18111" lon="5.77914">
        <ele>217.67</ele>
        <time>2018-11-10T13:39:34Z</time>
      </trkpt>
      <trkpt lat="45.18128" lon="5.77945">
        <ele>211.12</ele>
        <time>2018-11-10T13:39:37Z</time>
      </trkpt>
      <trkpt lat="45.1814" lon="5.77974">
        <ele>212.59</ele>
        <time>2018-11-10T13:39:39Z</time>
      </trkpt>
      <trkpt lat="45.18153" lon="5.77995">
        <ele>212.73</ele>
        <time>2018-11-10T13:39:41Z</time>
      </trkpt>
      <trkpt lat="45.18162" lon="5.7802">
        <ele>211.05</ele>
        <time>2018-11-10T13:39:45Z</time>
      </trkpt>
      <trkpt lat="45.18159" lon="5.78047">
        <ele>211.36</ele>
        <time>2018-11-10T13:39:49Z</time>
      </trkpt>
      <trkpt lat="45.18154" lon="5.7808">
        <ele>208.94</ele>
        <time>2018-11-10T13:39:52Z</time>
      </trkpt>
      <trkpt lat="45.1815" lon="5.78115">
        <ele>208.76</ele>
        <time>2018-11-10T13:39:54Z</time>
      </trkpt>
      <trkpt lat="45.18147" lon="5.78148">
        <ele>208.53</ele>
        <time>2018-11-10T13:39:56Z</time>
      </trkpt>
      <trkpt lat="45.18145" lon="5.78181">
        <ele>209.63</ele>
        <time>2018-11-10T13:39:58Z</time>
      </trkpt>
      <trkpt lat="45.18145" lon="5.7821">
        <ele>209.73</ele>
        <time>2018-11-10T13:40:00Z</time>
      </trkpt>
      <trkpt lat="45.18144" lon="5.78247">
        <ele>208.83</ele>
        <time>2018-11-10T13:40:02Z</time>
      </trkpt>
      <trkpt lat="45.18145" lon="5.78274">
        <ele>210.17</ele>
        <time>2018-11-10T13:40:03Z</time>
      </trkpt>
      <trkpt lat="45.18152" lon="5.78311">
        <ele>211.39</ele>
        <time>2018-11-10T13:40:05Z</time>
      </trkpt>
      <trkpt lat="45.18154" lon="5.7835">
        <ele>213.32</ele>
        <time>2018-11-10T13:40:07Z</time>
      </trkpt>
      <trkpt lat="45.18159" lon="5.78391">
        <ele>213.98</ele>
        <time>2018-11-10T13:40:09Z</time>
      </trkpt>
      <trkpt lat="45.18162" lon="5.78429">
        <ele>214.46</ele>
        <time>2018-11-10T13:40:11Z</time>
      </trkpt>
      <trkpt lat="45.18168" lon="5.78455">
        <ele>213.32</ele>
        <time>2018-11-10T13:40:13Z</time>
      </trkpt>
      <trkpt lat="45.1817" lon="5.78489">
        <ele>210.55</ele>
        <time>2018-11-10T13:40:15Z</time>
      </trkpt>
      <trkpt lat="45.18161" lon="5.78522">
        <ele>212.54</ele>
        <time>2018-11-10T13:40:17Z</time>
      </trkpt>
      <trkpt lat="45.18149" lon="5.78555">
        <ele>212.72</ele>
        <time>2018-11-10T13:40:19Z</time>
      </trkpt>
      <trkpt lat="45.18137" lon="5.78589">
        <ele>213.65</ele>
        <time>2018-11-10T13:40:21Z</time>
      </trkpt>
      <trkpt lat="45.18125" lon="5.78621">
        <ele>213.73</ele>
        <time>2018-11-10T13:40:23Z</time>
      </trkpt>
      <trkpt lat="45.18111" lon="5.78654">
        <ele>214.65</ele>
        <time>2018-11-10T13:40:25Z</time>
      </trkpt>
      <trkpt lat="45.18096" lon="5.78685">
        <ele>215.64</ele>
        <time>2018-11-10T13:40:27Z</time>
      </trkpt>
      <trkpt lat="45.1808" lon="5.78716">
        <ele>217.55</ele>
        <time>2018-11-10T13:40:29Z</time>
      </trkpt>
      <trkpt lat="45.18064" lon="5.78744">
        <ele>219.33</ele>
        <time>2018-11-10T13:40:31Z</time>
      </trkpt>
      <trkpt lat="45.18048" lon="5.78773">
        <ele>220.4</ele>
        <time>2018-11-10T13:40:33Z</time>
      </trkpt>
      <trkpt lat="45.18033" lon="5.78799">
        <ele>221.41</ele>
        <time>2018-11-10T13:40:35Z</time>
      </trkpt>
      <trkpt lat="45.18016" lon="5.78822">
        <ele>221.5</ele>
        <time>2018-11-10T13:40:37Z</time>
      </trkpt>
      <trkpt lat="45.17999" lon="5.78845">
        <ele>222.42</ele>
        <time>2018-11-10T13:40:39Z</time>
      </trkpt>
      <trkpt lat="45.1798" lon="5.78866">
        <ele>221.8</ele>
        <time>2018-11-10T13:40:41Z</time>
      </trkpt>
      <trkpt lat="45.17963" lon="5.78889">
        <ele>221.75</ele>
        <time>2018-11-10T13:40:43Z</time>
      </trkpt>
      <trkpt lat="45.17943" lon="5.78908">
        <ele>221.53</ele>
        <time>2018-11-10T13:40:45Z</time>
      </trkpt>
      <trkpt lat="45.17925" lon="5.78928">
        <ele>221.02</ele>
        <time>2018-11-10T13:40:47Z</time>
      </trkpt>
      <trkpt lat="45.17904" lon="5.78943">
        <ele>220.56</ele>
        <time>2018-11-10T13:40:49Z</time>
      </trkpt>
      <trkpt lat="45.17882" lon="5.78956">
        <ele>219.81</ele>
        <time>2018-11-10T13:40:51Z</time>
      </trkpt>
      <trkpt lat="45.17856" lon="5.78968">
        <ele>218.14</ele>
        <time>2018-11-10T13:40:53Z</time>
      </trkpt>
      <trkpt lat="45.17831" lon="5.78977">
        <ele>217.08</ele>
        <time>2018-11-10T13:40:55Z</time>
      </trkpt>
      <trkpt lat="45.1781" lon="5.78984">
        <ele>216.77</ele>
        <time>2018-11-10T13:40:57Z</time>
      </trkpt>
      <trkpt lat="45.17789" lon="5.78986">
        <ele>215.83</ele>
        <time>2018-11-10T13:40:59Z</time>
      </trkpt>
      <trkpt lat="45.17765" lon="5.78991">
        <ele>215.05</ele>
        <time>2018-11-10T13:41:01Z</time>
      </trkpt>
      <trkpt lat="45.1774" lon="5.78988">
        <ele>215.66</ele>
        <time>2018-11-10T13:41:04Z</time>
      </trkpt>
      <trkpt lat="45.17715" lon="5.78988">
        <ele>215.47</ele>
        <time>2018-11-10T13:41:07Z</time>
      </trkpt>
      <trkpt lat="45.17695" lon="5.78981">
        <ele>217.33</ele>
        <time>2018-11-10T13:41:09Z</time>
      </trkpt>
      <trkpt lat="45.17675" lon="5.78973">
        <ele>219.1</ele>
        <time>2018-11-10T13:41:11Z</time>
      </trkpt>
      <trkpt lat="45.17653" lon="5.78961">
        <ele>220.59</ele>
        <time>2018-11-10T13:41:13Z</time>
      </trkpt>
      <trkpt lat="45.17632" lon="5.78956">
        <ele>219.33</ele>
        <time>2018-11-10T13:41:15Z</time>
      </trkpt>
      <trkpt lat="45.17612" lon="5.78953">
        <ele>219.7</ele>
        <time>2018-11-10T13:41:17Z</time>
      </trkpt>
      <trkpt lat="45.17593" lon="5.78959">
        <ele>221.14</ele>
        <time>2018-11-10T13:41:19Z</time>
      </trkpt>
      <trkpt lat="45.17575" lon="5.78971">
        <ele>220.99</ele>
        <time>2018-11-10T13:41:21Z</time>
      </trkpt>
      <trkpt lat="45.17551" lon="5.78987">
        <ele>221.02</ele>
        <time>2018-11-10T13:41:24Z</time>
      </trkpt>
      <trkpt lat="45.17534" lon="5.78998">
        <ele>219.65</ele>
        <time>2018-11-10T13:41:26Z</time>
      </trkpt>
      <trkpt lat="45.17515" lon="5.79005">
        <ele>219.73</ele>
        <time>2018-11-10T13:41:28Z</time>
      </trkpt>
      <trkpt lat="45.17494" lon="5.79005">
        <ele>220.44</ele>
        <time>2018-11-10T13:41:30Z</time>
      </trkpt>
      <trkpt lat="45.17474" lon="5.79004">
        <ele>223.02</ele>
        <time>2018-11-10T13:41:32Z</time>
      </trkpt>
      <trkpt lat="45.17448" lon="5.78999">
        <ele>227</ele>
        <time>2018-11-10T13:41:35Z</time>
      </trkpt>
      <trkpt lat="45.17426" lon="5.78995">
        <ele>228.63</ele>
        <time>2018-11-10T13:41:38Z</time>
      </trkpt>
      <trkpt lat="45.174" lon="5.78988">
        <ele>228.8</ele>
        <time>2018-11-10T13:41:41Z</time>
      </trkpt>
      <trkpt lat="45.1738" lon="5.78985">
        <ele>231.06</ele>
        <time>2018-11-10T13:41:43Z</time>
      </trkpt>
      <trkpt lat="45.1736" lon="5.78984">
        <ele>231.47</ele>
        <time>2018-11-10T13:41:45Z</time>
      </trkpt>
      <trkpt lat="45.17338" lon="5.78983">
        <ele>231.02</ele>
        <time>2018-11-10T13:41:47Z</time>
      </trkpt>
      <trkpt lat="45.17315" lon="5.78985">
        <ele>232.38</ele>
        <time>2018-11-10T13:41:49Z</time>
      </trkpt>
      <trkpt lat="45.17292" lon="5.7899">
        <ele>232.71</ele>
        <time>2018-11-10T13:41:51Z</time>
      </trkpt>
      <trkpt lat="45.17273" lon="5.78992">
        <ele>231.83</ele>
        <time>2018-11-10T13:41:53Z</time>
      </trkpt>
      <trkpt lat="45.17253" lon="5.78997">
        <ele>230.35</ele>
        <time>2018-11-10T13:41:55Z</time>
      </trkpt>
      <trkpt lat="45.17232" lon="5.79001">
        <ele>229.8</ele>
        <time>2018-11-10T13:41:57Z</time>
      </trkpt>
      <trkpt lat="45.17208" lon="5.79006">
        <ele>230.45</ele>
        <time>2018-11-10T13:41:59Z</time>
      </trkpt>
      <trkpt lat="45.17181" lon="5.79011">
        <ele>231.62</ele>
        <time>2018-11-10T13:42:01Z</time>
      </trkpt>
      <trkpt lat="45.17156" lon="5.79014">
        <ele>234.04</ele>
        <time>2018-11-10T13:42:03Z</time>
      </trkpt>
      <trkpt lat="45.17129" lon="5.79019">
        <ele>233.77</ele>
        <time>2018-11-10T13:42:05Z</time>
      </trkpt>
      <trkpt lat="45.17109" lon="5.79023">
        <ele>235.35</ele>
        <time>2018-11-10T13:42:07Z</time>
      </trkpt>
      <trkpt lat="45.17086" lon="5.79026">
        <ele>237.32</ele>
        <time>2018-11-10T13:42:09Z</time>
      </trkpt>
      <trkpt lat="45.17062" lon="5.79034">
        <ele>237</ele>
        <time>2018-11-10T13:42:11Z</time>
      </trkpt>
      <trkpt lat="45.1704" lon="5.79051">
        <ele>236.97</ele>
        <time>2018-11-10T13:42:13Z</time>
      </trkpt>
      <trkpt lat="45.1702" lon="5.79067">
        <ele>236.97</ele>
        <time>2018-11-10T13:42:15Z</time>
      </trkpt>
      <trkpt lat="45.17" lon="5.79091">
        <ele>238.16</ele>
        <time>2018-11-10T13:42:17Z</time>
      </trkpt>
      <trkpt lat="45.16982" lon="5.79117">
        <ele>239.6</ele>
        <time>2018-11-10T13:42:19Z</time>
      </trkpt>
      <trkpt lat="45.16966" lon="5.79157">
        <ele>241.13</ele>
        <time>2018-11-10T13:42:21Z</time>
      </trkpt>
      <trkpt lat="45.16949" lon="5.792">
        <ele>242.6</ele>
        <time>2018-11-10T13:42:23Z</time>
      </trkpt>
      <trkpt lat="45.16936" lon="5.79231">
        <ele>244.34</ele>
        <time>2018-11-10T13:42:25Z</time>
      </trkpt>
      <trkpt lat="45.16924" lon="5.79259">
        <ele>245.61</ele>
        <time>2018-11-10T13:42:27Z</time>
      </trkpt>
      <trkpt lat="45.1691" lon="5.79297">
        <ele>247.55</ele>
        <time>2018-11-10T13:42:29Z</time>
      </trkpt>
      <trkpt lat="45.16895" lon="5.79336">
        <ele>247.72</ele>
        <time>2018-11-10T13:42:31Z</time>
      </trkpt>
      <trkpt lat="45.16879" lon="5.79374">
        <ele>246.62</ele>
        <time>2018-11-10T13:42:33Z</time>
      </trkpt>
      <trkpt lat="45.16867" lon="5.79418">
        <ele>246.94</ele>
        <time>2018-11-10T13:42:35Z</time>
      </trkpt>
      <trkpt lat="45.16862" lon="5.79443">
        <ele>248.2</ele>
        <time>2018-11-10T13:42:36Z</time>
      </trkpt>
      <trkpt lat="45.1686" lon="5.79473">
        <ele>247.88</ele>
        <time>2018-11-10T13:42:37Z</time>
      </trkpt>
      <trkpt lat="45.16857" lon="5.79524">
        <ele>246.14</ele>
        <time>2018-11-10T13:42:39Z</time>
      </trkpt>
      <trkpt lat="45.16871" lon="5.79549">
        <ele>245.16</ele>
        <time>2018-11-10T13:42:40Z</time>
      </trkpt>
      <trkpt lat="45.16876" lon="5.79577">
        <ele>244.87</ele>
        <time>2018-11-10T13:42:41Z</time>
      </trkpt>
      <trkpt lat="45.16885" lon="5.79603">
        <ele>244.78</ele>
        <time>2018-11-10T13:42:42Z</time>
      </trkpt>
      <trkpt lat="45.16885" lon="5.79633">
        <ele>245.45</ele>
        <time>2018-11-10T13:42:43Z</time>
      </trkpt>
      <trkpt lat="45.16885" lon="5.79661">
        <ele>245.65</ele>
        <time>2018-11-10T13:42:44Z</time>
      </trkpt>
      <trkpt lat="45.16879" lon="5.79703">
        <ele>246.43</ele>
        <time>2018-11-10T13:42:46Z</time>
      </trkpt>
      <trkpt lat="45.16864" lon="5.79733">
        <ele>244.55</ele>
        <time>2018-11-10T13:42:47Z</time>
      </trkpt>
      <trkpt lat="45.16855" lon="5.79757">
        <ele>243.98</ele>
        <time>2018-11-10T13:42:48Z</time>
      </trkpt>
      <trkpt lat="45.16819" lon="5.79784">
        <ele>244.46</ele>
        <time>2018-11-10T13:42:50Z</time>
      </trkpt>
      <trkpt lat="45.168" lon="5.79798">
        <ele>245.36</ele>
        <time>2018-11-10T13:42:51Z</time>
      </trkpt>
      <trkpt lat="45.1678" lon="5.7981">
        <ele>246.33</ele>
        <time>2018-11-10T13:42:52Z</time>
      </trkpt>
      <trkpt lat="45.16753" lon="5.79813">
        <ele>248.02</ele>
        <time>2018-11-10T13:42:53Z</time>
      </trkpt>
      <trkpt lat="45.16728" lon="5.79815">
        <ele>248.52</ele>
        <time>2018-11-10T13:42:54Z</time>
      </trkpt>
      <trkpt lat="45.16693" lon="5.79821">
        <ele>249.63</ele>
        <time>2018-11-10T13:42:56Z</time>
      </trkpt>
      <trkpt lat="45.16663" lon="5.79832">
        <ele>248.82</ele>
        <time>2018-11-10T13:42:58Z</time>
      </trkpt>
      <trkpt lat="45.16647" lon="5.79849">
        <ele>249.47</ele>
        <time>2018-11-10T13:42:59Z</time>
      </trkpt>
      <trkpt lat="45.16616" lon="5.79873">
        <ele>252.94</ele>
        <time>2018-11-10T13:43:01Z</time>
      </trkpt>
      <trkpt lat="45.16603" lon="5.79891">
        <ele>254.2</ele>
        <time>2018-11-10T13:43:02Z</time>
      </trkpt>
      <trkpt lat="45.16583" lon="5.79933">
        <ele>257</ele>
        <time>2018-11-10T13:43:04Z</time>
      </trkpt>
      <trkpt lat="45.16572" lon="5.79957">
        <ele>258.22</ele>
        <time>2018-11-10T13:43:05Z</time>
      </trkpt>
      <trkpt lat="45.16564" lon="5.79985">
        <ele>259.28</ele>
        <time>2018-11-10T13:43:06Z</time>
      </trkpt>
      <trkpt lat="45.16554" lon="5.80008">
        <ele>261</ele>
        <time>2018-11-10T13:43:07Z</time>
      </trkpt>
      <trkpt lat="45.16546" lon="5.80032">
        <ele>261.52</ele>
        <time>2018-11-10T13:43:08Z</time>
      </trkpt>
      <trkpt lat="45.16537" lon="5.80057">
        <ele>261.67</ele>
        <time>2018-11-10T13:43:09Z</time>
      </trkpt>
      <trkpt lat="45.16537" lon="5.80087">
        <ele>262.42</ele>
        <time>2018-11-10T13:43:10Z</time>
      </trkpt>
      <trkpt lat="45.16536" lon="5.80114">
        <ele>263.35</ele>
        <time>2018-11-10T13:43:11Z</time>
      </trkpt>
      <trkpt lat="45.16552" lon="5.8015">
        <ele>264.2</ele>
        <time>2018-11-10T13:43:13Z</time>
      </trkpt>
      <trkpt lat="45.16553" lon="5.80178">
        <ele>263.88</ele>
        <time>2018-11-10T13:43:14Z</time>
      </trkpt>
      <trkpt lat="45.16551" lon="5.80204">
        <ele>264.48</ele>
        <time>2018-11-10T13:43:15Z</time>
      </trkpt>
      <trkpt lat="45.16543" lon="5.80235">
        <ele>264.66</ele>
        <time>2018-11-10T13:43:16Z</time>
      </trkpt>
      <trkpt lat="45.16548" lon="5.80281">
        <ele>265.43</ele>
        <time>2018-11-10T13:43:18Z</time>
      </trkpt>
      <trkpt lat="45.16549" lon="5.80308">
        <ele>266.35</ele>
        <time>2018-11-10T13:43:19Z</time>
      </trkpt>
      <trkpt lat="45.16541" lon="5.80332">
        <ele>268.02</ele>
        <time>2018-11-10T13:43:20Z</time>
      </trkpt>
      <trkpt lat="45.16531" lon="5.80355">
        <ele>269.23</ele>
        <time>2018-11-10T13:43:21Z</time>
      </trkpt>
      <trkpt lat="45.16523" lon="5.80384">
        <ele>270.29</ele>
        <time>2018-11-10T13:43:22Z</time>
      </trkpt>
      <trkpt lat="45.16515" lon="5.80411">
        <ele>271.3</ele>
        <time>2018-11-10T13:43:23Z</time>
      </trkpt>
      <trkpt lat="45.16503" lon="5.80433">
        <ele>272.31</ele>
        <time>2018-11-10T13:43:24Z</time>
      </trkpt>
      <trkpt lat="45.16487" lon="5.80475">
        <ele>272.7</ele>
        <time>2018-11-10T13:43:26Z</time>
      </trkpt>
      <trkpt lat="45.16481" lon="5.80499">
        <ele>272.73</ele>
        <time>2018-11-10T13:43:27Z</time>
      </trkpt>
      <trkpt lat="45.16474" lon="5.80528">
        <ele>273.44</ele>
        <time>2018-11-10T13:43:28Z</time>
      </trkpt>
      <trkpt lat="45.16469" lon="5.80556">
        <ele>273.65</ele>
        <time>2018-11-10T13:43:29Z</time>
      </trkpt>
      <trkpt lat="45.16463" lon="5.80586">
        <ele>274.41</ele>
        <time>2018-11-10T13:43:30Z</time>
      </trkpt>
      <trkpt lat="45.16458" lon="5.80628">
        <ele>274.29</ele>
        <time>2018-11-10T13:43:32Z</time>
      </trkpt>
      <trkpt lat="45.1647" lon="5.80654">
        <ele>275.31</ele>
        <time>2018-11-10T13:43:33Z</time>
      </trkpt>
      <trkpt lat="45.16468" lon="5.80682">
        <ele>275.61</ele>
        <time>2018-11-10T13:43:34Z</time>
      </trkpt>
      <trkpt lat="45.16473" lon="5.80707">
        <ele>275.7</ele>
        <time>2018-11-10T13:43:35Z</time>
      </trkpt>
      <trkpt lat="45.1647" lon="5.80734">
        <ele>277.13</ele>
        <time>2018-11-10T13:43:36Z</time>
      </trkpt>
      <trkpt lat="45.16466" lon="5.8076">
        <ele>280.36</ele>
        <time>2018-11-10T13:43:37Z</time>
      </trkpt>
      <trkpt lat="45.16454" lon="5.80787">
        <ele>282.03</ele>
        <time>2018-11-10T13:43:38Z</time>
      </trkpt>
      <trkpt lat="45.16445" lon="5.80817">
        <ele>283.93</ele>
        <time>2018-11-10T13:43:39Z</time>
      </trkpt>
      <trkpt lat="45.16439" lon="5.80846">
        <ele>286.6</ele>
        <time>2018-11-10T13:43:40Z</time>
      </trkpt>
      <trkpt lat="45.16434" lon="5.80871">
        <ele>289.5</ele>
        <time>2018-11-10T13:43:41Z</time>
      </trkpt>
      <trkpt lat="45.16428" lon="5.80896">
        <ele>292.47</ele>
        <time>2018-11-10T13:43:42Z</time>
      </trkpt>
      <trkpt lat="45.16423" lon="5.80921">
        <ele>294.76</ele>
        <time>2018-11-10T13:43:43Z</time>
      </trkpt>
      <trkpt lat="45.16416" lon="5.80944">
        <ele>296.15</ele>
        <time>2018-11-10T13:43:44Z</time>
      </trkpt>
      <trkpt lat="45.16401" lon="5.80989">
        <ele>298.3</ele>
        <time>2018-11-10T13:43:46Z</time>
      </trkpt>
      <trkpt lat="45.16392" lon="5.81011">
        <ele>300.71</ele>
        <time>2018-11-10T13:43:47Z</time>
      </trkpt>
      <trkpt lat="45.16377" lon="5.81056">
        <ele>302.35</ele>
        <time>2018-11-10T13:43:49Z</time>
      </trkpt>
      <trkpt lat="45.16362" lon="5.81097">
        <ele>302.5</ele>
        <time>2018-11-10T13:43:51Z</time>
      </trkpt>
      <trkpt lat="45.16346" lon="5.81136">
        <ele>302.02</ele>
        <time>2018-11-10T13:43:53Z</time>
      </trkpt>
      <trkpt lat="45.16332" lon="5.81177">
        <ele>302.68</ele>
        <time>2018-11-10T13:43:55Z</time>
      </trkpt>
      <trkpt lat="45.16321" lon="5.81221">
        <ele>305.75</ele>
        <time>2018-11-10T13:43:57Z</time>
      </trkpt>
      <trkpt lat="45.16313" lon="5.81267">
        <ele>308.96</ele>
        <time>2018-11-10T13:43:59Z</time>
      </trkpt>
      <trkpt lat="45.16307" lon="5.81291">
        <ele>310.21</ele>
        <time>2018-11-10T13:44:00Z</time>
      </trkpt>
      <trkpt lat="45.16302" lon="5.81316">
        <ele>312.68</ele>
        <time>2018-11-10T13:44:01Z</time>
      </trkpt>
      <trkpt lat="45.16295" lon="5.8134">
        <ele>314.82</ele>
        <time>2018-11-10T13:44:02Z</time>
      </trkpt>
      <trkpt lat="45.16286" lon="5.81364">
        <ele>316.87</ele>
        <time>2018-11-10T13:44:03Z</time>
      </trkpt>
      <trkpt lat="45.16277" lon="5.81387">
        <ele>318.18</ele>
        <time>2018-11-10T13:44:04Z</time>
      </trkpt>
      <trkpt lat="45.16258" lon="5.81429">
        <ele>319.39</ele>
        <time>2018-11-10T13:44:06Z</time>
      </trkpt>
      <trkpt lat="45.1624" lon="5.81472">
        <ele>320.41</ele>
        <time>2018-11-10T13:44:08Z</time>
      </trkpt>
      <trkpt lat="45.1623" lon="5.81494">
        <ele>321.34</ele>
        <time>2018-11-10T13:44:09Z</time>
      </trkpt>
      <trkpt lat="45.16221" lon="5.81517">
        <ele>322.32</ele>
        <time>2018-11-10T13:44:10Z</time>
      </trkpt>
      <trkpt lat="45.16212" lon="5.8154">
        <ele>324.02</ele>
        <time>2018-11-10T13:44:11Z</time>
      </trkpt>
      <trkpt lat="45.16195" lon="5.81582">
        <ele>325.17</ele>
        <time>2018-11-10T13:44:13Z</time>
      </trkpt>
      <trkpt lat="45.16175" lon="5.81624">
        <ele>327.3</ele>
        <time>2018-11-10T13:44:15Z</time>
      </trkpt>
      <trkpt lat="45.16151" lon="5.81663">
        <ele>327.49</ele>
        <time>2018-11-10T13:44:17Z</time>
      </trkpt>
      <trkpt lat="45.16138" lon="5.81682">
        <ele>328.37</ele>
        <time>2018-11-10T13:44:18Z</time>
      </trkpt>
      <trkpt lat="45.16119" lon="5.81692">
        <ele>330.03</ele>
        <time>2018-11-10T13:44:19Z</time>
      </trkpt>
      <trkpt lat="45.16102" lon="5.81701">
        <ele>330.53</ele>
        <time>2018-11-10T13:44:20Z</time>
      </trkpt>
      <trkpt lat="45.16069" lon="5.81721">
        <ele>330.02</ele>
        <time>2018-11-10T13:44:22Z</time>
      </trkpt>
      <trkpt lat="45.16052" lon="5.81737">
        <ele>329.83</ele>
        <time>2018-11-10T13:44:23Z</time>
      </trkpt>
      <trkpt lat="45.16037" lon="5.81753">
        <ele>329.07</ele>
        <time>2018-11-10T13:44:24Z</time>
      </trkpt>
      <trkpt lat="45.16022" lon="5.81769">
        <ele>330.24</ele>
        <time>2018-11-10T13:44:25Z</time>
      </trkpt>
      <trkpt lat="45.16007" lon="5.81785">
        <ele>331.29</ele>
        <time>2018-11-10T13:44:26Z</time>
      </trkpt>
      <trkpt lat="45.15982" lon="5.81817">
        <ele>332.4</ele>
        <time>2018-11-10T13:44:28Z</time>
      </trkpt>
      <trkpt lat="45.1596" lon="5.81844">
        <ele>332.71</ele>
        <time>2018-11-10T13:44:30Z</time>
      </trkpt>
      <trkpt lat="45.15939" lon="5.81867">
        <ele>334.35</ele>
        <time>2018-11-10T13:44:32Z</time>
      </trkpt>
      <trkpt lat="45.15918" lon="5.81892">
        <ele>334.92</ele>
        <time>2018-11-10T13:44:34Z</time>
      </trkpt>
      <trkpt lat="45.15899" lon="5.81928">
        <ele>332.03</ele>
        <time>2018-11-10T13:44:36Z</time>
      </trkpt>
      <trkpt lat="45.15878" lon="5.81969">
        <ele>332.47</ele>
        <time>2018-11-10T13:44:38Z</time>
      </trkpt>
      <trkpt lat="45.15855" lon="5.82007">
        <ele>332.51</ele>
        <time>2018-11-10T13:44:40Z</time>
      </trkpt>
      <trkpt lat="45.1584" lon="5.82026">
        <ele>334.77</ele>
        <time>2018-11-10T13:44:41Z</time>
      </trkpt>
      <trkpt lat="45.15827" lon="5.82045">
        <ele>336.15</ele>
        <time>2018-11-10T13:44:42Z</time>
      </trkpt>
      <trkpt lat="45.15815" lon="5.82065">
        <ele>336.56</ele>
        <time>2018-11-10T13:44:43Z</time>
      </trkpt>
      <trkpt lat="45.15793" lon="5.82101">
        <ele>338.55</ele>
        <time>2018-11-10T13:44:45Z</time>
      </trkpt>
      <trkpt lat="45.15775" lon="5.82142">
        <ele>342.15</ele>
        <time>2018-11-10T13:44:47Z</time>
      </trkpt>
      <trkpt lat="45.15755" lon="5.82182">
        <ele>343.6</ele>
        <time>2018-11-10T13:44:49Z</time>
      </trkpt>
      <trkpt lat="45.15734" lon="5.82219">
        <ele>343.73</ele>
        <time>2018-11-10T13:44:51Z</time>
      </trkpt>
      <trkpt lat="45.15714" lon="5.82257">
        <ele>344.65</ele>
        <time>2018-11-10T13:44:53Z</time>
      </trkpt>
      <trkpt lat="45.15701" lon="5.82276">
        <ele>344.01</ele>
        <time>2018-11-10T13:44:54Z</time>
      </trkpt>
      <trkpt lat="45.15679" lon="5.82302">
        <ele>341.95</ele>
        <time>2018-11-10T13:44:56Z</time>
      </trkpt>
      <trkpt lat="45.1566" lon="5.82329">
        <ele>343.37</ele>
        <time>2018-11-10T13:44:58Z</time>
      </trkpt>
      <trkpt lat="45.15637" lon="5.8236">
        <ele>345.32</ele>
        <time>2018-11-10T13:45:00Z</time>
      </trkpt>
      <trkpt lat="45.15614" lon="5.82389">
        <ele>345.7</ele>
        <time>2018-11-10T13:45:02Z</time>
      </trkpt>
      <trkpt lat="45.15589" lon="5.82418">
        <ele>345.74</ele>
        <time>2018-11-10T13:45:04Z</time>
      </trkpt>
      <trkpt lat="45.15565" lon="5.82447">
        <ele>346.65</ele>
        <time>2018-11-10T13:45:06Z</time>
      </trkpt>
      <trkpt lat="45.15544" lon="5.82472">
        <ele>347.43</ele>
        <time>2018-11-10T13:45:08Z</time>
      </trkpt>
      <trkpt lat="45.15525" lon="5.82494">
        <ele>348.41</ele>
        <time>2018-11-10T13:45:10Z</time>
      </trkpt>
      <trkpt lat="45.15503" lon="5.82523">
        <ele>351.23</ele>
        <time>2018-11-10T13:45:12Z</time>
      </trkpt>
      <trkpt lat="45.15478" lon="5.82552">
        <ele>352.4</ele>
        <time>2018-11-10T13:45:14Z</time>
      </trkpt>
      <trkpt lat="45.15451" lon="5.82579">
        <ele>354.32</ele>
        <time>2018-11-10T13:45:16Z</time>
      </trkpt>
      <trkpt lat="45.15423" lon="5.82598">
        <ele>354.7</ele>
        <time>2018-11-10T13:45:18Z</time>
      </trkpt>
      <trkpt lat="45.15387" lon="5.82594">
        <ele>356.35</ele>
        <time>2018-11-10T13:45:20Z</time>
      </trkpt>
      <trkpt lat="45.15368" lon="5.82587">
        <ele>356.62</ele>
        <time>2018-11-10T13:45:21Z</time>
      </trkpt>
      <trkpt lat="45.15336" lon="5.82569">
        <ele>358.34</ele>
        <time>2018-11-10T13:45:23Z</time>
      </trkpt>
      <trkpt lat="45.15307" lon="5.82544">
        <ele>359.19</ele>
        <time>2018-11-10T13:45:25Z</time>
      </trkpt>
      <trkpt lat="45.15276" lon="5.82519">
        <ele>361.3</ele>
        <time>2018-11-10T13:45:27Z</time>
      </trkpt>
      <trkpt lat="45.15247" lon="5.82493">
        <ele>363.52</ele>
        <time>2018-11-10T13:45:29Z</time>
      </trkpt>
      <trkpt lat="45.15231" lon="5.82479">
        <ele>363.68</ele>
        <time>2018-11-10T13:45:30Z</time>
      </trkpt>
      <trkpt lat="45.15215" lon="5.82467">
        <ele>364.42</ele>
        <time>2018-11-10T13:45:31Z</time>
      </trkpt>
      <trkpt lat="45.15182" lon="5.82451">
        <ele>366.32</ele>
        <time>2018-11-10T13:45:33Z</time>
      </trkpt>
      <trkpt lat="45.15151" lon="5.82441">
        <ele>367.61</ele>
        <time>2018-11-10T13:45:35Z</time>
      </trkpt>
      <trkpt lat="45.15121" lon="5.82436">
        <ele>369.34</ele>
        <time>2018-11-10T13:45:37Z</time>
      </trkpt>
      <trkpt lat="45.15093" lon="5.82438">
        <ele>368.79</ele>
        <time>2018-11-10T13:45:39Z</time>
      </trkpt>
      <trkpt lat="45.15061" lon="5.82448">
        <ele>369.24</ele>
        <time>2018-11-10T13:45:41Z</time>
      </trkpt>
      <trkpt lat="45.1503" lon="5.82465">
        <ele>367.88</ele>
        <time>2018-11-10T13:45:43Z</time>
      </trkpt>
      <trkpt lat="45.15002" lon="5.82486">
        <ele>368.66</ele>
        <time>2018-11-10T13:45:45Z</time>
      </trkpt>
      <trkpt lat="45.14975" lon="5.82515">
        <ele>371.25</ele>
        <time>2018-11-10T13:45:47Z</time>
      </trkpt>
      <trkpt lat="45.14954" lon="5.82552">
        <ele>371.49</ele>
        <time>2018-11-10T13:45:49Z</time>
      </trkpt>
      <trkpt lat="45.14935" lon="5.82592">
        <ele>372.21</ele>
        <time>2018-11-10T13:45:51Z</time>
      </trkpt>
      <trkpt lat="45.14917" lon="5.82634">
        <ele>375.21</ele>
        <time>2018-11-10T13:45:53Z</time>
      </trkpt>
      <trkpt lat="45.14896" lon="5.82675">
        <ele>376.6</ele>
        <time>2018-11-10T13:45:55Z</time>
      </trkpt>
      <trkpt lat="45.14884" lon="5.82694">
        <ele>377.4</ele>
        <time>2018-11-10T13:45:56Z</time>
      </trkpt>
      <trkpt lat="45.14872" lon="5.82713">
        <ele>376.94</ele>
        <time>2018-11-10T13:45:57Z</time>
      </trkpt>
      <trkpt lat="45.1486" lon="5.82736">
        <ele>376.8</ele>
        <time>2018-11-10T13:45:58Z</time>
      </trkpt>
      <trkpt lat="45.14834" lon="5.82767">
        <ele>375.84</ele>
        <time>2018-11-10T13:46:00Z</time>
      </trkpt>
      <trkpt lat="45.14804" lon="5.82794">
        <ele>375.75</ele>
        <time>2018-11-10T13:46:02Z</time>
      </trkpt>
      <trkpt lat="45.14772" lon="5.82817">
        <ele>375.74</ele>
        <time>2018-11-10T13:46:04Z</time>
      </trkpt>
      <trkpt lat="45.14738" lon="5.82833">
        <ele>374.13</ele>
        <time>2018-11-10T13:46:06Z</time>
      </trkpt>
      <trkpt lat="45.1472" lon="5.82839">
        <ele>373.16</ele>
        <time>2018-11-10T13:46:07Z</time>
      </trkpt>
      <trkpt lat="45.14686" lon="5.8285">
        <ele>373.69</ele>
        <time>2018-11-10T13:46:09Z</time>
      </trkpt>
      <trkpt lat="45.14654" lon="5.8285">
        <ele>373.04</ele>
        <time>2018-11-10T13:46:11Z</time>
      </trkpt>
      <trkpt lat="45.14636" lon="5.82853">
        <ele>374.93</ele>
        <time>2018-11-10T13:46:12Z</time>
      </trkpt>
      <trkpt lat="45.14605" lon="5.8285">
        <ele>379.1</ele>
        <time>2018-11-10T13:46:14Z</time>
      </trkpt>
      <trkpt lat="45.14577" lon="5.82852">
        <ele>380.38</ele>
        <time>2018-11-10T13:46:16Z</time>
      </trkpt>
      <trkpt lat="45.14546" lon="5.82861">
        <ele>382.32</ele>
        <time>2018-11-10T13:46:18Z</time>
      </trkpt>
      <trkpt lat="45.14515" lon="5.82863">
        <ele>381.19</ele>
        <time>2018-11-10T13:46:21Z</time>
      </trkpt>
      <trkpt lat="45.14495" lon="5.82858">
        <ele>380.99</ele>
        <time>2018-11-10T13:46:23Z</time>
      </trkpt>
      <trkpt lat="45.14475" lon="5.82861">
        <ele>381.67</ele>
        <time>2018-11-10T13:46:25Z</time>
      </trkpt>
      <trkpt lat="45.14455" lon="5.82872">
        <ele>381.03</ele>
        <time>2018-11-10T13:46:27Z</time>
      </trkpt>
      <trkpt lat="45.14437" lon="5.82884">
        <ele>381.47</ele>
        <time>2018-11-10T13:46:29Z</time>
      </trkpt>
      <trkpt lat="45.14418" lon="5.82894">
        <ele>378.57</ele>
        <time>2018-11-10T13:46:31Z</time>
      </trkpt>
      <trkpt lat="45.144" lon="5.82899">
        <ele>376.91</ele>
        <time>2018-11-10T13:46:33Z</time>
      </trkpt>
      <trkpt lat="45.14382" lon="5.8291">
        <ele>374.94</ele>
        <time>2018-11-10T13:46:35Z</time>
      </trkpt>
      <trkpt lat="45.14361" lon="5.82923">
        <ele>378.03</ele>
        <time>2018-11-10T13:46:38Z</time>
      </trkpt>
      <trkpt lat="45.14344" lon="5.82941">
        <ele>380.39</ele>
        <time>2018-11-10T13:46:41Z</time>
      </trkpt>
      <trkpt lat="45.14326" lon="5.82953">
        <ele>383.87</ele>
        <time>2018-11-10T13:46:44Z</time>
      </trkpt>
      <trkpt lat="45.14305" lon="5.82946">
        <ele>387.3</ele>
        <time>2018-11-10T13:46:47Z</time>
      </trkpt>
      <trkpt lat="45.14283" lon="5.82937">
        <ele>389.28</ele>
        <time>2018-11-10T13:46:50Z</time>
      </trkpt>
      <trkpt lat="45.14263" lon="5.8293">
        <ele>390.4</ele>
        <time>2018-11-10T13:46:52Z</time>
      </trkpt>
      <trkpt lat="45.1424" lon="5.82922">
        <ele>392.32</ele>
        <time>2018-11-10T13:46:54Z</time>
      </trkpt>
      <trkpt lat="45.14212" lon="5.82912">
        <ele>393.82</ele>
        <time>2018-11-10T13:46:56Z</time>
      </trkpt>
      <trkpt lat="45.14187" lon="5.82902">
        <ele>393.75</ele>
        <time>2018-11-10T13:46:58Z</time>
      </trkpt>
      <trkpt lat="45.14166" lon="5.82891">
        <ele>394.65</ele>
        <time>2018-11-10T13:47:00Z</time>
      </trkpt>
      <trkpt lat="45.14146" lon="5.82884">
        <ele>394.52</ele>
        <time>2018-11-10T13:47:02Z</time>
      </trkpt>
      <trkpt lat="45.14125" lon="5.82874">
        <ele>392.69</ele>
        <time>2018-11-10T13:47:04Z</time>
      </trkpt>
      <trkpt lat="45.14103" lon="5.82867">
        <ele>392.74</ele>
        <time>2018-11-10T13:47:06Z</time>
      </trkpt>
      <trkpt lat="45.14084" lon="5.82856">
        <ele>393.65</ele>
        <time>2018-11-10T13:47:08Z</time>
      </trkpt>
      <trkpt lat="45.14066" lon="5.82849">
        <ele>394.64</ele>
        <time>2018-11-10T13:47:10Z</time>
      </trkpt>
      <trkpt lat="45.14047" lon="5.82829">
        <ele>395.71</ele>
        <time>2018-11-10T13:47:13Z</time>
      </trkpt>
      <trkpt lat="45.14032" lon="5.82813">
        <ele>394.83</ele>
        <time>2018-11-10T13:47:15Z</time>
      </trkpt>
      <trkpt lat="45.14009" lon="5.82794">
        <ele>394.74</ele>
        <time>2018-11-10T13:47:18Z</time>
      </trkpt>
      <trkpt lat="45.13994" lon="5.82779">
        <ele>397.32</ele>
        <time>2018-11-10T13:47:21Z</time>
      </trkpt>
      <trkpt lat="45.13978" lon="5.82765">
        <ele>401.29</ele>
        <time>2018-11-10T13:47:24Z</time>
      </trkpt>
      <trkpt lat="45.13964" lon="5.82746">
        <ele>403.67</ele>
        <time>2018-11-10T13:47:27Z</time>
      </trkpt>
      <trkpt lat="45.1395" lon="5.82765">
        <ele>403.68</ele>
        <time>2018-11-10T13:47:31Z</time>
      </trkpt>
      <trkpt lat="45.13948" lon="5.82793">
        <ele>404.71</ele>
        <time>2018-11-10T13:47:43Z</time>
      </trkpt>
      <trkpt lat="45.13938" lon="5.82826">
        <ele>406.56</ele>
        <time>2018-11-10T13:47:46Z</time>
      </trkpt>
      <trkpt lat="45.13934" lon="5.82857">
        <ele>406.72</ele>
        <time>2018-11-10T13:47:48Z</time>
      </trkpt>
      <trkpt lat="45.1393" lon="5.8289">
        <ele>406.74</ele>
        <time>2018-11-10T13:47:50Z</time>
      </trkpt>
      <trkpt lat="45.13932" lon="5.8292">
        <ele>406.04</ele>
        <time>2018-11-10T13:47:51Z</time>
      </trkpt>
      <trkpt lat="45.13934" lon="5.82952">
        <ele>406.53</ele>
        <time>2018-11-10T13:47:52Z</time>
      </trkpt>
      <trkpt lat="45.13941" lon="5.82996">
        <ele>406.68</ele>
        <time>2018-11-10T13:47:53Z</time>
      </trkpt>
      <trkpt lat="45.13944" lon="5.83031">
        <ele>407.42</ele>
        <time>2018-11-10T13:47:54Z</time>
      </trkpt>
      <trkpt lat="45.13958" lon="5.83056">
        <ele>407.65</ele>
        <time>2018-11-10T13:47:55Z</time>
      </trkpt>
      <trkpt lat="45.13963" lon="5.83083">
        <ele>409.81</ele>
        <time>2018-11-10T13:47:56Z</time>
      </trkpt>
      <trkpt lat="45.13967" lon="5.83111">
        <ele>411.16</ele>
        <time>2018-11-10T13:47:57Z</time>
      </trkpt>
      <trkpt lat="45.13971" lon="5.83161">
        <ele>411.9</ele>
        <time>2018-11-10T13:47:59Z</time>
      </trkpt>
      <trkpt lat="45.1397" lon="5.83187">
        <ele>412.49</ele>
        <time>2018-11-10T13:48:00Z</time>
      </trkpt>
      <trkpt lat="45.13959" lon="5.83232">
        <ele>414.33</ele>
        <time>2018-11-10T13:48:02Z</time>
      </trkpt>
      <trkpt lat="45.13939" lon="5.83274">
        <ele>414.91</ele>
        <time>2018-11-10T13:48:04Z</time>
      </trkpt>
      <trkpt lat="45.13934" lon="5.83321">
        <ele>416.37</ele>
        <time>2018-11-10T13:48:06Z</time>
      </trkpt>
      <trkpt lat="45.13935" lon="5.83348">
        <ele>416.63</ele>
        <time>2018-11-10T13:48:07Z</time>
      </trkpt>
      <trkpt lat="45.13931" lon="5.83378">
        <ele>418.81</ele>
        <time>2018-11-10T13:48:08Z</time>
      </trkpt>
      <trkpt lat="45.13942" lon="5.83398">
        <ele>418.05</ele>
        <time>2018-11-10T13:48:10Z</time>
      </trkpt>
      <trkpt lat="45.13968" lon="5.83422">
        <ele>419.59</ele>
        <time>2018-11-10T13:48:12Z</time>
      </trkpt>
      <trkpt lat="45.14006" lon="5.8346">
        <ele>422.04</ele>
        <time>2018-11-10T13:48:14Z</time>
      </trkpt>
      <trkpt lat="45.14024" lon="5.83472">
        <ele>423.23</ele>
        <time>2018-11-10T13:48:15Z</time>
      </trkpt>
      <trkpt lat="45.14054" lon="5.83496">
        <ele>427.12</ele>
        <time>2018-11-10T13:48:17Z</time>
      </trkpt>
      <trkpt lat="45.14072" lon="5.83511">
        <ele>428.96</ele>
        <time>2018-11-10T13:48:18Z</time>
      </trkpt>
      <trkpt lat="45.14108" lon="5.83532">
        <ele>429.46</ele>
        <time>2018-11-10T13:48:20Z</time>
      </trkpt>
      <trkpt lat="45.14145" lon="5.83513">
        <ele>430.36</ele>
        <time>2018-11-10T13:48:21Z</time>
      </trkpt>
      <trkpt lat="45.14159" lon="5.83494">
        <ele>431.33</ele>
        <time>2018-11-10T13:48:22Z</time>
      </trkpt>
      <trkpt lat="45.14177" lon="5.83485">
        <ele>433.72</ele>
        <time>2018-11-10T13:48:23Z</time>
      </trkpt>
      <trkpt lat="45.14194" lon="5.83445">
        <ele>435.56</ele>
        <time>2018-11-10T13:48:25Z</time>
      </trkpt>
      <trkpt lat="45.14194" lon="5.83396">
        <ele>439.64</ele>
        <time>2018-11-10T13:48:27Z</time>
      </trkpt>
      <trkpt lat="45.14193" lon="5.8336">
        <ele>443.86</ele>
        <time>2018-11-10T13:48:29Z</time>
      </trkpt>
      <trkpt lat="45.14204" lon="5.83326">
        <ele>446.97</ele>
        <time>2018-11-10T13:48:31Z</time>
      </trkpt>
      <trkpt lat="45.14221" lon="5.83307">
        <ele>448.58</ele>
        <time>2018-11-10T13:48:33Z</time>
      </trkpt>
      <trkpt lat="45.14237" lon="5.83287">
        <ele>449.64</ele>
        <time>2018-11-10T13:48:35Z</time>
      </trkpt>
      <trkpt lat="45.14271" lon="5.83274">
        <ele>453.44</ele>
        <time>2018-11-10T13:48:37Z</time>
      </trkpt>
      <trkpt lat="45.14288" lon="5.83264">
        <ele>455.05</ele>
        <time>2018-11-10T13:48:38Z</time>
      </trkpt>
      <trkpt lat="45.14315" lon="5.83255">
        <ele>459.6</ele>
        <time>2018-11-10T13:48:40Z</time>
      </trkpt>
      <trkpt lat="45.14335" lon="5.83252">
        <ele>461.8</ele>
        <time>2018-11-10T13:48:41Z</time>
      </trkpt>
      <trkpt lat="45.14346" lon="5.83282">
        <ele>464.97</ele>
        <time>2018-11-10T13:48:43Z</time>
      </trkpt>
      <trkpt lat="45.14327" lon="5.83312">
        <ele>466.86</ele>
        <time>2018-11-10T13:48:45Z</time>
      </trkpt>
      <trkpt lat="45.1431" lon="5.83344">
        <ele>468.18</ele>
        <time>2018-11-10T13:48:46Z</time>
      </trkpt>
      <trkpt lat="45.14292" lon="5.83357">
        <ele>469.27</ele>
        <time>2018-11-10T13:48:47Z</time>
      </trkpt>
      <trkpt lat="45.1428" lon="5.83381">
        <ele>470.3</ele>
        <time>2018-11-10T13:48:48Z</time>
      </trkpt>
      <trkpt lat="45.14263" lon="5.83393">
        <ele>472.01</ele>
        <time>2018-11-10T13:48:49Z</time>
      </trkpt>
      <trkpt lat="45.1425" lon="5.83418">
        <ele>475.2</ele>
        <time>2018-11-10T13:48:51Z</time>
      </trkpt>
      <trkpt lat="45.14275" lon="5.83472">
        <ele>478.7</ele>
        <time>2018-11-10T13:48:53Z</time>
      </trkpt>
      <trkpt lat="45.14289" lon="5.83506">
        <ele>484.33</ele>
        <time>2018-11-10T13:48:54Z</time>
      </trkpt>
      <trkpt lat="45.14297" lon="5.83531">
        <ele>487.42</ele>
        <time>2018-11-10T13:48:55Z</time>
      </trkpt>
      <trkpt lat="45.14309" lon="5.83555">
        <ele>491.14</ele>
        <time>2018-11-10T13:48:56Z</time>
      </trkpt>
      <trkpt lat="45.14325" lon="5.83575">
        <ele>493.66</ele>
        <time>2018-11-10T13:48:57Z</time>
      </trkpt>
      <trkpt lat="45.14336" lon="5.83596">
        <ele>496.52</ele>
        <time>2018-11-10T13:48:58Z</time>
      </trkpt>
      <trkpt lat="45.14352" lon="5.83633">
        <ele>500.15</ele>
        <time>2018-11-10T13:49:00Z</time>
      </trkpt>
      <trkpt lat="45.14371" lon="5.83663">
        <ele>501.6</ele>
        <time>2018-11-10T13:49:02Z</time>
      </trkpt>
      <trkpt lat="45.14395" lon="5.83678">
        <ele>502.43</ele>
        <time>2018-11-10T13:49:04Z</time>
      </trkpt>
      <trkpt lat="45.14414" lon="5.83675">
        <ele>502.71</ele>
        <time>2018-11-10T13:49:06Z</time>
      </trkpt>
      <trkpt lat="45.14433" lon="5.83632">
        <ele>504.35</ele>
        <time>2018-11-10T13:49:08Z</time>
      </trkpt>
      <trkpt lat="45.14454" lon="5.83612">
        <ele>505.62</ele>
        <time>2018-11-10T13:49:10Z</time>
      </trkpt>
      <trkpt lat="45.14477" lon="5.83606">
        <ele>508.04</ele>
        <time>2018-11-10T13:49:12Z</time>
      </trkpt>
      <trkpt lat="45.14488" lon="5.83635">
        <ele>513.51</ele>
        <time>2018-11-10T13:49:14Z</time>
      </trkpt>
      <trkpt lat="45.14508" lon="5.83656">
        <ele>517.02</ele>
        <time>2018-11-10T13:49:17Z</time>
      </trkpt>
      <trkpt lat="45.14528" lon="5.83677">
        <ele>521.28</ele>
        <time>2018-11-10T13:49:20Z</time>
      </trkpt>
      <trkpt lat="45.14555" lon="5.83695">
        <ele>527.02</ele>
        <time>2018-11-10T13:49:22Z</time>
      </trkpt>
      <trkpt lat="45.14587" lon="5.83701">
        <ele>532.72</ele>
        <time>2018-11-10T13:49:24Z</time>
      </trkpt>
      <trkpt lat="45.14617" lon="5.83711">
        <ele>537.57</ele>
        <time>2018-11-10T13:49:26Z</time>
      </trkpt>
      <trkpt lat="45.14647" lon="5.83716">
        <ele>541.65</ele>
        <time>2018-11-10T13:49:28Z</time>
      </trkpt>
      <trkpt lat="45.14673" lon="5.83722">
        <ele>541.94</ele>
        <time>2018-11-10T13:49:30Z</time>
      </trkpt>
      <trkpt lat="45.147" lon="5.83733">
        <ele>545.89</ele>
        <time>2018-11-10T13:49:32Z</time>
      </trkpt>
      <trkpt lat="45.14721" lon="5.83751">
        <ele>548.97</ele>
        <time>2018-11-10T13:49:34Z</time>
      </trkpt>
      <trkpt lat="45.14746" lon="5.83763">
        <ele>552.19</ele>
        <time>2018-11-10T13:49:36Z</time>
      </trkpt>
      <trkpt lat="45.14772" lon="5.83768">
        <ele>554.3</ele>
        <time>2018-11-10T13:49:38Z</time>
      </trkpt>
      <trkpt lat="45.14797" lon="5.83762">
        <ele>554.7</ele>
        <time>2018-11-10T13:49:40Z</time>
      </trkpt>
      <trkpt lat="45.14821" lon="5.83756">
        <ele>555.65</ele>
        <time>2018-11-10T13:49:42Z</time>
      </trkpt>
      <trkpt lat="45.14847" lon="5.83752">
        <ele>557.34</ele>
        <time>2018-11-10T13:49:44Z</time>
      </trkpt>
      <trkpt lat="45.14869" lon="5.83742">
        <ele>559.32</ele>
        <time>2018-11-10T13:49:46Z</time>
      </trkpt>
      <trkpt lat="45.14889" lon="5.83737">
        <ele>559.49</ele>
        <time>2018-11-10T13:49:48Z</time>
      </trkpt>
      <trkpt lat="45.14912" lon="5.83724">
        <ele>560.42</ele>
        <time>2018-11-10T13:49:50Z</time>
      </trkpt>
      <trkpt lat="45.14941" lon="5.83711">
        <ele>558.3</ele>
        <time>2018-11-10T13:49:53Z</time>
      </trkpt>
      <trkpt lat="45.14964" lon="5.83691">
        <ele>558.7</ele>
        <time>2018-11-10T13:49:55Z</time>
      </trkpt>
      <trkpt lat="45.14985" lon="5.83674">
        <ele>561.96</ele>
        <time>2018-11-10T13:49:57Z</time>
      </trkpt>
      <trkpt lat="45.15003" lon="5.83669">
        <ele>563.58</ele>
        <time>2018-11-10T13:49:59Z</time>
      </trkpt>
      <trkpt lat="45.15022" lon="5.83668">
        <ele>564.64</ele>
        <time>2018-11-10T13:50:01Z</time>
      </trkpt>
      <trkpt lat="45.15042" lon="5.83671">
        <ele>567.95</ele>
        <time>2018-11-10T13:50:03Z</time>
      </trkpt>
      <trkpt lat="45.15059" lon="5.83685">
        <ele>570.6</ele>
        <time>2018-11-10T13:50:06Z</time>
      </trkpt>
      <trkpt lat="45.15074" lon="5.83702">
        <ele>572.91</ele>
        <time>2018-11-10T13:50:10Z</time>
      </trkpt>
      <trkpt lat="45.15089" lon="5.8372">
        <ele>577.5</ele>
        <time>2018-11-10T13:50:14Z</time>
      </trkpt>
      <trkpt lat="45.15109" lon="5.83726">
        <ele>578.71</ele>
        <time>2018-11-10T13:50:18Z</time>
      </trkpt>
      <trkpt lat="45.15125" lon="5.8374">
        <ele>580.62</ele>
        <time>2018-11-10T13:50:21Z</time>
      </trkpt>
      <trkpt lat="45.15145" lon="5.83754">
        <ele>581.92</ele>
        <time>2018-11-10T13:50:24Z</time>
      </trkpt>
      <trkpt lat="45.15166" lon="5.83771">
        <ele>582.23</ele>
        <time>2018-11-10T13:50:27Z</time>
      </trkpt>
      <trkpt lat="45.15183" lon="5.83782">
        <ele>581.99</ele>
        <time>2018-11-10T13:50:29Z</time>
      </trkpt>
      <trkpt lat="45.15199" lon="5.83799">
        <ele>582.67</ele>
        <time>2018-11-10T13:50:31Z</time>
      </trkpt>
      <trkpt lat="45.15216" lon="5.83814">
        <ele>583.64</ele>
        <time>2018-11-10T13:50:33Z</time>
      </trkpt>
      <trkpt lat="45.15232" lon="5.83834">
        <ele>585.34</ele>
        <time>2018-11-10T13:50:35Z</time>
      </trkpt>
      <trkpt lat="45.15251" lon="5.8385">
        <ele>588.23</ele>
        <time>2018-11-10T13:50:37Z</time>
      </trkpt>
      <trkpt lat="45.15272" lon="5.83857">
        <ele>589.6</ele>
        <time>2018-11-10T13:50:39Z</time>
      </trkpt>
      <trkpt lat="45.15295" lon="5.83856">
        <ele>591.34</ele>
        <time>2018-11-10T13:50:41Z</time>
      </trkpt>
      <trkpt lat="45.15316" lon="5.83862">
        <ele>593.31</ele>
        <time>2018-11-10T13:50:43Z</time>
      </trkpt>
      <trkpt lat="45.15333" lon="5.83883">
        <ele>595.52</ele>
        <time>2018-11-10T13:50:45Z</time>
      </trkpt>
      <trkpt lat="45.15351" lon="5.8391">
        <ele>596.42</ele>
        <time>2018-11-10T13:50:47Z</time>
      </trkpt>
      <trkpt lat="45.15373" lon="5.83933">
        <ele>599.02</ele>
        <time>2018-11-10T13:50:49Z</time>
      </trkpt>
      <trkpt lat="45.15404" lon="5.83948">
        <ele>601.29</ele>
        <time>2018-11-10T13:50:51Z</time>
      </trkpt>
      <trkpt lat="45.15427" lon="5.83962">
        <ele>602.61</ele>
        <time>2018-11-10T13:50:53Z</time>
      </trkpt>
      <trkpt lat="45.15454" lon="5.83982">
        <ele>604.34</ele>
        <time>2018-11-10T13:50:55Z</time>
      </trkpt>
      <trkpt lat="45.15478" lon="5.84005">
        <ele>604.49</ele>
        <time>2018-11-10T13:50:57Z</time>
      </trkpt>
      <trkpt lat="45.15499" lon="5.84027">
        <ele>605.42</ele>
        <time>2018-11-10T13:50:59Z</time>
      </trkpt>
      <trkpt lat="45.15522" lon="5.84039">
        <ele>608.44</ele>
        <time>2018-11-10T13:51:01Z</time>
      </trkpt>
      <trkpt lat="45.15514" lon="5.84068">
        <ele>607.47</ele>
        <time>2018-11-10T13:51:05Z</time>
      </trkpt>
      <trkpt lat="45.15485" lon="5.84067">
        <ele>608.42</ele>
        <time>2018-11-10T13:51:07Z</time>
      </trkpt>
      <trkpt lat="45.15465" lon="5.84054">
        <ele>610.04</ele>
        <time>2018-11-10T13:51:08Z</time>
      </trkpt>
      <trkpt lat="45.15446" lon="5.84048">
        <ele>610.53</ele>
        <time>2018-11-10T13:51:09Z</time>
      </trkpt>
      <trkpt lat="45.15414" lon="5.84059">
        <ele>611.14</ele>
        <time>2018-11-10T13:51:11Z</time>
      </trkpt>
      <trkpt lat="45.15379" lon="5.84074">
        <ele>611.69</ele>
        <time>2018-11-10T13:51:13Z</time>
      </trkpt>
      <trkpt lat="45.1535" lon="5.84103">
        <ele>613.56</ele>
        <time>2018-11-10T13:51:15Z</time>
      </trkpt>
      <trkpt lat="45.15331" lon="5.84115">
        <ele>613.69</ele>
        <time>2018-11-10T13:51:16Z</time>
      </trkpt>
      <trkpt lat="45.1531" lon="5.84128">
        <ele>614.42</ele>
        <time>2018-11-10T13:51:17Z</time>
      </trkpt>
      <trkpt lat="45.15289" lon="5.84139">
        <ele>616.05</ele>
        <time>2018-11-10T13:51:18Z</time>
      </trkpt>
      <trkpt lat="45.15267" lon="5.84153">
        <ele>617.23</ele>
        <time>2018-11-10T13:51:19Z</time>
      </trkpt>
      <trkpt lat="45.15248" lon="5.84171">
        <ele>616.89</ele>
        <time>2018-11-10T13:51:20Z</time>
      </trkpt>
      <trkpt lat="45.1523" lon="5.84189">
        <ele>618.19</ele>
        <time>2018-11-10T13:51:21Z</time>
      </trkpt>
      <trkpt lat="45.15212" lon="5.84206">
        <ele>619.97</ele>
        <time>2018-11-10T13:51:22Z</time>
      </trkpt>
      <trkpt lat="45.15194" lon="5.84223">
        <ele>621.91</ele>
        <time>2018-11-10T13:51:23Z</time>
      </trkpt>
      <trkpt lat="45.15177" lon="5.84241">
        <ele>623.19</ele>
        <time>2018-11-10T13:51:24Z</time>
      </trkpt>
      <trkpt lat="45.15164" lon="5.84261">
        <ele>624.28</ele>
        <time>2018-11-10T13:51:25Z</time>
      </trkpt>
      <trkpt lat="45.15154" lon="5.84286">
        <ele>626</ele>
        <time>2018-11-10T13:51:26Z</time>
      </trkpt>
      <trkpt lat="45.15144" lon="5.84309">
        <ele>626.52</ele>
        <time>2018-11-10T13:51:27Z</time>
      </trkpt>
      <trkpt lat="45.15122" lon="5.84343">
        <ele>628.12</ele>
        <time>2018-11-10T13:51:29Z</time>
      </trkpt>
      <trkpt lat="45.15108" lon="5.84359">
        <ele>628.55</ele>
        <time>2018-11-10T13:51:30Z</time>
      </trkpt>
      <trkpt lat="45.1509" lon="5.84367">
        <ele>627.99</ele>
        <time>2018-11-10T13:51:31Z</time>
      </trkpt>
      <trkpt lat="45.15058" lon="5.84374">
        <ele>628.46</ele>
        <time>2018-11-10T13:51:33Z</time>
      </trkpt>
      <trkpt lat="45.15032" lon="5.84392">
        <ele>632.85</ele>
        <time>2018-11-10T13:51:35Z</time>
      </trkpt>
      <trkpt lat="45.15018" lon="5.84419">
        <ele>635.48</ele>
        <time>2018-11-10T13:51:37Z</time>
      </trkpt>
      <trkpt lat="45.15024" lon="5.84472">
        <ele>638.94</ele>
        <time>2018-11-10T13:51:39Z</time>
      </trkpt>
      <trkpt lat="45.15027" lon="5.84505">
        <ele>641.98</ele>
        <time>2018-11-10T13:51:41Z</time>
      </trkpt>
      <trkpt lat="45.1505" lon="5.84522">
        <ele>643.16</ele>
        <time>2018-11-10T13:51:43Z</time>
      </trkpt>
      <trkpt lat="45.1509" lon="5.84521">
        <ele>642.17</ele>
        <time>2018-11-10T13:51:44Z</time>
      </trkpt>
      <trkpt lat="45.15117" lon="5.84532">
        <ele>643.27</ele>
        <time>2018-11-10T13:51:45Z</time>
      </trkpt>
      <trkpt lat="45.1514" lon="5.84546">
        <ele>644.3</ele>
        <time>2018-11-10T13:51:46Z</time>
      </trkpt>
      <trkpt lat="45.15162" lon="5.84554">
        <ele>646.01</ele>
        <time>2018-11-10T13:51:47Z</time>
      </trkpt>
      <trkpt lat="45.15181" lon="5.84566">
        <ele>647.22</ele>
        <time>2018-11-10T13:51:48Z</time>
      </trkpt>
      <trkpt lat="45.15204" lon="5.84575">
        <ele>647.59</ele>
        <time>2018-11-10T13:51:49Z</time>
      </trkpt>
      <trkpt lat="45.15221" lon="5.84597">
        <ele>648.39</ele>
        <time>2018-11-10T13:51:50Z</time>
      </trkpt>
      <trkpt lat="45.15237" lon="5.84611">
        <ele>650.74</ele>
        <time>2018-11-10T13:51:51Z</time>
      </trkpt>
      <trkpt lat="45.15257" lon="5.84639">
        <ele>654.87</ele>
        <time>2018-11-10T13:51:53Z</time>
      </trkpt>
      <trkpt lat="45.15263" lon="5.84684">
        <ele>656.36</ele>
        <time>2018-11-10T13:51:55Z</time>
      </trkpt>
      <trkpt lat="45.15263" lon="5.84724">
        <ele>658.11</ele>
        <time>2018-11-10T13:51:57Z</time>
      </trkpt>
      <trkpt lat="45.15254" lon="5.84749">
        <ele>660.65</ele>
        <time>2018-11-10T13:51:58Z</time>
      </trkpt>
      <trkpt lat="45.15236" lon="5.84777">
        <ele>663.51</ele>
        <time>2018-11-10T13:51:59Z</time>
      </trkpt>
      <trkpt lat="45.15211" lon="5.84799">
        <ele>665.77</ele>
        <time>2018-11-10T13:52:00Z</time>
      </trkpt>
      <trkpt lat="45.15197" lon="5.8482">
        <ele>667.15</ele>
        <time>2018-11-10T13:52:01Z</time>
      </trkpt>
      <trkpt lat="45.15178" lon="5.84836">
        <ele>670.36</ele>
        <time>2018-11-10T13:52:02Z</time>
      </trkpt>
      <trkpt lat="45.15162" lon="5.84853">
        <ele>674.13</ele>
        <time>2018-11-10T13:52:03Z</time>
      </trkpt>
      <trkpt lat="45.15145" lon="5.84872">
        <ele>675.26</ele>
        <time>2018-11-10T13:52:04Z</time>
      </trkpt>
      <trkpt lat="45.15133" lon="5.8489">
        <ele>677</ele>
        <time>2018-11-10T13:52:05Z</time>
      </trkpt>
      <trkpt lat="45.15119" lon="5.84907">
        <ele>678.92</ele>
        <time>2018-11-10T13:52:06Z</time>
      </trkpt>
      <trkpt lat="45.15102" lon="5.8492">
        <ele>681.59</ele>
        <time>2018-11-10T13:52:07Z</time>
      </trkpt>
      <trkpt lat="45.15083" lon="5.84934">
        <ele>685.2</ele>
        <time>2018-11-10T13:52:08Z</time>
      </trkpt>
      <trkpt lat="45.15064" lon="5.84945">
        <ele>686.98</ele>
        <time>2018-11-10T13:52:09Z</time>
      </trkpt>
      <trkpt lat="45.15045" lon="5.84951">
        <ele>687.51</ele>
        <time>2018-11-10T13:52:10Z</time>
      </trkpt>
      <trkpt lat="45.15026" lon="5.84963">
        <ele>688.37</ele>
        <time>2018-11-10T13:52:11Z</time>
      </trkpt>
      <trkpt lat="45.1501" lon="5.84989">
        <ele>689.33</ele>
        <time>2018-11-10T13:52:12Z</time>
      </trkpt>
      <trkpt lat="45.14995" lon="5.85003">
        <ele>692.42</ele>
        <time>2018-11-10T13:52:13Z</time>
      </trkpt>
      <trkpt lat="45.14979" lon="5.8502">
        <ele>694.74</ele>
        <time>2018-11-10T13:52:14Z</time>
      </trkpt>
      <trkpt lat="45.14954" lon="5.85037">
        <ele>699.36</ele>
        <time>2018-11-10T13:52:16Z</time>
      </trkpt>
      <trkpt lat="45.14942" lon="5.85067">
        <ele>705.93</ele>
        <time>2018-11-10T13:52:19Z</time>
      </trkpt>
      <trkpt lat="45.14945" lon="5.85092">
        <ele>708.28</ele>
        <time>2018-11-10T13:52:21Z</time>
      </trkpt>
      <trkpt lat="45.14963" lon="5.85114">
        <ele>709.89</ele>
        <time>2018-11-10T13:52:23Z</time>
      </trkpt>
      <trkpt lat="45.14982" lon="5.85135">
        <ele>711.89</ele>
        <time>2018-11-10T13:52:24Z</time>
      </trkpt>
      <trkpt lat="45.14997" lon="5.85163">
        <ele>715.98</ele>
        <time>2018-11-10T13:52:25Z</time>
      </trkpt>
      <trkpt lat="45.15009" lon="5.85185">
        <ele>718.61</ele>
        <time>2018-11-10T13:52:26Z</time>
      </trkpt>
      <trkpt lat="45.15022" lon="5.85208">
        <ele>720.8</ele>
        <time>2018-11-10T13:52:27Z</time>
      </trkpt>
      <trkpt lat="45.15034" lon="5.85229">
        <ele>721.46</ele>
        <time>2018-11-10T13:52:28Z</time>
      </trkpt>
      <trkpt lat="45.15024" lon="5.85254">
        <ele>723.33</ele>
        <time>2018-11-10T13:52:30Z</time>
      </trkpt>
      <trkpt lat="45.14993" lon="5.85269">
        <ele>728.04</ele>
        <time>2018-11-10T13:52:32Z</time>
      </trkpt>
      <trkpt lat="45.14963" lon="5.85274">
        <ele>729.23</ele>
        <time>2018-11-10T13:52:33Z</time>
      </trkpt>
      <trkpt lat="45.14934" lon="5.8528">
        <ele>734.49</ele>
        <time>2018-11-10T13:52:34Z</time>
      </trkpt>
      <trkpt lat="45.14913" lon="5.85291">
        <ele>736.77</ele>
        <time>2018-11-10T13:52:35Z</time>
      </trkpt>
      <trkpt lat="45.14892" lon="5.85301">
        <ele>739.55</ele>
        <time>2018-11-10T13:52:36Z</time>
      </trkpt>
      <trkpt lat="45.14871" lon="5.85307">
        <ele>741.78</ele>
        <time>2018-11-10T13:52:37Z</time>
      </trkpt>
      <trkpt lat="45.14851" lon="5.85315">
        <ele>743.85</ele>
        <time>2018-11-10T13:52:38Z</time>
      </trkpt>
      <trkpt lat="45.14824" lon="5.85317">
        <ele>746.76</ele>
        <time>2018-11-10T13:52:40Z</time>
      </trkpt>
      <trkpt lat="45.14804" lon="5.85327">
        <ele>747.86</ele>
        <time>2018-11-10T13:52:42Z</time>
      </trkpt>
      <trkpt lat="45.148" lon="5.85358">
        <ele>749.96</ele>
        <time>2018-11-10T13:52:45Z</time>
      </trkpt>
      <trkpt lat="45.14815" lon="5.85407">
        <ele>749.06</ele>
        <time>2018-11-10T13:52:47Z</time>
      </trkpt>
      <trkpt lat="45.14849" lon="5.85443">
        <ele>750.38</ele>
        <time>2018-11-10T13:52:49Z</time>
      </trkpt>
      <trkpt lat="45.14865" lon="5.85466">
        <ele>750.63</ele>
        <time>2018-11-10T13:52:50Z</time>
      </trkpt>
      <trkpt lat="45.14879" lon="5.85484">
        <ele>750.71</ele>
        <time>2018-11-10T13:52:51Z</time>
      </trkpt>
      <trkpt lat="45.14903" lon="5.85518">
        <ele>752.14</ele>
        <time>2018-11-10T13:52:53Z</time>
      </trkpt>
      <trkpt lat="45.1493" lon="5.85541">
        <ele>755</ele>
        <time>2018-11-10T13:52:55Z</time>
      </trkpt>
      <trkpt lat="45.14918" lon="5.85562">
        <ele>758.79</ele>
        <time>2018-11-10T13:52:58Z</time>
      </trkpt>
      <trkpt lat="45.149" lon="5.85555">
        <ele>763.79</ele>
        <time>2018-11-10T13:53:00Z</time>
      </trkpt>
      <trkpt lat="45.14873" lon="5.85518">
        <ele>765.15</ele>
        <time>2018-11-10T13:53:01Z</time>
      </trkpt>
      <trkpt lat="45.14856" lon="5.85502">
        <ele>766.97</ele>
        <time>2018-11-10T13:53:02Z</time>
      </trkpt>
      <trkpt lat="45.14817" lon="5.85486">
        <ele>768.58</ele>
        <time>2018-11-10T13:53:04Z</time>
      </trkpt>
      <trkpt lat="45.14797" lon="5.85486">
        <ele>769.39</ele>
        <time>2018-11-10T13:53:05Z</time>
      </trkpt>
      <trkpt lat="45.14774" lon="5.85499">
        <ele>771.74</ele>
        <time>2018-11-10T13:53:06Z</time>
      </trkpt>
      <trkpt lat="45.14749" lon="5.85509">
        <ele>773.84</ele>
        <time>2018-11-10T13:53:07Z</time>
      </trkpt>
      <trkpt lat="45.14727" lon="5.85523">
        <ele>774.47</ele>
        <time>2018-11-10T13:53:08Z</time>
      </trkpt>
      <trkpt lat="45.14712" lon="5.8554">
        <ele>775.36</ele>
        <time>2018-11-10T13:53:09Z</time>
      </trkpt>
      <trkpt lat="45.14679" lon="5.85569">
        <ele>778.02</ele>
        <time>2018-11-10T13:53:11Z</time>
      </trkpt>
      <trkpt lat="45.14658" lon="5.85565">
        <ele>780.62</ele>
        <time>2018-11-10T13:53:12Z</time>
      </trkpt>
      <trkpt lat="45.14635" lon="5.85567">
        <ele>782.81</ele>
        <time>2018-11-10T13:53:13Z</time>
      </trkpt>
      <trkpt lat="45.14612" lon="5.85563">
        <ele>784.16</ele>
        <time>2018-11-10T13:53:14Z</time>
      </trkpt>
      <trkpt lat="45.14587" lon="5.85554">
        <ele>785.97</ele>
        <time>2018-11-10T13:53:15Z</time>
      </trkpt>
      <trkpt lat="45.1456" lon="5.85535">
        <ele>789.31</ele>
        <time>2018-11-10T13:53:16Z</time>
      </trkpt>
      <trkpt lat="45.14539" lon="5.85523">
        <ele>792.41</ele>
        <time>2018-11-10T13:53:17Z</time>
      </trkpt>
      <trkpt lat="45.14518" lon="5.85507">
        <ele>794.74</ele>
        <time>2018-11-10T13:53:18Z</time>
      </trkpt>
      <trkpt lat="45.14499" lon="5.85501">
        <ele>796.84</ele>
        <time>2018-11-10T13:53:19Z</time>
      </trkpt>
      <trkpt lat="45.14464" lon="5.85492">
        <ele>798.57</ele>
        <time>2018-11-10T13:53:21Z</time>
      </trkpt>
      <trkpt lat="45.14434" lon="5.85527">
        <ele>802.86</ele>
        <time>2018-11-10T13:53:23Z</time>
      </trkpt>
      <trkpt lat="45.14417" lon="5.85541">
        <ele>804.88</ele>
        <time>2018-11-10T13:53:24Z</time>
      </trkpt>
      <trkpt lat="45.14379" lon="5.85554">
        <ele>807.06</ele>
        <time>2018-11-10T13:53:26Z</time>
      </trkpt>
      <trkpt lat="45.14337" lon="5.85548">
        <ele>810.9</ele>
        <time>2018-11-10T13:53:28Z</time>
      </trkpt>
      <trkpt lat="45.14312" lon="5.85543">
        <ele>813.59</ele>
        <time>2018-11-10T13:53:29Z</time>
      </trkpt>
      <trkpt lat="45.14283" lon="5.8552">
        <ele>815.8</ele>
        <time>2018-11-10T13:53:30Z</time>
      </trkpt>
      <trkpt lat="45.1426" lon="5.85511">
        <ele>817.86</ele>
        <time>2018-11-10T13:53:31Z</time>
      </trkpt>
      <trkpt lat="45.14238" lon="5.85502">
        <ele>818.48</ele>
        <time>2018-11-10T13:53:32Z</time>
      </trkpt>
      <trkpt lat="45.14221" lon="5.8549">
        <ele>819.36</ele>
        <time>2018-11-10T13:53:33Z</time>
      </trkpt>
      <trkpt lat="45.14202" lon="5.85485">
        <ele>821.03</ele>
        <time>2018-11-10T13:53:34Z</time>
      </trkpt>
      <trkpt lat="45.14181" lon="5.85499">
        <ele>827</ele>
        <time>2018-11-10T13:53:36Z</time>
      </trkpt>
      <trkpt lat="45.14165" lon="5.85516">
        <ele>827.45</ele>
        <time>2018-11-10T13:53:39Z</time>
      </trkpt>
      <trkpt lat="45.14146" lon="5.85501">
        <ele>829.32</ele>
        <time>2018-11-10T13:53:41Z</time>
      </trkpt>
      <trkpt lat="45.14125" lon="5.85468">
        <ele>831.31</ele>
        <time>2018-11-10T13:53:43Z</time>
      </trkpt>
      <trkpt lat="45.14099" lon="5.85436">
        <ele>834.01</ele>
        <time>2018-11-10T13:53:45Z</time>
      </trkpt>
      <trkpt lat="45.14084" lon="5.8542">
        <ele>835.92</ele>
        <time>2018-11-10T13:53:46Z</time>
      </trkpt>
      <trkpt lat="45.14066" lon="5.85399">
        <ele>835.8</ele>
        <time>2018-11-10T13:53:47Z</time>
      </trkpt>
      <trkpt lat="45.14044" lon="5.85382">
        <ele>838.56</ele>
        <time>2018-11-10T13:53:48Z</time>
      </trkpt>
      <trkpt lat="45.14026" lon="5.85367">
        <ele>842.89</ele>
        <time>2018-11-10T13:53:49Z</time>
      </trkpt>
      <trkpt lat="45.14001" lon="5.85352">
        <ele>850.31</ele>
        <time>2018-11-10T13:53:51Z</time>
      </trkpt>
      <trkpt lat="45.13981" lon="5.85358">
        <ele>853.22</ele>
        <time>2018-11-10T13:53:53Z</time>
      </trkpt>
      <trkpt lat="45.13967" lon="5.85381">
        <ele>857.16</ele>
        <time>2018-11-10T13:53:56Z</time>
      </trkpt>
      <trkpt lat="45.13964" lon="5.85412">
        <ele>858.6</ele>
        <time>2018-11-10T13:53:58Z</time>
      </trkpt>
      <trkpt lat="45.13991" lon="5.85426">
        <ele>858.7</ele>
        <time>2018-11-10T13:53:59Z</time>
      </trkpt>
      <trkpt lat="45.14008" lon="5.85437">
        <ele>860.13</ele>
        <time>2018-11-10T13:54:00Z</time>
      </trkpt>
      <trkpt lat="45.14028" lon="5.85452">
        <ele>863.36</ele>
        <time>2018-11-10T13:54:01Z</time>
      </trkpt>
      <trkpt lat="45.14043" lon="5.8547">
        <ele>865.03</ele>
        <time>2018-11-10T13:54:02Z</time>
      </trkpt>
      <trkpt lat="45.14058" lon="5.85487">
        <ele>866.23</ele>
        <time>2018-11-10T13:54:03Z</time>
      </trkpt>
      <trkpt lat="45.14076" lon="5.85508">
        <ele>867.29</ele>
        <time>2018-11-10T13:54:04Z</time>
      </trkpt>
      <trkpt lat="45.14086" lon="5.85541">
        <ele>869.7</ele>
        <time>2018-11-10T13:54:05Z</time>
      </trkpt>
      <trkpt lat="45.14099" lon="5.85566">
        <ele>871.83</ele>
        <time>2018-11-10T13:54:06Z</time>
      </trkpt>
      <trkpt lat="45.14112" lon="5.85593">
        <ele>872.47</ele>
        <time>2018-11-10T13:54:07Z</time>
      </trkpt>
      <trkpt lat="45.14132" lon="5.85621">
        <ele>871.96</ele>
        <time>2018-11-10T13:54:08Z</time>
      </trkpt>
      <trkpt lat="45.14148" lon="5.85654">
        <ele>872.51</ele>
        <time>2018-11-10T13:54:09Z</time>
      </trkpt>
      <trkpt lat="45.14166" lon="5.85685">
        <ele>873.37</ele>
        <time>2018-11-10T13:54:10Z</time>
      </trkpt>
      <trkpt lat="45.14175" lon="5.85722">
        <ele>873.63</ele>
        <time>2018-11-10T13:54:11Z</time>
      </trkpt>
      <trkpt lat="45.14189" lon="5.85756">
        <ele>874.41</ele>
        <time>2018-11-10T13:54:12Z</time>
      </trkpt>
      <trkpt lat="45.14207" lon="5.85791">
        <ele>876.04</ele>
        <time>2018-11-10T13:54:13Z</time>
      </trkpt>
      <trkpt lat="45.14225" lon="5.85826">
        <ele>877.93</ele>
        <time>2018-11-10T13:54:14Z</time>
      </trkpt>
      <trkpt lat="45.1425" lon="5.85859">
        <ele>877.8</ele>
        <time>2018-11-10T13:54:15Z</time>
      </trkpt>
      <trkpt lat="45.14273" lon="5.85898">
        <ele>877.76</ele>
        <time>2018-11-10T13:54:16Z</time>
      </trkpt>
      <trkpt lat="45.14298" lon="5.85935">
        <ele>878.45</ele>
        <time>2018-11-10T13:54:17Z</time>
      </trkpt>
      <trkpt lat="45.14329" lon="5.85966">
        <ele>880.05</ele>
        <time>2018-11-10T13:54:18Z</time>
      </trkpt>
      <trkpt lat="45.14354" lon="5.85999">
        <ele>880.53</ele>
        <time>2018-11-10T13:54:19Z</time>
      </trkpt>
      <trkpt lat="45.14377" lon="5.86031">
        <ele>882.08</ele>
        <time>2018-11-10T13:54:20Z</time>
      </trkpt>
      <trkpt lat="45.144" lon="5.86059">
        <ele>883.94</ele>
        <time>2018-11-10T13:54:21Z</time>
      </trkpt>
      <trkpt lat="45.14417" lon="5.86081">
        <ele>884.5</ele>
        <time>2018-11-10T13:54:22Z</time>
      </trkpt>
      <trkpt lat="45.14436" lon="5.86109">
        <ele>886.77</ele>
        <time>2018-11-10T13:54:23Z</time>
      </trkpt>
      <trkpt lat="45.14461" lon="5.86132">
        <ele>888.85</ele>
        <time>2018-11-10T13:54:24Z</time>
      </trkpt>
      <trkpt lat="45.14484" lon="5.86157">
        <ele>890.87</ele>
        <time>2018-11-10T13:54:25Z</time>
      </trkpt>
      <trkpt lat="45.14504" lon="5.8618">
        <ele>892.18</ele>
        <time>2018-11-10T13:54:26Z</time>
      </trkpt>
      <trkpt lat="45.14531" lon="5.86214">
        <ele>891.87</ele>
        <time>2018-11-10T13:54:27Z</time>
      </trkpt>
      <trkpt lat="45.14556" lon="5.86234">
        <ele>893.88</ele>
        <time>2018-11-10T13:54:28Z</time>
      </trkpt>
      <trkpt lat="45.14578" lon="5.86254">
        <ele>895.88</ele>
        <time>2018-11-10T13:54:29Z</time>
      </trkpt>
      <trkpt lat="45.14604" lon="5.86276">
        <ele>897.18</ele>
        <time>2018-11-10T13:54:30Z</time>
      </trkpt>
      <trkpt lat="45.14629" lon="5.86291">
        <ele>897.57</ele>
        <time>2018-11-10T13:54:31Z</time>
      </trkpt>
      <trkpt lat="45.14652" lon="5.86305">
        <ele>898.39</ele>
        <time>2018-11-10T13:54:32Z</time>
      </trkpt>
      <trkpt lat="45.14677" lon="5.86298">
        <ele>898.64</ele>
        <time>2018-11-10T13:54:33Z</time>
      </trkpt>
      <trkpt lat="45.14699" lon="5.86303">
        <ele>899.41</ele>
        <time>2018-11-10T13:54:34Z</time>
      </trkpt>
      <trkpt lat="45.14725" lon="5.86315">
        <ele>901.74</ele>
        <time>2018-11-10T13:54:35Z</time>
      </trkpt>
      <trkpt lat="45.14756" lon="5.86321">
        <ele>907.34</ele>
        <time>2018-11-10T13:54:36Z</time>
      </trkpt>
      <trkpt lat="45.14786" lon="5.86329">
        <ele>911.82</ele>
        <time>2018-11-10T13:54:37Z</time>
      </trkpt>
      <trkpt lat="45.14811" lon="5.86338">
        <ele>915.27</ele>
        <time>2018-11-10T13:54:38Z</time>
      </trkpt>
      <trkpt lat="45.14836" lon="5.86347">
        <ele>918.4</ele>
        <time>2018-11-10T13:54:39Z</time>
      </trkpt>
      <trkpt lat="45.14859" lon="5.86352">
        <ele>922.84</ele>
        <time>2018-11-10T13:54:40Z</time>
      </trkpt>
      <trkpt lat="45.1488" lon="5.86359">
        <ele>926.27</ele>
        <time>2018-11-10T13:54:41Z</time>
      </trkpt>
      <trkpt lat="45.14901" lon="5.8637">
        <ele>928</ele>
        <time>2018-11-10T13:54:42Z</time>
      </trkpt>
      <trkpt lat="45.14932" lon="5.86397">
        <ele>930.28</ele>
        <time>2018-11-10T13:54:44Z</time>
      </trkpt>
      <trkpt lat="45.1495" lon="5.86429">
        <ele>931.4</ele>
        <time>2018-11-10T13:54:46Z</time>
      </trkpt>
      <trkpt lat="45.14979" lon="5.86457">
        <ele>933.11</ele>
        <time>2018-11-10T13:54:48Z</time>
      </trkpt>
      <trkpt lat="45.15009" lon="5.86477">
        <ele>937.11</ele>
        <time>2018-11-10T13:54:50Z</time>
      </trkpt>
      <trkpt lat="45.15023" lon="5.86497">
        <ele>938.95</ele>
        <time>2018-11-10T13:54:51Z</time>
      </trkpt>
      <trkpt lat="45.15037" lon="5.86518">
        <ele>941.6</ele>
        <time>2018-11-10T13:54:52Z</time>
      </trkpt>
      <trkpt lat="45.15045" lon="5.86547">
        <ele>943.8</ele>
        <time>2018-11-10T13:54:53Z</time>
      </trkpt>
      <trkpt lat="45.15057" lon="5.86569">
        <ele>945.86</ele>
        <time>2018-11-10T13:54:54Z</time>
      </trkpt>
      <trkpt lat="45.15069" lon="5.8659">
        <ele>947.88</ele>
        <time>2018-11-10T13:54:55Z</time>
      </trkpt>
      <trkpt lat="45.15085" lon="5.86612">
        <ele>949.88</ele>
        <time>2018-11-10T13:54:56Z</time>
      </trkpt>
      <trkpt lat="45.15099" lon="5.86636">
        <ele>951.88</ele>
        <time>2018-11-10T13:54:57Z</time>
      </trkpt>
      <trkpt lat="45.1512" lon="5.86649">
        <ele>953.88</ele>
        <time>2018-11-10T13:54:58Z</time>
      </trkpt>
      <trkpt lat="45.15142" lon="5.86672">
        <ele>953.08</ele>
        <time>2018-11-10T13:54:59Z</time>
      </trkpt>
      <trkpt lat="45.15163" lon="5.86674">
        <ele>954.94</ele>
        <time>2018-11-10T13:55:00Z</time>
      </trkpt>
      <trkpt lat="45.15182" lon="5.86687">
        <ele>957.6</ele>
        <time>2018-11-10T13:55:01Z</time>
      </trkpt>
      <trkpt lat="45.152" lon="5.86702">
        <ele>959.1</ele>
        <time>2018-11-10T13:55:02Z</time>
      </trkpt>
      <trkpt lat="45.15222" lon="5.86728">
        <ele>959.55</ele>
        <time>2018-11-10T13:55:03Z</time>
      </trkpt>
      <trkpt lat="45.15247" lon="5.86755">
        <ele>961.08</ele>
        <time>2018-11-10T13:55:04Z</time>
      </trkpt>
      <trkpt lat="45.15267" lon="5.86777">
        <ele>962.94</ele>
        <time>2018-11-10T13:55:05Z</time>
      </trkpt>
      <trkpt lat="45.15281" lon="5.86796">
        <ele>964.9</ele>
        <time>2018-11-10T13:55:06Z</time>
      </trkpt>
      <trkpt lat="45.15297" lon="5.86817">
        <ele>967.59</ele>
        <time>2018-11-10T13:55:07Z</time>
      </trkpt>
      <trkpt lat="45.15317" lon="5.86837">
        <ele>969.8</ele>
        <time>2018-11-10T13:55:08Z</time>
      </trkpt>
      <trkpt lat="45.15342" lon="5.86856">
        <ele>971.86</ele>
        <time>2018-11-10T13:55:09Z</time>
      </trkpt>
      <trkpt lat="45.15368" lon="5.86843">
        <ele>975.98</ele>
        <time>2018-11-10T13:55:10Z</time>
      </trkpt>
      <trkpt lat="45.15388" lon="5.86856">
        <ele>978.61</ele>
        <time>2018-11-10T13:55:11Z</time>
      </trkpt>
      <trkpt lat="45.15406" lon="5.86869">
        <ele>980.1</ele>
        <time>2018-11-10T13:55:12Z</time>
      </trkpt>
      <trkpt lat="45.15423" lon="5.86887">
        <ele>983.35</ele>
        <time>2018-11-10T13:55:13Z</time>
      </trkpt>
      <trkpt lat="45.15439" lon="5.86905">
        <ele>986.42</ele>
        <time>2018-11-10T13:55:14Z</time>
      </trkpt>
      <trkpt lat="45.15461" lon="5.86944">
        <ele>990.42</ele>
        <time>2018-11-10T13:55:16Z</time>
      </trkpt>
      <trkpt lat="45.15473" lon="5.86966">
        <ele>992.05</ele>
        <time>2018-11-10T13:55:17Z</time>
      </trkpt>
      <trkpt lat="45.15481" lon="5.86989">
        <ele>993.23</ele>
        <time>2018-11-10T13:55:18Z</time>
      </trkpt>
      <trkpt lat="45.15479" lon="5.87038">
        <ele>996.71</ele>
        <time>2018-11-10T13:55:20Z</time>
      </trkpt>
      <trkpt lat="45.15478" lon="5.87065">
        <ele>997.43</ele>
        <time>2018-11-10T13:55:21Z</time>
      </trkpt>
      <trkpt lat="45.15475" lon="5.87094">
        <ele>997.65</ele>
        <time>2018-11-10T13:55:22Z</time>
      </trkpt>
      <trkpt lat="45.15464" lon="5.87137">
        <ele>999.34</ele>
        <time>2018-11-10T13:55:24Z</time>
      </trkpt>
      <trkpt lat="45.15447" lon="5.87149">
        <ele>1001.02</ele>
        <time>2018-11-10T13:55:25Z</time>
      </trkpt>
      <trkpt lat="45.1543" lon="5.87175">
        <ele>1005.6</ele>
        <time>2018-11-10T13:55:27Z</time>
      </trkpt>
      <trkpt lat="45.15411" lon="5.87201">
        <ele>1009.93</ele>
        <time>2018-11-10T13:55:30Z</time>
      </trkpt>
      <trkpt lat="45.15414" lon="5.87226">
        <ele>1036.11</ele>
        <time>2018-11-10T13:56:04Z</time>
      </trkpt>
      <trkpt lat="45.15424" lon="5.8726">
        <ele>1037.59</ele>
        <time>2018-11-10T13:56:06Z</time>
      </trkpt>
      <trkpt lat="45.15425" lon="5.87285">
        <ele>1037.7</ele>
        <time>2018-11-10T13:56:07Z</time>
      </trkpt>
      <trkpt lat="45.15424" lon="5.87315">
        <ele>1037.73</ele>
        <time>2018-11-10T13:56:08Z</time>
      </trkpt>
      <trkpt lat="45.15417" lon="5.87372">
        <ele>1037.74</ele>
        <time>2018-11-10T13:56:10Z</time>
      </trkpt>
      <trkpt lat="45.15408" lon="5.87403">
        <ele>1039.14</ele>
        <time>2018-11-10T13:56:11Z</time>
      </trkpt>
      <trkpt lat="45.15396" lon="5.87464">
        <ele>1038.78</ele>
        <time>2018-11-10T13:56:13Z</time>
      </trkpt>
      <trkpt lat="45.15403" lon="5.87493">
        <ele>1039.45</ele>
        <time>2018-11-10T13:56:14Z</time>
      </trkpt>
      <trkpt lat="45.15408" lon="5.87526">
        <ele>1039.65</ele>
        <time>2018-11-10T13:56:15Z</time>
      </trkpt>
      <trkpt lat="45.15414" lon="5.87564">
        <ele>1041.11</ele>
        <time>2018-11-10T13:56:16Z</time>
      </trkpt>
      <trkpt lat="45.15419" lon="5.87601">
        <ele>1042.95</ele>
        <time>2018-11-10T13:56:17Z</time>
      </trkpt>
      <trkpt lat="45.15424" lon="5.8764">
        <ele>1044.2</ele>
        <time>2018-11-10T13:56:18Z</time>
      </trkpt>
      <trkpt lat="45.15428" lon="5.87679">
        <ele>1045.28</ele>
        <time>2018-11-10T13:56:19Z</time>
      </trkpt>
      <trkpt lat="45.15431" lon="5.87726">
        <ele>1047.7</ele>
        <time>2018-11-10T13:56:20Z</time>
      </trkpt>
      <trkpt lat="45.1543" lon="5.87775">
        <ele>1049.13</ele>
        <time>2018-11-10T13:56:21Z</time>
      </trkpt>
      <trkpt lat="45.15433" lon="5.87822">
        <ele>1049.56</ele>
        <time>2018-11-10T13:56:22Z</time>
      </trkpt>
      <trkpt lat="45.15433" lon="5.87862">
        <ele>1049.69</ele>
        <time>2018-11-10T13:56:23Z</time>
      </trkpt>
      <trkpt lat="45.15432" lon="5.8789">
        <ele>1049.02</ele>
        <time>2018-11-10T13:56:24Z</time>
      </trkpt>
      <trkpt lat="45.15432" lon="5.87924">
        <ele>1050.23</ele>
        <time>2018-11-10T13:56:25Z</time>
      </trkpt>
      <trkpt lat="45.15431" lon="5.87951">
        <ele>1053.39</ele>
        <time>2018-11-10T13:56:26Z</time>
      </trkpt>
      <trkpt lat="45.15429" lon="5.87977">
        <ele>1054.33</ele>
        <time>2018-11-10T13:56:27Z</time>
      </trkpt>
      <trkpt lat="45.15422" lon="5.88001">
        <ele>1053.92</ele>
        <time>2018-11-10T13:56:28Z</time>
      </trkpt>
      <trkpt lat="45.15401" lon="5.88029">
        <ele>1058.38</ele>
        <time>2018-11-10T13:56:30Z</time>
      </trkpt>
      <trkpt lat="45.15382" lon="5.88044">
        <ele>1060.03</ele>
        <time>2018-11-10T13:56:31Z</time>
      </trkpt>
      <trkpt lat="45.15364" lon="5.88087">
        <ele>1061.59</ele>
        <time>2018-11-10T13:56:33Z</time>
      </trkpt>
      <trkpt lat="45.15359" lon="5.88113">
        <ele>1063.09</ele>
        <time>2018-11-10T13:56:34Z</time>
      </trkpt>
      <trkpt lat="45.15358" lon="5.8816">
        <ele>1065.99</ele>
        <time>2018-11-10T13:56:36Z</time>
      </trkpt>
      <trkpt lat="45.15354" lon="5.88209">
        <ele>1069.19</ele>
        <time>2018-11-10T13:56:38Z</time>
      </trkpt>
      <trkpt lat="45.1535" lon="5.88235">
        <ele>1070.98</ele>
        <time>2018-11-10T13:56:39Z</time>
      </trkpt>
      <trkpt lat="45.15344" lon="5.8826">
        <ele>1071.51</ele>
        <time>2018-11-10T13:56:40Z</time>
      </trkpt>
      <trkpt lat="45.15333" lon="5.88298">
        <ele>1071.67</ele>
        <time>2018-11-10T13:56:41Z</time>
      </trkpt>
      <trkpt lat="45.15322" lon="5.88332">
        <ele>1072.42</ele>
        <time>2018-11-10T13:56:42Z</time>
      </trkpt>
      <trkpt lat="45.15307" lon="5.88367">
        <ele>1073.34</ele>
        <time>2018-11-10T13:56:43Z</time>
      </trkpt>
      <trkpt lat="45.15294" lon="5.8839">
        <ele>1074.32</ele>
        <time>2018-11-10T13:56:44Z</time>
      </trkpt>
      <trkpt lat="45.15277" lon="5.88423">
        <ele>1073.92</ele>
        <time>2018-11-10T13:56:45Z</time>
      </trkpt>
      <trkpt lat="45.1526" lon="5.88448">
        <ele>1075.19</ele>
        <time>2018-11-10T13:56:46Z</time>
      </trkpt>
      <trkpt lat="45.15243" lon="5.8847">
        <ele>1075.58</ele>
        <time>2018-11-10T13:56:47Z</time>
      </trkpt>
      <trkpt lat="45.15226" lon="5.88492">
        <ele>1076.39</ele>
        <time>2018-11-10T13:56:48Z</time>
      </trkpt>
      <trkpt lat="45.15212" lon="5.88515">
        <ele>1077.34</ele>
        <time>2018-11-10T13:56:49Z</time>
      </trkpt>
      <trkpt lat="45.15197" lon="5.88538">
        <ele>1078.32</ele>
        <time>2018-11-10T13:56:50Z</time>
      </trkpt>
      <trkpt lat="45.15184" lon="5.88564">
        <ele>1078.61</ele>
        <time>2018-11-10T13:56:51Z</time>
      </trkpt>
      <trkpt lat="45.15174" lon="5.88595">
        <ele>1078.7</ele>
        <time>2018-11-10T13:56:52Z</time>
      </trkpt>
      <trkpt lat="45.15162" lon="5.88624">
        <ele>1078.73</ele>
        <time>2018-11-10T13:56:53Z</time>
      </trkpt>
      <trkpt lat="45.15168" lon="5.88665">
        <ele>1082.66</ele>
        <time>2018-11-10T13:56:55Z</time>
      </trkpt>
      <trkpt lat="45.15157" lon="5.88708">
        <ele>1083.15</ele>
        <time>2018-11-10T13:56:57Z</time>
      </trkpt>
      <trkpt lat="45.15137" lon="5.88717">
        <ele>1084.36</ele>
        <time>2018-11-10T13:57:00Z</time>
      </trkpt>
      <trkpt lat="45.15132" lon="5.8869">
        <ele>1088.63</ele>
        <time>2018-11-10T13:57:02Z</time>
      </trkpt>
      <trkpt lat="45.15137" lon="5.88664">
        <ele>1090.11</ele>
        <time>2018-11-10T13:57:03Z</time>
      </trkpt>
      <trkpt lat="45.15138" lon="5.88622">
        <ele>1092.65</ele>
        <time>2018-11-10T13:57:04Z</time>
      </trkpt>
      <trkpt lat="45.15144" lon="5.88586">
        <ele>1096.91</ele>
        <time>2018-11-10T13:57:05Z</time>
      </trkpt>
      <trkpt lat="45.15149" lon="5.88538">
        <ele>1096.79</ele>
        <time>2018-11-10T13:57:06Z</time>
      </trkpt>
      <trkpt lat="45.15158" lon="5.88492">
        <ele>1098.86</ele>
        <time>2018-11-10T13:57:07Z</time>
      </trkpt>
      <trkpt lat="45.15165" lon="5.88447">
        <ele>1099.48</ele>
        <time>2018-11-10T13:57:08Z</time>
      </trkpt>
      <trkpt lat="45.15172" lon="5.88413">
        <ele>1101.06</ele>
        <time>2018-11-10T13:57:09Z</time>
      </trkpt>
      <trkpt lat="45.1518" lon="5.88383">
        <ele>1104.34</ele>
        <time>2018-11-10T13:57:10Z</time>
      </trkpt>
      <trkpt lat="45.15189" lon="5.88354">
        <ele>1108.12</ele>
        <time>2018-11-10T13:57:11Z</time>
      </trkpt>
      <trkpt lat="45.1519" lon="5.88323">
        <ele>1112.05</ele>
        <time>2018-11-10T13:57:12Z</time>
      </trkpt>
      <trkpt lat="45.15198" lon="5.88292">
        <ele>1114.64</ele>
        <time>2018-11-10T13:57:13Z</time>
      </trkpt>
      <trkpt lat="45.15201" lon="5.8826">
        <ele>1115.41</ele>
        <time>2018-11-10T13:57:14Z</time>
      </trkpt>
      <trkpt lat="45.15201" lon="5.88226">
        <ele>1116.34</ele>
        <time>2018-11-10T13:57:15Z</time>
      </trkpt>
      <trkpt lat="45.15194" lon="5.88186">
        <ele>1116.62</ele>
        <time>2018-11-10T13:57:16Z</time>
      </trkpt>
      <trkpt lat="45.15198" lon="5.88146">
        <ele>1118.11</ele>
        <time>2018-11-10T13:57:17Z</time>
      </trkpt>
      <trkpt lat="45.15198" lon="5.88106">
        <ele>1118.55</ele>
        <time>2018-11-10T13:57:18Z</time>
      </trkpt>
      <trkpt lat="45.15192" lon="5.88059">
        <ele>1120.08</ele>
        <time>2018-11-10T13:57:19Z</time>
      </trkpt>
      <trkpt lat="45.1519" lon="5.88012">
        <ele>1122.64</ele>
        <time>2018-11-10T13:57:20Z</time>
      </trkpt>
      <trkpt lat="45.15178" lon="5.87969">
        <ele>1125.51</ele>
        <time>2018-11-10T13:57:21Z</time>
      </trkpt>
      <trkpt lat="45.15171" lon="5.87931">
        <ele>1127.07</ele>
        <time>2018-11-10T13:57:22Z</time>
      </trkpt>
      <trkpt lat="45.15166" lon="5.87894">
        <ele>1128.24</ele>
        <time>2018-11-10T13:57:23Z</time>
      </trkpt>
      <trkpt lat="45.15151" lon="5.87863">
        <ele>1129.29</ele>
        <time>2018-11-10T13:57:24Z</time>
      </trkpt>
      <trkpt lat="45.15131" lon="5.87834">
        <ele>1130.31</ele>
        <time>2018-11-10T13:57:25Z</time>
      </trkpt>
      <trkpt lat="45.15116" lon="5.87801">
        <ele>1130.61</ele>
        <time>2018-11-10T13:57:26Z</time>
      </trkpt>
      <trkpt lat="45.15104" lon="5.87766">
        <ele>1132.1</ele>
        <time>2018-11-10T13:57:27Z</time>
      </trkpt>
      <trkpt lat="45.15094" lon="5.87737">
        <ele>1133.95</ele>
        <time>2018-11-10T13:57:28Z</time>
      </trkpt>
      <trkpt lat="45.15084" lon="5.87707">
        <ele>1135.2</ele>
        <time>2018-11-10T13:57:29Z</time>
      </trkpt>
      <trkpt lat="45.15077" lon="5.8768">
        <ele>1134.88</ele>
        <time>2018-11-10T13:57:30Z</time>
      </trkpt>
      <trkpt lat="45.15071" lon="5.8765">
        <ele>1136.88</ele>
        <time>2018-11-10T13:57:31Z</time>
      </trkpt>
      <trkpt lat="45.15071" lon="5.87621">
        <ele>1138.18</ele>
        <time>2018-11-10T13:57:32Z</time>
      </trkpt>
      <trkpt lat="45.15074" lon="5.87591">
        <ele>1139.27</ele>
        <time>2018-11-10T13:57:33Z</time>
      </trkpt>
      <trkpt lat="45.15078" lon="5.8756">
        <ele>1142.4</ele>
        <time>2018-11-10T13:57:34Z</time>
      </trkpt>
      <trkpt lat="45.15076" lon="5.87533">
        <ele>1144.04</ele>
        <time>2018-11-10T13:57:35Z</time>
      </trkpt>
      <trkpt lat="45.15069" lon="5.87506">
        <ele>1145.23</ele>
        <time>2018-11-10T13:57:36Z</time>
      </trkpt>
      <trkpt lat="45.15068" lon="5.8748">
        <ele>1147.69</ele>
        <time>2018-11-10T13:57:37Z</time>
      </trkpt>
      <trkpt lat="45.15051" lon="5.87436">
        <ele>1149.14</ele>
        <time>2018-11-10T13:57:39Z</time>
      </trkpt>
      <trkpt lat="45.15019" lon="5.8742">
        <ele>1154.94</ele>
        <time>2018-11-10T13:57:41Z</time>
      </trkpt>
      <trkpt lat="45.14595" lon="5.87503">
        <ele>1176.41</ele>
        <time>2018-11-10T13:57:58Z</time>
      </trkpt>
      <trkpt lat="45.14568" lon="5.87492">
        <ele>1178.74</ele>
        <time>2018-11-10T13:57:59Z</time>
      </trkpt>
      <trkpt lat="45.14544" lon="5.8749">
        <ele>1182.94</ele>
        <time>2018-11-10T13:58:00Z</time>
      </trkpt>
      <trkpt lat="45.14521" lon="5.87485">
        <ele>1184.9</ele>
        <time>2018-11-10T13:58:01Z</time>
      </trkpt>
      <trkpt lat="45.14497" lon="5.87473">
        <ele>1185.49</ele>
        <time>2018-11-10T13:58:02Z</time>
      </trkpt>
      <trkpt lat="45.14474" lon="5.87458">
        <ele>1187.07</ele>
        <time>2018-11-10T13:58:03Z</time>
      </trkpt>
      <trkpt lat="45.14452" lon="5.87443">
        <ele>1186.84</ele>
        <time>2018-11-10T13:58:04Z</time>
      </trkpt>
      <trkpt lat="45.14431" lon="5.8743">
        <ele>1187.47</ele>
        <time>2018-11-10T13:58:05Z</time>
      </trkpt>
      <trkpt lat="45.14408" lon="5.87414">
        <ele>1189.06</ele>
        <time>2018-11-10T13:58:06Z</time>
      </trkpt>
      <trkpt lat="45.1439" lon="5.874">
        <ele>1189.54</ele>
        <time>2018-11-10T13:58:07Z</time>
      </trkpt>
      <trkpt lat="45.14366" lon="5.87409">
        <ele>1191.78</ele>
        <time>2018-11-10T13:58:08Z</time>
      </trkpt>
      <trkpt lat="45.14341" lon="5.87416">
        <ele>1193.15</ele>
        <time>2018-11-10T13:58:09Z</time>
      </trkpt>
      <trkpt lat="45.14319" lon="5.87429">
        <ele>1194.26</ele>
        <time>2018-11-10T13:58:10Z</time>
      </trkpt>
      <trkpt lat="45.14293" lon="5.87438">
        <ele>1196</ele>
        <time>2018-11-10T13:58:11Z</time>
      </trkpt>
      <trkpt lat="45.14256" lon="5.87459">
        <ele>1197.92</ele>
        <time>2018-11-10T13:58:12Z</time>
      </trkpt>
      <trkpt lat="45.14225" lon="5.87465">
        <ele>1199.89</ele>
        <time>2018-11-10T13:58:13Z</time>
      </trkpt>
      <trkpt lat="45.14196" lon="5.87471">
        <ele>1202.59</ele>
        <time>2018-11-10T13:58:14Z</time>
      </trkpt>
      <trkpt lat="45.14165" lon="5.87473">
        <ele>1204.09</ele>
        <time>2018-11-10T13:58:15Z</time>
      </trkpt>
      <trkpt lat="45.14135" lon="5.87473">
        <ele>1205.95</ele>
        <time>2018-11-10T13:58:16Z</time>
      </trkpt>
      <trkpt lat="45.14108" lon="5.87476">
        <ele>1207.9</ele>
        <time>2018-11-10T13:58:17Z</time>
      </trkpt>
      <trkpt lat="45.1408" lon="5.87484">
        <ele>1208.49</ele>
        <time>2018-11-10T13:58:18Z</time>
      </trkpt>
      <trkpt lat="45.14057" lon="5.87498">
        <ele>1209.37</ele>
        <time>2018-11-10T13:58:19Z</time>
      </trkpt>
      <trkpt lat="45.14032" lon="5.87513">
        <ele>1211.73</ele>
        <time>2018-11-10T13:58:20Z</time>
      </trkpt>
      <trkpt lat="45.14009" lon="5.87522">
        <ele>1213.84</ele>
        <time>2018-11-10T13:58:21Z</time>
      </trkpt>
      <trkpt lat="45.13992" lon="5.87536">
        <ele>1215.17</ele>
        <time>2018-11-10T13:58:22Z</time>
      </trkpt>
      <trkpt lat="45.13974" lon="5.87546">
        <ele>1216.27</ele>
        <time>2018-11-10T13:58:23Z</time>
      </trkpt>
      <trkpt lat="45.13954" lon="5.8755">
        <ele>1216.6</ele>
        <time>2018-11-10T13:58:24Z</time>
      </trkpt>
      <trkpt lat="45.13937" lon="5.8754">
        <ele>1218.8</ele>
        <time>2018-11-10T13:58:25Z</time>
      </trkpt>
      <trkpt lat="45.13915" lon="5.8753">
        <ele>1222.25</ele>
        <time>2018-11-10T13:58:27Z</time>
      </trkpt>
      <trkpt lat="45.13898" lon="5.87484">
        <ele>1224.52</ele>
        <time>2018-11-10T13:58:29Z</time>
      </trkpt>
      <trkpt lat="45.13885" lon="5.87449">
        <ele>1226.07</ele>
        <time>2018-11-10T13:58:30Z</time>
      </trkpt>
      <trkpt lat="45.1387" lon="5.87428">
        <ele>1227.94</ele>
        <time>2018-11-10T13:58:31Z</time>
      </trkpt>
      <trkpt lat="45.13858" lon="5.87406">
        <ele>1229.9</ele>
        <time>2018-11-10T13:58:32Z</time>
      </trkpt>
      <trkpt lat="45.13845" lon="5.87385">
        <ele>1233.29</ele>
        <time>2018-11-10T13:58:33Z</time>
      </trkpt>
      <trkpt lat="45.13818" lon="5.87354">
        <ele>1236.01</ele>
        <time>2018-11-10T13:58:35Z</time>
      </trkpt>
      <trkpt lat="45.13796" lon="5.8733">
        <ele>1238.29</ele>
        <time>2018-11-10T13:58:37Z</time>
      </trkpt>
      <trkpt lat="45.13815" lon="5.87355">
        <ele>1239.3</ele>
        <time>2018-11-10T13:58:38Z</time>
      </trkpt>
      <trkpt lat="45.13815" lon="5.87394">
        <ele>1244.01</ele>
        <time>2018-11-10T13:58:42Z</time>
      </trkpt>
      <trkpt lat="45.13825" lon="5.87416">
        <ele>1249.02</ele>
        <time>2018-11-10T13:58:44Z</time>
      </trkpt>
      <trkpt lat="45.13852" lon="5.87442">
        <ele>1254.51</ele>
        <time>2018-11-10T13:58:46Z</time>
      </trkpt>
      <trkpt lat="45.13886" lon="5.87463">
        <ele>1262.56</ele>
        <time>2018-11-10T13:58:48Z</time>
      </trkpt>
      <trkpt lat="45.13902" lon="5.87494">
        <ele>1264.09</ele>
        <time>2018-11-10T13:58:49Z</time>
      </trkpt>
      <trkpt lat="45.13912" lon="5.87518">
        <ele>1265.94</ele>
        <time>2018-11-10T13:58:50Z</time>
      </trkpt>
      <trkpt lat="45.13918" lon="5.87544">
        <ele>1266.5</ele>
        <time>2018-11-10T13:58:51Z</time>
      </trkpt>
      <trkpt lat="45.13931" lon="5.87566">
        <ele>1268.07</ele>
        <time>2018-11-10T13:58:52Z</time>
      </trkpt>
      <trkpt lat="45.13943" lon="5.87605">
        <ele>1269.59</ele>
        <time>2018-11-10T13:58:54Z</time>
      </trkpt>
      <trkpt lat="45.13959" lon="5.87647">
        <ele>1272.95</ele>
        <time>2018-11-10T13:58:56Z</time>
      </trkpt>
      <trkpt lat="45.13994" lon="5.87652">
        <ele>1276.4</ele>
        <time>2018-11-10T13:58:58Z</time>
      </trkpt>
      <trkpt lat="45.14028" lon="5.87635">
        <ele>1278.74</ele>
        <time>2018-11-10T13:58:59Z</time>
      </trkpt>
      <trkpt lat="45.14052" lon="5.87613">
        <ele>1280.14</ele>
        <time>2018-11-10T13:59:00Z</time>
      </trkpt>
      <trkpt lat="45.14078" lon="5.87603">
        <ele>1281.26</ele>
        <time>2018-11-10T13:59:01Z</time>
      </trkpt>
      <trkpt lat="45.14102" lon="5.8759">
        <ele>1280.2</ele>
        <time>2018-11-10T13:59:02Z</time>
      </trkpt>
      <trkpt lat="45.14126" lon="5.87586">
        <ele>1279.88</ele>
        <time>2018-11-10T13:59:03Z</time>
      </trkpt>
      <trkpt lat="45.14148" lon="5.87585">
        <ele>1279.78</ele>
        <time>2018-11-10T13:59:04Z</time>
      </trkpt>
      <trkpt lat="45.1417" lon="5.87589">
        <ele>1283.25</ele>
        <time>2018-11-10T13:59:05Z</time>
      </trkpt>
      <trkpt lat="45.14191" lon="5.87598">
        <ele>1284.29</ele>
        <time>2018-11-10T13:59:06Z</time>
      </trkpt>
      <trkpt lat="45.14212" lon="5.87601">
        <ele>1286.01</ele>
        <time>2018-11-10T13:59:07Z</time>
      </trkpt>
      <trkpt lat="45.14237" lon="5.87607">
        <ele>1287.22</ele>
        <time>2018-11-10T13:59:08Z</time>
      </trkpt>
      <trkpt lat="45.14271" lon="5.87628">
        <ele>1288.98</ele>
        <time>2018-11-10T13:59:09Z</time>
      </trkpt>
      <trkpt lat="45.14297" lon="5.87647">
        <ele>1288.81</ele>
        <time>2018-11-10T13:59:10Z</time>
      </trkpt>
      <trkpt lat="45.14325" lon="5.87664">
        <ele>1289.46</ele>
        <time>2018-11-10T13:59:11Z</time>
      </trkpt>
      <trkpt lat="45.14348" lon="5.87679">
        <ele>1290.36</ele>
        <time>2018-11-10T13:59:12Z</time>
      </trkpt>
      <trkpt lat="45.14371" lon="5.87695">
        <ele>1292.03</ele>
        <time>2018-11-10T13:59:13Z</time>
      </trkpt>
      <trkpt lat="45.14394" lon="5.87709">
        <ele>1293.93</ele>
        <time>2018-11-10T13:59:14Z</time>
      </trkpt>
      <trkpt lat="45.14418" lon="5.87727">
        <ele>1295.9</ele>
        <time>2018-11-10T13:59:15Z</time>
      </trkpt>
      <trkpt lat="45.14441" lon="5.87743">
        <ele>1297.19</ele>
        <time>2018-11-10T13:59:16Z</time>
      </trkpt>
      <trkpt lat="45.14466" lon="5.87763">
        <ele>1297.57</ele>
        <time>2018-11-10T13:59:17Z</time>
      </trkpt>
      <trkpt lat="45.14484" lon="5.87781">
        <ele>1298.39</ele>
        <time>2018-11-10T13:59:18Z</time>
      </trkpt>
      <trkpt lat="45.14509" lon="5.87796">
        <ele>1300.04</ele>
        <time>2018-11-10T13:59:19Z</time>
      </trkpt>
      <trkpt lat="45.14532" lon="5.87815">
        <ele>1302.63</ele>
        <time>2018-11-10T13:59:20Z</time>
      </trkpt>
      <trkpt lat="45.14553" lon="5.87813">
        <ele>1305.51</ele>
        <time>2018-11-10T13:59:21Z</time>
      </trkpt>
      <trkpt lat="45.14575" lon="5.8782">
        <ele>1309.17</ele>
        <time>2018-11-10T13:59:22Z</time>
      </trkpt>
      <trkpt lat="45.14596" lon="5.87835">
        <ele>1311.67</ele>
        <time>2018-11-10T13:59:23Z</time>
      </trkpt>
      <trkpt lat="45.14616" lon="5.87851">
        <ele>1314.52</ele>
        <time>2018-11-10T13:59:24Z</time>
      </trkpt>
      <trkpt lat="45.14633" lon="5.87867">
        <ele>1314.67</ele>
        <time>2018-11-10T13:59:25Z</time>
      </trkpt>
      <trkpt lat="45.14646" lon="5.87923">
        <ele>1314.73</ele>
        <time>2018-11-10T13:59:27Z</time>
      </trkpt>
      <trkpt lat="45.14643" lon="5.87963">
        <ele>1314.74</ele>
        <time>2018-11-10T13:59:28Z</time>
      </trkpt>
      <trkpt lat="45.14643" lon="5.88012">
        <ele>1315.44</ele>
        <time>2018-11-10T13:59:29Z</time>
      </trkpt>
      <trkpt lat="45.1465" lon="5.8805">
        <ele>1315.65</ele>
        <time>2018-11-10T13:59:30Z</time>
      </trkpt>
      <trkpt lat="45.14657" lon="5.88087">
        <ele>1316.41</ele>
        <time>2018-11-10T13:59:31Z</time>
      </trkpt>
      <trkpt lat="45.14651" lon="5.88129">
        <ele>1316.64</ele>
        <time>2018-11-10T13:59:32Z</time>
      </trkpt>
      <trkpt lat="45.14649" lon="5.88168">
        <ele>1318.11</ele>
        <time>2018-11-10T13:59:33Z</time>
      </trkpt>
      <trkpt lat="45.1465" lon="5.88201">
        <ele>1317.85</ele>
        <time>2018-11-10T13:59:34Z</time>
      </trkpt>
      <trkpt lat="45.14638" lon="5.88245">
        <ele>1319.17</ele>
        <time>2018-11-10T13:59:35Z</time>
      </trkpt>
      <trkpt lat="45.14628" lon="5.88286">
        <ele>1320.27</ele>
        <time>2018-11-10T13:59:36Z</time>
      </trkpt>
      <trkpt lat="45.14618" lon="5.88327">
        <ele>1321.3</ele>
        <time>2018-11-10T13:59:37Z</time>
      </trkpt>
      <trkpt lat="45.14609" lon="5.88367">
        <ele>1321.61</ele>
        <time>2018-11-10T13:59:38Z</time>
      </trkpt>
      <trkpt lat="45.14606" lon="5.88397">
        <ele>1323.1</ele>
        <time>2018-11-10T13:59:39Z</time>
      </trkpt>
      <trkpt lat="45.146" lon="5.88425">
        <ele>1325.65</ele>
        <time>2018-11-10T13:59:40Z</time>
      </trkpt>
      <trkpt lat="45.14589" lon="5.88449">
        <ele>1326.41</ele>
        <time>2018-11-10T13:59:41Z</time>
      </trkpt>
      <trkpt lat="45.14579" lon="5.88474">
        <ele>1328.04</ele>
        <time>2018-11-10T13:59:42Z</time>
      </trkpt>
      <trkpt lat="45.14571" lon="5.88498">
        <ele>1329.23</ele>
        <time>2018-11-10T13:59:43Z</time>
      </trkpt>
      <trkpt lat="45.14559" lon="5.88521">
        <ele>1329.59</ele>
        <time>2018-11-10T13:59:44Z</time>
      </trkpt>
      <trkpt lat="45.14543" lon="5.8854">
        <ele>1331.1</ele>
        <time>2018-11-10T13:59:45Z</time>
      </trkpt>
      <trkpt lat="45.14517" lon="5.8857">
        <ele>1332.38</ele>
        <time>2018-11-10T13:59:47Z</time>
      </trkpt>
      <trkpt lat="45.145" lon="5.8859">
        <ele>1333.33</ele>
        <time>2018-11-10T13:59:48Z</time>
      </trkpt>
      <trkpt lat="45.14487" lon="5.88624">
        <ele>1333.62</ele>
        <time>2018-11-10T13:59:49Z</time>
      </trkpt>
      <trkpt lat="45.14474" lon="5.88655">
        <ele>1334.4</ele>
        <time>2018-11-10T13:59:50Z</time>
      </trkpt>
      <trkpt lat="45.14453" lon="5.88686">
        <ele>1336.11</ele>
        <time>2018-11-10T13:59:52Z</time>
      </trkpt>
      <trkpt lat="45.14439" lon="5.88704">
        <ele>1336.55</ele>
        <time>2018-11-10T13:59:53Z</time>
      </trkpt>
      <trkpt lat="45.14424" lon="5.88724">
        <ele>1335.98</ele>
        <time>2018-11-10T13:59:54Z</time>
      </trkpt>
      <trkpt lat="45.144" lon="5.88744">
        <ele>1335.11</ele>
        <time>2018-11-10T13:59:55Z</time>
      </trkpt>
      <trkpt lat="45.14376" lon="5.88744">
        <ele>1334.85</ele>
        <time>2018-11-10T13:59:56Z</time>
      </trkpt>
      <trkpt lat="45.14347" lon="5.88749">
        <ele>1334.77</ele>
        <time>2018-11-10T13:59:57Z</time>
      </trkpt>
      <trkpt lat="45.14313" lon="5.88748">
        <ele>1335.45</ele>
        <time>2018-11-10T13:59:58Z</time>
      </trkpt>
      <trkpt lat="45.14284" lon="5.8876">
        <ele>1337.05</ele>
        <time>2018-11-10T13:59:59Z</time>
      </trkpt>
      <trkpt lat="45.14257" lon="5.88767">
        <ele>1338.23</ele>
        <time>2018-11-10T14:00:00Z</time>
      </trkpt>
      <trkpt lat="45.14229" lon="5.88772">
        <ele>1339.29</ele>
        <time>2018-11-10T14:00:01Z</time>
      </trkpt>
      <trkpt lat="45.14205" lon="5.88781">
        <ele>1342.41</ele>
        <time>2018-11-10T14:00:02Z</time>
      </trkpt>
      <trkpt lat="45.14181" lon="5.8879">
        <ele>1346.84</ele>
        <time>2018-11-10T14:00:03Z</time>
      </trkpt>
      <trkpt lat="45.1416" lon="5.888">
        <ele>1349.57</ele>
        <time>2018-11-10T14:00:04Z</time>
      </trkpt>
      <trkpt lat="45.14139" lon="5.88806">
        <ele>1351.79</ele>
        <time>2018-11-10T14:00:05Z</time>
      </trkpt>
      <trkpt lat="45.14119" lon="5.88817">
        <ele>1353.86</ele>
        <time>2018-11-10T14:00:06Z</time>
      </trkpt>
      <trkpt lat="45.14101" lon="5.88827">
        <ele>1360.4</ele>
        <time>2018-11-10T14:00:08Z</time>
      </trkpt>
      <trkpt lat="45.14087" lon="5.88803">
        <ele>1363.8</ele>
        <time>2018-11-10T14:00:11Z</time>
      </trkpt>
      <trkpt lat="45.14106" lon="5.88798">
        <ele>1375.92</ele>
        <time>2018-11-10T14:00:22Z</time>
      </trkpt>
      <trkpt lat="45.14116" lon="5.88828">
        <ele>1378.27</ele>
        <time>2018-11-10T14:00:30Z</time>
      </trkpt>
      <trkpt lat="45.14124" lon="5.88805">
        <ele>1380.74</ele>
        <time>2018-11-10T14:00:44Z</time>
      </trkpt>
      <trkpt lat="45.14134" lon="5.88774">
        <ele>1388.61</ele>
        <time>2018-11-10T14:01:12Z</time>
      </trkpt>
      <trkpt lat="45.14167" lon="5.88754">
        <ele>1387.33</ele>
        <time>2018-11-10T14:01:14Z</time>
      </trkpt>
      <trkpt lat="45.14189" lon="5.88744">
        <ele>1384.82</ele>
        <time>2018-11-10T14:01:15Z</time>
      </trkpt>
      <trkpt lat="45.1422" lon="5.88739">
        <ele>1384.76</ele>
        <time>2018-11-10T14:01:16Z</time>
      </trkpt>
      <trkpt lat="45.14243" lon="5.8873">
        <ele>1384.75</ele>
        <time>2018-11-10T14:01:17Z</time>
      </trkpt>
      <trkpt lat="45.1427" lon="5.88719">
        <ele>1384.74</ele>
        <time>2018-11-10T14:01:18Z</time>
      </trkpt>
      <trkpt lat="45.14288" lon="5.88707">
        <ele>1384.04</ele>
        <time>2018-11-10T14:01:19Z</time>
      </trkpt>
      <trkpt lat="45.14312" lon="5.88691">
        <ele>1384.53</ele>
        <time>2018-11-10T14:01:20Z</time>
      </trkpt>
      <trkpt lat="45.14337" lon="5.88678">
        <ele>1385.38</ele>
        <time>2018-11-10T14:01:21Z</time>
      </trkpt>
      <trkpt lat="45.14359" lon="5.88657">
        <ele>1385.63</ele>
        <time>2018-11-10T14:01:22Z</time>
      </trkpt>
      <trkpt lat="45.14379" lon="5.88645">
        <ele>1387.81</ele>
        <time>2018-11-10T14:01:23Z</time>
      </trkpt>
      <trkpt lat="45.14403" lon="5.88624">
        <ele>1392.58</ele>
        <time>2018-11-10T14:01:25Z</time>
      </trkpt>
      <trkpt lat="45.14416" lon="5.88605">
        <ele>1394.09</ele>
        <time>2018-11-10T14:01:26Z</time>
      </trkpt>
      <trkpt lat="45.1443" lon="5.88586">
        <ele>1395.95</ele>
        <time>2018-11-10T14:01:27Z</time>
      </trkpt>
      <trkpt lat="45.14438" lon="5.88556">
        <ele>1393.7</ele>
        <time>2018-11-10T14:01:28Z</time>
      </trkpt>
      <trkpt lat="45.14449" lon="5.88516">
        <ele>1395.83</ele>
        <time>2018-11-10T14:01:29Z</time>
      </trkpt>
      <trkpt lat="45.14446" lon="5.88471">
        <ele>1397.87</ele>
        <time>2018-11-10T14:01:30Z</time>
      </trkpt>
      <trkpt lat="45.14452" lon="5.88432">
        <ele>1401.98</ele>
        <time>2018-11-10T14:01:31Z</time>
      </trkpt>
      <trkpt lat="45.14456" lon="5.88394">
        <ele>1403.21</ele>
        <time>2018-11-10T14:01:32Z</time>
      </trkpt>
      <trkpt lat="45.14463" lon="5.88357">
        <ele>1404.98</ele>
        <time>2018-11-10T14:01:33Z</time>
      </trkpt>
      <trkpt lat="45.14475" lon="5.88325">
        <ele>1407.61</ele>
        <time>2018-11-10T14:01:34Z</time>
      </trkpt>
      <trkpt lat="45.14484" lon="5.88294">
        <ele>1409.8</ele>
        <time>2018-11-10T14:01:35Z</time>
      </trkpt>
      <trkpt lat="45.14492" lon="5.88266">
        <ele>1411.86</ele>
        <time>2018-11-10T14:01:36Z</time>
      </trkpt>
      <trkpt lat="45.14498" lon="5.88238">
        <ele>1414.58</ele>
        <time>2018-11-10T14:01:37Z</time>
      </trkpt>
      <trkpt lat="45.14502" lon="5.8821">
        <ele>1415.39</ele>
        <time>2018-11-10T14:01:38Z</time>
      </trkpt>
      <trkpt lat="45.14504" lon="5.88183">
        <ele>1417.74</ele>
        <time>2018-11-10T14:01:39Z</time>
      </trkpt>
      <trkpt lat="45.14506" lon="5.88156">
        <ele>1417.74</ele>
        <time>2018-11-10T14:01:40Z</time>
      </trkpt>
      <trkpt lat="45.145" lon="5.88126">
        <ele>1417.74</ele>
        <time>2018-11-10T14:01:41Z</time>
      </trkpt>
      <trkpt lat="45.14493" lon="5.881">
        <ele>1418.44</ele>
        <time>2018-11-10T14:01:42Z</time>
      </trkpt>
      <trkpt lat="45.14482" lon="5.88076">
        <ele>1417.95</ele>
        <time>2018-11-10T14:01:43Z</time>
      </trkpt>
      <trkpt lat="45.14467" lon="5.8805">
        <ele>1417.8</ele>
        <time>2018-11-10T14:01:44Z</time>
      </trkpt>
      <trkpt lat="45.14454" lon="5.88027">
        <ele>1417.76</ele>
        <time>2018-11-10T14:01:45Z</time>
      </trkpt>
      <trkpt lat="45.14441" lon="5.88007">
        <ele>1419.15</ele>
        <time>2018-11-10T14:01:46Z</time>
      </trkpt>
      <trkpt lat="45.14423" lon="5.87981">
        <ele>1419.56</ele>
        <time>2018-11-10T14:01:47Z</time>
      </trkpt>
      <trkpt lat="45.14393" lon="5.87966">
        <ele>1417.59</ele>
        <time>2018-11-10T14:01:48Z</time>
      </trkpt>
      <trkpt lat="45.14367" lon="5.87969">
        <ele>1417.69</ele>
        <time>2018-11-10T14:01:49Z</time>
      </trkpt>
      <trkpt lat="45.14332" lon="5.87969">
        <ele>1418.43</ele>
        <time>2018-11-10T14:01:50Z</time>
      </trkpt>
      <trkpt lat="45.14295" lon="5.87971">
        <ele>1419.35</ele>
        <time>2018-11-10T14:01:51Z</time>
      </trkpt>
      <trkpt lat="45.14267" lon="5.87961">
        <ele>1421.02</ele>
        <time>2018-11-10T14:01:52Z</time>
      </trkpt>
      <trkpt lat="45.14245" lon="5.87972">
        <ele>1422.23</ele>
        <time>2018-11-10T14:01:53Z</time>
      </trkpt>
      <trkpt lat="45.1422" lon="5.87965">
        <ele>1423.99</ele>
        <time>2018-11-10T14:01:54Z</time>
      </trkpt>
      <trkpt lat="45.14198" lon="5.87953">
        <ele>1425.91</ele>
        <time>2018-11-10T14:01:55Z</time>
      </trkpt>
      <trkpt lat="45.14181" lon="5.87948">
        <ele>1429.29</ele>
        <time>2018-11-10T14:01:56Z</time>
      </trkpt>
      <trkpt lat="45.14144" lon="5.87946">
        <ele>1432.92</ele>
        <time>2018-11-10T14:01:58Z</time>
      </trkpt>
      <trkpt lat="45.14125" lon="5.87945">
        <ele>1432.79</ele>
        <time>2018-11-10T14:01:59Z</time>
      </trkpt>
      <trkpt lat="45.14107" lon="5.87949">
        <ele>1434.16</ele>
        <time>2018-11-10T14:02:00Z</time>
      </trkpt>
      <trkpt lat="45.14089" lon="5.87957">
        <ele>1434.57</ele>
        <time>2018-11-10T14:02:01Z</time>
      </trkpt>
      <trkpt lat="45.14046" lon="5.87968">
        <ele>1434.73</ele>
        <time>2018-11-10T14:02:03Z</time>
      </trkpt>
      <trkpt lat="45.14008" lon="5.87994">
        <ele>1434.74</ele>
        <time>2018-11-10T14:02:04Z</time>
      </trkpt>
      <trkpt lat="45.13977" lon="5.88013">
        <ele>1436.84</ele>
        <time>2018-11-10T14:02:05Z</time>
      </trkpt>
      <trkpt lat="45.13951" lon="5.88027">
        <ele>1438.87</ele>
        <time>2018-11-10T14:02:06Z</time>
      </trkpt>
      <trkpt lat="45.13922" lon="5.8804">
        <ele>1441.58</ele>
        <time>2018-11-10T14:02:07Z</time>
      </trkpt>
      <trkpt lat="45.13896" lon="5.8805">
        <ele>1443.79</ele>
        <time>2018-11-10T14:02:08Z</time>
      </trkpt>
      <trkpt lat="45.13872" lon="5.88057">
        <ele>1445.86</ele>
        <time>2018-11-10T14:02:09Z</time>
      </trkpt>
      <trkpt lat="45.13851" lon="5.88063">
        <ele>1448.58</ele>
        <time>2018-11-10T14:02:10Z</time>
      </trkpt>
      <trkpt lat="45.13828" lon="5.88067">
        <ele>1450.79</ele>
        <time>2018-11-10T14:02:11Z</time>
      </trkpt>
      <trkpt lat="45.13803" lon="5.88071">
        <ele>1453.56</ele>
        <time>2018-11-10T14:02:12Z</time>
      </trkpt>
      <trkpt lat="45.13779" lon="5.88075">
        <ele>1455.09</ele>
        <time>2018-11-10T14:02:13Z</time>
      </trkpt>
      <trkpt lat="45.13757" lon="5.88078">
        <ele>1454.84</ele>
        <time>2018-11-10T14:02:14Z</time>
      </trkpt>
      <trkpt lat="45.13735" lon="5.88083">
        <ele>1455.47</ele>
        <time>2018-11-10T14:02:15Z</time>
      </trkpt>
      <trkpt lat="45.1371" lon="5.88086">
        <ele>1457.76</ele>
        <time>2018-11-10T14:02:16Z</time>
      </trkpt>
      <trkpt lat="45.13685" lon="5.8809">
        <ele>1459.15</ele>
        <time>2018-11-10T14:02:17Z</time>
      </trkpt>
      <trkpt lat="45.13663" lon="5.88094">
        <ele>1461.66</ele>
        <time>2018-11-10T14:02:18Z</time>
      </trkpt>
      <trkpt lat="45.13633" lon="5.88078">
        <ele>1463.82</ele>
        <time>2018-11-10T14:02:19Z</time>
      </trkpt>
      <trkpt lat="45.13606" lon="5.88072">
        <ele>1465.16</ele>
        <time>2018-11-10T14:02:20Z</time>
      </trkpt>
      <trkpt lat="45.13578" lon="5.88068">
        <ele>1467.67</ele>
        <time>2018-11-10T14:02:21Z</time>
      </trkpt>
      <trkpt lat="45.13547" lon="5.88051">
        <ele>1469.12</ele>
        <time>2018-11-10T14:02:22Z</time>
      </trkpt>
      <trkpt lat="45.1352" lon="5.88038">
        <ele>1470.95</ele>
        <time>2018-11-10T14:02:23Z</time>
      </trkpt>
      <trkpt lat="45.13493" lon="5.8803">
        <ele>1472.21</ele>
        <time>2018-11-10T14:02:24Z</time>
      </trkpt>
      <trkpt lat="45.13465" lon="5.88007">
        <ele>1473.28</ele>
        <time>2018-11-10T14:02:25Z</time>
      </trkpt>
      <trkpt lat="45.1344" lon="5.8799">
        <ele>1474.3</ele>
        <time>2018-11-10T14:02:26Z</time>
      </trkpt>
      <trkpt lat="45.1341" lon="5.87962">
        <ele>1476.01</ele>
        <time>2018-11-10T14:02:27Z</time>
      </trkpt>
      <trkpt lat="45.1339" lon="5.87959">
        <ele>1477.92</ele>
        <time>2018-11-10T14:02:28Z</time>
      </trkpt>
      <trkpt lat="45.13368" lon="5.87936">
        <ele>1479.2</ele>
        <time>2018-11-10T14:02:29Z</time>
      </trkpt>
      <trkpt lat="45.13356" lon="5.87916">
        <ele>1483.08</ele>
        <time>2018-11-10T14:02:30Z</time>
      </trkpt>
      <trkpt lat="45.13339" lon="5.87888">
        <ele>1485.64</ele>
        <time>2018-11-10T14:02:31Z</time>
      </trkpt>
      <trkpt lat="45.13332" lon="5.87861">
        <ele>1487.11</ele>
        <time>2018-11-10T14:02:32Z</time>
      </trkpt>
      <trkpt lat="45.13315" lon="5.87822">
        <ele>1490.2</ele>
        <time>2018-11-10T14:02:34Z</time>
      </trkpt>
      <trkpt lat="45.13319" lon="5.87774">
        <ele>1489.99</ele>
        <time>2018-11-10T14:02:36Z</time>
      </trkpt>
      <trkpt lat="45.13333" lon="5.87748">
        <ele>1491.22</ele>
        <time>2018-11-10T14:02:37Z</time>
      </trkpt>
      <trkpt lat="45.13347" lon="5.87729">
        <ele>1492.28</ele>
        <time>2018-11-10T14:02:38Z</time>
      </trkpt>
      <trkpt lat="45.13366" lon="5.87714">
        <ele>1495.4</ele>
        <time>2018-11-10T14:02:39Z</time>
      </trkpt>
      <trkpt lat="45.13378" lon="5.87679">
        <ele>1499.84</ele>
        <time>2018-11-10T14:02:41Z</time>
      </trkpt>
      <trkpt lat="45.13385" lon="5.87642">
        <ele>1503.39</ele>
        <time>2018-11-10T14:02:43Z</time>
      </trkpt>
      <trkpt lat="45.13378" lon="5.87606">
        <ele>1503.71</ele>
        <time>2018-11-10T14:02:45Z</time>
      </trkpt>
      <trkpt lat="45.13359" lon="5.87581">
        <ele>1504.65</ele>
        <time>2018-11-10T14:02:47Z</time>
      </trkpt>
      <trkpt lat="45.13336" lon="5.87555">
        <ele>1506.34</ele>
        <time>2018-11-10T14:02:49Z</time>
      </trkpt>
      <trkpt lat="45.13303" lon="5.87569">
        <ele>1505.22</ele>
        <time>2018-11-10T14:02:50Z</time>
      </trkpt>
      <trkpt lat="45.13276" lon="5.87591">
        <ele>1506.29</ele>
        <time>2018-11-10T14:02:51Z</time>
      </trkpt>
      <trkpt lat="45.13255" lon="5.876">
        <ele>1507.3</ele>
        <time>2018-11-10T14:02:52Z</time>
      </trkpt>
      <trkpt lat="45.13234" lon="5.87604">
        <ele>1509.01</ele>
        <time>2018-11-10T14:02:53Z</time>
      </trkpt>
      <trkpt lat="45.13213" lon="5.87607">
        <ele>1509.52</ele>
        <time>2018-11-10T14:02:54Z</time>
      </trkpt>
      <trkpt lat="45.13182" lon="5.87604">
        <ele>1511.54</ele>
        <time>2018-11-10T14:02:56Z</time>
      </trkpt>
      <trkpt lat="45.13158" lon="5.87571">
        <ele>1514.94</ele>
        <time>2018-11-10T14:02:58Z</time>
      </trkpt>
      <trkpt lat="45.1315" lon="5.87544">
        <ele>1516.2</ele>
        <time>2018-11-10T14:02:59Z</time>
      </trkpt>
      <trkpt lat="45.13141" lon="5.87502">
        <ele>1517.98</ele>
        <time>2018-11-10T14:03:00Z</time>
      </trkpt>
      <trkpt lat="45.1313" lon="5.8748">
        <ele>1518.51</ele>
        <time>2018-11-10T14:03:01Z</time>
      </trkpt>
      <trkpt lat="45.13107" lon="5.87443">
        <ele>1520.33</ele>
        <time>2018-11-10T14:03:03Z</time>
      </trkpt>
      <trkpt lat="45.1307" lon="5.8743">
        <ele>1519.79</ele>
        <time>2018-11-10T14:03:05Z</time>
      </trkpt>
      <trkpt lat="45.13055" lon="5.87404">
        <ele>1520.46</ele>
        <time>2018-11-10T14:03:06Z</time>
      </trkpt>
      <trkpt lat="45.13047" lon="5.87366">
        <ele>1527.16</ele>
        <time>2018-11-10T14:03:08Z</time>
      </trkpt>
      <trkpt lat="45.13032" lon="5.87327">
        <ele>1530.91</ele>
        <time>2018-11-10T14:03:10Z</time>
      </trkpt>
      <trkpt lat="45.13011" lon="5.87296">
        <ele>1534.19</ele>
        <time>2018-11-10T14:03:12Z</time>
      </trkpt>
      <trkpt lat="45.1297" lon="5.87274">
        <ele>1538.12</ele>
        <time>2018-11-10T14:03:14Z</time>
      </trkpt>
      <trkpt lat="45.12944" lon="5.87269">
        <ele>1539.26</ele>
        <time>2018-11-10T14:03:15Z</time>
      </trkpt>
      <trkpt lat="45.12922" lon="5.87248">
        <ele>1542.4</ele>
        <time>2018-11-10T14:03:16Z</time>
      </trkpt>
      <trkpt lat="45.12904" lon="5.8723">
        <ele>1545.44</ele>
        <time>2018-11-10T14:03:17Z</time>
      </trkpt>
      <trkpt lat="45.12873" lon="5.87212">
        <ele>1548.44</ele>
        <time>2018-11-10T14:03:19Z</time>
      </trkpt>
      <trkpt lat="45.12842" lon="5.87228">
        <ele>1552.84</ele>
        <time>2018-11-10T14:03:21Z</time>
      </trkpt>
      <trkpt lat="45.12823" lon="5.87238">
        <ele>1555.57</ele>
        <time>2018-11-10T14:03:22Z</time>
      </trkpt>
      <trkpt lat="45.12788" lon="5.87249">
        <ele>1559.86</ele>
        <time>2018-11-10T14:03:24Z</time>
      </trkpt>
      <trkpt lat="45.12755" lon="5.87235">
        <ele>1560.66</ele>
        <time>2018-11-10T14:03:26Z</time>
      </trkpt>
      <trkpt lat="45.12728" lon="5.87204">
        <ele>1563.74</ele>
        <time>2018-11-10T14:03:28Z</time>
      </trkpt>
      <trkpt lat="45.12703" lon="5.87169">
        <ele>1563.74</ele>
        <time>2018-11-10T14:03:30Z</time>
      </trkpt>
      <trkpt lat="45.1269" lon="5.87153">
        <ele>1563.74</ele>
        <time>2018-11-10T14:03:31Z</time>
      </trkpt>
      <trkpt lat="45.12662" lon="5.87121">
        <ele>1565.84</ele>
        <time>2018-11-10T14:03:33Z</time>
      </trkpt>
      <trkpt lat="45.12637" lon="5.87123">
        <ele>1570.67</ele>
        <time>2018-11-10T14:03:34Z</time>
      </trkpt>
      <trkpt lat="45.12613" lon="5.87114">
        <ele>1573.52</ele>
        <time>2018-11-10T14:03:35Z</time>
      </trkpt>
      <trkpt lat="45.12589" lon="5.87108">
        <ele>1578.57</ele>
        <time>2018-11-10T14:03:36Z</time>
      </trkpt>
      <trkpt lat="45.12565" lon="5.87101">
        <ele>1582.19</ele>
        <time>2018-11-10T14:03:37Z</time>
      </trkpt>
      <trkpt lat="45.12542" lon="5.87103">
        <ele>1583.98</ele>
        <time>2018-11-10T14:03:38Z</time>
      </trkpt>
      <trkpt lat="45.12518" lon="5.87106">
        <ele>1585.21</ele>
        <time>2018-11-10T14:03:39Z</time>
      </trkpt>
      <trkpt lat="45.12493" lon="5.87109">
        <ele>1585.58</ele>
        <time>2018-11-10T14:03:40Z</time>
      </trkpt>
      <trkpt lat="45.12472" lon="5.87121">
        <ele>1586.39</ele>
        <time>2018-11-10T14:03:41Z</time>
      </trkpt>
      <trkpt lat="45.1245" lon="5.87132">
        <ele>1587.34</ele>
        <time>2018-11-10T14:03:42Z</time>
      </trkpt>
      <trkpt lat="45.12429" lon="5.87141">
        <ele>1588.32</ele>
        <time>2018-11-10T14:03:43Z</time>
      </trkpt>
      <trkpt lat="45.12408" lon="5.87148">
        <ele>1588.61</ele>
        <time>2018-11-10T14:03:44Z</time>
      </trkpt>
      <trkpt lat="45.12389" lon="5.87184">
        <ele>1591.04</ele>
        <time>2018-11-10T14:03:46Z</time>
      </trkpt>
      <trkpt lat="45.12394" lon="5.87217">
        <ele>1591.53</ele>
        <time>2018-11-10T14:03:47Z</time>
      </trkpt>
      <trkpt lat="45.12388" lon="5.87264">
        <ele>1593.54</ele>
        <time>2018-11-10T14:03:49Z</time>
      </trkpt>
      <trkpt lat="45.12403" lon="5.8731">
        <ele>1595.33</ele>
        <time>2018-11-10T14:03:51Z</time>
      </trkpt>
      <trkpt lat="45.12448" lon="5.87326">
        <ele>1594.92</ele>
        <time>2018-11-10T14:03:52Z</time>
      </trkpt>
      <trkpt lat="45.12471" lon="5.87344">
        <ele>1596.89</ele>
        <time>2018-11-10T14:03:53Z</time>
      </trkpt>
      <trkpt lat="45.12486" lon="5.87363">
        <ele>1597.49</ele>
        <time>2018-11-10T14:03:54Z</time>
      </trkpt>
      <trkpt lat="45.12502" lon="5.87391">
        <ele>1599.06</ele>
        <time>2018-11-10T14:03:55Z</time>
      </trkpt>
      <trkpt lat="45.12516" lon="5.87418">
        <ele>1600.94</ele>
        <time>2018-11-10T14:03:56Z</time>
      </trkpt>
      <trkpt lat="45.12527" lon="5.87445">
        <ele>1602.2</ele>
        <time>2018-11-10T14:03:57Z</time>
      </trkpt>
      <trkpt lat="45.12534" lon="5.87471">
        <ele>1601.88</ele>
        <time>2018-11-10T14:03:58Z</time>
      </trkpt>
      <trkpt lat="45.12544" lon="5.87494">
        <ele>1602.48</ele>
        <time>2018-11-10T14:03:59Z</time>
      </trkpt>
      <trkpt lat="45.1255" lon="5.87521">
        <ele>1602.66</ele>
        <time>2018-11-10T14:04:00Z</time>
      </trkpt>
      <trkpt lat="45.12555" lon="5.87548">
        <ele>1604.82</ele>
        <time>2018-11-10T14:04:01Z</time>
      </trkpt>
      <trkpt lat="45.12541" lon="5.8758">
        <ele>1610.28</ele>
        <time>2018-11-10T14:04:03Z</time>
      </trkpt>
      <trkpt lat="45.12523" lon="5.87606">
        <ele>1613.43</ele>
        <time>2018-11-10T14:04:05Z</time>
      </trkpt>
      <trkpt lat="45.12504" lon="5.87632">
        <ele>1618.8</ele>
        <time>2018-11-10T14:04:16Z</time>
      </trkpt>
      <trkpt lat="45.12492" lon="5.87651">
        <ele>1618.75</ele>
        <time>2018-11-10T14:04:18Z</time>
      </trkpt>
      <trkpt lat="45.1248" lon="5.87691">
        <ele>1618.32</ele>
        <time>2018-11-10T14:04:20Z</time>
      </trkpt>
      <trkpt lat="45.1246" lon="5.87708">
        <ele>1618.62</ele>
        <time>2018-11-10T14:04:21Z</time>
      </trkpt>
      <trkpt lat="45.12444" lon="5.87722">
        <ele>1618.7</ele>
        <time>2018-11-10T14:04:22Z</time>
      </trkpt>
      <trkpt lat="45.12421" lon="5.87743">
        <ele>1621.96</ele>
        <time>2018-11-10T14:04:24Z</time>
      </trkpt>
      <trkpt lat="45.12398" lon="5.87761">
        <ele>1625.68</ele>
        <time>2018-11-10T14:04:26Z</time>
      </trkpt>
      <trkpt lat="45.12379" lon="5.87777">
        <ele>1630.08</ele>
        <time>2018-11-10T14:04:28Z</time>
      </trkpt>
      <trkpt lat="45.12365" lon="5.87797">
        <ele>1630.1</ele>
        <time>2018-11-10T14:04:32Z</time>
      </trkpt>
      <trkpt lat="45.12343" lon="5.87802">
        <ele>1642.01</ele>
        <time>2018-11-10T14:15:16Z</time>
      </trkpt>
      <trkpt lat="45.12323" lon="5.87798">
        <ele>1641.62</ele>
        <time>2018-11-10T14:15:20Z</time>
      </trkpt>
      <trkpt lat="45.12305" lon="5.87789">
        <ele>1640.7</ele>
        <time>2018-11-10T14:15:23Z</time>
      </trkpt>
      <trkpt lat="45.12282" lon="5.87774">
        <ele>1642.41</ele>
        <time>2018-11-10T14:15:26Z</time>
      </trkpt>
      <trkpt lat="45.1226" lon="5.87755">
        <ele>1642.5</ele>
        <time>2018-11-10T14:15:28Z</time>
      </trkpt>
      <trkpt lat="45.12238" lon="5.87738">
        <ele>1644.33</ele>
        <time>2018-11-10T14:15:30Z</time>
      </trkpt>
      <trkpt lat="45.12213" lon="5.87715">
        <ele>1645.4</ele>
        <time>2018-11-10T14:15:32Z</time>
      </trkpt>
      <trkpt lat="45.12187" lon="5.87685">
        <ele>1646.62</ele>
        <time>2018-11-10T14:15:34Z</time>
      </trkpt>
      <trkpt lat="45.12173" lon="5.87668">
        <ele>1646</ele>
        <time>2018-11-10T14:15:35Z</time>
      </trkpt>
      <trkpt lat="45.12145" lon="5.87636">
        <ele>1648.28</ele>
        <time>2018-11-10T14:15:37Z</time>
      </trkpt>
      <trkpt lat="45.1213" lon="5.8762">
        <ele>1647.2</ele>
        <time>2018-11-10T14:15:38Z</time>
      </trkpt>
      <trkpt lat="45.12104" lon="5.87588">
        <ele>1649.79</ele>
        <time>2018-11-10T14:15:40Z</time>
      </trkpt>
      <trkpt lat="45.12078" lon="5.87557">
        <ele>1650.66</ele>
        <time>2018-11-10T14:15:42Z</time>
      </trkpt>
      <trkpt lat="45.12056" lon="5.87541">
        <ele>1652.34</ele>
        <time>2018-11-10T14:15:44Z</time>
      </trkpt>
      <trkpt lat="45.12037" lon="5.87534">
        <ele>1652.71</ele>
        <time>2018-11-10T14:15:46Z</time>
      </trkpt>
      <trkpt lat="45.12018" lon="5.87546">
        <ele>1647.63</ele>
        <time>2018-11-10T14:15:58Z</time>
      </trkpt>
      <trkpt lat="45.11991" lon="5.8756">
        <ele>1651.36</ele>
        <time>2018-11-10T14:16:01Z</time>
      </trkpt>
      <trkpt lat="45.11967" lon="5.87566">
        <ele>1653.34</ele>
        <time>2018-11-10T14:16:04Z</time>
      </trkpt>
      <trkpt lat="45.11949" lon="5.87554">
        <ele>1655.44</ele>
        <time>2018-11-10T14:16:54Z</time>
      </trkpt>
      <trkpt lat="45.11931" lon="5.87543">
        <ele>1659.32</ele>
        <time>2018-11-10T14:16:59Z</time>
      </trkpt>
      <trkpt lat="45.11913" lon="5.87535">
        <ele>1660.71</ele>
        <time>2018-11-10T14:17:03Z</time>
      </trkpt>
      <trkpt lat="45.11893" lon="5.87522">
        <ele>1660.04</ele>
        <time>2018-11-10T14:17:07Z</time>
      </trkpt>
      <trkpt lat="45.11873" lon="5.87513">
        <ele>1661.73</ele>
        <time>2018-11-10T14:17:12Z</time>
      </trkpt>
      <trkpt lat="45.11856" lon="5.87495">
        <ele>1663.37</ele>
        <time>2018-11-10T14:17:16Z</time>
      </trkpt>
      <trkpt lat="45.11839" lon="5.87483">
        <ele>1664.73</ele>
        <time>2018-11-10T14:17:21Z</time>
      </trkpt>
      <trkpt lat="45.11819" lon="5.87479">
        <ele>1668.71</ele>
        <time>2018-11-10T14:17:53Z</time>
      </trkpt>
      <trkpt lat="45.118" lon="5.87476">
        <ele>1674.75</ele>
        <time>2018-11-10T14:18:25Z</time>
      </trkpt>
      <trkpt lat="45.11781" lon="5.87473">
        <ele>1674.04</ele>
        <time>2018-11-10T14:18:27Z</time>
      </trkpt>
      <trkpt lat="45.11763" lon="5.87456">
        <ele>1676.29</ele>
        <time>2018-11-10T14:18:29Z</time>
      </trkpt>
      <trkpt lat="45.1175" lon="5.87438">
        <ele>1675.3</ele>
        <time>2018-11-10T14:18:31Z</time>
      </trkpt>
      <trkpt lat="45.11733" lon="5.87395">
        <ele>1675.49</ele>
        <time>2018-11-10T14:18:33Z</time>
      </trkpt>
      <trkpt lat="45.1171" lon="5.87363">
        <ele>1676.63</ele>
        <time>2018-11-10T14:18:35Z</time>
      </trkpt>
      <trkpt lat="45.1169" lon="5.87352">
        <ele>1676.71</ele>
        <time>2018-11-10T14:18:36Z</time>
      </trkpt>
      <trkpt lat="45.11654" lon="5.87332">
        <ele>1679.05</ele>
        <time>2018-11-10T14:18:38Z</time>
      </trkpt>
      <trkpt lat="45.11636" lon="5.87321">
        <ele>1679.53</ele>
        <time>2018-11-10T14:18:39Z</time>
      </trkpt>
      <trkpt lat="45.11605" lon="5.87313">
        <ele>1681.12</ele>
        <time>2018-11-10T14:18:41Z</time>
      </trkpt>
      <trkpt lat="45.1158" lon="5.87311">
        <ele>1684.91</ele>
        <time>2018-11-10T14:18:43Z</time>
      </trkpt>
      <trkpt lat="45.1156" lon="5.8732">
        <ele>1685.46</ele>
        <time>2018-11-10T14:18:45Z</time>
      </trkpt>
      <trkpt lat="45.11543" lon="5.87364">
        <ele>1685.51</ele>
        <time>2018-11-10T14:18:47Z</time>
      </trkpt>
      <trkpt lat="45.11522" lon="5.87388">
        <ele>1686.37</ele>
        <time>2018-11-10T14:18:48Z</time>
      </trkpt>
      <trkpt lat="45.11507" lon="5.87409">
        <ele>1687.33</ele>
        <time>2018-11-10T14:18:49Z</time>
      </trkpt>
      <trkpt lat="45.11493" lon="5.87425">
        <ele>1686.92</ele>
        <time>2018-11-10T14:18:50Z</time>
      </trkpt>
      <trkpt lat="45.11465" lon="5.87441">
        <ele>1687.49</ele>
        <time>2018-11-10T14:18:51Z</time>
      </trkpt>
      <trkpt lat="45.11443" lon="5.87449">
        <ele>1687.67</ele>
        <time>2018-11-10T14:18:52Z</time>
      </trkpt>
      <trkpt lat="45.11421" lon="5.87462">
        <ele>1690.52</ele>
        <time>2018-11-10T14:18:53Z</time>
      </trkpt>
      <trkpt lat="45.11398" lon="5.87471">
        <ele>1692.77</ele>
        <time>2018-11-10T14:18:54Z</time>
      </trkpt>
      <trkpt lat="45.11374" lon="5.87481">
        <ele>1693.45</ele>
        <time>2018-11-10T14:18:55Z</time>
      </trkpt>
      <trkpt lat="45.11351" lon="5.87487">
        <ele>1694.35</ele>
        <time>2018-11-10T14:18:56Z</time>
      </trkpt>
      <trkpt lat="45.11328" lon="5.87486">
        <ele>1695.32</ele>
        <time>2018-11-10T14:18:57Z</time>
      </trkpt>
      <trkpt lat="45.11304" lon="5.87481">
        <ele>1696.32</ele>
        <time>2018-11-10T14:18:58Z</time>
      </trkpt>
      <trkpt lat="45.11279" lon="5.8748">
        <ele>1697.31</ele>
        <time>2018-11-10T14:18:59Z</time>
      </trkpt>
      <trkpt lat="45.11257" lon="5.87477">
        <ele>1699.71</ele>
        <time>2018-11-10T14:19:00Z</time>
      </trkpt>
      <trkpt lat="45.11237" lon="5.87475">
        <ele>1700.43</ele>
        <time>2018-11-10T14:19:01Z</time>
      </trkpt>
      <trkpt lat="45.11218" lon="5.87475">
        <ele>1702.05</ele>
        <time>2018-11-10T14:19:02Z</time>
      </trkpt>
      <trkpt lat="45.11186" lon="5.87473">
        <ele>1703.38</ele>
        <time>2018-11-10T14:19:04Z</time>
      </trkpt>
      <trkpt lat="45.11158" lon="5.87473">
        <ele>1706.23</ele>
        <time>2018-11-10T14:19:06Z</time>
      </trkpt>
      <trkpt lat="45.11129" lon="5.87473">
        <ele>1705.99</ele>
        <time>2018-11-10T14:19:08Z</time>
      </trkpt>
      <trkpt lat="45.111" lon="5.8747">
        <ele>1704.15</ele>
        <time>2018-11-10T14:19:10Z</time>
      </trkpt>
      <trkpt lat="45.11067" lon="5.87453">
        <ele>1703.36</ele>
        <time>2018-11-10T14:19:12Z</time>
      </trkpt>
      <trkpt lat="45.11049" lon="5.87439">
        <ele>1702.23</ele>
        <time>2018-11-10T14:19:13Z</time>
      </trkpt>
      <trkpt lat="45.11033" lon="5.87426">
        <ele>1701.19</ele>
        <time>2018-11-10T14:19:14Z</time>
      </trkpt>
      <trkpt lat="45.11015" lon="5.87412">
        <ele>1700.17</ele>
        <time>2018-11-10T14:19:15Z</time>
      </trkpt>
      <trkpt lat="45.10999" lon="5.87398">
        <ele>1699.17</ele>
        <time>2018-11-10T14:19:16Z</time>
      </trkpt>
      <trkpt lat="45.10981" lon="5.87385">
        <ele>1698.17</ele>
        <time>2018-11-10T14:19:17Z</time>
      </trkpt>
      <trkpt lat="45.10963" lon="5.87371">
        <ele>1697.17</ele>
        <time>2018-11-10T14:19:18Z</time>
      </trkpt>
      <trkpt lat="45.10944" lon="5.8736">
        <ele>1696.87</ele>
        <time>2018-11-10T14:19:19Z</time>
      </trkpt>
      <trkpt lat="45.10927" lon="5.87349">
        <ele>1696.08</ele>
        <time>2018-11-10T14:19:20Z</time>
      </trkpt>
      <trkpt lat="45.1091" lon="5.87335">
        <ele>1695.14</ele>
        <time>2018-11-10T14:19:21Z</time>
      </trkpt>
      <trkpt lat="45.10891" lon="5.87314">
        <ele>1694.16</ele>
        <time>2018-11-10T14:19:22Z</time>
      </trkpt>
      <trkpt lat="45.10874" lon="5.87295">
        <ele>1694.57</ele>
        <time>2018-11-10T14:19:23Z</time>
      </trkpt>
      <trkpt lat="45.10856" lon="5.87277">
        <ele>1693.29</ele>
        <time>2018-11-10T14:19:24Z</time>
      </trkpt>
      <trkpt lat="45.10839" lon="5.8726">
        <ele>1691.51</ele>
        <time>2018-11-10T14:19:25Z</time>
      </trkpt>
      <trkpt lat="45.10821" lon="5.87242">
        <ele>1690.97</ele>
        <time>2018-11-10T14:19:26Z</time>
      </trkpt>
      <trkpt lat="45.10801" lon="5.87224">
        <ele>1690.81</ele>
        <time>2018-11-10T14:19:27Z</time>
      </trkpt>
      <trkpt lat="45.1078" lon="5.8721">
        <ele>1690.06</ele>
        <time>2018-11-10T14:19:28Z</time>
      </trkpt>
      <trkpt lat="45.1076" lon="5.87195">
        <ele>1688.44</ele>
        <time>2018-11-10T14:19:29Z</time>
      </trkpt>
      <trkpt lat="45.1074" lon="5.87181">
        <ele>1687.25</ele>
        <time>2018-11-10T14:19:30Z</time>
      </trkpt>
      <trkpt lat="45.10722" lon="5.87169">
        <ele>1686.19</ele>
        <time>2018-11-10T14:19:31Z</time>
      </trkpt>
      <trkpt lat="45.10703" lon="5.87156">
        <ele>1683.78</ele>
        <time>2018-11-10T14:19:32Z</time>
      </trkpt>
      <trkpt lat="45.10685" lon="5.87142">
        <ele>1682.35</ele>
        <time>2018-11-10T14:19:33Z</time>
      </trkpt>
      <trkpt lat="45.10653" lon="5.87128">
        <ele>1678.58</ele>
        <time>2018-11-10T14:19:35Z</time>
      </trkpt>
      <trkpt lat="45.10624" lon="5.87125">
        <ele>1675.72</ele>
        <time>2018-11-10T14:19:37Z</time>
      </trkpt>
      <trkpt lat="45.10595" lon="5.87129">
        <ele>1674.83</ele>
        <time>2018-11-10T14:19:39Z</time>
      </trkpt>
      <trkpt lat="45.10575" lon="5.87141">
        <ele>1674.77</ele>
        <time>2018-11-10T14:19:40Z</time>
      </trkpt>
      <trkpt lat="45.1056" lon="5.87158">
        <ele>1674.05</ele>
        <time>2018-11-10T14:19:41Z</time>
      </trkpt>
      <trkpt lat="45.1054" lon="5.87159">
        <ele>1673.13</ele>
        <time>2018-11-10T14:19:42Z</time>
      </trkpt>
      <trkpt lat="45.10521" lon="5.87165">
        <ele>1672.86</ele>
        <time>2018-11-10T14:19:43Z</time>
      </trkpt>
      <trkpt lat="45.10501" lon="5.87163">
        <ele>1672.78</ele>
        <time>2018-11-10T14:19:44Z</time>
      </trkpt>
      <trkpt lat="45.10484" lon="5.87153">
        <ele>1672.05</ele>
        <time>2018-11-10T14:19:45Z</time>
      </trkpt>
      <trkpt lat="45.10447" lon="5.87128">
        <ele>1672.26</ele>
        <time>2018-11-10T14:19:47Z</time>
      </trkpt>
      <trkpt lat="45.10431" lon="5.87112">
        <ele>1671.2</ele>
        <time>2018-11-10T14:19:48Z</time>
      </trkpt>
      <trkpt lat="45.10413" lon="5.87098">
        <ele>1670.88</ele>
        <time>2018-11-10T14:19:49Z</time>
      </trkpt>
      <trkpt lat="45.1039" lon="5.87073">
        <ele>1668.44</ele>
        <time>2018-11-10T14:19:51Z</time>
      </trkpt>
      <trkpt lat="45.10359" lon="5.87072">
        <ele>1666.4</ele>
        <time>2018-11-10T14:19:53Z</time>
      </trkpt>
      <trkpt lat="45.10338" lon="5.87099">
        <ele>1663.49</ele>
        <time>2018-11-10T14:19:55Z</time>
      </trkpt>
      <trkpt lat="45.10307" lon="5.8711">
        <ele>1660.29</ele>
        <time>2018-11-10T14:19:57Z</time>
      </trkpt>
      <trkpt lat="45.10275" lon="5.87109">
        <ele>1656.57</ele>
        <time>2018-11-10T14:19:59Z</time>
      </trkpt>
      <trkpt lat="45.10238" lon="5.87101">
        <ele>1654.21</ele>
        <time>2018-11-10T14:20:01Z</time>
      </trkpt>
      <trkpt lat="45.10214" lon="5.87088">
        <ele>1652.48</ele>
        <time>2018-11-10T14:20:02Z</time>
      </trkpt>
      <trkpt lat="45.10192" lon="5.87078">
        <ele>1651.26</ele>
        <time>2018-11-10T14:20:03Z</time>
      </trkpt>
      <trkpt lat="45.10171" lon="5.87068">
        <ele>1650.9</ele>
        <time>2018-11-10T14:20:04Z</time>
      </trkpt>
      <trkpt lat="45.10152" lon="5.87057">
        <ele>1648.69</ele>
        <time>2018-11-10T14:20:05Z</time>
      </trkpt>
      <trkpt lat="45.10132" lon="5.87048">
        <ele>1646.63</ele>
        <time>2018-11-10T14:20:06Z</time>
      </trkpt>
      <trkpt lat="45.10112" lon="5.87042">
        <ele>1643.91</ele>
        <time>2018-11-10T14:20:07Z</time>
      </trkpt>
      <trkpt lat="45.10092" lon="5.87039">
        <ele>1642.39</ele>
        <time>2018-11-10T14:20:08Z</time>
      </trkpt>
      <trkpt lat="45.10073" lon="5.87044">
        <ele>1639.84</ele>
        <time>2018-11-10T14:20:09Z</time>
      </trkpt>
      <trkpt lat="45.10053" lon="5.87048">
        <ele>1639.07</ele>
        <time>2018-11-10T14:20:10Z</time>
      </trkpt>
      <trkpt lat="45.10033" lon="5.87055">
        <ele>1638.14</ele>
        <time>2018-11-10T14:20:11Z</time>
      </trkpt>
      <trkpt lat="45.10014" lon="5.87059">
        <ele>1636.46</ele>
        <time>2018-11-10T14:20:12Z</time>
      </trkpt>
      <trkpt lat="45.09983" lon="5.87048">
        <ele>1633.29</ele>
        <time>2018-11-10T14:20:14Z</time>
      </trkpt>
      <trkpt lat="45.09956" lon="5.8703">
        <ele>1630.06</ele>
        <time>2018-11-10T14:20:16Z</time>
      </trkpt>
      <trkpt lat="45.09939" lon="5.86979">
        <ele>1629.77</ele>
        <time>2018-11-10T14:20:18Z</time>
      </trkpt>
      <trkpt lat="45.09935" lon="5.86954">
        <ele>1629.05</ele>
        <time>2018-11-10T14:20:19Z</time>
      </trkpt>
      <trkpt lat="45.09941" lon="5.8692">
        <ele>1628.83</ele>
        <time>2018-11-10T14:20:20Z</time>
      </trkpt>
      <trkpt lat="45.09944" lon="5.86891">
        <ele>1628.77</ele>
        <time>2018-11-10T14:20:21Z</time>
      </trkpt>
      <trkpt lat="45.09947" lon="5.8686">
        <ele>1628.05</ele>
        <time>2018-11-10T14:20:22Z</time>
      </trkpt>
      <trkpt lat="45.09954" lon="5.86835">
        <ele>1625.73</ele>
        <time>2018-11-10T14:20:23Z</time>
      </trkpt>
      <trkpt lat="45.09959" lon="5.86811">
        <ele>1625.04</ele>
        <time>2018-11-10T14:20:24Z</time>
      </trkpt>
      <trkpt lat="45.09963" lon="5.86772">
        <ele>1619.94</ele>
        <time>2018-11-10T14:20:26Z</time>
      </trkpt>
      <trkpt lat="45.09955" lon="5.86742">
        <ele>1618.15</ele>
        <time>2018-11-10T14:20:28Z</time>
      </trkpt>
      <trkpt lat="45.09933" lon="5.86715">
        <ele>1615.05</ele>
        <time>2018-11-10T14:20:30Z</time>
      </trkpt>
      <trkpt lat="45.09901" lon="5.86713">
        <ele>1612.25</ele>
        <time>2018-11-10T14:20:32Z</time>
      </trkpt>
      <trkpt lat="45.09869" lon="5.86721">
        <ele>1611.79</ele>
        <time>2018-11-10T14:20:34Z</time>
      </trkpt>
      <trkpt lat="45.09852" lon="5.86736">
        <ele>1612.45</ele>
        <time>2018-11-10T14:20:35Z</time>
      </trkpt>
      <trkpt lat="45.09837" lon="5.86758">
        <ele>1611.26</ele>
        <time>2018-11-10T14:20:36Z</time>
      </trkpt>
      <trkpt lat="45.09825" lon="5.86794">
        <ele>1610.9</ele>
        <time>2018-11-10T14:20:37Z</time>
      </trkpt>
      <trkpt lat="45.09799" lon="5.8683">
        <ele>1610.05</ele>
        <time>2018-11-10T14:20:39Z</time>
      </trkpt>
      <trkpt lat="45.09782" lon="5.86853">
        <ele>1609.14</ele>
        <time>2018-11-10T14:20:40Z</time>
      </trkpt>
      <trkpt lat="45.09767" lon="5.86874">
        <ele>1608.16</ele>
        <time>2018-11-10T14:20:41Z</time>
      </trkpt>
      <trkpt lat="45.0975" lon="5.86889">
        <ele>1607.87</ele>
        <time>2018-11-10T14:20:42Z</time>
      </trkpt>
      <trkpt lat="45.09734" lon="5.86902">
        <ele>1607.08</ele>
        <time>2018-11-10T14:20:43Z</time>
      </trkpt>
      <trkpt lat="45.09714" lon="5.86886">
        <ele>1604.59</ele>
        <time>2018-11-10T14:20:46Z</time>
      </trkpt>
      <trkpt lat="45.09709" lon="5.86846">
        <ele>1602.42</ele>
        <time>2018-11-10T14:20:48Z</time>
      </trkpt>
      <trkpt lat="45.09721" lon="5.86807">
        <ele>1601.24</ele>
        <time>2018-11-10T14:20:49Z</time>
      </trkpt>
      <trkpt lat="45.09724" lon="5.86764">
        <ele>1597.36</ele>
        <time>2018-11-10T14:20:51Z</time>
      </trkpt>
      <trkpt lat="45.097" lon="5.86723">
        <ele>1595.19</ele>
        <time>2018-11-10T14:20:53Z</time>
      </trkpt>
      <trkpt lat="45.09691" lon="5.867">
        <ele>1594.87</ele>
        <time>2018-11-10T14:20:54Z</time>
      </trkpt>
      <trkpt lat="45.09683" lon="5.86677">
        <ele>1593.38</ele>
        <time>2018-11-10T14:20:55Z</time>
      </trkpt>
      <trkpt lat="45.09683" lon="5.86633">
        <ele>1589.58</ele>
        <time>2018-11-10T14:20:57Z</time>
      </trkpt>
      <trkpt lat="45.09688" lon="5.86594">
        <ele>1587.21</ele>
        <time>2018-11-10T14:20:59Z</time>
      </trkpt>
      <trkpt lat="45.09706" lon="5.86562">
        <ele>1585.38</ele>
        <time>2018-11-10T14:21:01Z</time>
      </trkpt>
      <trkpt lat="45.09732" lon="5.86539">
        <ele>1577.03</ele>
        <time>2018-11-10T14:21:03Z</time>
      </trkpt>
      <trkpt lat="45.09755" lon="5.86525">
        <ele>1575.43</ele>
        <time>2018-11-10T14:21:04Z</time>
      </trkpt>
      <trkpt lat="45.09769" lon="5.86504">
        <ele>1574.25</ele>
        <time>2018-11-10T14:21:05Z</time>
      </trkpt>
      <trkpt lat="45.09784" lon="5.86484">
        <ele>1573.19</ele>
        <time>2018-11-10T14:21:06Z</time>
      </trkpt>
      <trkpt lat="45.09794" lon="5.8646">
        <ele>1572.18</ele>
        <time>2018-11-10T14:21:07Z</time>
      </trkpt>
      <trkpt lat="45.0981" lon="5.86442">
        <ele>1571.87</ele>
        <time>2018-11-10T14:21:08Z</time>
      </trkpt>
      <trkpt lat="45.09848" lon="5.86421">
        <ele>1569.44</ele>
        <time>2018-11-10T14:21:10Z</time>
      </trkpt>
      <trkpt lat="45.09866" lon="5.8641">
        <ele>1568.25</ele>
        <time>2018-11-10T14:21:11Z</time>
      </trkpt>
      <trkpt lat="45.09885" lon="5.86401">
        <ele>1567.19</ele>
        <time>2018-11-10T14:21:12Z</time>
      </trkpt>
      <trkpt lat="45.09899" lon="5.86382">
        <ele>1566.18</ele>
        <time>2018-11-10T14:21:13Z</time>
      </trkpt>
      <trkpt lat="45.09917" lon="5.86368">
        <ele>1564.47</ele>
        <time>2018-11-10T14:21:14Z</time>
      </trkpt>
      <trkpt lat="45.09932" lon="5.86349">
        <ele>1563.26</ele>
        <time>2018-11-10T14:21:15Z</time>
      </trkpt>
      <trkpt lat="45.09956" lon="5.86314">
        <ele>1561.18</ele>
        <time>2018-11-10T14:21:17Z</time>
      </trkpt>
      <trkpt lat="45.09981" lon="5.86294">
        <ele>1561.9</ele>
        <time>2018-11-10T14:21:19Z</time>
      </trkpt>
      <trkpt lat="45.10005" lon="5.86307">
        <ele>1554.62</ele>
        <time>2018-11-10T14:21:21Z</time>
      </trkpt>
      <trkpt lat="45.10029" lon="5.86278">
        <ele>1545.98</ele>
        <time>2018-11-10T14:21:23Z</time>
      </trkpt>
      <trkpt lat="45.10058" lon="5.86258">
        <ele>1542.33</ele>
        <time>2018-11-10T14:21:25Z</time>
      </trkpt>
      <trkpt lat="45.10086" lon="5.86246">
        <ele>1541.09</ele>
        <time>2018-11-10T14:21:27Z</time>
      </trkpt>
      <trkpt lat="45.10113" lon="5.86236">
        <ele>1538.17</ele>
        <time>2018-11-10T14:21:30Z</time>
      </trkpt>
      <trkpt lat="45.10132" lon="5.86211">
        <ele>1534.77</ele>
        <time>2018-11-10T14:21:32Z</time>
      </trkpt>
      <trkpt lat="45.10148" lon="5.86179">
        <ele>1535.44</ele>
        <time>2018-11-10T14:21:34Z</time>
      </trkpt>
      <trkpt lat="45.10128" lon="5.86149">
        <ele>1532.15</ele>
        <time>2018-11-10T14:21:35Z</time>
      </trkpt>
      <trkpt lat="45.10128" lon="5.86116">
        <ele>1530.46</ele>
        <time>2018-11-10T14:21:36Z</time>
      </trkpt>
      <trkpt lat="45.1013" lon="5.86083">
        <ele>1529.26</ele>
        <time>2018-11-10T14:21:37Z</time>
      </trkpt>
      <trkpt lat="45.10133" lon="5.86054">
        <ele>1528.9</ele>
        <time>2018-11-10T14:21:38Z</time>
      </trkpt>
      <trkpt lat="45.10141" lon="5.86013">
        <ele>1526.93</ele>
        <time>2018-11-10T14:21:40Z</time>
      </trkpt>
      <trkpt lat="45.10162" lon="5.86013">
        <ele>1523.75</ele>
        <time>2018-11-10T14:21:42Z</time>
      </trkpt>
      <trkpt lat="45.1018" lon="5.86024">
        <ele>1523.04</ele>
        <time>2018-11-10T14:21:43Z</time>
      </trkpt>
      <trkpt lat="45.10217" lon="5.86051">
        <ele>1519.76</ele>
        <time>2018-11-10T14:21:45Z</time>
      </trkpt>
      <trkpt lat="45.10237" lon="5.86048">
        <ele>1518.35</ele>
        <time>2018-11-10T14:21:46Z</time>
      </trkpt>
      <trkpt lat="45.10268" lon="5.86058">
        <ele>1513.88</ele>
        <time>2018-11-10T14:21:48Z</time>
      </trkpt>
      <trkpt lat="45.10295" lon="5.86054">
        <ele>1512.35</ele>
        <time>2018-11-10T14:21:50Z</time>
      </trkpt>
      <trkpt lat="45.10281" lon="5.86022">
        <ele>1504.14</ele>
        <time>2018-11-10T14:21:54Z</time>
      </trkpt>
      <trkpt lat="45.10263" lon="5.85994">
        <ele>1501.76</ele>
        <time>2018-11-10T14:21:55Z</time>
      </trkpt>
      <trkpt lat="45.10239" lon="5.8598">
        <ele>1498.95</ele>
        <time>2018-11-10T14:21:56Z</time>
      </trkpt>
      <trkpt lat="45.10223" lon="5.85962">
        <ele>1496</ele>
        <time>2018-11-10T14:21:57Z</time>
      </trkpt>
      <trkpt lat="45.10197" lon="5.8593">
        <ele>1493.45</ele>
        <time>2018-11-10T14:21:59Z</time>
      </trkpt>
      <trkpt lat="45.10167" lon="5.85919">
        <ele>1488.4</ele>
        <time>2018-11-10T14:22:01Z</time>
      </trkpt>
      <trkpt lat="45.10136" lon="5.85906">
        <ele>1485.28</ele>
        <time>2018-11-10T14:22:03Z</time>
      </trkpt>
      <trkpt lat="45.10111" lon="5.85888">
        <ele>1482.48</ele>
        <time>2018-11-10T14:22:05Z</time>
      </trkpt>
      <trkpt lat="45.10088" lon="5.85874">
        <ele>1479.5</ele>
        <time>2018-11-10T14:22:07Z</time>
      </trkpt>
      <trkpt lat="45.10059" lon="5.85865">
        <ele>1476.29</ele>
        <time>2018-11-10T14:22:09Z</time>
      </trkpt>
      <trkpt lat="45.10026" lon="5.85862">
        <ele>1473.48</ele>
        <time>2018-11-10T14:22:11Z</time>
      </trkpt>
      <trkpt lat="45.09992" lon="5.85863">
        <ele>1470.29</ele>
        <time>2018-11-10T14:22:13Z</time>
      </trkpt>
      <trkpt lat="45.09961" lon="5.8586">
        <ele>1468.39</ele>
        <time>2018-11-10T14:22:15Z</time>
      </trkpt>
      <trkpt lat="45.09938" lon="5.85867">
        <ele>1466.4</ele>
        <time>2018-11-10T14:22:17Z</time>
      </trkpt>
      <trkpt lat="45.09919" lon="5.85891">
        <ele>1464.4</ele>
        <time>2018-11-10T14:22:19Z</time>
      </trkpt>
      <trkpt lat="45.09911" lon="5.85925">
        <ele>1463.1</ele>
        <time>2018-11-10T14:22:21Z</time>
      </trkpt>
      <trkpt lat="45.09901" lon="5.85955">
        <ele>1460.95</ele>
        <time>2018-11-10T14:22:23Z</time>
      </trkpt>
      <trkpt lat="45.0988" lon="5.85967">
        <ele>1459.36</ele>
        <time>2018-11-10T14:22:25Z</time>
      </trkpt>
      <trkpt lat="45.0986" lon="5.8597">
        <ele>1458.23</ele>
        <time>2018-11-10T14:22:26Z</time>
      </trkpt>
      <trkpt lat="45.09836" lon="5.85973">
        <ele>1457.89</ele>
        <time>2018-11-10T14:22:27Z</time>
      </trkpt>
      <trkpt lat="45.09806" lon="5.85956">
        <ele>1457.08</ele>
        <time>2018-11-10T14:22:28Z</time>
      </trkpt>
      <trkpt lat="45.09784" lon="5.85951">
        <ele>1456.84</ele>
        <time>2018-11-10T14:22:29Z</time>
      </trkpt>
      <trkpt lat="45.09766" lon="5.85938">
        <ele>1456.07</ele>
        <time>2018-11-10T14:22:30Z</time>
      </trkpt>
      <trkpt lat="45.09748" lon="5.85925">
        <ele>1455.14</ele>
        <time>2018-11-10T14:22:31Z</time>
      </trkpt>
      <trkpt lat="45.0973" lon="5.85913">
        <ele>1454.86</ele>
        <time>2018-11-10T14:22:32Z</time>
      </trkpt>
      <trkpt lat="45.09715" lon="5.85887">
        <ele>1454.78</ele>
        <time>2018-11-10T14:22:33Z</time>
      </trkpt>
      <trkpt lat="45.097" lon="5.85862">
        <ele>1454.05</ele>
        <time>2018-11-10T14:22:34Z</time>
      </trkpt>
      <trkpt lat="45.09675" lon="5.85831">
        <ele>1450.55</ele>
        <time>2018-11-10T14:22:36Z</time>
      </trkpt>
      <trkpt lat="45.09656" lon="5.85817">
        <ele>1447.18</ele>
        <time>2018-11-10T14:22:37Z</time>
      </trkpt>
      <trkpt lat="45.09638" lon="5.85807">
        <ele>1445.47</ele>
        <time>2018-11-10T14:22:38Z</time>
      </trkpt>
      <trkpt lat="45.09617" lon="5.85802">
        <ele>1442.86</ele>
        <time>2018-11-10T14:22:39Z</time>
      </trkpt>
      <trkpt lat="45.09594" lon="5.85795">
        <ele>1441.38</ele>
        <time>2018-11-10T14:22:40Z</time>
      </trkpt>
      <trkpt lat="45.09574" lon="5.85789">
        <ele>1440.23</ele>
        <time>2018-11-10T14:22:41Z</time>
      </trkpt>
      <trkpt lat="45.09552" lon="5.85782">
        <ele>1439.19</ele>
        <time>2018-11-10T14:22:42Z</time>
      </trkpt>
      <trkpt lat="45.09527" lon="5.85779">
        <ele>1437.48</ele>
        <time>2018-11-10T14:22:43Z</time>
      </trkpt>
      <trkpt lat="45.09499" lon="5.85773">
        <ele>1436.96</ele>
        <time>2018-11-10T14:22:44Z</time>
      </trkpt>
      <trkpt lat="45.0947" lon="5.8578">
        <ele>1434.71</ele>
        <time>2018-11-10T14:22:45Z</time>
      </trkpt>
      <trkpt lat="45.0944" lon="5.85783">
        <ele>1431.93</ele>
        <time>2018-11-10T14:22:46Z</time>
      </trkpt>
      <trkpt lat="45.09412" lon="5.85784">
        <ele>1431.1</ele>
        <time>2018-11-10T14:22:47Z</time>
      </trkpt>
      <trkpt lat="45.09385" lon="5.85784">
        <ele>1430.15</ele>
        <time>2018-11-10T14:22:48Z</time>
      </trkpt>
      <trkpt lat="45.0936" lon="5.85783">
        <ele>1427.76</ele>
        <time>2018-11-10T14:22:49Z</time>
      </trkpt>
      <trkpt lat="45.0933" lon="5.85782">
        <ele>1427.05</ele>
        <time>2018-11-10T14:22:50Z</time>
      </trkpt>
      <trkpt lat="45.09311" lon="5.85767">
        <ele>1424.73</ele>
        <time>2018-11-10T14:22:51Z</time>
      </trkpt>
      <trkpt lat="45.09288" lon="5.85763">
        <ele>1422.64</ele>
        <time>2018-11-10T14:22:52Z</time>
      </trkpt>
      <trkpt lat="45.09263" lon="5.85757">
        <ele>1422.01</ele>
        <time>2018-11-10T14:22:53Z</time>
      </trkpt>
      <trkpt lat="45.09239" lon="5.8576">
        <ele>1420.42</ele>
        <time>2018-11-10T14:22:54Z</time>
      </trkpt>
      <trkpt lat="45.09213" lon="5.85761">
        <ele>1419.95</ele>
        <time>2018-11-10T14:22:55Z</time>
      </trkpt>
      <trkpt lat="45.09187" lon="5.8576">
        <ele>1418.4</ele>
        <time>2018-11-10T14:22:56Z</time>
      </trkpt>
      <trkpt lat="45.0916" lon="5.8576">
        <ele>1417.24</ele>
        <time>2018-11-10T14:22:57Z</time>
      </trkpt>
      <trkpt lat="45.09132" lon="5.85762">
        <ele>1416.89</ele>
        <time>2018-11-10T14:22:58Z</time>
      </trkpt>
      <trkpt lat="45.09108" lon="5.85754">
        <ele>1416.09</ele>
        <time>2018-11-10T14:22:59Z</time>
      </trkpt>
      <trkpt lat="45.09084" lon="5.85747">
        <ele>1414.44</ele>
        <time>2018-11-10T14:23:00Z</time>
      </trkpt>
      <trkpt lat="45.09059" lon="5.85741">
        <ele>1413.25</ele>
        <time>2018-11-10T14:23:01Z</time>
      </trkpt>
      <trkpt lat="45.09035" lon="5.85738">
        <ele>1412.89</ele>
        <time>2018-11-10T14:23:02Z</time>
      </trkpt>
      <trkpt lat="45.09011" lon="5.85735">
        <ele>1412.79</ele>
        <time>2018-11-10T14:23:03Z</time>
      </trkpt>
      <trkpt lat="45.08987" lon="5.85734">
        <ele>1412.05</ele>
        <time>2018-11-10T14:23:04Z</time>
      </trkpt>
      <trkpt lat="45.08967" lon="5.85731">
        <ele>1411.14</ele>
        <time>2018-11-10T14:23:05Z</time>
      </trkpt>
      <trkpt lat="45.08949" lon="5.85725">
        <ele>1409.46</ele>
        <time>2018-11-10T14:23:06Z</time>
      </trkpt>
      <trkpt lat="45.08918" lon="5.85745">
        <ele>1408.11</ele>
        <time>2018-11-10T14:23:08Z</time>
      </trkpt>
      <trkpt lat="45.08902" lon="5.85759">
        <ele>1407.15</ele>
        <time>2018-11-10T14:23:09Z</time>
      </trkpt>
      <trkpt lat="45.08879" lon="5.85763">
        <ele>1399.34</ele>
        <time>2018-11-10T14:23:12Z</time>
      </trkpt>
      <trkpt lat="45.08868" lon="5.85736">
        <ele>1397.85</ele>
        <time>2018-11-10T14:23:15Z</time>
      </trkpt>
      <trkpt lat="45.08892" lon="5.85711">
        <ele>1394.53</ele>
        <time>2018-11-10T14:23:17Z</time>
      </trkpt>
      <trkpt lat="45.0891" lon="5.85696">
        <ele>1393.28</ele>
        <time>2018-11-10T14:23:18Z</time>
      </trkpt>
      <trkpt lat="45.08928" lon="5.85675">
        <ele>1392.2</ele>
        <time>2018-11-10T14:23:19Z</time>
      </trkpt>
      <trkpt lat="45.08951" lon="5.85656">
        <ele>1390.48</ele>
        <time>2018-11-10T14:23:20Z</time>
      </trkpt>
      <trkpt lat="45.08979" lon="5.85638">
        <ele>1389.96</ele>
        <time>2018-11-10T14:23:21Z</time>
      </trkpt>
      <trkpt lat="45.09002" lon="5.85615">
        <ele>1389.11</ele>
        <time>2018-11-10T14:23:22Z</time>
      </trkpt>
      <trkpt lat="45.0904" lon="5.85585">
        <ele>1388.85</ele>
        <time>2018-11-10T14:23:23Z</time>
      </trkpt>
      <trkpt lat="45.09067" lon="5.8556">
        <ele>1388.77</ele>
        <time>2018-11-10T14:23:24Z</time>
      </trkpt>
      <trkpt lat="45.09087" lon="5.85535">
        <ele>1388.05</ele>
        <time>2018-11-10T14:23:25Z</time>
      </trkpt>
      <trkpt lat="45.09106" lon="5.8551">
        <ele>1387.83</ele>
        <time>2018-11-10T14:23:26Z</time>
      </trkpt>
      <trkpt lat="45.09114" lon="5.85482">
        <ele>1386.37</ele>
        <time>2018-11-10T14:23:27Z</time>
      </trkpt>
      <trkpt lat="45.0913" lon="5.85464">
        <ele>1385.93</ele>
        <time>2018-11-10T14:23:28Z</time>
      </trkpt>
      <trkpt lat="45.09154" lon="5.85435">
        <ele>1383.94</ele>
        <time>2018-11-10T14:23:30Z</time>
      </trkpt>
      <trkpt lat="45.09172" lon="5.85427">
        <ele>1383.1</ele>
        <time>2018-11-10T14:23:31Z</time>
      </trkpt>
      <trkpt lat="45.0919" lon="5.85421">
        <ele>1381.37</ele>
        <time>2018-11-10T14:23:33Z</time>
      </trkpt>
      <trkpt lat="45.09197" lon="5.85394">
        <ele>1375.8</ele>
        <time>2018-11-10T14:23:36Z</time>
      </trkpt>
      <trkpt lat="45.09169" lon="5.85379">
        <ele>1370.5</ele>
        <time>2018-11-10T14:23:38Z</time>
      </trkpt>
      <trkpt lat="45.09146" lon="5.85363">
        <ele>1367.29</ele>
        <time>2018-11-10T14:23:40Z</time>
      </trkpt>
      <trkpt lat="45.09118" lon="5.85361">
        <ele>1365.88</ele>
        <time>2018-11-10T14:23:42Z</time>
      </trkpt>
      <trkpt lat="45.09094" lon="5.85397">
        <ele>1364.38</ele>
        <time>2018-11-10T14:23:43Z</time>
      </trkpt>
      <trkpt lat="45.09076" lon="5.85407">
        <ele>1363.93</ele>
        <time>2018-11-10T14:23:44Z</time>
      </trkpt>
      <trkpt lat="45.0905" lon="5.85434">
        <ele>1362.4</ele>
        <time>2018-11-10T14:23:45Z</time>
      </trkpt>
      <trkpt lat="45.09032" lon="5.85447">
        <ele>1361.24</ele>
        <time>2018-11-10T14:23:46Z</time>
      </trkpt>
      <trkpt lat="45.09003" lon="5.85462">
        <ele>1359.18</ele>
        <time>2018-11-10T14:23:48Z</time>
      </trkpt>
      <trkpt lat="45.08971" lon="5.85472">
        <ele>1354.16</ele>
        <time>2018-11-10T14:23:50Z</time>
      </trkpt>
      <trkpt lat="45.08964" lon="5.85444">
        <ele>1344.24</ele>
        <time>2018-11-10T14:23:55Z</time>
      </trkpt>
      <trkpt lat="45.08977" lon="5.85415">
        <ele>1340.78</ele>
        <time>2018-11-10T14:23:57Z</time>
      </trkpt>
      <trkpt lat="45.08996" lon="5.85388">
        <ele>1338.43</ele>
        <time>2018-11-10T14:23:59Z</time>
      </trkpt>
      <trkpt lat="45.09015" lon="5.85379">
        <ele>1338.65</ele>
        <time>2018-11-10T14:24:00Z</time>
      </trkpt>
      <trkpt lat="45.09043" lon="5.85355">
        <ele>1336.21</ele>
        <time>2018-11-10T14:24:02Z</time>
      </trkpt>
      <trkpt lat="45.0906" lon="5.85339">
        <ele>1334.48</ele>
        <time>2018-11-10T14:24:03Z</time>
      </trkpt>
      <trkpt lat="45.09075" lon="5.85319">
        <ele>1333.26</ele>
        <time>2018-11-10T14:24:04Z</time>
      </trkpt>
      <trkpt lat="45.09091" lon="5.853">
        <ele>1332.2</ele>
        <time>2018-11-10T14:24:05Z</time>
      </trkpt>
      <trkpt lat="45.09108" lon="5.85286">
        <ele>1331.18</ele>
        <time>2018-11-10T14:24:06Z</time>
      </trkpt>
      <trkpt lat="45.09122" lon="5.8527">
        <ele>1330.17</ele>
        <time>2018-11-10T14:24:07Z</time>
      </trkpt>
      <trkpt lat="45.09141" lon="5.85259">
        <ele>1329.87</ele>
        <time>2018-11-10T14:24:08Z</time>
      </trkpt>
      <trkpt lat="45.09165" lon="5.85251">
        <ele>1328.38</ele>
        <time>2018-11-10T14:24:09Z</time>
      </trkpt>
      <trkpt lat="45.09187" lon="5.85243">
        <ele>1328.63</ele>
        <time>2018-11-10T14:24:10Z</time>
      </trkpt>
      <trkpt lat="45.09207" lon="5.85233">
        <ele>1328.01</ele>
        <time>2018-11-10T14:24:11Z</time>
      </trkpt>
      <trkpt lat="45.09228" lon="5.85224">
        <ele>1327.82</ele>
        <time>2018-11-10T14:24:12Z</time>
      </trkpt>
      <trkpt lat="45.09251" lon="5.85211">
        <ele>1327.07</ele>
        <time>2018-11-10T14:24:13Z</time>
      </trkpt>
      <trkpt lat="45.09272" lon="5.85205">
        <ele>1326.14</ele>
        <time>2018-11-10T14:24:14Z</time>
      </trkpt>
      <trkpt lat="45.09301" lon="5.85214">
        <ele>1322.35</ele>
        <time>2018-11-10T14:24:16Z</time>
      </trkpt>
      <trkpt lat="45.09324" lon="5.85215">
        <ele>1320.89</ele>
        <time>2018-11-10T14:24:18Z</time>
      </trkpt>
      <trkpt lat="45.09334" lon="5.85189">
        <ele>1314.61</ele>
        <time>2018-11-10T14:24:21Z</time>
      </trkpt>
      <trkpt lat="45.09318" lon="5.85159">
        <ele>1308.5</ele>
        <time>2018-11-10T14:24:23Z</time>
      </trkpt>
      <trkpt lat="45.09286" lon="5.85165">
        <ele>1309.21</ele>
        <time>2018-11-10T14:24:25Z</time>
      </trkpt>
      <trkpt lat="45.09258" lon="5.85163">
        <ele>1308.99</ele>
        <time>2018-11-10T14:24:27Z</time>
      </trkpt>
      <trkpt lat="45.0923" lon="5.85167">
        <ele>1308.12</ele>
        <time>2018-11-10T14:24:28Z</time>
      </trkpt>
      <trkpt lat="45.09209" lon="5.8517">
        <ele>1307.85</ele>
        <time>2018-11-10T14:24:29Z</time>
      </trkpt>
      <trkpt lat="45.09185" lon="5.85171">
        <ele>1307.07</ele>
        <time>2018-11-10T14:24:30Z</time>
      </trkpt>
      <trkpt lat="45.09161" lon="5.8517">
        <ele>1305.44</ele>
        <time>2018-11-10T14:24:31Z</time>
      </trkpt>
      <trkpt lat="45.0914" lon="5.8517">
        <ele>1305.65</ele>
        <time>2018-11-10T14:24:32Z</time>
      </trkpt>
      <trkpt lat="45.09118" lon="5.85164">
        <ele>1305.01</ele>
        <time>2018-11-10T14:24:33Z</time>
      </trkpt>
      <trkpt lat="45.09098" lon="5.85159">
        <ele>1304.82</ele>
        <time>2018-11-10T14:24:34Z</time>
      </trkpt>
      <trkpt lat="45.09079" lon="5.8515">
        <ele>1304.07</ele>
        <time>2018-11-10T14:24:35Z</time>
      </trkpt>
      <trkpt lat="45.0906" lon="5.85136">
        <ele>1303.14</ele>
        <time>2018-11-10T14:24:36Z</time>
      </trkpt>
      <trkpt lat="45.09029" lon="5.85098">
        <ele>1299.77</ele>
        <time>2018-11-10T14:24:38Z</time>
      </trkpt>
      <trkpt lat="45.09012" lon="5.85079">
        <ele>1296.95</ele>
        <time>2018-11-10T14:24:39Z</time>
      </trkpt>
      <trkpt lat="45.09001" lon="5.85046">
        <ele>1294.24</ele>
        <time>2018-11-10T14:24:41Z</time>
      </trkpt>
      <trkpt lat="45.09004" lon="5.85014">
        <ele>1293.79</ele>
        <time>2018-11-10T14:24:43Z</time>
      </trkpt>
      <trkpt lat="45.09024" lon="5.84992">
        <ele>1293.68</ele>
        <time>2018-11-10T14:24:46Z</time>
      </trkpt>
      <trkpt lat="45.0906" lon="5.84995">
        <ele>1293.74</ele>
        <time>2018-11-10T14:24:48Z</time>
      </trkpt>
      <trkpt lat="45.09086" lon="5.85015">
        <ele>1292.34</ele>
        <time>2018-11-10T14:24:49Z</time>
      </trkpt>
      <trkpt lat="45.09108" lon="5.85023">
        <ele>1289.82</ele>
        <time>2018-11-10T14:24:50Z</time>
      </trkpt>
      <trkpt lat="45.09126" lon="5.85038">
        <ele>1285.56</ele>
        <time>2018-11-10T14:24:51Z</time>
      </trkpt>
      <trkpt lat="45.09155" lon="5.85017">
        <ele>1281.81</ele>
        <time>2018-11-10T14:24:53Z</time>
      </trkpt>
      <trkpt lat="45.09164" lon="5.84995">
        <ele>1278.96</ele>
        <time>2018-11-10T14:24:54Z</time>
      </trkpt>
      <trkpt lat="45.09179" lon="5.84961">
        <ele>1277.15</ele>
        <time>2018-11-10T14:24:56Z</time>
      </trkpt>
      <trkpt lat="45.09162" lon="5.8493">
        <ele>1274.76</ele>
        <time>2018-11-10T14:24:57Z</time>
      </trkpt>
      <trkpt lat="45.0916" lon="5.84898">
        <ele>1272.43</ele>
        <time>2018-11-10T14:24:59Z</time>
      </trkpt>
      <trkpt lat="45.09153" lon="5.84875">
        <ele>1271.8</ele>
        <time>2018-11-10T14:25:01Z</time>
      </trkpt>
      <trkpt lat="45.09138" lon="5.84892">
        <ele>1268.28</ele>
        <time>2018-11-10T14:25:11Z</time>
      </trkpt>
      <trkpt lat="45.09138" lon="5.84919">
        <ele>1264.9</ele>
        <time>2018-11-10T14:25:14Z</time>
      </trkpt>
      <trkpt lat="45.09124" lon="5.84944">
        <ele>1262.86</ele>
        <time>2018-11-10T14:25:17Z</time>
      </trkpt>
      <trkpt lat="45.091" lon="5.84954">
        <ele>1258.61</ele>
        <time>2018-11-10T14:25:20Z</time>
      </trkpt>
      <trkpt lat="45.09081" lon="5.84963">
        <ele>1257.82</ele>
        <time>2018-11-10T14:25:22Z</time>
      </trkpt>
      <trkpt lat="45.09058" lon="5.84953">
        <ele>1259.36</ele>
        <time>2018-11-10T14:25:24Z</time>
      </trkpt>
      <trkpt lat="45.09036" lon="5.84931">
        <ele>1259.01</ele>
        <time>2018-11-10T14:25:26Z</time>
      </trkpt>
      <trkpt lat="45.09018" lon="5.849">
        <ele>1257.64</ele>
        <time>2018-11-10T14:25:28Z</time>
      </trkpt>
      <trkpt lat="45.08997" lon="5.8488">
        <ele>1255.21</ele>
        <time>2018-11-10T14:25:30Z</time>
      </trkpt>
      <trkpt lat="45.08966" lon="5.84863">
        <ele>1253.17</ele>
        <time>2018-11-10T14:25:32Z</time>
      </trkpt>
      <trkpt lat="45.08935" lon="5.84849">
        <ele>1251.87</ele>
        <time>2018-11-10T14:25:34Z</time>
      </trkpt>
      <trkpt lat="45.08907" lon="5.84837">
        <ele>1251.05</ele>
        <time>2018-11-10T14:25:36Z</time>
      </trkpt>
      <trkpt lat="45.08877" lon="5.84832">
        <ele>1249.86</ele>
        <time>2018-11-10T14:25:38Z</time>
      </trkpt>
      <trkpt lat="45.08858" lon="5.84842">
        <ele>1250.48</ele>
        <time>2018-11-10T14:25:39Z</time>
      </trkpt>
      <trkpt lat="45.0884" lon="5.84849">
        <ele>1250.66</ele>
        <time>2018-11-10T14:25:40Z</time>
      </trkpt>
      <trkpt lat="45.08822" lon="5.84858">
        <ele>1250.72</ele>
        <time>2018-11-10T14:25:41Z</time>
      </trkpt>
      <trkpt lat="45.08792" lon="5.84879">
        <ele>1252.35</ele>
        <time>2018-11-10T14:25:43Z</time>
      </trkpt>
      <trkpt lat="45.08768" lon="5.84892">
        <ele>1252.71</ele>
        <time>2018-11-10T14:25:45Z</time>
      </trkpt>
      <trkpt lat="45.0874" lon="5.8489">
        <ele>1250.43</ele>
        <time>2018-11-10T14:25:47Z</time>
      </trkpt>
      <trkpt lat="45.08717" lon="5.84869">
        <ele>1246.58</ele>
        <time>2018-11-10T14:25:49Z</time>
      </trkpt>
      <trkpt lat="45.08705" lon="5.84842">
        <ele>1245.29</ele>
        <time>2018-11-10T14:25:50Z</time>
      </trkpt>
      <trkpt lat="45.08682" lon="5.84808">
        <ele>1244.09</ele>
        <time>2018-11-10T14:25:52Z</time>
      </trkpt>
      <trkpt lat="45.08663" lon="5.84781">
        <ele>1241.46</ele>
        <time>2018-11-10T14:25:54Z</time>
      </trkpt>
      <trkpt lat="45.08638" lon="5.84765">
        <ele>1240.81</ele>
        <time>2018-11-10T14:25:56Z</time>
      </trkpt>
      <trkpt lat="45.08612" lon="5.84757">
        <ele>1240.26</ele>
        <time>2018-11-10T14:25:58Z</time>
      </trkpt>
      <trkpt lat="45.08585" lon="5.84755">
        <ele>1240.49</ele>
        <time>2018-11-10T14:26:00Z</time>
      </trkpt>
      <trkpt lat="45.08556" lon="5.84765">
        <ele>1241.42</ele>
        <time>2018-11-10T14:26:02Z</time>
      </trkpt>
      <trkpt lat="45.08529" lon="5.84771">
        <ele>1242.41</ele>
        <time>2018-11-10T14:26:04Z</time>
      </trkpt>
      <trkpt lat="45.08498" lon="5.8477">
        <ele>1243.62</ele>
        <time>2018-11-10T14:26:06Z</time>
      </trkpt>
      <trkpt lat="45.08469" lon="5.84764">
        <ele>1242.82</ele>
        <time>2018-11-10T14:26:08Z</time>
      </trkpt>
      <trkpt lat="45.08444" lon="5.84765">
        <ele>1243.45</ele>
        <time>2018-11-10T14:26:10Z</time>
      </trkpt>
      <trkpt lat="45.08423" lon="5.84775">
        <ele>1247.42</ele>
        <time>2018-11-10T14:26:12Z</time>
      </trkpt>
      <trkpt lat="45.08409" lon="5.84799">
        <ele>1251.14</ele>
        <time>2018-11-10T14:26:14Z</time>
      </trkpt>
      <trkpt lat="45.08395" lon="5.8483">
        <ele>1249.17</ele>
        <time>2018-11-10T14:26:16Z</time>
      </trkpt>
      <trkpt lat="45.08384" lon="5.8486">
        <ele>1246.89</ele>
        <time>2018-11-10T14:26:18Z</time>
      </trkpt>
      <trkpt lat="45.08376" lon="5.84891">
        <ele>1245.14</ele>
        <time>2018-11-10T14:26:20Z</time>
      </trkpt>
      <trkpt lat="45.08375" lon="5.84921">
        <ele>1245.51</ele>
        <time>2018-11-10T14:26:23Z</time>
      </trkpt>
      <trkpt lat="45.08384" lon="5.84951">
        <ele>1244.76</ele>
        <time>2018-11-10T14:26:26Z</time>
      </trkpt>
      <trkpt lat="45.08391" lon="5.84975">
        <ele>1244.74</ele>
        <time>2018-11-10T14:26:28Z</time>
      </trkpt>
      <trkpt lat="45.08392" lon="5.85004">
        <ele>1246.56</ele>
        <time>2018-11-10T14:26:30Z</time>
      </trkpt>
      <trkpt lat="45.08381" lon="5.85028">
        <ele>1245.32</ele>
        <time>2018-11-10T14:26:32Z</time>
      </trkpt>
      <trkpt lat="45.08367" lon="5.85046">
        <ele>1244.79</ele>
        <time>2018-11-10T14:26:34Z</time>
      </trkpt>
      <trkpt lat="45.08348" lon="5.85036">
        <ele>1241.17</ele>
        <time>2018-11-10T14:26:38Z</time>
      </trkpt>
      <trkpt lat="45.08332" lon="5.85012">
        <ele>1241.48</ele>
        <time>2018-11-10T14:26:40Z</time>
      </trkpt>
      <trkpt lat="45.08314" lon="5.84987">
        <ele>1238.71</ele>
        <time>2018-11-10T14:26:42Z</time>
      </trkpt>
      <trkpt lat="45.08299" lon="5.84967">
        <ele>1237.13</ele>
        <time>2018-11-10T14:26:44Z</time>
      </trkpt>
      <trkpt lat="45.08286" lon="5.84949">
        <ele>1236.57</ele>
        <time>2018-11-10T14:26:46Z</time>
      </trkpt>
      <trkpt lat="45.08269" lon="5.84915">
        <ele>1238.41</ele>
        <time>2018-11-10T14:26:49Z</time>
      </trkpt>
      <trkpt lat="45.0826" lon="5.84888">
        <ele>1238.92</ele>
        <time>2018-11-10T14:26:51Z</time>
      </trkpt>
      <trkpt lat="45.08254" lon="5.84864">
        <ele>1238.27</ele>
        <time>2018-11-10T14:26:53Z</time>
      </trkpt>
      <trkpt lat="45.08248" lon="5.84832">
        <ele>1237.79</ele>
        <time>2018-11-10T14:26:55Z</time>
      </trkpt>
      <trkpt lat="45.0824" lon="5.848">
        <ele>1236.35</ele>
        <time>2018-11-10T14:26:57Z</time>
      </trkpt>
      <trkpt lat="45.08236" lon="5.84771">
        <ele>1235.8</ele>
        <time>2018-11-10T14:26:59Z</time>
      </trkpt>
      <trkpt lat="45.08225" lon="5.8473">
        <ele>1234.14</ele>
        <time>2018-11-10T14:27:01Z</time>
      </trkpt>
      <trkpt lat="45.08217" lon="5.847">
        <ele>1232.17</ele>
        <time>2018-11-10T14:27:03Z</time>
      </trkpt>
      <trkpt lat="45.08216" lon="5.84659">
        <ele>1230.17</ele>
        <time>2018-11-10T14:27:05Z</time>
      </trkpt>
      <trkpt lat="45.08216" lon="5.84625">
        <ele>1227.96</ele>
        <time>2018-11-10T14:27:07Z</time>
      </trkpt>
      <trkpt lat="45.08212" lon="5.846">
        <ele>1226.41</ele>
        <time>2018-11-10T14:27:08Z</time>
      </trkpt>
      <trkpt lat="45.08195" lon="5.84561">
        <ele>1224.89</ele>
        <time>2018-11-10T14:27:10Z</time>
      </trkpt>
      <trkpt lat="45.08177" lon="5.84523">
        <ele>1225.66</ele>
        <time>2018-11-10T14:27:12Z</time>
      </trkpt>
      <trkpt lat="45.0816" lon="5.84486">
        <ele>1224.82</ele>
        <time>2018-11-10T14:27:14Z</time>
      </trkpt>
      <trkpt lat="45.08147" lon="5.84445">
        <ele>1223.14</ele>
        <time>2018-11-10T14:27:16Z</time>
      </trkpt>
      <trkpt lat="45.08134" lon="5.84398">
        <ele>1222.78</ele>
        <time>2018-11-10T14:27:18Z</time>
      </trkpt>
      <trkpt lat="45.08126" lon="5.84357">
        <ele>1220.01</ele>
        <time>2018-11-10T14:27:20Z</time>
      </trkpt>
      <trkpt lat="45.08124" lon="5.84324">
        <ele>1217.67</ele>
        <time>2018-11-10T14:27:22Z</time>
      </trkpt>
      <trkpt lat="45.08116" lon="5.84281">
        <ele>1208.91</ele>
        <time>2018-11-10T14:27:24Z</time>
      </trkpt>
      <trkpt lat="45.08103" lon="5.84261">
        <ele>1171.87</ele>
        <time>2018-11-10T14:28:35Z</time>
      </trkpt>
      <trkpt lat="45.08093" lon="5.84238">
        <ele>1169.75</ele>
        <time>2018-11-10T14:28:44Z</time>
      </trkpt>
      <trkpt lat="45.08085" lon="5.84213">
        <ele>1173.41</ele>
        <time>2018-11-10T14:28:54Z</time>
      </trkpt>
      <trkpt lat="45.08072" lon="5.84191">
        <ele>1169.05</ele>
        <time>2018-11-10T14:29:25Z</time>
      </trkpt>
      <trkpt lat="45.08062" lon="5.84162">
        <ele>1167.29</ele>
        <time>2018-11-10T14:29:29Z</time>
      </trkpt>
      <trkpt lat="45.08053" lon="5.84131">
        <ele>1163.15</ele>
        <time>2018-11-10T14:29:33Z</time>
      </trkpt>
      <trkpt lat="45.08046" lon="5.84106">
        <ele>1162.62</ele>
        <time>2018-11-10T14:29:37Z</time>
      </trkpt>
      <trkpt lat="45.08036" lon="5.8408">
        <ele>1150.69</ele>
        <time>2018-11-10T14:30:09Z</time>
      </trkpt>
      <trkpt lat="45.08016" lon="5.84068">
        <ele>1150.73</ele>
        <time>2018-11-10T14:30:15Z</time>
      </trkpt>
      <trkpt lat="45.07999" lon="5.84085">
        <ele>1150.22</ele>
        <time>2018-11-10T14:30:56Z</time>
      </trkpt>
      <trkpt lat="45.07999" lon="5.84116">
        <ele>1143.75</ele>
        <time>2018-11-10T14:31:01Z</time>
      </trkpt>
      <trkpt lat="45.08012" lon="5.84136">
        <ele>1139.22</ele>
        <time>2018-11-10T14:31:08Z</time>
      </trkpt>
      <trkpt lat="45.08015" lon="5.84163">
        <ele>1134.32</ele>
        <time>2018-11-10T14:31:13Z</time>
      </trkpt>
      <trkpt lat="45.08016" lon="5.8419">
        <ele>1130.09</ele>
        <time>2018-11-10T14:31:18Z</time>
      </trkpt>
      <trkpt lat="45.08007" lon="5.84218">
        <ele>1132.71</ele>
        <time>2018-11-10T14:31:23Z</time>
      </trkpt>
      <trkpt lat="45.07999" lon="5.8424">
        <ele>1132.36</ele>
        <time>2018-11-10T14:31:29Z</time>
      </trkpt>
      <trkpt lat="45.07993" lon="5.84265">
        <ele>1132.65</ele>
        <time>2018-11-10T14:31:34Z</time>
      </trkpt>
      <trkpt lat="45.0799" lon="5.84295">
        <ele>1129.37</ele>
        <time>2018-11-10T14:31:39Z</time>
      </trkpt>
      <trkpt lat="45.07988" lon="5.84322">
        <ele>1129.67</ele>
        <time>2018-11-10T14:31:42Z</time>
      </trkpt>
      <trkpt lat="45.07985" lon="5.84349">
        <ele>1125.17</ele>
        <time>2018-11-10T14:31:46Z</time>
      </trkpt>
      <trkpt lat="45.07977" lon="5.84378">
        <ele>1121.68</ele>
        <time>2018-11-10T14:31:49Z</time>
      </trkpt>
      <trkpt lat="45.07966" lon="5.84405">
        <ele>1118.67</ele>
        <time>2018-11-10T14:31:52Z</time>
      </trkpt>
      <trkpt lat="45.07956" lon="5.84433">
        <ele>1115.52</ele>
        <time>2018-11-10T14:31:55Z</time>
      </trkpt>
      <trkpt lat="45.07943" lon="5.84452">
        <ele>1111.48</ele>
        <time>2018-11-10T14:31:58Z</time>
      </trkpt>
      <trkpt lat="45.07924" lon="5.84467">
        <ele>1109.57</ele>
        <time>2018-11-10T14:32:01Z</time>
      </trkpt>
      <trkpt lat="45.07911" lon="5.84496">
        <ele>1105.14</ele>
        <time>2018-11-10T14:32:04Z</time>
      </trkpt>
      <trkpt lat="45.07891" lon="5.84512">
        <ele>1105.02</ele>
        <time>2018-11-10T14:32:07Z</time>
      </trkpt>
      <trkpt lat="45.07868" lon="5.84533">
        <ele>1102.17</ele>
        <time>2018-11-10T14:32:10Z</time>
      </trkpt>
      <trkpt lat="45.07851" lon="5.84557">
        <ele>1100.21</ele>
        <time>2018-11-10T14:32:13Z</time>
      </trkpt>
      <trkpt lat="45.0784" lon="5.84581">
        <ele>1095.44</ele>
        <time>2018-11-10T14:32:15Z</time>
      </trkpt>
      <trkpt lat="45.07838" lon="5.84613">
        <ele>1090.67</ele>
        <time>2018-11-10T14:32:17Z</time>
      </trkpt>
      <trkpt lat="45.07837" lon="5.84642">
        <ele>1088.92</ele>
        <time>2018-11-10T14:32:19Z</time>
      </trkpt>
      <trkpt lat="45.07833" lon="5.84668">
        <ele>1087.85</ele>
        <time>2018-11-10T14:32:21Z</time>
      </trkpt>
      <trkpt lat="45.07825" lon="5.84694">
        <ele>1082.71</ele>
        <time>2018-11-10T14:32:23Z</time>
      </trkpt>
      <trkpt lat="45.07813" lon="5.84716">
        <ele>1080.86</ele>
        <time>2018-11-10T14:32:26Z</time>
      </trkpt>
      <trkpt lat="45.0779" lon="5.84728">
        <ele>1082.56</ele>
        <time>2018-11-10T14:32:29Z</time>
      </trkpt>
      <trkpt lat="45.07766" lon="5.84716">
        <ele>1080.15</ele>
        <time>2018-11-10T14:32:32Z</time>
      </trkpt>
      <trkpt lat="45.07743" lon="5.84711">
        <ele>1076.9</ele>
        <time>2018-11-10T14:32:35Z</time>
      </trkpt>
      <trkpt lat="45.07729" lon="5.84738">
        <ele>1074.02</ele>
        <time>2018-11-10T14:32:38Z</time>
      </trkpt>
      <trkpt lat="45.07718" lon="5.8476">
        <ele>1073.07</ele>
        <time>2018-11-10T14:32:40Z</time>
      </trkpt>
      <trkpt lat="45.07698" lon="5.84775">
        <ele>1070.29</ele>
        <time>2018-11-10T14:32:43Z</time>
      </trkpt>
      <trkpt lat="45.07677" lon="5.84785">
        <ele>1069.09</ele>
        <time>2018-11-10T14:32:45Z</time>
      </trkpt>
      <trkpt lat="45.07655" lon="5.84802">
        <ele>1066.25</ele>
        <time>2018-11-10T14:32:47Z</time>
      </trkpt>
      <trkpt lat="45.07639" lon="5.84819">
        <ele>1061.17</ele>
        <time>2018-11-10T14:32:49Z</time>
      </trkpt>
      <trkpt lat="45.07624" lon="5.84838">
        <ele>1058.26</ele>
        <time>2018-11-10T14:32:51Z</time>
      </trkpt>
      <trkpt lat="45.07605" lon="5.84866">
        <ele>1055.17</ele>
        <time>2018-11-10T14:32:54Z</time>
      </trkpt>
      <trkpt lat="45.07582" lon="5.84874">
        <ele>1053.14</ele>
        <time>2018-11-10T14:32:57Z</time>
      </trkpt>
      <trkpt lat="45.07563" lon="5.84858">
        <ele>1048.29</ele>
        <time>2018-11-10T14:33:00Z</time>
      </trkpt>
      <trkpt lat="45.07538" lon="5.84849">
        <ele>1044.12</ele>
        <time>2018-11-10T14:33:03Z</time>
      </trkpt>
      <trkpt lat="45.07516" lon="5.84837">
        <ele>1041.87</ele>
        <time>2018-11-10T14:33:06Z</time>
      </trkpt>
      <trkpt lat="45.07497" lon="5.84822">
        <ele>1039.04</ele>
        <time>2018-11-10T14:33:09Z</time>
      </trkpt>
      <trkpt lat="45.07478" lon="5.84807">
        <ele>1038.75</ele>
        <time>2018-11-10T14:33:12Z</time>
      </trkpt>
      <trkpt lat="45.0746" lon="5.84789">
        <ele>1038.49</ele>
        <time>2018-11-10T14:33:16Z</time>
      </trkpt>
      <trkpt lat="45.07444" lon="5.84772">
        <ele>1034.21</ele>
        <time>2018-11-10T14:33:20Z</time>
      </trkpt>
      <trkpt lat="45.07423" lon="5.84761">
        <ele>1031.07</ele>
        <time>2018-11-10T14:33:25Z</time>
      </trkpt>
      <trkpt lat="45.07406" lon="5.84746">
        <ele>1031.72</ele>
        <time>2018-11-10T14:33:29Z</time>
      </trkpt>
      <trkpt lat="45.07392" lon="5.84725">
        <ele>1029.92</ele>
        <time>2018-11-10T14:33:34Z</time>
      </trkpt>
      <trkpt lat="45.07393" lon="5.84694">
        <ele>1026.19</ele>
        <time>2018-11-10T14:33:38Z</time>
      </trkpt>
      <trkpt lat="45.07404" lon="5.84673">
        <ele>1020.95</ele>
        <time>2018-11-10T14:33:41Z</time>
      </trkpt>
      <trkpt lat="45.07427" lon="5.84673">
        <ele>1019.29</ele>
        <time>2018-11-10T14:33:44Z</time>
      </trkpt>
      <trkpt lat="45.07446" lon="5.84677">
        <ele>1020.61</ele>
        <time>2018-11-10T14:33:46Z</time>
      </trkpt>
      <trkpt lat="45.07467" lon="5.84686">
        <ele>1018.7</ele>
        <time>2018-11-10T14:33:48Z</time>
      </trkpt>
      <trkpt lat="45.0749" lon="5.84693">
        <ele>1017.13</ele>
        <time>2018-11-10T14:33:50Z</time>
      </trkpt>
      <trkpt lat="45.07514" lon="5.84685">
        <ele>1014.11</ele>
        <time>2018-11-10T14:33:53Z</time>
      </trkpt>
      <trkpt lat="45.07533" lon="5.84675">
        <ele>1013.77</ele>
        <time>2018-11-10T14:33:55Z</time>
      </trkpt>
      <trkpt lat="45.07548" lon="5.8465">
        <ele>1011.5</ele>
        <time>2018-11-10T14:33:57Z</time>
      </trkpt>
      <trkpt lat="45.07559" lon="5.84617">
        <ele>1006.68</ele>
        <time>2018-11-10T14:33:59Z</time>
      </trkpt>
      <trkpt lat="45.07565" lon="5.84587">
        <ele>1003.52</ele>
        <time>2018-11-10T14:34:01Z</time>
      </trkpt>
      <trkpt lat="45.07564" lon="5.84555">
        <ele>999.59</ele>
        <time>2018-11-10T14:34:03Z</time>
      </trkpt>
      <trkpt lat="45.07553" lon="5.84528">
        <ele>996.09</ele>
        <time>2018-11-10T14:34:05Z</time>
      </trkpt>
      <trkpt lat="45.07546" lon="5.84495">
        <ele>995.77</ele>
        <time>2018-11-10T14:34:07Z</time>
      </trkpt>
      <trkpt lat="45.07543" lon="5.8446">
        <ele>994.83</ele>
        <time>2018-11-10T14:34:09Z</time>
      </trkpt>
      <trkpt lat="45.07546" lon="5.84423">
        <ele>994.75</ele>
        <time>2018-11-10T14:34:11Z</time>
      </trkpt>
      <trkpt lat="45.07555" lon="5.84397">
        <ele>994.04</ele>
        <time>2018-11-10T14:34:13Z</time>
      </trkpt>
      <trkpt lat="45.07564" lon="5.84368">
        <ele>992.65</ele>
        <time>2018-11-10T14:34:15Z</time>
      </trkpt>
      <trkpt lat="45.07568" lon="5.84338">
        <ele>990.21</ele>
        <time>2018-11-10T14:34:17Z</time>
      </trkpt>
      <trkpt lat="45.07564" lon="5.843">
        <ele>986.35</ele>
        <time>2018-11-10T14:34:19Z</time>
      </trkpt>
      <trkpt lat="45.07553" lon="5.84272">
        <ele>984.89</ele>
        <time>2018-11-10T14:34:21Z</time>
      </trkpt>
      <trkpt lat="45.07547" lon="5.84241">
        <ele>978.61</ele>
        <time>2018-11-10T14:34:24Z</time>
      </trkpt>
      <trkpt lat="45.07551" lon="5.84212">
        <ele>976.42</ele>
        <time>2018-11-10T14:34:26Z</time>
      </trkpt>
      <trkpt lat="45.07557" lon="5.84178">
        <ele>976.01</ele>
        <time>2018-11-10T14:34:28Z</time>
      </trkpt>
      <trkpt lat="45.0757" lon="5.84139">
        <ele>973.25</ele>
        <time>2018-11-10T14:34:30Z</time>
      </trkpt>
      <trkpt lat="45.07574" lon="5.84099">
        <ele>967.96</ele>
        <time>2018-11-10T14:34:32Z</time>
      </trkpt>
      <trkpt lat="45.07576" lon="5.84072">
        <ele>966.15</ele>
        <time>2018-11-10T14:34:34Z</time>
      </trkpt>
      <trkpt lat="45.07578" lon="5.84045">
        <ele>964.87</ele>
        <time>2018-11-10T14:34:36Z</time>
      </trkpt>
      <trkpt lat="45.07569" lon="5.84007">
        <ele>959.24</ele>
        <time>2018-11-10T14:34:39Z</time>
      </trkpt>
      <trkpt lat="45.07562" lon="5.83979">
        <ele>955.57</ele>
        <time>2018-11-10T14:34:41Z</time>
      </trkpt>
      <trkpt lat="45.07558" lon="5.83947">
        <ele>955.31</ele>
        <time>2018-11-10T14:34:43Z</time>
      </trkpt>
      <trkpt lat="45.07552" lon="5.83908">
        <ele>955</ele>
        <time>2018-11-10T14:34:45Z</time>
      </trkpt>
      <trkpt lat="45.07549" lon="5.83865">
        <ele>950.63</ele>
        <time>2018-11-10T14:34:47Z</time>
      </trkpt>
      <trkpt lat="45.07547" lon="5.83828">
        <ele>948.21</ele>
        <time>2018-11-10T14:34:49Z</time>
      </trkpt>
      <trkpt lat="45.07533" lon="5.83796">
        <ele>947.57</ele>
        <time>2018-11-10T14:34:51Z</time>
      </trkpt>
      <trkpt lat="45.07522" lon="5.8376">
        <ele>943.39</ele>
        <time>2018-11-10T14:34:53Z</time>
      </trkpt>
      <trkpt lat="45.0751" lon="5.83724">
        <ele>937.11</ele>
        <time>2018-11-10T14:34:56Z</time>
      </trkpt>
      <trkpt lat="45.075" lon="5.837">
        <ele>934.95</ele>
        <time>2018-11-10T14:34:58Z</time>
      </trkpt>
      <trkpt lat="45.07486" lon="5.83674">
        <ele>934.97</ele>
        <time>2018-11-10T14:35:00Z</time>
      </trkpt>
      <trkpt lat="45.0747" lon="5.83638">
        <ele>933.85</ele>
        <time>2018-11-10T14:35:02Z</time>
      </trkpt>
      <trkpt lat="45.0745" lon="5.83604">
        <ele>932.35</ele>
        <time>2018-11-10T14:35:04Z</time>
      </trkpt>
      <trkpt lat="45.07436" lon="5.8357">
        <ele>927.67</ele>
        <time>2018-11-10T14:35:06Z</time>
      </trkpt>
      <trkpt lat="45.07425" lon="5.83535">
        <ele>921.29</ele>
        <time>2018-11-10T14:35:08Z</time>
      </trkpt>
      <trkpt lat="45.07409" lon="5.83503">
        <ele>917.36</ele>
        <time>2018-11-10T14:35:10Z</time>
      </trkpt>
      <trkpt lat="45.07399" lon="5.83468">
        <ele>916.8</ele>
        <time>2018-11-10T14:35:12Z</time>
      </trkpt>
      <trkpt lat="45.07385" lon="5.8344">
        <ele>911.43</ele>
        <time>2018-11-10T14:35:14Z</time>
      </trkpt>
      <trkpt lat="45.07365" lon="5.83408">
        <ele>909.19</ele>
        <time>2018-11-10T14:35:16Z</time>
      </trkpt>
      <trkpt lat="45.0735" lon="5.83392">
        <ele>909.58</ele>
        <time>2018-11-10T14:35:17Z</time>
      </trkpt>
      <trkpt lat="45.07333" lon="5.83367">
        <ele>907.09</ele>
        <time>2018-11-10T14:35:20Z</time>
      </trkpt>
      <trkpt lat="45.07314" lon="5.83344">
        <ele>905.65</ele>
        <time>2018-11-10T14:35:22Z</time>
      </trkpt>
      <trkpt lat="45.07292" lon="5.8333">
        <ele>902.09</ele>
        <time>2018-11-10T14:35:24Z</time>
      </trkpt>
      <trkpt lat="45.0726" lon="5.8331">
        <ele>900.16</ele>
        <time>2018-11-10T14:35:26Z</time>
      </trkpt>
      <trkpt lat="45.07231" lon="5.83286">
        <ele>900.48</ele>
        <time>2018-11-10T14:35:28Z</time>
      </trkpt>
      <trkpt lat="45.07203" lon="5.83277">
        <ele>900.44</ele>
        <time>2018-11-10T14:35:30Z</time>
      </trkpt>
      <trkpt lat="45.07178" lon="5.83284">
        <ele>900.71</ele>
        <time>2018-11-10T14:35:32Z</time>
      </trkpt>
      <trkpt lat="45.07152" lon="5.83285">
        <ele>894.09</ele>
        <time>2018-11-10T14:35:34Z</time>
      </trkpt>
      <trkpt lat="45.07123" lon="5.83278">
        <ele>891.25</ele>
        <time>2018-11-10T14:35:36Z</time>
      </trkpt>
      <trkpt lat="45.07098" lon="5.83257">
        <ele>889.18</ele>
        <time>2018-11-10T14:35:38Z</time>
      </trkpt>
      <trkpt lat="45.07067" lon="5.8323">
        <ele>887.87</ele>
        <time>2018-11-10T14:35:40Z</time>
      </trkpt>
      <trkpt lat="45.07041" lon="5.83203">
        <ele>885.23</ele>
        <time>2018-11-10T14:35:42Z</time>
      </trkpt>
      <trkpt lat="45.07032" lon="5.83176">
        <ele>884.89</ele>
        <time>2018-11-10T14:35:43Z</time>
      </trkpt>
      <trkpt lat="45.07019" lon="5.83148">
        <ele>883.84</ele>
        <time>2018-11-10T14:35:45Z</time>
      </trkpt>
      <trkpt lat="45.07009" lon="5.83127">
        <ele>880.81</ele>
        <time>2018-11-10T14:35:47Z</time>
      </trkpt>
      <trkpt lat="45.06997" lon="5.83103">
        <ele>877.73</ele>
        <time>2018-11-10T14:35:50Z</time>
      </trkpt>
      <trkpt lat="45.06994" lon="5.83075">
        <ele>863.01</ele>
        <time>2018-11-10T14:36:05Z</time>
      </trkpt>
      <trkpt lat="45.06982" lon="5.83046">
        <ele>861.84</ele>
        <time>2018-11-10T14:36:08Z</time>
      </trkpt>
      <trkpt lat="45.06971" lon="5.8302">
        <ele>860.84</ele>
        <time>2018-11-10T14:36:10Z</time>
      </trkpt>
      <trkpt lat="45.06952" lon="5.82974">
        <ele>860.75</ele>
        <time>2018-11-10T14:36:12Z</time>
      </trkpt>
      <trkpt lat="45.06941" lon="5.82945">
        <ele>860.74</ele>
        <time>2018-11-10T14:36:13Z</time>
      </trkpt>
      <trkpt lat="45.06915" lon="5.82949">
        <ele>856.54</ele>
        <time>2018-11-10T14:36:15Z</time>
      </trkpt>
      <trkpt lat="45.06894" lon="5.82951">
        <ele>849.86</ele>
        <time>2018-11-10T14:36:17Z</time>
      </trkpt>
      <trkpt lat="45.06875" lon="5.82946">
        <ele>848.84</ele>
        <time>2018-11-10T14:36:19Z</time>
      </trkpt>
      <trkpt lat="45.06865" lon="5.82925">
        <ele>847.63</ele>
        <time>2018-11-10T14:36:21Z</time>
      </trkpt>
      <trkpt lat="45.06857" lon="5.829">
        <ele>843.81</ele>
        <time>2018-11-10T14:36:23Z</time>
      </trkpt>
      <trkpt lat="45.06845" lon="5.82869">
        <ele>841.93</ele>
        <time>2018-11-10T14:36:25Z</time>
      </trkpt>
      <trkpt lat="45.06829" lon="5.82843">
        <ele>840.85</ele>
        <time>2018-11-10T14:36:27Z</time>
      </trkpt>
      <trkpt lat="45.06808" lon="5.82828">
        <ele>837.04</ele>
        <time>2018-11-10T14:36:29Z</time>
      </trkpt>
      <trkpt lat="45.06787" lon="5.8282">
        <ele>832.64</ele>
        <time>2018-11-10T14:36:31Z</time>
      </trkpt>
      <trkpt lat="45.06772" lon="5.82794">
        <ele>828.52</ele>
        <time>2018-11-10T14:36:35Z</time>
      </trkpt>
      <trkpt lat="45.06758" lon="5.82769">
        <ele>828.02</ele>
        <time>2018-11-10T14:36:37Z</time>
      </trkpt>
      <trkpt lat="45.0674" lon="5.82746">
        <ele>827.77</ele>
        <time>2018-11-10T14:36:39Z</time>
      </trkpt>
      <trkpt lat="45.06721" lon="5.82736">
        <ele>825.15</ele>
        <time>2018-11-10T14:36:41Z</time>
      </trkpt>
      <trkpt lat="45.06705" lon="5.82716">
        <ele>822.11</ele>
        <time>2018-11-10T14:36:44Z</time>
      </trkpt>
      <trkpt lat="45.06687" lon="5.82714">
        <ele>821.07</ele>
        <time>2018-11-10T14:36:46Z</time>
      </trkpt>
      <trkpt lat="45.06677" lon="5.82739">
        <ele>810.66</ele>
        <time>2018-11-10T14:36:50Z</time>
      </trkpt>
      <trkpt lat="45.0669" lon="5.82764">
        <ele>806.27</ele>
        <time>2018-11-10T14:36:53Z</time>
      </trkpt>
      <trkpt lat="45.06712" lon="5.82787">
        <ele>802.75</ele>
        <time>2018-11-10T14:36:56Z</time>
      </trkpt>
      <trkpt lat="45.06725" lon="5.82813">
        <ele>802.53</ele>
        <time>2018-11-10T14:36:58Z</time>
      </trkpt>
      <trkpt lat="45.06742" lon="5.82844">
        <ele>801</ele>
        <time>2018-11-10T14:37:01Z</time>
      </trkpt>
      <trkpt lat="45.06753" lon="5.82866">
        <ele>799.15</ele>
        <time>2018-11-10T14:37:03Z</time>
      </trkpt>
      <trkpt lat="45.06764" lon="5.82888">
        <ele>797.17</ele>
        <time>2018-11-10T14:37:05Z</time>
      </trkpt>
      <trkpt lat="45.06773" lon="5.82918">
        <ele>795.08</ele>
        <time>2018-11-10T14:37:08Z</time>
      </trkpt>
      <trkpt lat="45.06784" lon="5.82942">
        <ele>792.87</ele>
        <time>2018-11-10T14:37:11Z</time>
      </trkpt>
      <trkpt lat="45.06791" lon="5.82971">
        <ele>790.16</ele>
        <time>2018-11-10T14:37:14Z</time>
      </trkpt>
      <trkpt lat="45.06797" lon="5.83004">
        <ele>789.75</ele>
        <time>2018-11-10T14:37:17Z</time>
      </trkpt>
      <trkpt lat="45.06805" lon="5.83028">
        <ele>789.04</ele>
        <time>2018-11-10T14:37:19Z</time>
      </trkpt>
      <trkpt lat="45.06821" lon="5.83054">
        <ele>783.86</ele>
        <time>2018-11-10T14:37:22Z</time>
      </trkpt>
      <trkpt lat="45.06837" lon="5.83083">
        <ele>777.4</ele>
        <time>2018-11-10T14:37:25Z</time>
      </trkpt>
      <trkpt lat="45.06852" lon="5.83101">
        <ele>775.19</ele>
        <time>2018-11-10T14:37:27Z</time>
      </trkpt>
      <trkpt lat="45.06862" lon="5.83124">
        <ele>772.26</ele>
        <time>2018-11-10T14:37:29Z</time>
      </trkpt>
      <trkpt lat="45.06874" lon="5.83144">
        <ele>770.88</ele>
        <time>2018-11-10T14:37:31Z</time>
      </trkpt>
      <trkpt lat="45.06878" lon="5.83174">
        <ele>769.14</ele>
        <time>2018-11-10T14:37:33Z</time>
      </trkpt>
      <trkpt lat="45.06885" lon="5.83205">
        <ele>766.96</ele>
        <time>2018-11-10T14:37:35Z</time>
      </trkpt>
      <trkpt lat="45.06897" lon="5.8323">
        <ele>765.15</ele>
        <time>2018-11-10T14:37:37Z</time>
      </trkpt>
      <trkpt lat="45.06911" lon="5.83256">
        <ele>762.47</ele>
        <time>2018-11-10T14:37:39Z</time>
      </trkpt>
      <trkpt lat="45.06925" lon="5.83283">
        <ele>759.29</ele>
        <time>2018-11-10T14:37:41Z</time>
      </trkpt>
      <trkpt lat="45.06941" lon="5.83305">
        <ele>755.78</ele>
        <time>2018-11-10T14:37:43Z</time>
      </trkpt>
      <trkpt lat="45.06954" lon="5.83334">
        <ele>752.52</ele>
        <time>2018-11-10T14:37:45Z</time>
      </trkpt>
      <trkpt lat="45.0697" lon="5.83357">
        <ele>750.2</ele>
        <time>2018-11-10T14:37:47Z</time>
      </trkpt>
      <trkpt lat="45.0698" lon="5.83391">
        <ele>747.96</ele>
        <time>2018-11-10T14:37:49Z</time>
      </trkpt>
      <trkpt lat="45.06993" lon="5.83425">
        <ele>746.36</ele>
        <time>2018-11-10T14:37:51Z</time>
      </trkpt>
      <trkpt lat="45.07006" lon="5.83461">
        <ele>745.1</ele>
        <time>2018-11-10T14:37:53Z</time>
      </trkpt>
      <trkpt lat="45.07021" lon="5.83493">
        <ele>744.28</ele>
        <time>2018-11-10T14:37:55Z</time>
      </trkpt>
      <trkpt lat="45.07036" lon="5.83528">
        <ele>742.18</ele>
        <time>2018-11-10T14:37:57Z</time>
      </trkpt>
      <trkpt lat="45.07053" lon="5.83552">
        <ele>738.14</ele>
        <time>2018-11-10T14:37:59Z</time>
      </trkpt>
      <trkpt lat="45.07072" lon="5.83574">
        <ele>737.78</ele>
        <time>2018-11-10T14:38:01Z</time>
      </trkpt>
      <trkpt lat="45.07086" lon="5.83597">
        <ele>729.29</ele>
        <time>2018-11-10T14:38:04Z</time>
      </trkpt>
      <trkpt lat="45.07084" lon="5.83625">
        <ele>725.15</ele>
        <time>2018-11-10T14:38:08Z</time>
      </trkpt>
      <trkpt lat="45.07062" lon="5.83628">
        <ele>723.17</ele>
        <time>2018-11-10T14:38:10Z</time>
      </trkpt>
      <trkpt lat="45.07038" lon="5.83644">
        <ele>720.6</ele>
        <time>2018-11-10T14:38:13Z</time>
      </trkpt>
      <trkpt lat="45.07019" lon="5.83648">
        <ele>719.82</ele>
        <time>2018-11-10T14:38:15Z</time>
      </trkpt>
      <trkpt lat="45.07006" lon="5.83626">
        <ele>719.45</ele>
        <time>2018-11-10T14:38:19Z</time>
      </trkpt>
      <trkpt lat="45.07023" lon="5.83602">
        <ele>718.31</ele>
        <time>2018-11-10T14:38:21Z</time>
      </trkpt>
      <trkpt lat="45.07041" lon="5.83568">
        <ele>719.18</ele>
        <time>2018-11-10T14:38:24Z</time>
      </trkpt>
      <trkpt lat="45.07022" lon="5.83551">
        <ele>714.44</ele>
        <time>2018-11-10T14:38:26Z</time>
      </trkpt>
      <trkpt lat="45.07008" lon="5.83532">
        <ele>709.18</ele>
        <time>2018-11-10T14:38:28Z</time>
      </trkpt>
      <trkpt lat="45.06991" lon="5.83508">
        <ele>706.96</ele>
        <time>2018-11-10T14:38:30Z</time>
      </trkpt>
      <trkpt lat="45.06969" lon="5.83487">
        <ele>705.36</ele>
        <time>2018-11-10T14:38:32Z</time>
      </trkpt>
      <trkpt lat="45.06947" lon="5.83476">
        <ele>699.27</ele>
        <time>2018-11-10T14:38:34Z</time>
      </trkpt>
      <trkpt lat="45.06924" lon="5.83457">
        <ele>696.97</ele>
        <time>2018-11-10T14:38:36Z</time>
      </trkpt>
      <trkpt lat="45.069" lon="5.83441">
        <ele>695.85</ele>
        <time>2018-11-10T14:38:38Z</time>
      </trkpt>
      <trkpt lat="45.0688" lon="5.83416">
        <ele>695.05</ele>
        <time>2018-11-10T14:38:40Z</time>
      </trkpt>
      <trkpt lat="45.06852" lon="5.83392">
        <ele>694.07</ele>
        <time>2018-11-10T14:38:42Z</time>
      </trkpt>
      <trkpt lat="45.06836" lon="5.83378">
        <ele>693.84</ele>
        <time>2018-11-10T14:38:43Z</time>
      </trkpt>
      <trkpt lat="45.06823" lon="5.83352">
        <ele>689.9</ele>
        <time>2018-11-10T14:38:45Z</time>
      </trkpt>
      <trkpt lat="45.06808" lon="5.83338">
        <ele>689.09</ele>
        <time>2018-11-10T14:38:46Z</time>
      </trkpt>
      <trkpt lat="45.06792" lon="5.83309">
        <ele>688.28</ele>
        <time>2018-11-10T14:38:48Z</time>
      </trkpt>
      <trkpt lat="45.06772" lon="5.83286">
        <ele>686.39</ele>
        <time>2018-11-10T14:38:50Z</time>
      </trkpt>
      <trkpt lat="45.06764" lon="5.83262">
        <ele>685.8</ele>
        <time>2018-11-10T14:38:52Z</time>
      </trkpt>
      <trkpt lat="45.06746" lon="5.83231">
        <ele>685.26</ele>
        <time>2018-11-10T14:38:54Z</time>
      </trkpt>
      <trkpt lat="45.06731" lon="5.83196">
        <ele>684.09</ele>
        <time>2018-11-10T14:38:56Z</time>
      </trkpt>
      <trkpt lat="45.06711" lon="5.83166">
        <ele>681.46</ele>
        <time>2018-11-10T14:38:58Z</time>
      </trkpt>
      <trkpt lat="45.06692" lon="5.83134">
        <ele>679.41</ele>
        <time>2018-11-10T14:39:00Z</time>
      </trkpt>
      <trkpt lat="45.06675" lon="5.83094">
        <ele>677.89</ele>
        <time>2018-11-10T14:39:02Z</time>
      </trkpt>
      <trkpt lat="45.06661" lon="5.83064">
        <ele>677.96</ele>
        <time>2018-11-10T14:39:04Z</time>
      </trkpt>
      <trkpt lat="45.06643" lon="5.83039">
        <ele>670.15</ele>
        <time>2018-11-10T14:39:07Z</time>
      </trkpt>
      <trkpt lat="45.06623" lon="5.83015">
        <ele>665.65</ele>
        <time>2018-11-10T14:39:09Z</time>
      </trkpt>
      <trkpt lat="45.06593" lon="5.83017">
        <ele>664.4</ele>
        <time>2018-11-10T14:39:11Z</time>
      </trkpt>
      <trkpt lat="45.06568" lon="5.82992">
        <ele>663.1</ele>
        <time>2018-11-10T14:39:13Z</time>
      </trkpt>
      <trkpt lat="45.06554" lon="5.82971">
        <ele>662.85</ele>
        <time>2018-11-10T14:39:14Z</time>
      </trkpt>
      <trkpt lat="45.06542" lon="5.82945">
        <ele>661.63</ele>
        <time>2018-11-10T14:39:16Z</time>
      </trkpt>
      <trkpt lat="45.0652" lon="5.82917">
        <ele>658.72</ele>
        <time>2018-11-10T14:39:18Z</time>
      </trkpt>
      <trkpt lat="45.06502" lon="5.8289">
        <ele>654.4</ele>
        <time>2018-11-10T14:39:20Z</time>
      </trkpt>
      <trkpt lat="45.06481" lon="5.82866">
        <ele>653.8</ele>
        <time>2018-11-10T14:39:22Z</time>
      </trkpt>
      <trkpt lat="45.06464" lon="5.82851">
        <ele>653.06</ele>
        <time>2018-11-10T14:39:23Z</time>
      </trkpt>
      <trkpt lat="45.06441" lon="5.82832">
        <ele>646.61</ele>
        <time>2018-11-10T14:39:25Z</time>
      </trkpt>
      <trkpt lat="45.06427" lon="5.82806">
        <ele>643.51</ele>
        <time>2018-11-10T14:39:27Z</time>
      </trkpt>
      <trkpt lat="45.06408" lon="5.82791">
        <ele>641.2</ele>
        <time>2018-11-10T14:39:29Z</time>
      </trkpt>
      <trkpt lat="45.06389" lon="5.82769">
        <ele>637.77</ele>
        <time>2018-11-10T14:39:31Z</time>
      </trkpt>
      <trkpt lat="45.06371" lon="5.82743">
        <ele>634.52</ele>
        <time>2018-11-10T14:39:33Z</time>
      </trkpt>
      <trkpt lat="45.0635" lon="5.8272">
        <ele>631.01</ele>
        <time>2018-11-10T14:39:35Z</time>
      </trkpt>
      <trkpt lat="45.06323" lon="5.82705">
        <ele>629.16</ele>
        <time>2018-11-10T14:39:37Z</time>
      </trkpt>
      <trkpt lat="45.06301" lon="5.82694">
        <ele>623.04</ele>
        <time>2018-11-10T14:39:39Z</time>
      </trkpt>
      <trkpt lat="45.06276" lon="5.82687">
        <ele>618.43</ele>
        <time>2018-11-10T14:39:41Z</time>
      </trkpt>
      <trkpt lat="45.06252" lon="5.82669">
        <ele>617.8</ele>
        <time>2018-11-10T14:39:43Z</time>
      </trkpt>
      <trkpt lat="45.06227" lon="5.82653">
        <ele>612.92</ele>
        <time>2018-11-10T14:39:45Z</time>
      </trkpt>
      <trkpt lat="45.06199" lon="5.82634">
        <ele>610.03</ele>
        <time>2018-11-10T14:39:47Z</time>
      </trkpt>
      <trkpt lat="45.0618" lon="5.82607">
        <ele>609.77</ele>
        <time>2018-11-10T14:39:49Z</time>
      </trkpt>
      <trkpt lat="45.06157" lon="5.82591">
        <ele>609.04</ele>
        <time>2018-11-10T14:39:51Z</time>
      </trkpt>
      <trkpt lat="45.06129" lon="5.82584">
        <ele>607.16</ele>
        <time>2018-11-10T14:39:53Z</time>
      </trkpt>
      <trkpt lat="45.06103" lon="5.82574">
        <ele>605.87</ele>
        <time>2018-11-10T14:39:55Z</time>
      </trkpt>
      <trkpt lat="45.06074" lon="5.82559">
        <ele>604.14</ele>
        <time>2018-11-10T14:39:57Z</time>
      </trkpt>
      <trkpt lat="45.06058" lon="5.82545">
        <ele>603.86</ele>
        <time>2018-11-10T14:39:58Z</time>
      </trkpt>
      <trkpt lat="45.06037" lon="5.82532">
        <ele>598.92</ele>
        <time>2018-11-10T14:40:00Z</time>
      </trkpt>
      <trkpt lat="45.06043" lon="5.82507">
        <ele>598.1</ele>
        <time>2018-11-10T14:40:01Z</time>
      </trkpt>
      <trkpt lat="45.06023" lon="5.82481">
        <ele>597.56</ele>
        <time>2018-11-10T14:40:03Z</time>
      </trkpt>
      <trkpt lat="45.06018" lon="5.82447">
        <ele>597.02</ele>
        <time>2018-11-10T14:40:05Z</time>
      </trkpt>
      <trkpt lat="45.06008" lon="5.82424">
        <ele>591.24</ele>
        <time>2018-11-10T14:40:07Z</time>
      </trkpt>
      <trkpt lat="45.0599" lon="5.82415">
        <ele>587.36</ele>
        <time>2018-11-10T14:40:09Z</time>
      </trkpt>
      <trkpt lat="45.05972" lon="5.82412">
        <ele>581.06</ele>
        <time>2018-11-10T14:40:11Z</time>
      </trkpt>
      <trkpt lat="45.05951" lon="5.82417">
        <ele>577.55</ele>
        <time>2018-11-10T14:40:13Z</time>
      </trkpt>
      <trkpt lat="45.05933" lon="5.82433">
        <ele>575.2</ele>
        <time>2018-11-10T14:40:15Z</time>
      </trkpt>
      <trkpt lat="45.05931" lon="5.82462">
        <ele>563.57</ele>
        <time>2018-11-10T14:40:18Z</time>
      </trkpt>
      <trkpt lat="45.05938" lon="5.82488">
        <ele>559.81</ele>
        <time>2018-11-10T14:40:20Z</time>
      </trkpt>
      <trkpt lat="45.05951" lon="5.82508">
        <ele>557.23</ele>
        <time>2018-11-10T14:40:22Z</time>
      </trkpt>
      <trkpt lat="45.05971" lon="5.82525">
        <ele>553.35</ele>
        <time>2018-11-10T14:40:24Z</time>
      </trkpt>
      <trkpt lat="45.05992" lon="5.82537">
        <ele>550.98</ele>
        <time>2018-11-10T14:40:26Z</time>
      </trkpt>
      <trkpt lat="45.06014" lon="5.82552">
        <ele>550.76</ele>
        <time>2018-11-10T14:40:28Z</time>
      </trkpt>
      <trkpt lat="45.06028" lon="5.82583">
        <ele>548.43</ele>
        <time>2018-11-10T14:40:30Z</time>
      </trkpt>
      <trkpt lat="45.06045" lon="5.82607">
        <ele>545.98</ele>
        <time>2018-11-10T14:40:32Z</time>
      </trkpt>
      <trkpt lat="45.06051" lon="5.8265">
        <ele>543.24</ele>
        <time>2018-11-10T14:40:34Z</time>
      </trkpt>
      <trkpt lat="45.0606" lon="5.82687">
        <ele>540.97</ele>
        <time>2018-11-10T14:40:36Z</time>
      </trkpt>
      <trkpt lat="45.06084" lon="5.82703">
        <ele>538.24</ele>
        <time>2018-11-10T14:40:38Z</time>
      </trkpt>
      <trkpt lat="45.06116" lon="5.82724">
        <ele>534.36</ele>
        <time>2018-11-10T14:40:40Z</time>
      </trkpt>
      <trkpt lat="45.06142" lon="5.82751">
        <ele>532.19</ele>
        <time>2018-11-10T14:40:42Z</time>
      </trkpt>
      <trkpt lat="45.06161" lon="5.82784">
        <ele>530.17</ele>
        <time>2018-11-10T14:40:44Z</time>
      </trkpt>
      <trkpt lat="45.06182" lon="5.82816">
        <ele>528.17</ele>
        <time>2018-11-10T14:40:46Z</time>
      </trkpt>
      <trkpt lat="45.06206" lon="5.82846">
        <ele>526.17</ele>
        <time>2018-11-10T14:40:48Z</time>
      </trkpt>
      <trkpt lat="45.06226" lon="5.82866">
        <ele>524.38</ele>
        <time>2018-11-10T14:40:50Z</time>
      </trkpt>
      <trkpt lat="45.06239" lon="5.82886">
        <ele>522.4</ele>
        <time>2018-11-10T14:40:52Z</time>
      </trkpt>
      <trkpt lat="45.06254" lon="5.82911">
        <ele>518.79</ele>
        <time>2018-11-10T14:40:54Z</time>
      </trkpt>
      <trkpt lat="45.06263" lon="5.82947">
        <ele>514.62</ele>
        <time>2018-11-10T14:40:56Z</time>
      </trkpt>
      <trkpt lat="45.06273" lon="5.82989">
        <ele>511.09</ele>
        <time>2018-11-10T14:40:58Z</time>
      </trkpt>
      <trkpt lat="45.06277" lon="5.83015">
        <ele>512.25</ele>
        <time>2018-11-10T14:40:59Z</time>
      </trkpt>
      <trkpt lat="45.06287" lon="5.83055">
        <ele>510.39</ele>
        <time>2018-11-10T14:41:01Z</time>
      </trkpt>
      <trkpt lat="45.06297" lon="5.83083">
        <ele>508.12</ele>
        <time>2018-11-10T14:41:03Z</time>
      </trkpt>
      <trkpt lat="45.06307" lon="5.83115">
        <ele>499.79</ele>
        <time>2018-11-10T14:41:06Z</time>
      </trkpt>
      <trkpt lat="45.06314" lon="5.83145">
        <ele>491.99</ele>
        <time>2018-11-10T14:41:09Z</time>
      </trkpt>
      <trkpt lat="45.06314" lon="5.83176">
        <ele>484.49</ele>
        <time>2018-11-10T14:41:12Z</time>
      </trkpt>
      <trkpt lat="45.06299" lon="5.83196">
        <ele>481.82</ele>
        <time>2018-11-10T14:41:15Z</time>
      </trkpt>
      <trkpt lat="45.06277" lon="5.83193">
        <ele>478.19</ele>
        <time>2018-11-10T14:41:18Z</time>
      </trkpt>
      <trkpt lat="45.06268" lon="5.83163">
        <ele>476.17</ele>
        <time>2018-11-10T14:41:20Z</time>
      </trkpt>
      <trkpt lat="45.06258" lon="5.83141">
        <ele>473.86</ele>
        <time>2018-11-10T14:41:24Z</time>
      </trkpt>
      <trkpt lat="45.06255" lon="5.83112">
        <ele>465.53</ele>
        <time>2018-11-10T14:41:43Z</time>
      </trkpt>
      <trkpt lat="45.06242" lon="5.83084">
        <ele>461.35</ele>
        <time>2018-11-10T14:41:46Z</time>
      </trkpt>
      <trkpt lat="45.06226" lon="5.83069">
        <ele>458.28</ele>
        <time>2018-11-10T14:41:48Z</time>
      </trkpt>
      <trkpt lat="45.06209" lon="5.83057">
        <ele>454.57</ele>
        <time>2018-11-10T14:41:50Z</time>
      </trkpt>
      <trkpt lat="45.06192" lon="5.83046">
        <ele>449.69</ele>
        <time>2018-11-10T14:41:52Z</time>
      </trkpt>
      <trkpt lat="45.06174" lon="5.83036">
        <ele>447.43</ele>
        <time>2018-11-10T14:41:54Z</time>
      </trkpt>
      <trkpt lat="45.06147" lon="5.83033">
        <ele>447.71</ele>
        <time>2018-11-10T14:41:56Z</time>
      </trkpt>
      <trkpt lat="45.06126" lon="5.83045">
        <ele>445.64</ele>
        <time>2018-11-10T14:41:58Z</time>
      </trkpt>
      <trkpt lat="45.06104" lon="5.83054">
        <ele>443.91</ele>
        <time>2018-11-10T14:42:00Z</time>
      </trkpt>
      <trkpt lat="45.06087" lon="5.83064">
        <ele>442.36</ele>
        <time>2018-11-10T14:42:02Z</time>
      </trkpt>
      <trkpt lat="45.06059" lon="5.83065">
        <ele>441.06</ele>
        <time>2018-11-10T14:42:05Z</time>
      </trkpt>
      <trkpt lat="45.06039" lon="5.83058">
        <ele>438.95</ele>
        <time>2018-11-10T14:42:07Z</time>
      </trkpt>
      <trkpt lat="45.06013" lon="5.83054">
        <ele>437.85</ele>
        <time>2018-11-10T14:42:09Z</time>
      </trkpt>
      <trkpt lat="45.05992" lon="5.83059">
        <ele>436.14</ele>
        <time>2018-11-10T14:42:11Z</time>
      </trkpt>
      <trkpt lat="45.0597" lon="5.83058">
        <ele>431.14</ele>
        <time>2018-11-10T14:42:14Z</time>
      </trkpt>
      <trkpt lat="45.05946" lon="5.83034">
        <ele>428.38</ele>
        <time>2018-11-10T14:42:17Z</time>
      </trkpt>
      <trkpt lat="45.05928" lon="5.83023">
        <ele>422.48</ele>
        <time>2018-11-10T14:42:19Z</time>
      </trkpt>
      <trkpt lat="45.05909" lon="5.83023">
        <ele>421.81</ele>
        <time>2018-11-10T14:42:21Z</time>
      </trkpt>
      <trkpt lat="45.05889" lon="5.83036">
        <ele>421.32</ele>
        <time>2018-11-10T14:42:24Z</time>
      </trkpt>
      <trkpt lat="45.05895" lon="5.83071">
        <ele>419.36</ele>
        <time>2018-11-10T14:42:27Z</time>
      </trkpt>
      <trkpt lat="45.05899" lon="5.831">
        <ele>417.4</ele>
        <time>2018-11-10T14:42:29Z</time>
      </trkpt>
      <trkpt lat="45.05904" lon="5.83125">
        <ele>415.89</ele>
        <time>2018-11-10T14:42:31Z</time>
      </trkpt>
      <trkpt lat="45.05912" lon="5.8316">
        <ele>411.43</ele>
        <time>2018-11-10T14:42:34Z</time>
      </trkpt>
      <trkpt lat="45.0592" lon="5.83186">
        <ele>409.89</ele>
        <time>2018-11-10T14:42:36Z</time>
      </trkpt>
      <trkpt lat="45.05931" lon="5.8321">
        <ele>407.23</ele>
        <time>2018-11-10T14:42:38Z</time>
      </trkpt>
      <trkpt lat="45.05936" lon="5.83235">
        <ele>402.87</ele>
        <time>2018-11-10T14:42:40Z</time>
      </trkpt>
      <trkpt lat="45.05933" lon="5.83267">
        <ele>401.83</ele>
        <time>2018-11-10T14:42:43Z</time>
      </trkpt>
      <trkpt lat="45.05914" lon="5.83288">
        <ele>401.05</ele>
        <time>2018-11-10T14:42:45Z</time>
      </trkpt>
      <trkpt lat="45.05884" lon="5.83299">
        <ele>398.95</ele>
        <time>2018-11-10T14:42:47Z</time>
      </trkpt>
      <trkpt lat="45.05862" lon="5.83306">
        <ele>396.03</ele>
        <time>2018-11-10T14:42:49Z</time>
      </trkpt>
      <trkpt lat="45.05842" lon="5.83327">
        <ele>391.98</ele>
        <time>2018-11-10T14:42:52Z</time>
      </trkpt>
      <trkpt lat="45.05847" lon="5.83361">
        <ele>389.86</ele>
        <time>2018-11-10T14:42:55Z</time>
      </trkpt>
      <trkpt lat="45.05862" lon="5.83392">
        <ele>388.07</ele>
        <time>2018-11-10T14:42:58Z</time>
      </trkpt>
      <trkpt lat="45.05844" lon="5.8342">
        <ele>384.47</ele>
        <time>2018-11-10T14:43:01Z</time>
      </trkpt>
      <trkpt lat="45.05822" lon="5.83427">
        <ele>379.47</ele>
        <time>2018-11-10T14:43:03Z</time>
      </trkpt>
      <trkpt lat="45.05802" lon="5.83423">
        <ele>377.2</ele>
        <time>2018-11-10T14:43:05Z</time>
      </trkpt>
      <trkpt lat="45.05781" lon="5.83428">
        <ele>376.78</ele>
        <time>2018-11-10T14:43:07Z</time>
      </trkpt>
      <trkpt lat="45.0576" lon="5.83443">
        <ele>376.04</ele>
        <time>2018-11-10T14:43:09Z</time>
      </trkpt>
      <trkpt lat="45.05735" lon="5.83443">
        <ele>375.56</ele>
        <time>2018-11-10T14:43:11Z</time>
      </trkpt>
      <trkpt lat="45.05712" lon="5.83436">
        <ele>375.72</ele>
        <time>2018-11-10T14:43:13Z</time>
      </trkpt>
      <trkpt lat="45.05699" lon="5.83415">
        <ele>374.34</ele>
        <time>2018-11-10T14:43:14Z</time>
      </trkpt>
      <trkpt lat="45.05677" lon="5.83394">
        <ele>373.79</ele>
        <time>2018-11-10T14:43:16Z</time>
      </trkpt>
      <trkpt lat="45.05651" lon="5.83379">
        <ele>372.14</ele>
        <time>2018-11-10T14:43:18Z</time>
      </trkpt>
      <trkpt lat="45.05626" lon="5.83386">
        <ele>371.08</ele>
        <time>2018-11-10T14:43:20Z</time>
      </trkpt>
      <trkpt lat="45.056" lon="5.83392">
        <ele>369.86</ele>
        <time>2018-11-10T14:43:22Z</time>
      </trkpt>
      <trkpt lat="45.05575" lon="5.83402">
        <ele>368.14</ele>
        <time>2018-11-10T14:43:24Z</time>
      </trkpt>
      <trkpt lat="45.05553" lon="5.83411">
        <ele>369.18</ele>
        <time>2018-11-10T14:43:26Z</time>
      </trkpt>
      <trkpt lat="45.05533" lon="5.83418">
        <ele>367.17</ele>
        <time>2018-11-10T14:43:28Z</time>
      </trkpt>
      <trkpt lat="45.05513" lon="5.83428">
        <ele>366.78</ele>
        <time>2018-11-10T14:43:30Z</time>
      </trkpt>
      <trkpt lat="45.05493" lon="5.83432">
        <ele>365.34</ele>
        <time>2018-11-10T14:43:32Z</time>
      </trkpt>
      <trkpt lat="45.05472" lon="5.83438">
        <ele>365.71</ele>
        <time>2018-11-10T14:43:34Z</time>
      </trkpt>
      <trkpt lat="45.05453" lon="5.83452">
        <ele>365.53</ele>
        <time>2018-11-10T14:43:36Z</time>
      </trkpt>
      <trkpt lat="45.0543" lon="5.83468">
        <ele>365.93</ele>
        <time>2018-11-10T14:43:38Z</time>
      </trkpt>
      <trkpt lat="45.05409" lon="5.83483">
        <ele>367.58</ele>
        <time>2018-11-10T14:43:40Z</time>
      </trkpt>
      <trkpt lat="45.0539" lon="5.83501">
        <ele>368.5</ele>
        <time>2018-11-10T14:43:42Z</time>
      </trkpt>
      <trkpt lat="45.05369" lon="5.83513">
        <ele>368.94</ele>
        <time>2018-11-10T14:43:45Z</time>
      </trkpt>
      <trkpt lat="45.05368" lon="5.83483">
        <ele>366.83</ele>
        <time>2018-11-10T14:43:50Z</time>
      </trkpt>
      <trkpt lat="45.05364" lon="5.83449">
        <ele>367.45</ele>
        <time>2018-11-10T14:43:52Z</time>
      </trkpt>
      <trkpt lat="45.05366" lon="5.8342">
        <ele>364.28</ele>
        <time>2018-11-10T14:43:54Z</time>
      </trkpt>
      <trkpt lat="45.05364" lon="5.83387">
        <ele>364.49</ele>
        <time>2018-11-10T14:43:56Z</time>
      </trkpt>
      <trkpt lat="45.05363" lon="5.83348">
        <ele>364.72</ele>
        <time>2018-11-10T14:43:58Z</time>
      </trkpt>
      <trkpt lat="45.05363" lon="5.83312">
        <ele>365.44</ele>
        <time>2018-11-10T14:44:00Z</time>
      </trkpt>
      <trkpt lat="45.05361" lon="5.83271">
        <ele>365.22</ele>
        <time>2018-11-10T14:44:02Z</time>
      </trkpt>
      <trkpt lat="45.05359" lon="5.83231">
        <ele>365.69</ele>
        <time>2018-11-10T14:44:04Z</time>
      </trkpt>
      <trkpt lat="45.05357" lon="5.83192">
        <ele>367.77</ele>
        <time>2018-11-10T14:44:06Z</time>
      </trkpt>
      <trkpt lat="45.05356" lon="5.83154">
        <ele>365.92</ele>
        <time>2018-11-10T14:44:08Z</time>
      </trkpt>
      <trkpt lat="45.05355" lon="5.83115">
        <ele>367.37</ele>
        <time>2018-11-10T14:44:10Z</time>
      </trkpt>
      <trkpt lat="45.05352" lon="5.83077">
        <ele>365.89</ele>
        <time>2018-11-10T14:44:12Z</time>
      </trkpt>
      <trkpt lat="45.05351" lon="5.83037">
        <ele>365.75</ele>
        <time>2018-11-10T14:44:14Z</time>
      </trkpt>
      <trkpt lat="45.05349" lon="5.82997">
        <ele>365.25</ele>
        <time>2018-11-10T14:44:16Z</time>
      </trkpt>
      <trkpt lat="45.05349" lon="5.82957">
        <ele>364.79</ele>
        <time>2018-11-10T14:44:18Z</time>
      </trkpt>
      <trkpt lat="45.05347" lon="5.82912">
        <ele>363.77</ele>
        <time>2018-11-10T14:44:20Z</time>
      </trkpt>
      <trkpt lat="45.05347" lon="5.82863">
        <ele>363.53</ele>
        <time>2018-11-10T14:44:22Z</time>
      </trkpt>
      <trkpt lat="45.05347" lon="5.82818">
        <ele>362.11</ele>
        <time>2018-11-10T14:44:24Z</time>
      </trkpt>
      <trkpt lat="45.05346" lon="5.82775">
        <ele>364.08</ele>
        <time>2018-11-10T14:44:26Z</time>
      </trkpt>
      <trkpt lat="45.05344" lon="5.8273">
        <ele>363.28</ele>
        <time>2018-11-10T14:44:28Z</time>
      </trkpt>
      <trkpt lat="45.05343" lon="5.82684">
        <ele>362.09</ele>
        <time>2018-11-10T14:44:30Z</time>
      </trkpt>
      <trkpt lat="45.05342" lon="5.82639">
        <ele>361.07</ele>
        <time>2018-11-10T14:44:32Z</time>
      </trkpt>
      <trkpt lat="45.05341" lon="5.82593">
        <ele>360.07</ele>
        <time>2018-11-10T14:44:34Z</time>
      </trkpt>
      <trkpt lat="45.05339" lon="5.82546">
        <ele>358.16</ele>
        <time>2018-11-10T14:44:36Z</time>
      </trkpt>
      <trkpt lat="45.05338" lon="5.82496">
        <ele>357.78</ele>
        <time>2018-11-10T14:44:38Z</time>
      </trkpt>
      <trkpt lat="45.0534" lon="5.82471">
        <ele>359.15</ele>
        <time>2018-11-10T14:44:39Z</time>
      </trkpt>
      <trkpt lat="45.05345" lon="5.82423">
        <ele>358.08</ele>
        <time>2018-11-10T14:44:41Z</time>
      </trkpt>
      <trkpt lat="45.05352" lon="5.82377">
        <ele>357.77</ele>
        <time>2018-11-10T14:44:43Z</time>
      </trkpt>
      <trkpt lat="45.05363" lon="5.82337">
        <ele>357.04</ele>
        <time>2018-11-10T14:44:45Z</time>
      </trkpt>
      <trkpt lat="45.05371" lon="5.82299">
        <ele>355.86</ele>
        <time>2018-11-10T14:44:47Z</time>
      </trkpt>
      <trkpt lat="45.05377" lon="5.82273">
        <ele>355.75</ele>
        <time>2018-11-10T14:44:49Z</time>
      </trkpt>
      <trkpt lat="45.05394" lon="5.8225">
        <ele>355.59</ele>
        <time>2018-11-10T14:44:52Z</time>
      </trkpt>
      <trkpt lat="45.05409" lon="5.82225">
        <ele>355.74</ele>
        <time>2018-11-10T14:44:55Z</time>
      </trkpt>
      <trkpt lat="45.0539" lon="5.82214">
        <ele>354.83</ele>
        <time>2018-11-10T14:44:57Z</time>
      </trkpt>
      <trkpt lat="45.05374" lon="5.82197">
        <ele>351.25</ele>
        <time>2018-11-10T14:45:00Z</time>
      </trkpt>
      <trkpt lat="45.05369" lon="5.82172">
        <ele>350.79</ele>
        <time>2018-11-10T14:45:02Z</time>
      </trkpt>
      <trkpt lat="45.05369" lon="5.82121">
        <ele>351.66</ele>
        <time>2018-11-10T14:45:04Z</time>
      </trkpt>
      <trkpt lat="45.05374" lon="5.8209">
        <ele>351.02</ele>
        <time>2018-11-10T14:45:05Z</time>
      </trkpt>
      <trkpt lat="45.05375" lon="5.8206">
        <ele>349.42</ele>
        <time>2018-11-10T14:45:06Z</time>
      </trkpt>
      <trkpt lat="45.05378" lon="5.82032">
        <ele>348.25</ele>
        <time>2018-11-10T14:45:07Z</time>
      </trkpt>
      <trkpt lat="45.0538" lon="5.82005">
        <ele>348.59</ele>
        <time>2018-11-10T14:45:08Z</time>
      </trkpt>
      <trkpt lat="45.05382" lon="5.81976">
        <ele>348.7</ele>
        <time>2018-11-10T14:45:09Z</time>
      </trkpt>
      <trkpt lat="45.05385" lon="5.81949">
        <ele>348.03</ele>
        <time>2018-11-10T14:45:10Z</time>
      </trkpt>
      <trkpt lat="45.05387" lon="5.81921">
        <ele>347.83</ele>
        <time>2018-11-10T14:45:11Z</time>
      </trkpt>
      <trkpt lat="45.05389" lon="5.81894">
        <ele>347.07</ele>
        <time>2018-11-10T14:45:12Z</time>
      </trkpt>
      <trkpt lat="45.05391" lon="5.81867">
        <ele>346.84</ele>
        <time>2018-11-10T14:45:13Z</time>
      </trkpt>
      <trkpt lat="45.05394" lon="5.8184">
        <ele>346.77</ele>
        <time>2018-11-10T14:45:14Z</time>
      </trkpt>
      <trkpt lat="45.05397" lon="5.81813">
        <ele>346.05</ele>
        <time>2018-11-10T14:45:15Z</time>
      </trkpt>
      <trkpt lat="45.05399" lon="5.81785">
        <ele>346.53</ele>
        <time>2018-11-10T14:45:16Z</time>
      </trkpt>
      <trkpt lat="45.05402" lon="5.81758">
        <ele>345.98</ele>
        <time>2018-11-10T14:45:17Z</time>
      </trkpt>
      <trkpt lat="45.05404" lon="5.81732">
        <ele>345.11</ele>
        <time>2018-11-10T14:45:18Z</time>
      </trkpt>
      <trkpt lat="45.05407" lon="5.81705">
        <ele>344.15</ele>
        <time>2018-11-10T14:45:19Z</time>
      </trkpt>
      <trkpt lat="45.0541" lon="5.81679">
        <ele>343.86</ele>
        <time>2018-11-10T14:45:20Z</time>
      </trkpt>
      <trkpt lat="45.05413" lon="5.81651">
        <ele>343.78</ele>
        <time>2018-11-10T14:45:21Z</time>
      </trkpt>
      <trkpt lat="45.05416" lon="5.81624">
        <ele>343.05</ele>
        <time>2018-11-10T14:45:22Z</time>
      </trkpt>
      <trkpt lat="45.05419" lon="5.81597">
        <ele>342.83</ele>
        <time>2018-11-10T14:45:23Z</time>
      </trkpt>
      <trkpt lat="45.05422" lon="5.81569">
        <ele>342.07</ele>
        <time>2018-11-10T14:45:24Z</time>
      </trkpt>
      <trkpt lat="45.05425" lon="5.81541">
        <ele>341.84</ele>
        <time>2018-11-10T14:45:25Z</time>
      </trkpt>
      <trkpt lat="45.05428" lon="5.81512">
        <ele>341.77</ele>
        <time>2018-11-10T14:45:26Z</time>
      </trkpt>
      <trkpt lat="45.0543" lon="5.81484">
        <ele>341.75</ele>
        <time>2018-11-10T14:45:27Z</time>
      </trkpt>
      <trkpt lat="45.05431" lon="5.81455">
        <ele>341.74</ele>
        <time>2018-11-10T14:45:28Z</time>
      </trkpt>
      <trkpt lat="45.05432" lon="5.81427">
        <ele>342.44</ele>
        <time>2018-11-10T14:45:29Z</time>
      </trkpt>
      <trkpt lat="45.05433" lon="5.81398">
        <ele>342.65</ele>
        <time>2018-11-10T14:45:30Z</time>
      </trkpt>
      <trkpt lat="45.05434" lon="5.8137">
        <ele>342.71</ele>
        <time>2018-11-10T14:45:31Z</time>
      </trkpt>
      <trkpt lat="45.05433" lon="5.81343">
        <ele>341.33</ele>
        <time>2018-11-10T14:45:32Z</time>
      </trkpt>
      <trkpt lat="45.05435" lon="5.81291">
        <ele>338.48</ele>
        <time>2018-11-10T14:45:34Z</time>
      </trkpt>
      <trkpt lat="45.05438" lon="5.81266">
        <ele>337.96</ele>
        <time>2018-11-10T14:45:35Z</time>
      </trkpt>
      <trkpt lat="45.05442" lon="5.8124">
        <ele>337.81</ele>
        <time>2018-11-10T14:45:36Z</time>
      </trkpt>
      <trkpt lat="45.0545" lon="5.81192">
        <ele>337.75</ele>
        <time>2018-11-10T14:45:38Z</time>
      </trkpt>
      <trkpt lat="45.05461" lon="5.81145">
        <ele>337.04</ele>
        <time>2018-11-10T14:45:40Z</time>
      </trkpt>
      <trkpt lat="45.05466" lon="5.81119">
        <ele>337.53</ele>
        <time>2018-11-10T14:45:41Z</time>
      </trkpt>
      <trkpt lat="45.05471" lon="5.81094">
        <ele>337.68</ele>
        <time>2018-11-10T14:45:42Z</time>
      </trkpt>
      <trkpt lat="45.05476" lon="5.8104">
        <ele>338.65</ele>
        <time>2018-11-10T14:45:44Z</time>
      </trkpt>
      <trkpt lat="45.05475" lon="5.81012">
        <ele>338.71</ele>
        <time>2018-11-10T14:45:45Z</time>
      </trkpt>
      <trkpt lat="45.05468" lon="5.80977">
        <ele>340.13</ele>
        <time>2018-11-10T14:45:46Z</time>
      </trkpt>
      <trkpt lat="45.05461" lon="5.80948">
        <ele>337.76</ele>
        <time>2018-11-10T14:45:47Z</time>
      </trkpt>
      <trkpt lat="45.05455" lon="5.80918">
        <ele>337.75</ele>
        <time>2018-11-10T14:45:48Z</time>
      </trkpt>
      <trkpt lat="45.05448" lon="5.80891">
        <ele>337.74</ele>
        <time>2018-11-10T14:45:49Z</time>
      </trkpt>
      <trkpt lat="45.0544" lon="5.80862">
        <ele>338.44</ele>
        <time>2018-11-10T14:45:50Z</time>
      </trkpt>
      <trkpt lat="45.05433" lon="5.80833">
        <ele>339.35</ele>
        <time>2018-11-10T14:45:51Z</time>
      </trkpt>
      <trkpt lat="45.05425" lon="5.80803">
        <ele>340.32</ele>
        <time>2018-11-10T14:45:52Z</time>
      </trkpt>
      <trkpt lat="45.05417" lon="5.80774">
        <ele>339.92</ele>
        <time>2018-11-10T14:45:53Z</time>
      </trkpt>
      <trkpt lat="45.0541" lon="5.80745">
        <ele>339.79</ele>
        <time>2018-11-10T14:45:54Z</time>
      </trkpt>
      <trkpt lat="45.05401" lon="5.80717">
        <ele>339.06</ele>
        <time>2018-11-10T14:45:55Z</time>
      </trkpt>
      <trkpt lat="45.05394" lon="5.80689">
        <ele>338.84</ele>
        <time>2018-11-10T14:45:56Z</time>
      </trkpt>
      <trkpt lat="45.05387" lon="5.8066">
        <ele>338.07</ele>
        <time>2018-11-10T14:45:57Z</time>
      </trkpt>
      <trkpt lat="45.0538" lon="5.80631">
        <ele>337.84</ele>
        <time>2018-11-10T14:45:58Z</time>
      </trkpt>
      <trkpt lat="45.05374" lon="5.80604">
        <ele>338.47</ele>
        <time>2018-11-10T14:45:59Z</time>
      </trkpt>
      <trkpt lat="45.05366" lon="5.80575">
        <ele>338.66</ele>
        <time>2018-11-10T14:46:00Z</time>
      </trkpt>
      <trkpt lat="45.05359" lon="5.80546">
        <ele>338.72</ele>
        <time>2018-11-10T14:46:01Z</time>
      </trkpt>
      <trkpt lat="45.05353" lon="5.80518">
        <ele>338.73</ele>
        <time>2018-11-10T14:46:02Z</time>
      </trkpt>
      <trkpt lat="45.05349" lon="5.80489">
        <ele>339.44</ele>
        <time>2018-11-10T14:46:03Z</time>
      </trkpt>
      <trkpt lat="45.05345" lon="5.8046">
        <ele>340.35</ele>
        <time>2018-11-10T14:46:04Z</time>
      </trkpt>
      <trkpt lat="45.05345" lon="5.80431">
        <ele>341.32</ele>
        <time>2018-11-10T14:46:05Z</time>
      </trkpt>
      <trkpt lat="45.05345" lon="5.80402">
        <ele>341.62</ele>
        <time>2018-11-10T14:46:06Z</time>
      </trkpt>
      <trkpt lat="45.05346" lon="5.80373">
        <ele>341.7</ele>
        <time>2018-11-10T14:46:07Z</time>
      </trkpt>
      <trkpt lat="45.05352" lon="5.8032">
        <ele>339.22</ele>
        <time>2018-11-10T14:46:09Z</time>
      </trkpt>
      <trkpt lat="45.05357" lon="5.80291">
        <ele>338.18</ele>
        <time>2018-11-10T14:46:10Z</time>
      </trkpt>
      <trkpt lat="45.05362" lon="5.80262">
        <ele>337.87</ele>
        <time>2018-11-10T14:46:11Z</time>
      </trkpt>
      <trkpt lat="45.05368" lon="5.80236">
        <ele>336.38</ele>
        <time>2018-11-10T14:46:12Z</time>
      </trkpt>
      <trkpt lat="45.05373" lon="5.80208">
        <ele>335.23</ele>
        <time>2018-11-10T14:46:13Z</time>
      </trkpt>
      <trkpt lat="45.05379" lon="5.80181">
        <ele>334.19</ele>
        <time>2018-11-10T14:46:14Z</time>
      </trkpt>
      <trkpt lat="45.05384" lon="5.80156">
        <ele>335.28</ele>
        <time>2018-11-10T14:46:15Z</time>
      </trkpt>
      <trkpt lat="45.05393" lon="5.80107">
        <ele>332.06</ele>
        <time>2018-11-10T14:46:17Z</time>
      </trkpt>
      <trkpt lat="45.05396" lon="5.80081">
        <ele>331.84</ele>
        <time>2018-11-10T14:46:18Z</time>
      </trkpt>
      <trkpt lat="45.05407" lon="5.80032">
        <ele>328.32</ele>
        <time>2018-11-10T14:46:20Z</time>
      </trkpt>
      <trkpt lat="45.05411" lon="5.80007">
        <ele>326.51</ele>
        <time>2018-11-10T14:46:21Z</time>
      </trkpt>
      <trkpt lat="45.05416" lon="5.79982">
        <ele>324.57</ele>
        <time>2018-11-10T14:46:22Z</time>
      </trkpt>
      <trkpt lat="45.05421" lon="5.79956">
        <ele>323.99</ele>
        <time>2018-11-10T14:46:23Z</time>
      </trkpt>
      <trkpt lat="45.05427" lon="5.79932">
        <ele>324.52</ele>
        <time>2018-11-10T14:46:24Z</time>
      </trkpt>
      <trkpt lat="45.05434" lon="5.79907">
        <ele>325.37</ele>
        <time>2018-11-10T14:46:25Z</time>
      </trkpt>
      <trkpt lat="45.05445" lon="5.7986">
        <ele>328.02</ele>
        <time>2018-11-10T14:46:27Z</time>
      </trkpt>
      <trkpt lat="45.05452" lon="5.79817">
        <ele>327.98</ele>
        <time>2018-11-10T14:46:29Z</time>
      </trkpt>
      <trkpt lat="45.05454" lon="5.79791">
        <ele>327.81</ele>
        <time>2018-11-10T14:46:30Z</time>
      </trkpt>
      <trkpt lat="45.05449" lon="5.79765">
        <ele>327.06</ele>
        <time>2018-11-10T14:46:31Z</time>
      </trkpt>
      <trkpt lat="45.05438" lon="5.79738">
        <ele>326.84</ele>
        <time>2018-11-10T14:46:32Z</time>
      </trkpt>
      <trkpt lat="45.05419" lon="5.79712">
        <ele>326.07</ele>
        <time>2018-11-10T14:46:33Z</time>
      </trkpt>
      <trkpt lat="45.05406" lon="5.79687">
        <ele>325.84</ele>
        <time>2018-11-10T14:46:34Z</time>
      </trkpt>
      <trkpt lat="45.05395" lon="5.79666">
        <ele>322.97</ele>
        <time>2018-11-10T14:46:35Z</time>
      </trkpt>
      <trkpt lat="45.05387" lon="5.79643">
        <ele>322.81</ele>
        <time>2018-11-10T14:46:36Z</time>
      </trkpt>
      <trkpt lat="45.05373" lon="5.7962">
        <ele>323.46</ele>
        <time>2018-11-10T14:46:37Z</time>
      </trkpt>
      <trkpt lat="45.05362" lon="5.79599">
        <ele>324.36</ele>
        <time>2018-11-10T14:46:38Z</time>
      </trkpt>
      <trkpt lat="45.05351" lon="5.79576">
        <ele>323.93</ele>
        <time>2018-11-10T14:46:39Z</time>
      </trkpt>
      <trkpt lat="45.05338" lon="5.79553">
        <ele>323.8</ele>
        <time>2018-11-10T14:46:40Z</time>
      </trkpt>
      <trkpt lat="45.05326" lon="5.79529">
        <ele>323.76</ele>
        <time>2018-11-10T14:46:41Z</time>
      </trkpt>
      <trkpt lat="45.05313" lon="5.79508">
        <ele>321.65</ele>
        <time>2018-11-10T14:46:42Z</time>
      </trkpt>
      <trkpt lat="45.05302" lon="5.79485">
        <ele>321.71</ele>
        <time>2018-11-10T14:46:43Z</time>
      </trkpt>
      <trkpt lat="45.0529" lon="5.79463">
        <ele>321.03</ele>
        <time>2018-11-10T14:46:44Z</time>
      </trkpt>
      <trkpt lat="45.05265" lon="5.79426">
        <ele>318.95</ele>
        <time>2018-11-10T14:46:46Z</time>
      </trkpt>
      <trkpt lat="45.05253" lon="5.79403">
        <ele>318.1</ele>
        <time>2018-11-10T14:46:47Z</time>
      </trkpt>
      <trkpt lat="45.05232" lon="5.79362">
        <ele>317.56</ele>
        <time>2018-11-10T14:46:49Z</time>
      </trkpt>
      <trkpt lat="45.0521" lon="5.79322">
        <ele>316.82</ele>
        <time>2018-11-10T14:46:51Z</time>
      </trkpt>
      <trkpt lat="45.05187" lon="5.79287">
        <ele>316.26</ele>
        <time>2018-11-10T14:46:53Z</time>
      </trkpt>
      <trkpt lat="45.05172" lon="5.79249">
        <ele>316.7</ele>
        <time>2018-11-10T14:46:55Z</time>
      </trkpt>
      <trkpt lat="45.05149" lon="5.79214">
        <ele>318.35</ele>
        <time>2018-11-10T14:46:57Z</time>
      </trkpt>
      <trkpt lat="45.05129" lon="5.7919">
        <ele>315.07</ele>
        <time>2018-11-10T14:46:59Z</time>
      </trkpt>
      <trkpt lat="45.05109" lon="5.79154">
        <ele>315.68</ele>
        <time>2018-11-10T14:47:01Z</time>
      </trkpt>
      <trkpt lat="45.05097" lon="5.79134">
        <ele>315.72</ele>
        <time>2018-11-10T14:47:02Z</time>
      </trkpt>
      <trkpt lat="45.05084" lon="5.79096">
        <ele>319.17</ele>
        <time>2018-11-10T14:47:04Z</time>
      </trkpt>
      <trkpt lat="45.05067" lon="5.79053">
        <ele>320.39</ele>
        <time>2018-11-10T14:47:06Z</time>
      </trkpt>
      <trkpt lat="45.05056" lon="5.79013">
        <ele>320.92</ele>
        <time>2018-11-10T14:47:08Z</time>
      </trkpt>
      <trkpt lat="45.05046" lon="5.78988">
        <ele>318.03</ele>
        <time>2018-11-10T14:47:10Z</time>
      </trkpt>
      <trkpt lat="45.05034" lon="5.78967">
        <ele>317.13</ele>
        <time>2018-11-10T14:47:11Z</time>
      </trkpt>
      <trkpt lat="45.05024" lon="5.78924">
        <ele>317.69</ele>
        <time>2018-11-10T14:47:13Z</time>
      </trkpt>
      <trkpt lat="45.05006" lon="5.7889">
        <ele>321.17</ele>
        <time>2018-11-10T14:47:15Z</time>
      </trkpt>
      <trkpt lat="45.05" lon="5.7886">
        <ele>320.87</ele>
        <time>2018-11-10T14:47:16Z</time>
      </trkpt>
      <trkpt lat="45.04997" lon="5.78833">
        <ele>320.08</ele>
        <time>2018-11-10T14:47:17Z</time>
      </trkpt>
      <trkpt lat="45.04994" lon="5.78805">
        <ele>320.54</ele>
        <time>2018-11-10T14:47:18Z</time>
      </trkpt>
      <trkpt lat="45.04992" lon="5.78776">
        <ele>319.28</ele>
        <time>2018-11-10T14:47:19Z</time>
      </trkpt>
      <trkpt lat="45.04988" lon="5.78741">
        <ele>318.2</ele>
        <time>2018-11-10T14:47:20Z</time>
      </trkpt>
      <trkpt lat="45.04986" lon="5.7871">
        <ele>319.98</ele>
        <time>2018-11-10T14:47:21Z</time>
      </trkpt>
      <trkpt lat="45.04985" lon="5.78679">
        <ele>320.51</ele>
        <time>2018-11-10T14:47:22Z</time>
      </trkpt>
      <trkpt lat="45.04985" lon="5.78646">
        <ele>319.27</ele>
        <time>2018-11-10T14:47:23Z</time>
      </trkpt>
      <trkpt lat="45.04986" lon="5.78612">
        <ele>318.9</ele>
        <time>2018-11-10T14:47:24Z</time>
      </trkpt>
      <trkpt lat="45.04986" lon="5.78577">
        <ele>318.79</ele>
        <time>2018-11-10T14:47:25Z</time>
      </trkpt>
      <trkpt lat="45.04985" lon="5.78542">
        <ele>318.06</ele>
        <time>2018-11-10T14:47:26Z</time>
      </trkpt>
      <trkpt lat="45.04987" lon="5.78509">
        <ele>315.04</ele>
        <time>2018-11-10T14:47:27Z</time>
      </trkpt>
      <trkpt lat="45.04988" lon="5.78478">
        <ele>314.13</ele>
        <time>2018-11-10T14:47:28Z</time>
      </trkpt>
      <trkpt lat="45.04992" lon="5.78445">
        <ele>312.46</ele>
        <time>2018-11-10T14:47:29Z</time>
      </trkpt>
      <trkpt lat="45.04996" lon="5.78413">
        <ele>311.96</ele>
        <time>2018-11-10T14:47:30Z</time>
      </trkpt>
      <trkpt lat="45.05001" lon="5.78383">
        <ele>310.41</ele>
        <time>2018-11-10T14:47:31Z</time>
      </trkpt>
      <trkpt lat="45.05009" lon="5.78352">
        <ele>310.64</ele>
        <time>2018-11-10T14:47:32Z</time>
      </trkpt>
      <trkpt lat="45.05015" lon="5.78323">
        <ele>310.71</ele>
        <time>2018-11-10T14:47:33Z</time>
      </trkpt>
      <trkpt lat="45.05022" lon="5.78292">
        <ele>310.73</ele>
        <time>2018-11-10T14:47:34Z</time>
      </trkpt>
      <trkpt lat="45.05031" lon="5.78263">
        <ele>310.74</ele>
        <time>2018-11-10T14:47:35Z</time>
      </trkpt>
      <trkpt lat="45.05046" lon="5.78238">
        <ele>311.44</ele>
        <time>2018-11-10T14:47:36Z</time>
      </trkpt>
      <trkpt lat="45.05061" lon="5.78212">
        <ele>311.65</ele>
        <time>2018-11-10T14:47:37Z</time>
      </trkpt>
      <trkpt lat="45.05076" lon="5.78191">
        <ele>311.71</ele>
        <time>2018-11-10T14:47:38Z</time>
      </trkpt>
      <trkpt lat="45.05102" lon="5.78155">
        <ele>310.62</ele>
        <time>2018-11-10T14:47:40Z</time>
      </trkpt>
      <trkpt lat="45.05128" lon="5.78119">
        <ele>308.91</ele>
        <time>2018-11-10T14:47:42Z</time>
      </trkpt>
      <trkpt lat="45.0514" lon="5.78098">
        <ele>309.49</ele>
        <time>2018-11-10T14:47:43Z</time>
      </trkpt>
      <trkpt lat="45.05153" lon="5.78079">
        <ele>309.67</ele>
        <time>2018-11-10T14:47:44Z</time>
      </trkpt>
      <trkpt lat="45.05174" lon="5.7804">
        <ele>308.82</ele>
        <time>2018-11-10T14:47:46Z</time>
      </trkpt>
      <trkpt lat="45.05187" lon="5.78021">
        <ele>308.77</ele>
        <time>2018-11-10T14:47:47Z</time>
      </trkpt>
      <trkpt lat="45.05207" lon="5.77982">
        <ele>306.22</ele>
        <time>2018-11-10T14:47:49Z</time>
      </trkpt>
      <trkpt lat="45.0522" lon="5.77963">
        <ele>306.59</ele>
        <time>2018-11-10T14:47:50Z</time>
      </trkpt>
      <trkpt lat="45.05234" lon="5.77943">
        <ele>308.09</ele>
        <time>2018-11-10T14:47:51Z</time>
      </trkpt>
      <trkpt lat="45.05257" lon="5.77905">
        <ele>308.68</ele>
        <time>2018-11-10T14:47:53Z</time>
      </trkpt>
      <trkpt lat="45.05281" lon="5.77869">
        <ele>310.35</ele>
        <time>2018-11-10T14:47:55Z</time>
      </trkpt>
      <trkpt lat="45.05301" lon="5.77835">
        <ele>310.5</ele>
        <time>2018-11-10T14:47:57Z</time>
      </trkpt>
      <trkpt lat="45.05322" lon="5.77804">
        <ele>306.87</ele>
        <time>2018-11-10T14:47:59Z</time>
      </trkpt>
      <trkpt lat="45.05342" lon="5.77768">
        <ele>306.75</ele>
        <time>2018-11-10T14:48:01Z</time>
      </trkpt>
      <trkpt lat="45.05362" lon="5.77735">
        <ele>307.65</ele>
        <time>2018-11-10T14:48:03Z</time>
      </trkpt>
      <trkpt lat="45.0538" lon="5.77701">
        <ele>309.55</ele>
        <time>2018-11-10T14:48:05Z</time>
      </trkpt>
      <trkpt lat="45.05399" lon="5.77668">
        <ele>310.42</ele>
        <time>2018-11-10T14:48:07Z</time>
      </trkpt>
      <trkpt lat="45.05416" lon="5.77642">
        <ele>310.22</ele>
        <time>2018-11-10T14:48:09Z</time>
      </trkpt>
      <trkpt lat="45.0543" lon="5.77617">
        <ele>309.57</ele>
        <time>2018-11-10T14:48:11Z</time>
      </trkpt>
      <trkpt lat="45.05444" lon="5.77593">
        <ele>311.13</ele>
        <time>2018-11-10T14:48:13Z</time>
      </trkpt>
      <trkpt lat="45.05459" lon="5.77566">
        <ele>314.42</ele>
        <time>2018-11-10T14:48:15Z</time>
      </trkpt>
      <trkpt lat="45.05475" lon="5.7754">
        <ele>316.53</ele>
        <time>2018-11-10T14:48:17Z</time>
      </trkpt>
      <trkpt lat="45.05489" lon="5.77515">
        <ele>316.72</ele>
        <time>2018-11-10T14:48:19Z</time>
      </trkpt>
      <trkpt lat="45.05503" lon="5.7749">
        <ele>314.92</ele>
        <time>2018-11-10T14:48:21Z</time>
      </trkpt>
      <trkpt lat="45.05521" lon="5.77463">
        <ele>315.67</ele>
        <time>2018-11-10T14:48:23Z</time>
      </trkpt>
      <trkpt lat="45.05537" lon="5.77437">
        <ele>314.82</ele>
        <time>2018-11-10T14:48:25Z</time>
      </trkpt>
      <trkpt lat="45.05555" lon="5.7741">
        <ele>315.66</ele>
        <time>2018-11-10T14:48:27Z</time>
      </trkpt>
      <trkpt lat="45.05568" lon="5.77383">
        <ele>315.52</ele>
        <time>2018-11-10T14:48:29Z</time>
      </trkpt>
      <trkpt lat="45.05584" lon="5.77356">
        <ele>315.93</ele>
        <time>2018-11-10T14:48:31Z</time>
      </trkpt>
      <trkpt lat="45.05599" lon="5.77336">
        <ele>312.75</ele>
        <time>2018-11-10T14:48:33Z</time>
      </trkpt>
      <trkpt lat="45.05609" lon="5.77309">
        <ele>311.83</ele>
        <time>2018-11-10T14:48:35Z</time>
      </trkpt>
      <trkpt lat="45.05623" lon="5.77284">
        <ele>311.96</ele>
        <time>2018-11-10T14:48:37Z</time>
      </trkpt>
      <trkpt lat="45.0564" lon="5.7726">
        <ele>311.55</ele>
        <time>2018-11-10T14:48:39Z</time>
      </trkpt>
      <trkpt lat="45.05653" lon="5.77238">
        <ele>308.5</ele>
        <time>2018-11-10T14:48:41Z</time>
      </trkpt>
      <trkpt lat="45.0567" lon="5.77212">
        <ele>308.51</ele>
        <time>2018-11-10T14:48:43Z</time>
      </trkpt>
      <trkpt lat="45.05684" lon="5.77188">
        <ele>308.72</ele>
        <time>2018-11-10T14:48:45Z</time>
      </trkpt>
      <trkpt lat="45.057" lon="5.77164">
        <ele>308.95</ele>
        <time>2018-11-10T14:48:47Z</time>
      </trkpt>
      <trkpt lat="45.05716" lon="5.7714">
        <ele>310.37</ele>
        <time>2018-11-10T14:48:49Z</time>
      </trkpt>
      <trkpt lat="45.05732" lon="5.77118">
        <ele>309.8</ele>
        <time>2018-11-10T14:48:51Z</time>
      </trkpt>
      <trkpt lat="45.05748" lon="5.77093">
        <ele>309.54</ele>
        <time>2018-11-10T14:48:53Z</time>
      </trkpt>
      <trkpt lat="45.05766" lon="5.77069">
        <ele>307.69</ele>
        <time>2018-11-10T14:48:55Z</time>
      </trkpt>
      <trkpt lat="45.05781" lon="5.77043">
        <ele>307.74</ele>
        <time>2018-11-10T14:48:57Z</time>
      </trkpt>
      <trkpt lat="45.05797" lon="5.77017">
        <ele>307.04</ele>
        <time>2018-11-10T14:48:59Z</time>
      </trkpt>
      <trkpt lat="45.05815" lon="5.76991">
        <ele>307.47</ele>
        <time>2018-11-10T14:49:01Z</time>
      </trkpt>
      <trkpt lat="45.05832" lon="5.76962">
        <ele>306.81</ele>
        <time>2018-11-10T14:49:03Z</time>
      </trkpt>
      <trkpt lat="45.05849" lon="5.76935">
        <ele>306.75</ele>
        <time>2018-11-10T14:49:05Z</time>
      </trkpt>
      <trkpt lat="45.05867" lon="5.76905">
        <ele>307.44</ele>
        <time>2018-11-10T14:49:07Z</time>
      </trkpt>
      <trkpt lat="45.05885" lon="5.76875">
        <ele>307.71</ele>
        <time>2018-11-10T14:49:09Z</time>
      </trkpt>
      <trkpt lat="45.05903" lon="5.76846">
        <ele>307.04</ele>
        <time>2018-11-10T14:49:11Z</time>
      </trkpt>
      <trkpt lat="45.05923" lon="5.76814">
        <ele>308.59</ele>
        <time>2018-11-10T14:49:13Z</time>
      </trkpt>
      <trkpt lat="45.05939" lon="5.76784">
        <ele>306.63</ele>
        <time>2018-11-10T14:49:15Z</time>
      </trkpt>
      <trkpt lat="45.05957" lon="5.76752">
        <ele>309.04</ele>
        <time>2018-11-10T14:49:17Z</time>
      </trkpt>
      <trkpt lat="45.05979" lon="5.76714">
        <ele>308.77</ele>
        <time>2018-11-10T14:49:19Z</time>
      </trkpt>
      <trkpt lat="45.05994" lon="5.76691">
        <ele>308.75</ele>
        <time>2018-11-10T14:49:20Z</time>
      </trkpt>
      <trkpt lat="45.06007" lon="5.76667">
        <ele>306.64</ele>
        <time>2018-11-10T14:49:21Z</time>
      </trkpt>
      <trkpt lat="45.06022" lon="5.76642">
        <ele>306.71</ele>
        <time>2018-11-10T14:49:22Z</time>
      </trkpt>
      <trkpt lat="45.06037" lon="5.76618">
        <ele>306.73</ele>
        <time>2018-11-10T14:49:23Z</time>
      </trkpt>
      <trkpt lat="45.06053" lon="5.76594">
        <ele>306.04</ele>
        <time>2018-11-10T14:49:24Z</time>
      </trkpt>
      <trkpt lat="45.06068" lon="5.76572">
        <ele>305.13</ele>
        <time>2018-11-10T14:49:25Z</time>
      </trkpt>
      <trkpt lat="45.06084" lon="5.76549">
        <ele>304.16</ele>
        <time>2018-11-10T14:49:26Z</time>
      </trkpt>
      <trkpt lat="45.06101" lon="5.76526">
        <ele>303.87</ele>
        <time>2018-11-10T14:49:27Z</time>
      </trkpt>
      <trkpt lat="45.06117" lon="5.76503">
        <ele>303.08</ele>
        <time>2018-11-10T14:49:28Z</time>
      </trkpt>
      <trkpt lat="45.06135" lon="5.76482">
        <ele>303.54</ele>
        <time>2018-11-10T14:49:29Z</time>
      </trkpt>
      <trkpt lat="45.06152" lon="5.76462">
        <ele>302.28</ele>
        <time>2018-11-10T14:49:30Z</time>
      </trkpt>
      <trkpt lat="45.0617" lon="5.76442">
        <ele>301.2</ele>
        <time>2018-11-10T14:49:31Z</time>
      </trkpt>
      <trkpt lat="45.06187" lon="5.76424">
        <ele>300.88</ele>
        <time>2018-11-10T14:49:32Z</time>
      </trkpt>
      <trkpt lat="45.06204" lon="5.76407">
        <ele>300.08</ele>
        <time>2018-11-10T14:49:33Z</time>
      </trkpt>
      <trkpt lat="45.06222" lon="5.7639">
        <ele>299.84</ele>
        <time>2018-11-10T14:49:34Z</time>
      </trkpt>
      <trkpt lat="45.0624" lon="5.76374">
        <ele>299.77</ele>
        <time>2018-11-10T14:49:35Z</time>
      </trkpt>
      <trkpt lat="45.06259" lon="5.76358">
        <ele>299.75</ele>
        <time>2018-11-10T14:49:36Z</time>
      </trkpt>
      <trkpt lat="45.06278" lon="5.76343">
        <ele>299.74</ele>
        <time>2018-11-10T14:49:37Z</time>
      </trkpt>
      <trkpt lat="45.06297" lon="5.76328">
        <ele>300.44</ele>
        <time>2018-11-10T14:49:38Z</time>
      </trkpt>
      <trkpt lat="45.06316" lon="5.76312">
        <ele>301.35</ele>
        <time>2018-11-10T14:49:39Z</time>
      </trkpt>
      <trkpt lat="45.06334" lon="5.76296">
        <ele>302.32</ele>
        <time>2018-11-10T14:49:40Z</time>
      </trkpt>
      <trkpt lat="45.06372" lon="5.76281">
        <ele>298.57</ele>
        <time>2018-11-10T14:49:42Z</time>
      </trkpt>
      <trkpt lat="45.0639" lon="5.76271">
        <ele>297.99</ele>
        <time>2018-11-10T14:49:43Z</time>
      </trkpt>
      <trkpt lat="45.0641" lon="5.76262">
        <ele>297.82</ele>
        <time>2018-11-10T14:49:44Z</time>
      </trkpt>
      <trkpt lat="45.0643" lon="5.76253">
        <ele>297.06</ele>
        <time>2018-11-10T14:49:45Z</time>
      </trkpt>
      <trkpt lat="45.0645" lon="5.76248">
        <ele>294.74</ele>
        <time>2018-11-10T14:49:46Z</time>
      </trkpt>
      <trkpt lat="45.0647" lon="5.7624">
        <ele>293.34</ele>
        <time>2018-11-10T14:49:47Z</time>
      </trkpt>
      <trkpt lat="45.06491" lon="5.76236">
        <ele>293.62</ele>
        <time>2018-11-10T14:49:48Z</time>
      </trkpt>
      <trkpt lat="45.0651" lon="5.76229">
        <ele>293.7</ele>
        <time>2018-11-10T14:49:49Z</time>
      </trkpt>
      <trkpt lat="45.06531" lon="5.76227">
        <ele>293.73</ele>
        <time>2018-11-10T14:49:50Z</time>
      </trkpt>
      <trkpt lat="45.06552" lon="5.76225">
        <ele>293.04</ele>
        <time>2018-11-10T14:49:51Z</time>
      </trkpt>
      <trkpt lat="45.06571" lon="5.76223">
        <ele>292.83</ele>
        <time>2018-11-10T14:49:52Z</time>
      </trkpt>
      <trkpt lat="45.06591" lon="5.7622">
        <ele>292.77</ele>
        <time>2018-11-10T14:49:53Z</time>
      </trkpt>
      <trkpt lat="45.06611" lon="5.76219">
        <ele>292.05</ele>
        <time>2018-11-10T14:49:54Z</time>
      </trkpt>
      <trkpt lat="45.06629" lon="5.76219">
        <ele>289.73</ele>
        <time>2018-11-10T14:49:55Z</time>
      </trkpt>
      <trkpt lat="45.06647" lon="5.76219">
        <ele>288.34</ele>
        <time>2018-11-10T14:49:56Z</time>
      </trkpt>
      <trkpt lat="45.06667" lon="5.76219">
        <ele>288.62</ele>
        <time>2018-11-10T14:49:57Z</time>
      </trkpt>
      <trkpt lat="45.06685" lon="5.76218">
        <ele>287.3</ele>
        <time>2018-11-10T14:49:58Z</time>
      </trkpt>
      <trkpt lat="45.06705" lon="5.76219">
        <ele>288.31</ele>
        <time>2018-11-10T14:49:59Z</time>
      </trkpt>
      <trkpt lat="45.06725" lon="5.76219">
        <ele>287.91</ele>
        <time>2018-11-10T14:50:00Z</time>
      </trkpt>
      <trkpt lat="45.06744" lon="5.7622">
        <ele>287.79</ele>
        <time>2018-11-10T14:50:01Z</time>
      </trkpt>
      <trkpt lat="45.06764" lon="5.76222">
        <ele>288.46</ele>
        <time>2018-11-10T14:50:02Z</time>
      </trkpt>
      <trkpt lat="45.06785" lon="5.76225">
        <ele>289.36</ele>
        <time>2018-11-10T14:50:03Z</time>
      </trkpt>
      <trkpt lat="45.06805" lon="5.76227">
        <ele>289.63</ele>
        <time>2018-11-10T14:50:04Z</time>
      </trkpt>
      <trkpt lat="45.06824" lon="5.76231">
        <ele>289.01</ele>
        <time>2018-11-10T14:50:05Z</time>
      </trkpt>
      <trkpt lat="45.06844" lon="5.76235">
        <ele>289.52</ele>
        <time>2018-11-10T14:50:06Z</time>
      </trkpt>
      <trkpt lat="45.06864" lon="5.7624">
        <ele>289.67</ele>
        <time>2018-11-10T14:50:07Z</time>
      </trkpt>
      <trkpt lat="45.06884" lon="5.76245">
        <ele>289.72</ele>
        <time>2018-11-10T14:50:08Z</time>
      </trkpt>
      <trkpt lat="45.0692" lon="5.76256">
        <ele>289.53</ele>
        <time>2018-11-10T14:50:10Z</time>
      </trkpt>
      <trkpt lat="45.06938" lon="5.76266">
        <ele>289.68</ele>
        <time>2018-11-10T14:50:11Z</time>
      </trkpt>
      <trkpt lat="45.0696" lon="5.76272">
        <ele>291.12</ele>
        <time>2018-11-10T14:50:12Z</time>
      </trkpt>
      <trkpt lat="45.06979" lon="5.76281">
        <ele>291.56</ele>
        <time>2018-11-10T14:50:13Z</time>
      </trkpt>
      <trkpt lat="45.06997" lon="5.76287">
        <ele>291.69</ele>
        <time>2018-11-10T14:50:14Z</time>
      </trkpt>
      <trkpt lat="45.07017" lon="5.76294">
        <ele>291.02</ele>
        <time>2018-11-10T14:50:15Z</time>
      </trkpt>
      <trkpt lat="45.07038" lon="5.76305">
        <ele>290.83</ele>
        <time>2018-11-10T14:50:16Z</time>
      </trkpt>
      <trkpt lat="45.07057" lon="5.76316">
        <ele>290.77</ele>
        <time>2018-11-10T14:50:17Z</time>
      </trkpt>
      <trkpt lat="45.07077" lon="5.76327">
        <ele>291.45</ele>
        <time>2018-11-10T14:50:18Z</time>
      </trkpt>
      <trkpt lat="45.07096" lon="5.76337">
        <ele>291.65</ele>
        <time>2018-11-10T14:50:19Z</time>
      </trkpt>
      <trkpt lat="45.07114" lon="5.76348">
        <ele>291.71</ele>
        <time>2018-11-10T14:50:20Z</time>
      </trkpt>
      <trkpt lat="45.07134" lon="5.76357">
        <ele>291.03</ele>
        <time>2018-11-10T14:50:21Z</time>
      </trkpt>
      <trkpt lat="45.07154" lon="5.7637">
        <ele>290.83</ele>
        <time>2018-11-10T14:50:22Z</time>
      </trkpt>
      <trkpt lat="45.0717" lon="5.76382">
        <ele>289.37</ele>
        <time>2018-11-10T14:50:23Z</time>
      </trkpt>
      <trkpt lat="45.07187" lon="5.76394">
        <ele>288.93</ele>
        <time>2018-11-10T14:50:24Z</time>
      </trkpt>
      <trkpt lat="45.07203" lon="5.76407">
        <ele>288.8</ele>
        <time>2018-11-10T14:50:25Z</time>
      </trkpt>
      <trkpt lat="45.07219" lon="5.76419">
        <ele>288.06</ele>
        <time>2018-11-10T14:50:26Z</time>
      </trkpt>
      <trkpt lat="45.07237" lon="5.76431">
        <ele>287.84</ele>
        <time>2018-11-10T14:50:27Z</time>
      </trkpt>
      <trkpt lat="45.07255" lon="5.76444">
        <ele>287.07</ele>
        <time>2018-11-10T14:50:28Z</time>
      </trkpt>
      <trkpt lat="45.07273" lon="5.76455">
        <ele>286.84</ele>
        <time>2018-11-10T14:50:29Z</time>
      </trkpt>
      <trkpt lat="45.0729" lon="5.7647">
        <ele>287.47</ele>
        <time>2018-11-10T14:50:30Z</time>
      </trkpt>
      <trkpt lat="45.07309" lon="5.76482">
        <ele>288.36</ele>
        <time>2018-11-10T14:50:31Z</time>
      </trkpt>
      <trkpt lat="45.07327" lon="5.7649">
        <ele>287.93</ele>
        <time>2018-11-10T14:50:32Z</time>
      </trkpt>
      <trkpt lat="45.07346" lon="5.76504">
        <ele>287.8</ele>
        <time>2018-11-10T14:50:33Z</time>
      </trkpt>
      <trkpt lat="45.07379" lon="5.7653">
        <ele>287.05</ele>
        <time>2018-11-10T14:50:35Z</time>
      </trkpt>
      <trkpt lat="45.07398" lon="5.76544">
        <ele>286.83</ele>
        <time>2018-11-10T14:50:36Z</time>
      </trkpt>
      <trkpt lat="45.07416" lon="5.76557">
        <ele>286.07</ele>
        <time>2018-11-10T14:50:37Z</time>
      </trkpt>
      <trkpt lat="45.07436" lon="5.76571">
        <ele>285.84</ele>
        <time>2018-11-10T14:50:38Z</time>
      </trkpt>
      <trkpt lat="45.07455" lon="5.76586">
        <ele>285.77</ele>
        <time>2018-11-10T14:50:39Z</time>
      </trkpt>
      <trkpt lat="45.07475" lon="5.76602">
        <ele>285.05</ele>
        <time>2018-11-10T14:50:40Z</time>
      </trkpt>
      <trkpt lat="45.07495" lon="5.76619">
        <ele>284.83</ele>
        <time>2018-11-10T14:50:41Z</time>
      </trkpt>
      <trkpt lat="45.07514" lon="5.76632">
        <ele>284.77</ele>
        <time>2018-11-10T14:50:42Z</time>
      </trkpt>
      <trkpt lat="45.07534" lon="5.76644">
        <ele>285.45</ele>
        <time>2018-11-10T14:50:43Z</time>
      </trkpt>
      <trkpt lat="45.07553" lon="5.76653">
        <ele>284.25</ele>
        <time>2018-11-10T14:50:44Z</time>
      </trkpt>
      <trkpt lat="45.07575" lon="5.76662">
        <ele>283.19</ele>
        <time>2018-11-10T14:50:45Z</time>
      </trkpt>
      <trkpt lat="45.07594" lon="5.7667">
        <ele>281.48</ele>
        <time>2018-11-10T14:50:46Z</time>
      </trkpt>
      <trkpt lat="45.07616" lon="5.76677">
        <ele>280.96</ele>
        <time>2018-11-10T14:50:47Z</time>
      </trkpt>
      <trkpt lat="45.07637" lon="5.76683">
        <ele>280.11</ele>
        <time>2018-11-10T14:50:48Z</time>
      </trkpt>
      <trkpt lat="45.07658" lon="5.76685">
        <ele>281.25</ele>
        <time>2018-11-10T14:50:49Z</time>
      </trkpt>
      <trkpt lat="45.0768" lon="5.76688">
        <ele>282.29</ele>
        <time>2018-11-10T14:50:50Z</time>
      </trkpt>
      <trkpt lat="45.077" lon="5.76689">
        <ele>282.61</ele>
        <time>2018-11-10T14:50:51Z</time>
      </trkpt>
      <trkpt lat="45.07722" lon="5.7669">
        <ele>282.7</ele>
        <time>2018-11-10T14:50:52Z</time>
      </trkpt>
      <trkpt lat="45.07743" lon="5.76691">
        <ele>282.73</ele>
        <time>2018-11-10T14:50:53Z</time>
      </trkpt>
      <trkpt lat="45.07765" lon="5.76691">
        <ele>282.04</ele>
        <time>2018-11-10T14:50:54Z</time>
      </trkpt>
      <trkpt lat="45.07785" lon="5.76688">
        <ele>280.43</ele>
        <time>2018-11-10T14:50:55Z</time>
      </trkpt>
      <trkpt lat="45.07807" lon="5.76687">
        <ele>280.65</ele>
        <time>2018-11-10T14:50:56Z</time>
      </trkpt>
      <trkpt lat="45.0783" lon="5.76688">
        <ele>282.11</ele>
        <time>2018-11-10T14:50:57Z</time>
      </trkpt>
      <trkpt lat="45.0785" lon="5.76688">
        <ele>282.55</ele>
        <time>2018-11-10T14:50:58Z</time>
      </trkpt>
      <trkpt lat="45.07871" lon="5.76687">
        <ele>283.38</ele>
        <time>2018-11-10T14:50:59Z</time>
      </trkpt>
      <trkpt lat="45.07891" lon="5.76686">
        <ele>282.93</ele>
        <time>2018-11-10T14:51:00Z</time>
      </trkpt>
      <trkpt lat="45.07911" lon="5.76685">
        <ele>282.8</ele>
        <time>2018-11-10T14:51:01Z</time>
      </trkpt>
      <trkpt lat="45.07932" lon="5.76682">
        <ele>282.76</ele>
        <time>2018-11-10T14:51:02Z</time>
      </trkpt>
      <trkpt lat="45.07954" lon="5.76677">
        <ele>282.75</ele>
        <time>2018-11-10T14:51:03Z</time>
      </trkpt>
      <trkpt lat="45.07974" lon="5.76671">
        <ele>282.04</ele>
        <time>2018-11-10T14:51:04Z</time>
      </trkpt>
      <trkpt lat="45.07996" lon="5.76664">
        <ele>281.13</ele>
        <time>2018-11-10T14:51:05Z</time>
      </trkpt>
      <trkpt lat="45.08016" lon="5.76657">
        <ele>280.86</ele>
        <time>2018-11-10T14:51:06Z</time>
      </trkpt>
      <trkpt lat="45.08036" lon="5.7665">
        <ele>280.78</ele>
        <time>2018-11-10T14:51:07Z</time>
      </trkpt>
      <trkpt lat="45.08054" lon="5.76644">
        <ele>280.05</ele>
        <time>2018-11-10T14:51:08Z</time>
      </trkpt>
      <trkpt lat="45.08073" lon="5.76636">
        <ele>279.83</ele>
        <time>2018-11-10T14:51:09Z</time>
      </trkpt>
      <trkpt lat="45.08109" lon="5.76623">
        <ele>278.84</ele>
        <time>2018-11-10T14:51:11Z</time>
      </trkpt>
      <trkpt lat="45.08128" lon="5.76616">
        <ele>278.77</ele>
        <time>2018-11-10T14:51:12Z</time>
      </trkpt>
      <trkpt lat="45.08149" lon="5.7661">
        <ele>278.75</ele>
        <time>2018-11-10T14:51:13Z</time>
      </trkpt>
      <trkpt lat="45.08182" lon="5.76601">
        <ele>278.04</ele>
        <time>2018-11-10T14:51:15Z</time>
      </trkpt>
      <trkpt lat="45.08212" lon="5.76595">
        <ele>277.77</ele>
        <time>2018-11-10T14:51:17Z</time>
      </trkpt>
      <trkpt lat="45.08233" lon="5.76596">
        <ele>277.25</ele>
        <time>2018-11-10T14:51:19Z</time>
      </trkpt>
      <trkpt lat="45.08249" lon="5.76611">
        <ele>279.14</ele>
        <time>2018-11-10T14:51:23Z</time>
      </trkpt>
      <trkpt lat="45.08271" lon="5.76602">
        <ele>279.66</ele>
        <time>2018-11-10T14:51:26Z</time>
      </trkpt>
      <trkpt lat="45.08272" lon="5.76574">
        <ele>279.73</ele>
        <time>2018-11-10T14:51:28Z</time>
      </trkpt>
      <trkpt lat="45.08279" lon="5.76537">
        <ele>283.38</ele>
        <time>2018-11-10T14:51:30Z</time>
      </trkpt>
      <trkpt lat="45.0829" lon="5.76495">
        <ele>284.62</ele>
        <time>2018-11-10T14:51:32Z</time>
      </trkpt>
      <trkpt lat="45.083" lon="5.76456">
        <ele>283.82</ele>
        <time>2018-11-10T14:51:34Z</time>
      </trkpt>
      <trkpt lat="45.08309" lon="5.76417">
        <ele>283.05</ele>
        <time>2018-11-10T14:51:36Z</time>
      </trkpt>
      <trkpt lat="45.08318" lon="5.76378">
        <ele>281.86</ele>
        <time>2018-11-10T14:51:38Z</time>
      </trkpt>
      <trkpt lat="45.08326" lon="5.76336">
        <ele>280.84</ele>
        <time>2018-11-10T14:51:40Z</time>
      </trkpt>
      <trkpt lat="45.08337" lon="5.76293">
        <ele>279.84</ele>
        <time>2018-11-10T14:51:42Z</time>
      </trkpt>
      <trkpt lat="45.08349" lon="5.76247">
        <ele>279.75</ele>
        <time>2018-11-10T14:51:44Z</time>
      </trkpt>
      <trkpt lat="45.0836" lon="5.76201">
        <ele>280.65</ele>
        <time>2018-11-10T14:51:46Z</time>
      </trkpt>
      <trkpt lat="45.08372" lon="5.76155">
        <ele>280.94</ele>
        <time>2018-11-10T14:51:48Z</time>
      </trkpt>
      <trkpt lat="45.08383" lon="5.76109">
        <ele>280.76</ele>
        <time>2018-11-10T14:51:50Z</time>
      </trkpt>
      <trkpt lat="45.08395" lon="5.76063">
        <ele>281.65</ele>
        <time>2018-11-10T14:51:52Z</time>
      </trkpt>
      <trkpt lat="45.08406" lon="5.76018">
        <ele>282.64</ele>
        <time>2018-11-10T14:51:54Z</time>
      </trkpt>
      <trkpt lat="45.08418" lon="5.75973">
        <ele>283.43</ele>
        <time>2018-11-10T14:51:56Z</time>
      </trkpt>
      <trkpt lat="45.08427" lon="5.75929">
        <ele>281.4</ele>
        <time>2018-11-10T14:51:58Z</time>
      </trkpt>
      <trkpt lat="45.08438" lon="5.75884">
        <ele>280.1</ele>
        <time>2018-11-10T14:52:00Z</time>
      </trkpt>
      <trkpt lat="45.0845" lon="5.75839">
        <ele>279.77</ele>
        <time>2018-11-10T14:52:02Z</time>
      </trkpt>
      <trkpt lat="45.08461" lon="5.75796">
        <ele>279.53</ele>
        <time>2018-11-10T14:52:04Z</time>
      </trkpt>
      <trkpt lat="45.08476" lon="5.75755">
        <ele>281.33</ele>
        <time>2018-11-10T14:52:06Z</time>
      </trkpt>
      <trkpt lat="45.08494" lon="5.75718">
        <ele>280.79</ele>
        <time>2018-11-10T14:52:08Z</time>
      </trkpt>
      <trkpt lat="45.08513" lon="5.75678">
        <ele>280.75</ele>
        <time>2018-11-10T14:52:10Z</time>
      </trkpt>
      <trkpt lat="45.08529" lon="5.75633">
        <ele>282.14</ele>
        <time>2018-11-10T14:52:12Z</time>
      </trkpt>
      <trkpt lat="45.0853" lon="5.75584">
        <ele>282.2</ele>
        <time>2018-11-10T14:52:14Z</time>
      </trkpt>
      <trkpt lat="45.08529" lon="5.75535">
        <ele>281.78</ele>
        <time>2018-11-10T14:52:16Z</time>
      </trkpt>
      <trkpt lat="45.08523" lon="5.75511">
        <ele>281.75</ele>
        <time>2018-11-10T14:52:17Z</time>
      </trkpt>
      <trkpt lat="45.08514" lon="5.75463">
        <ele>281.53</ele>
        <time>2018-11-10T14:52:19Z</time>
      </trkpt>
      <trkpt lat="45.0851" lon="5.75417">
        <ele>280.11</ele>
        <time>2018-11-10T14:52:21Z</time>
      </trkpt>
      <trkpt lat="45.08501" lon="5.75371">
        <ele>278.86</ele>
        <time>2018-11-10T14:52:23Z</time>
      </trkpt>
      <trkpt lat="45.08495" lon="5.75342">
        <ele>279.48</ele>
        <time>2018-11-10T14:52:24Z</time>
      </trkpt>
      <trkpt lat="45.08486" lon="5.75295">
        <ele>279.51</ele>
        <time>2018-11-10T14:52:26Z</time>
      </trkpt>
      <trkpt lat="45.08479" lon="5.75271">
        <ele>278.97</ele>
        <time>2018-11-10T14:52:27Z</time>
      </trkpt>
      <trkpt lat="45.08466" lon="5.75222">
        <ele>277.85</ele>
        <time>2018-11-10T14:52:29Z</time>
      </trkpt>
      <trkpt lat="45.08454" lon="5.75175">
        <ele>275.93</ele>
        <time>2018-11-10T14:52:31Z</time>
      </trkpt>
      <trkpt lat="45.08446" lon="5.75149">
        <ele>276.5</ele>
        <time>2018-11-10T14:52:32Z</time>
      </trkpt>
      <trkpt lat="45.08442" lon="5.75105">
        <ele>274.2</ele>
        <time>2018-11-10T14:52:34Z</time>
      </trkpt>
      <trkpt lat="45.0844" lon="5.75077">
        <ele>273.88</ele>
        <time>2018-11-10T14:52:35Z</time>
      </trkpt>
      <trkpt lat="45.08435" lon="5.75036">
        <ele>275.57</ele>
        <time>2018-11-10T14:52:37Z</time>
      </trkpt>
      <trkpt lat="45.08422" lon="5.74994">
        <ele>275.24</ele>
        <time>2018-11-10T14:52:39Z</time>
      </trkpt>
      <trkpt lat="45.08415" lon="5.74952">
        <ele>275.28</ele>
        <time>2018-11-10T14:52:41Z</time>
      </trkpt>
      <trkpt lat="45.08408" lon="5.74906">
        <ele>275.28</ele>
        <time>2018-11-10T14:52:43Z</time>
      </trkpt>
      <trkpt lat="45.08399" lon="5.74859">
        <ele>276.89</ele>
        <time>2018-11-10T14:52:45Z</time>
      </trkpt>
      <trkpt lat="45.08395" lon="5.74833">
        <ele>277</ele>
        <time>2018-11-10T14:52:46Z</time>
      </trkpt>
      <trkpt lat="45.08391" lon="5.74806">
        <ele>277.73</ele>
        <time>2018-11-10T14:52:47Z</time>
      </trkpt>
      <trkpt lat="45.08386" lon="5.74777">
        <ele>277.25</ele>
        <time>2018-11-10T14:52:48Z</time>
      </trkpt>
      <trkpt lat="45.08375" lon="5.7473">
        <ele>276.16</ele>
        <time>2018-11-10T14:52:50Z</time>
      </trkpt>
      <trkpt lat="45.08368" lon="5.74683">
        <ele>275.36</ele>
        <time>2018-11-10T14:52:52Z</time>
      </trkpt>
      <trkpt lat="45.08358" lon="5.74636">
        <ele>275.5</ele>
        <time>2018-11-10T14:52:54Z</time>
      </trkpt>
      <trkpt lat="45.08349" lon="5.74591">
        <ele>274.88</ele>
        <time>2018-11-10T14:52:56Z</time>
      </trkpt>
      <trkpt lat="45.08343" lon="5.74566">
        <ele>275.7</ele>
        <time>2018-11-10T14:52:57Z</time>
      </trkpt>
      <trkpt lat="45.08337" lon="5.74528">
        <ele>275.11</ele>
        <time>2018-11-10T14:52:59Z</time>
      </trkpt>
      <trkpt lat="45.08334" lon="5.74487">
        <ele>273.72</ele>
        <time>2018-11-10T14:53:01Z</time>
      </trkpt>
      <trkpt lat="45.08335" lon="5.74449">
        <ele>273.32</ele>
        <time>2018-11-10T14:53:03Z</time>
      </trkpt>
      <trkpt lat="45.0834" lon="5.74411">
        <ele>275.38</ele>
        <time>2018-11-10T14:53:05Z</time>
      </trkpt>
      <trkpt lat="45.08348" lon="5.74374">
        <ele>275.5</ele>
        <time>2018-11-10T14:53:07Z</time>
      </trkpt>
      <trkpt lat="45.08364" lon="5.74335">
        <ele>274.18</ele>
        <time>2018-11-10T14:53:09Z</time>
      </trkpt>
      <trkpt lat="45.08379" lon="5.74294">
        <ele>274.97</ele>
        <time>2018-11-10T14:53:11Z</time>
      </trkpt>
      <trkpt lat="45.08394" lon="5.74254">
        <ele>276.65</ele>
        <time>2018-11-10T14:53:13Z</time>
      </trkpt>
      <trkpt lat="45.08409" lon="5.74215">
        <ele>277.01</ele>
        <time>2018-11-10T14:53:15Z</time>
      </trkpt>
      <trkpt lat="45.08422" lon="5.74175">
        <ele>277.96</ele>
        <time>2018-11-10T14:53:17Z</time>
      </trkpt>
      <trkpt lat="45.0844" lon="5.74131">
        <ele>280.77</ele>
        <time>2018-11-10T14:53:19Z</time>
      </trkpt>
      <trkpt lat="45.08456" lon="5.74088">
        <ele>280.32</ele>
        <time>2018-11-10T14:53:21Z</time>
      </trkpt>
      <trkpt lat="45.08473" lon="5.74045">
        <ele>280.28</ele>
        <time>2018-11-10T14:53:23Z</time>
      </trkpt>
      <trkpt lat="45.08491" lon="5.74001">
        <ele>280.07</ele>
        <time>2018-11-10T14:53:25Z</time>
      </trkpt>
      <trkpt lat="45.08508" lon="5.73957">
        <ele>280.75</ele>
        <time>2018-11-10T14:53:27Z</time>
      </trkpt>
      <trkpt lat="45.08526" lon="5.73915">
        <ele>281.02</ele>
        <time>2018-11-10T14:53:29Z</time>
      </trkpt>
      <trkpt lat="45.08542" lon="5.7387">
        <ele>278.53</ele>
        <time>2018-11-10T14:53:31Z</time>
      </trkpt>
      <trkpt lat="45.08551" lon="5.73847">
        <ele>278.89</ele>
        <time>2018-11-10T14:53:32Z</time>
      </trkpt>
      <trkpt lat="45.08566" lon="5.73804">
        <ele>277.91</ele>
        <time>2018-11-10T14:53:34Z</time>
      </trkpt>
      <trkpt lat="45.08576" lon="5.73782">
        <ele>276.61</ele>
        <time>2018-11-10T14:53:35Z</time>
      </trkpt>
      <trkpt lat="45.08586" lon="5.73761">
        <ele>275.52</ele>
        <time>2018-11-10T14:53:36Z</time>
      </trkpt>
      <trkpt lat="45.08607" lon="5.73718">
        <ele>275.09</ele>
        <time>2018-11-10T14:53:38Z</time>
      </trkpt>
      <trkpt lat="45.08617" lon="5.73695">
        <ele>275.06</ele>
        <time>2018-11-10T14:53:39Z</time>
      </trkpt>
      <trkpt lat="45.08634" lon="5.7365">
        <ele>276.17</ele>
        <time>2018-11-10T14:53:41Z</time>
      </trkpt>
      <trkpt lat="45.08644" lon="5.73628">
        <ele>276.79</ele>
        <time>2018-11-10T14:53:42Z</time>
      </trkpt>
      <trkpt lat="45.08662" lon="5.73583">
        <ele>277.94</ele>
        <time>2018-11-10T14:53:44Z</time>
      </trkpt>
      <trkpt lat="45.0868" lon="5.73539">
        <ele>278.04</ele>
        <time>2018-11-10T14:53:46Z</time>
      </trkpt>
      <trkpt lat="45.08696" lon="5.73496">
        <ele>277.35</ele>
        <time>2018-11-10T14:53:48Z</time>
      </trkpt>
      <trkpt lat="45.08714" lon="5.73453">
        <ele>277.99</ele>
        <time>2018-11-10T14:53:50Z</time>
      </trkpt>
      <trkpt lat="45.08731" lon="5.7341">
        <ele>278.04</ele>
        <time>2018-11-10T14:53:52Z</time>
      </trkpt>
      <trkpt lat="45.0875" lon="5.73366">
        <ele>278.75</ele>
        <time>2018-11-10T14:53:54Z</time>
      </trkpt>
      <trkpt lat="45.08768" lon="5.73323">
        <ele>279.02</ele>
        <time>2018-11-10T14:53:56Z</time>
      </trkpt>
      <trkpt lat="45.08778" lon="5.73301">
        <ele>279.04</ele>
        <time>2018-11-10T14:53:57Z</time>
      </trkpt>
      <trkpt lat="45.08787" lon="5.73279">
        <ele>279.05</ele>
        <time>2018-11-10T14:53:58Z</time>
      </trkpt>
      <trkpt lat="45.08805" lon="5.73238">
        <ele>278.14</ele>
        <time>2018-11-10T14:54:00Z</time>
      </trkpt>
      <trkpt lat="45.08819" lon="5.73202">
        <ele>277.15</ele>
        <time>2018-11-10T14:54:02Z</time>
      </trkpt>
      <trkpt lat="45.08831" lon="5.73169">
        <ele>277.06</ele>
        <time>2018-11-10T14:54:04Z</time>
      </trkpt>
      <trkpt lat="45.08842" lon="5.73142">
        <ele>277.05</ele>
        <time>2018-11-10T14:54:06Z</time>
      </trkpt>
      <trkpt lat="45.08861" lon="5.73128">
        <ele>277.75</ele>
        <time>2018-11-10T14:54:09Z</time>
      </trkpt>
      <trkpt lat="45.08881" lon="5.73139">
        <ele>275.67</ele>
        <time>2018-11-10T14:54:12Z</time>
      </trkpt>
      <trkpt lat="45.08903" lon="5.73171">
        <ele>275.31</ele>
        <time>2018-11-10T14:54:14Z</time>
      </trkpt>
      <trkpt lat="45.08923" lon="5.73196">
        <ele>274.37</ele>
        <time>2018-11-10T14:54:16Z</time>
      </trkpt>
      <trkpt lat="45.08943" lon="5.73221">
        <ele>273.38</ele>
        <time>2018-11-10T14:54:18Z</time>
      </trkpt>
      <trkpt lat="45.08966" lon="5.73248">
        <ele>272.38</ele>
        <time>2018-11-10T14:54:20Z</time>
      </trkpt>
      <trkpt lat="45.08987" lon="5.73273">
        <ele>271.38</ele>
        <time>2018-11-10T14:54:22Z</time>
      </trkpt>
      <trkpt lat="45.09007" lon="5.73298">
        <ele>270.17</ele>
        <time>2018-11-10T14:54:24Z</time>
      </trkpt>
      <trkpt lat="45.09029" lon="5.73326">
        <ele>270.06</ele>
        <time>2018-11-10T14:54:26Z</time>
      </trkpt>
      <trkpt lat="45.09055" lon="5.73356">
        <ele>270.05</ele>
        <time>2018-11-10T14:54:28Z</time>
      </trkpt>
      <trkpt lat="45.09081" lon="5.73386">
        <ele>270.05</ele>
        <time>2018-11-10T14:54:30Z</time>
      </trkpt>
      <trkpt lat="45.09107" lon="5.73417">
        <ele>270.05</ele>
        <time>2018-11-10T14:54:32Z</time>
      </trkpt>
      <trkpt lat="45.09146" lon="5.73461">
        <ele>268.65</ele>
        <time>2018-11-10T14:54:34Z</time>
      </trkpt>
      <trkpt lat="45.09159" lon="5.7348">
        <ele>268.93</ele>
        <time>2018-11-10T14:54:35Z</time>
      </trkpt>
      <trkpt lat="45.09175" lon="5.73504">
        <ele>268.31</ele>
        <time>2018-11-10T14:54:36Z</time>
      </trkpt>
      <trkpt lat="45.09193" lon="5.73524">
        <ele>268.83</ele>
        <time>2018-11-10T14:54:37Z</time>
      </trkpt>
      <trkpt lat="45.09209" lon="5.73544">
        <ele>268.28</ele>
        <time>2018-11-10T14:54:38Z</time>
      </trkpt>
      <trkpt lat="45.09225" lon="5.73563">
        <ele>268.12</ele>
        <time>2018-11-10T14:54:39Z</time>
      </trkpt>
      <trkpt lat="45.09233" lon="5.73594">
        <ele>261.07</ele>
        <time>2018-11-10T14:54:40Z</time>
      </trkpt>
      <trkpt lat="45.09249" lon="5.73612">
        <ele>258.96</ele>
        <time>2018-11-10T14:54:41Z</time>
      </trkpt>
      <trkpt lat="45.09265" lon="5.73631">
        <ele>258.32</ele>
        <time>2018-11-10T14:54:42Z</time>
      </trkpt>
      <trkpt lat="45.09286" lon="5.73646">
        <ele>259.53</ele>
        <time>2018-11-10T14:54:43Z</time>
      </trkpt>
      <trkpt lat="45.09302" lon="5.73665">
        <ele>259.89</ele>
        <time>2018-11-10T14:54:44Z</time>
      </trkpt>
      <trkpt lat="45.09318" lon="5.73684">
        <ele>260</ele>
        <time>2018-11-10T14:54:45Z</time>
      </trkpt>
      <trkpt lat="45.09333" lon="5.73703">
        <ele>259.33</ele>
        <time>2018-11-10T14:54:46Z</time>
      </trkpt>
      <trkpt lat="45.0935" lon="5.73723">
        <ele>257.03</ele>
        <time>2018-11-10T14:54:47Z</time>
      </trkpt>
      <trkpt lat="45.09367" lon="5.73746">
        <ele>254.94</ele>
        <time>2018-11-10T14:54:48Z</time>
      </trkpt>
      <trkpt lat="45.09383" lon="5.73766">
        <ele>253.62</ele>
        <time>2018-11-10T14:54:49Z</time>
      </trkpt>
      <trkpt lat="45.09401" lon="5.73787">
        <ele>253.22</ele>
        <time>2018-11-10T14:54:50Z</time>
      </trkpt>
      <trkpt lat="45.09421" lon="5.73806">
        <ele>253.1</ele>
        <time>2018-11-10T14:54:51Z</time>
      </trkpt>
      <trkpt lat="45.09439" lon="5.73827">
        <ele>252.36</ele>
        <time>2018-11-10T14:54:52Z</time>
      </trkpt>
      <trkpt lat="45.09454" lon="5.73843">
        <ele>251.44</ele>
        <time>2018-11-10T14:54:53Z</time>
      </trkpt>
      <trkpt lat="45.09471" lon="5.73864">
        <ele>251.17</ele>
        <time>2018-11-10T14:54:54Z</time>
      </trkpt>
      <trkpt lat="45.09488" lon="5.73884">
        <ele>251.08</ele>
        <time>2018-11-10T14:54:55Z</time>
      </trkpt>
      <trkpt lat="45.09503" lon="5.73898">
        <ele>251.06</ele>
        <time>2018-11-10T14:54:56Z</time>
      </trkpt>
      <trkpt lat="45.09518" lon="5.73916">
        <ele>251.05</ele>
        <time>2018-11-10T14:54:57Z</time>
      </trkpt>
      <trkpt lat="45.09532" lon="5.73932">
        <ele>250.35</ele>
        <time>2018-11-10T14:54:58Z</time>
      </trkpt>
      <trkpt lat="45.09554" lon="5.73958">
        <ele>251.69</ele>
        <time>2018-11-10T14:55:00Z</time>
      </trkpt>
      <trkpt lat="45.09574" lon="5.73986">
        <ele>253.63</ele>
        <time>2018-11-10T14:55:02Z</time>
      </trkpt>
      <trkpt lat="45.09579" lon="5.74017">
        <ele>252.4</ele>
        <time>2018-11-10T14:55:04Z</time>
      </trkpt>
      <trkpt lat="45.09572" lon="5.74041">
        <ele>252.08</ele>
        <time>2018-11-10T14:55:06Z</time>
      </trkpt>
      <trkpt lat="45.09561" lon="5.74087">
        <ele>251.35</ele>
        <time>2018-11-10T14:55:08Z</time>
      </trkpt>
      <trkpt lat="45.09549" lon="5.74112">
        <ele>251.84</ele>
        <time>2018-11-10T14:55:09Z</time>
      </trkpt>
      <trkpt lat="45.0953" lon="5.7415">
        <ele>251.99</ele>
        <time>2018-11-10T14:55:10Z</time>
      </trkpt>
      <trkpt lat="45.09516" lon="5.7418">
        <ele>252.03</ele>
        <time>2018-11-10T14:55:11Z</time>
      </trkpt>
      <trkpt lat="45.09505" lon="5.7421">
        <ele>252.74</ele>
        <time>2018-11-10T14:55:12Z</time>
      </trkpt>
      <trkpt lat="45.09494" lon="5.74241">
        <ele>251.56</ele>
        <time>2018-11-10T14:55:13Z</time>
      </trkpt>
      <trkpt lat="45.09485" lon="5.74267">
        <ele>252.6</ele>
        <time>2018-11-10T14:55:14Z</time>
      </trkpt>
      <trkpt lat="45.09475" lon="5.74291">
        <ele>252.21</ele>
        <time>2018-11-10T14:55:15Z</time>
      </trkpt>
      <trkpt lat="45.09465" lon="5.74314">
        <ele>252.8</ele>
        <time>2018-11-10T14:55:16Z</time>
      </trkpt>
      <trkpt lat="45.09448" lon="5.74348">
        <ele>254.43</ele>
        <time>2018-11-10T14:55:18Z</time>
      </trkpt>
      <trkpt lat="45.09439" lon="5.74381">
        <ele>255.48</ele>
        <time>2018-11-10T14:55:20Z</time>
      </trkpt>
      <trkpt lat="45.09455" lon="5.74415">
        <ele>258.68</ele>
        <time>2018-11-10T14:55:23Z</time>
      </trkpt>
      <trkpt lat="45.09479" lon="5.74438">
        <ele>260.84</ele>
        <time>2018-11-10T14:55:25Z</time>
      </trkpt>
      <trkpt lat="45.09506" lon="5.74465">
        <ele>262.64</ele>
        <time>2018-11-10T14:55:27Z</time>
      </trkpt>
      <trkpt lat="45.09533" lon="5.74491">
        <ele>264.62</ele>
        <time>2018-11-10T14:55:29Z</time>
      </trkpt>
      <trkpt lat="45.09557" lon="5.74514">
        <ele>265.01</ele>
        <time>2018-11-10T14:55:31Z</time>
      </trkpt>
      <trkpt lat="45.09582" lon="5.74536">
        <ele>264.14</ele>
        <time>2018-11-10T14:55:33Z</time>
      </trkpt>
      <trkpt lat="45.09612" lon="5.74543">
        <ele>265.67</ele>
        <time>2018-11-10T14:55:35Z</time>
      </trkpt>
      <trkpt lat="45.09642" lon="5.74554">
        <ele>266.01</ele>
        <time>2018-11-10T14:55:37Z</time>
      </trkpt>
      <trkpt lat="45.0967" lon="5.74572">
        <ele>265.35</ele>
        <time>2018-11-10T14:55:39Z</time>
      </trkpt>
      <trkpt lat="45.09694" lon="5.74596">
        <ele>264.87</ele>
        <time>2018-11-10T14:55:41Z</time>
      </trkpt>
      <trkpt lat="45.09706" lon="5.74616">
        <ele>266.39</ele>
        <time>2018-11-10T14:55:42Z</time>
      </trkpt>
      <trkpt lat="45.09732" lon="5.74651">
        <ele>266.08</ele>
        <time>2018-11-10T14:55:44Z</time>
      </trkpt>
      <trkpt lat="45.09744" lon="5.74678">
        <ele>266.76</ele>
        <time>2018-11-10T14:55:45Z</time>
      </trkpt>
      <trkpt lat="45.09757" lon="5.74704">
        <ele>267.66</ele>
        <time>2018-11-10T14:55:46Z</time>
      </trkpt>
      <trkpt lat="45.09769" lon="5.74729">
        <ele>267.93</ele>
        <time>2018-11-10T14:55:47Z</time>
      </trkpt>
      <trkpt lat="45.09784" lon="5.74748">
        <ele>268.01</ele>
        <time>2018-11-10T14:55:48Z</time>
      </trkpt>
      <trkpt lat="45.09798" lon="5.74765">
        <ele>268.74</ele>
        <time>2018-11-10T14:55:49Z</time>
      </trkpt>
      <trkpt lat="45.09813" lon="5.7478">
        <ele>268.96</ele>
        <time>2018-11-10T14:55:50Z</time>
      </trkpt>
      <trkpt lat="45.09831" lon="5.74791">
        <ele>269.02</ele>
        <time>2018-11-10T14:55:51Z</time>
      </trkpt>
      <trkpt lat="45.09849" lon="5.74804">
        <ele>270.44</ele>
        <time>2018-11-10T14:55:52Z</time>
      </trkpt>
      <trkpt lat="45.09865" lon="5.74818">
        <ele>270.17</ele>
        <time>2018-11-10T14:55:53Z</time>
      </trkpt>
      <trkpt lat="45.09883" lon="5.74834">
        <ele>271.48</ele>
        <time>2018-11-10T14:55:54Z</time>
      </trkpt>
      <trkpt lat="45.09899" lon="5.74849">
        <ele>271.88</ele>
        <time>2018-11-10T14:55:55Z</time>
      </trkpt>
      <trkpt lat="45.09915" lon="5.74863">
        <ele>272.7</ele>
        <time>2018-11-10T14:55:56Z</time>
      </trkpt>
      <trkpt lat="45.0993" lon="5.74877">
        <ele>272.94</ele>
        <time>2018-11-10T14:55:57Z</time>
      </trkpt>
      <trkpt lat="45.09957" lon="5.74904">
        <ele>273.04</ele>
        <time>2018-11-10T14:55:59Z</time>
      </trkpt>
      <trkpt lat="45.09983" lon="5.74929">
        <ele>275.57</ele>
        <time>2018-11-10T14:56:01Z</time>
      </trkpt>
      <trkpt lat="45.10001" lon="5.74944">
        <ele>276.6</ele>
        <time>2018-11-10T14:56:02Z</time>
      </trkpt>
      <trkpt lat="45.10017" lon="5.74958">
        <ele>276.92</ele>
        <time>2018-11-10T14:56:03Z</time>
      </trkpt>
      <trkpt lat="45.10033" lon="5.7497">
        <ele>277.01</ele>
        <time>2018-11-10T14:56:04Z</time>
      </trkpt>
      <trkpt lat="45.10049" lon="5.74985">
        <ele>277.04</ele>
        <time>2018-11-10T14:56:05Z</time>
      </trkpt>
      <trkpt lat="45.10066" lon="5.75001">
        <ele>276.83</ele>
        <time>2018-11-10T14:56:06Z</time>
      </trkpt>
      <trkpt lat="45.10082" lon="5.7502">
        <ele>277.47</ele>
        <time>2018-11-10T14:56:07Z</time>
      </trkpt>
      <trkpt lat="45.10099" lon="5.75037">
        <ele>279.06</ele>
        <time>2018-11-10T14:56:08Z</time>
      </trkpt>
      <trkpt lat="45.10114" lon="5.75052">
        <ele>280.24</ele>
        <time>2018-11-10T14:56:09Z</time>
      </trkpt>
      <trkpt lat="45.1014" lon="5.75085">
        <ele>280.91</ele>
        <time>2018-11-10T14:56:11Z</time>
      </trkpt>
      <trkpt lat="45.10154" lon="5.75105">
        <ele>282.89</ele>
        <time>2018-11-10T14:56:12Z</time>
      </trkpt>
      <trkpt lat="45.10172" lon="5.75138">
        <ele>284.57</ele>
        <time>2018-11-10T14:56:14Z</time>
      </trkpt>
      <trkpt lat="45.10187" lon="5.75156">
        <ele>286.13</ele>
        <time>2018-11-10T14:56:16Z</time>
      </trkpt>
      <trkpt lat="45.10211" lon="5.75143">
        <ele>288.4</ele>
        <time>2018-11-10T14:56:19Z</time>
      </trkpt>
      <trkpt lat="45.10233" lon="5.75111">
        <ele>291.02</ele>
        <time>2018-11-10T14:56:21Z</time>
      </trkpt>
      <trkpt lat="45.10247" lon="5.75086">
        <ele>292.92</ele>
        <time>2018-11-10T14:56:22Z</time>
      </trkpt>
      <trkpt lat="45.10273" lon="5.75059">
        <ele>295.98</ele>
        <time>2018-11-10T14:56:24Z</time>
      </trkpt>
      <trkpt lat="45.10286" lon="5.75039">
        <ele>297.21</ele>
        <time>2018-11-10T14:56:25Z</time>
      </trkpt>
      <trkpt lat="45.10312" lon="5.7501">
        <ele>297.27</ele>
        <time>2018-11-10T14:56:27Z</time>
      </trkpt>
      <trkpt lat="45.10337" lon="5.74986">
        <ele>301.41</ele>
        <time>2018-11-10T14:56:29Z</time>
      </trkpt>
      <trkpt lat="45.10365" lon="5.74982">
        <ele>302.69</ele>
        <time>2018-11-10T14:56:31Z</time>
      </trkpt>
      <trkpt lat="45.10389" lon="5.74984">
        <ele>303.02</ele>
        <time>2018-11-10T14:56:33Z</time>
      </trkpt>
      <trkpt lat="45.10413" lon="5.74974">
        <ele>301.44</ele>
        <time>2018-11-10T14:56:35Z</time>
      </trkpt>
      <trkpt lat="45.10429" lon="5.74955">
        <ele>301.5</ele>
        <time>2018-11-10T14:56:37Z</time>
      </trkpt>
      <trkpt lat="45.10442" lon="5.74911">
        <ele>301.79</ele>
        <time>2018-11-10T14:56:39Z</time>
      </trkpt>
      <trkpt lat="45.10445" lon="5.74869">
        <ele>302.03</ele>
        <time>2018-11-10T14:56:41Z</time>
      </trkpt>
      <trkpt lat="45.10442" lon="5.74822">
        <ele>302.96</ele>
        <time>2018-11-10T14:56:43Z</time>
      </trkpt>
      <trkpt lat="45.10448" lon="5.74774">
        <ele>306.26</ele>
        <time>2018-11-10T14:56:45Z</time>
      </trkpt>
      <trkpt lat="45.10451" lon="5.74749">
        <ele>306.81</ele>
        <time>2018-11-10T14:56:46Z</time>
      </trkpt>
      <trkpt lat="45.10471" lon="5.74713">
        <ele>308.43</ele>
        <time>2018-11-10T14:56:48Z</time>
      </trkpt>
      <trkpt lat="45.10484" lon="5.74681">
        <ele>308.99</ele>
        <time>2018-11-10T14:56:50Z</time>
      </trkpt>
      <trkpt lat="45.105" lon="5.74663">
        <ele>310.16</ele>
        <time>2018-11-10T14:56:52Z</time>
      </trkpt>
      <trkpt lat="45.10525" lon="5.74667">
        <ele>309.57</ele>
        <time>2018-11-10T14:56:54Z</time>
      </trkpt>
      <trkpt lat="45.10549" lon="5.74658">
        <ele>309.55</ele>
        <time>2018-11-10T14:56:57Z</time>
      </trkpt>
      <trkpt lat="45.10572" lon="5.74662">
        <ele>314.56</ele>
        <time>2018-11-10T14:57:00Z</time>
      </trkpt>
      <trkpt lat="45.10589" lon="5.74688">
        <ele>315.04</ele>
        <time>2018-11-10T14:57:03Z</time>
      </trkpt>
      <trkpt lat="45.10598" lon="5.74715">
        <ele>314.14</ele>
        <time>2018-11-10T14:57:05Z</time>
      </trkpt>
      <trkpt lat="45.1061" lon="5.74744">
        <ele>314.76</ele>
        <time>2018-11-10T14:57:07Z</time>
      </trkpt>
      <trkpt lat="45.10628" lon="5.74777">
        <ele>316.63</ele>
        <time>2018-11-10T14:57:09Z</time>
      </trkpt>
      <trkpt lat="45.10645" lon="5.74808">
        <ele>317.01</ele>
        <time>2018-11-10T14:57:11Z</time>
      </trkpt>
      <trkpt lat="45.10656" lon="5.74854">
        <ele>317.96</ele>
        <time>2018-11-10T14:57:13Z</time>
      </trkpt>
      <trkpt lat="45.10675" lon="5.7489">
        <ele>318.95</ele>
        <time>2018-11-10T14:57:15Z</time>
      </trkpt>
      <trkpt lat="45.10695" lon="5.7492">
        <ele>319.53</ele>
        <time>2018-11-10T14:57:17Z</time>
      </trkpt>
      <trkpt lat="45.10724" lon="5.74936">
        <ele>322.31</ele>
        <time>2018-11-10T14:57:19Z</time>
      </trkpt>
      <trkpt lat="45.1075" lon="5.74943">
        <ele>327.11</ele>
        <time>2018-11-10T14:57:21Z</time>
      </trkpt>
      <trkpt lat="45.10767" lon="5.74957">
        <ele>331.18</ele>
        <time>2018-11-10T14:57:23Z</time>
      </trkpt>
      <trkpt lat="45.10785" lon="5.74971">
        <ele>332.33</ele>
        <time>2018-11-10T14:57:27Z</time>
      </trkpt>
      <trkpt lat="45.108" lon="5.74991">
        <ele>333.68</ele>
        <time>2018-11-10T14:57:29Z</time>
      </trkpt>
      <trkpt lat="45.10817" lon="5.75017">
        <ele>332.13</ele>
        <time>2018-11-10T14:57:31Z</time>
      </trkpt>
      <trkpt lat="45.10814" lon="5.75043">
        <ele>331.86</ele>
        <time>2018-11-10T14:57:32Z</time>
      </trkpt>
      <trkpt lat="45.10821" lon="5.75084">
        <ele>332.45</ele>
        <time>2018-11-10T14:57:34Z</time>
      </trkpt>
      <trkpt lat="45.1084" lon="5.75137">
        <ele>334.11</ele>
        <time>2018-11-10T14:57:36Z</time>
      </trkpt>
      <trkpt lat="45.10856" lon="5.7515">
        <ele>335.25</ele>
        <time>2018-11-10T14:57:37Z</time>
      </trkpt>
      <trkpt lat="45.10896" lon="5.75157">
        <ele>334.3</ele>
        <time>2018-11-10T14:57:39Z</time>
      </trkpt>
      <trkpt lat="45.10924" lon="5.75162">
        <ele>335.4</ele>
        <time>2018-11-10T14:57:41Z</time>
      </trkpt>
      <trkpt lat="45.10951" lon="5.75182">
        <ele>337.11</ele>
        <time>2018-11-10T14:57:43Z</time>
      </trkpt>
      <trkpt lat="45.10963" lon="5.75202">
        <ele>338.25</ele>
        <time>2018-11-10T14:57:44Z</time>
      </trkpt>
      <trkpt lat="45.10976" lon="5.75221">
        <ele>340.69</ele>
        <time>2018-11-10T14:57:45Z</time>
      </trkpt>
      <trkpt lat="45.1099" lon="5.7524">
        <ele>342.13</ele>
        <time>2018-11-10T14:57:46Z</time>
      </trkpt>
      <trkpt lat="45.11011" lon="5.75279">
        <ele>344.09</ele>
        <time>2018-11-10T14:57:48Z</time>
      </trkpt>
      <trkpt lat="45.11027" lon="5.75317">
        <ele>346.5</ele>
        <time>2018-11-10T14:57:50Z</time>
      </trkpt>
      <trkpt lat="45.11049" lon="5.75347">
        <ele>348.54</ele>
        <time>2018-11-10T14:57:52Z</time>
      </trkpt>
      <trkpt lat="45.11085" lon="5.7537">
        <ele>351.03</ele>
        <time>2018-11-10T14:57:54Z</time>
      </trkpt>
      <trkpt lat="45.11103" lon="5.75381">
        <ele>352.23</ele>
        <time>2018-11-10T14:57:55Z</time>
      </trkpt>
      <trkpt lat="45.11122" lon="5.75394">
        <ele>353.29</ele>
        <time>2018-11-10T14:57:56Z</time>
      </trkpt>
      <trkpt lat="45.11142" lon="5.75407">
        <ele>353.6</ele>
        <time>2018-11-10T14:57:57Z</time>
      </trkpt>
      <trkpt lat="45.11162" lon="5.7542">
        <ele>353.7</ele>
        <time>2018-11-10T14:57:58Z</time>
      </trkpt>
      <trkpt lat="45.11184" lon="5.75433">
        <ele>355.83</ele>
        <time>2018-11-10T14:57:59Z</time>
      </trkpt>
      <trkpt lat="45.11205" lon="5.75446">
        <ele>359.27</ele>
        <time>2018-11-10T14:58:00Z</time>
      </trkpt>
      <trkpt lat="45.11226" lon="5.7546">
        <ele>361.7</ele>
        <time>2018-11-10T14:58:01Z</time>
      </trkpt>
      <trkpt lat="45.11245" lon="5.75475">
        <ele>363.83</ele>
        <time>2018-11-10T14:58:02Z</time>
      </trkpt>
      <trkpt lat="45.11263" lon="5.75487">
        <ele>366.57</ele>
        <time>2018-11-10T14:58:03Z</time>
      </trkpt>
      <trkpt lat="45.11281" lon="5.75498">
        <ele>368.79</ele>
        <time>2018-11-10T14:58:04Z</time>
      </trkpt>
      <trkpt lat="45.11298" lon="5.75506">
        <ele>371.56</ele>
        <time>2018-11-10T14:58:05Z</time>
      </trkpt>
      <trkpt lat="45.11326" lon="5.75525">
        <ele>374.24</ele>
        <time>2018-11-10T14:58:07Z</time>
      </trkpt>
      <trkpt lat="45.11348" lon="5.75545">
        <ele>375.61</ele>
        <time>2018-11-10T14:58:09Z</time>
      </trkpt>
      <trkpt lat="45.11364" lon="5.75569">
        <ele>376.43</ele>
        <time>2018-11-10T14:58:11Z</time>
      </trkpt>
      <trkpt lat="45.11368" lon="5.756">
        <ele>379.23</ele>
        <time>2018-11-10T14:58:13Z</time>
      </trkpt>
      <trkpt lat="45.1138" lon="5.75625">
        <ele>383.83</ele>
        <time>2018-11-10T14:58:15Z</time>
      </trkpt>
      <trkpt lat="45.11394" lon="5.75646">
        <ele>385.36</ele>
        <time>2018-11-10T14:58:17Z</time>
      </trkpt>
      <trkpt lat="45.11408" lon="5.7567">
        <ele>385.01</ele>
        <time>2018-11-10T14:58:19Z</time>
      </trkpt>
      <trkpt lat="45.11426" lon="5.75692">
        <ele>385.67</ele>
        <time>2018-11-10T14:58:21Z</time>
      </trkpt>
      <trkpt lat="45.11444" lon="5.75706">
        <ele>387.35</ele>
        <time>2018-11-10T14:58:23Z</time>
      </trkpt>
      <trkpt lat="45.11466" lon="5.75717">
        <ele>386.1</ele>
        <time>2018-11-10T14:58:25Z</time>
      </trkpt>
      <trkpt lat="45.11489" lon="5.75729">
        <ele>385.77</ele>
        <time>2018-11-10T14:58:27Z</time>
      </trkpt>
      <trkpt lat="45.1151" lon="5.75743">
        <ele>385.74</ele>
        <time>2018-11-10T14:58:29Z</time>
      </trkpt>
      <trkpt lat="45.11529" lon="5.75757">
        <ele>385.74</ele>
        <time>2018-11-10T14:58:31Z</time>
      </trkpt>
      <trkpt lat="45.11549" lon="5.75769">
        <ele>385.74</ele>
        <time>2018-11-10T14:58:33Z</time>
      </trkpt>
      <trkpt lat="45.11571" lon="5.75784">
        <ele>387.14</ele>
        <time>2018-11-10T14:58:36Z</time>
      </trkpt>
      <trkpt lat="45.1159" lon="5.75804">
        <ele>387.79</ele>
        <time>2018-11-10T14:58:39Z</time>
      </trkpt>
      <trkpt lat="45.11602" lon="5.75825">
        <ele>389.9</ele>
        <time>2018-11-10T14:58:44Z</time>
      </trkpt>
      <trkpt lat="45.11602" lon="5.75854">
        <ele>389.82</ele>
        <time>2018-11-10T14:58:48Z</time>
      </trkpt>
      <trkpt lat="45.11602" lon="5.7588">
        <ele>389.96</ele>
        <time>2018-11-10T14:58:50Z</time>
      </trkpt>
      <trkpt lat="45.11598" lon="5.75912">
        <ele>389.55</ele>
        <time>2018-11-10T14:58:52Z</time>
      </trkpt>
      <trkpt lat="45.11594" lon="5.75941">
        <ele>389.72</ele>
        <time>2018-11-10T14:58:54Z</time>
      </trkpt>
      <trkpt lat="45.1159" lon="5.7597">
        <ele>391.35</ele>
        <time>2018-11-10T14:58:56Z</time>
      </trkpt>
      <trkpt lat="45.11594" lon="5.75998">
        <ele>391.01</ele>
        <time>2018-11-10T14:58:58Z</time>
      </trkpt>
      <trkpt lat="45.11614" lon="5.76011">
        <ele>390.97</ele>
        <time>2018-11-10T14:59:00Z</time>
      </trkpt>
      <trkpt lat="45.11651" lon="5.76">
        <ele>390.27</ele>
        <time>2018-11-10T14:59:02Z</time>
      </trkpt>
      <trkpt lat="45.1168" lon="5.76001">
        <ele>389.09</ele>
        <time>2018-11-10T14:59:04Z</time>
      </trkpt>
      <trkpt lat="45.11714" lon="5.76017">
        <ele>388.07</ele>
        <time>2018-11-10T14:59:06Z</time>
      </trkpt>
      <trkpt lat="45.11733" lon="5.76022">
        <ele>387.84</ele>
        <time>2018-11-10T14:59:07Z</time>
      </trkpt>
      <trkpt lat="45.11752" lon="5.76028">
        <ele>387.07</ele>
        <time>2018-11-10T14:59:08Z</time>
      </trkpt>
      <trkpt lat="45.11771" lon="5.76029">
        <ele>387.54</ele>
        <time>2018-11-10T14:59:09Z</time>
      </trkpt>
      <trkpt lat="45.1179" lon="5.76028">
        <ele>387.68</ele>
        <time>2018-11-10T14:59:10Z</time>
      </trkpt>
      <trkpt lat="45.11808" lon="5.76026">
        <ele>387.72</ele>
        <time>2018-11-10T14:59:11Z</time>
      </trkpt>
      <trkpt lat="45.11826" lon="5.76025">
        <ele>388.44</ele>
        <time>2018-11-10T14:59:12Z</time>
      </trkpt>
      <trkpt lat="45.11852" lon="5.76021">
        <ele>387.8</ele>
        <time>2018-11-10T14:59:14Z</time>
      </trkpt>
      <trkpt lat="45.11882" lon="5.76012">
        <ele>390.06</ele>
        <time>2018-11-10T14:59:16Z</time>
      </trkpt>
      <trkpt lat="45.1191" lon="5.76">
        <ele>390.89</ele>
        <time>2018-11-10T14:59:18Z</time>
      </trkpt>
      <trkpt lat="45.11939" lon="5.7599">
        <ele>388.23</ele>
        <time>2018-11-10T14:59:20Z</time>
      </trkpt>
      <trkpt lat="45.11965" lon="5.75982">
        <ele>385.27</ele>
        <time>2018-11-10T14:59:22Z</time>
      </trkpt>
      <trkpt lat="45.11991" lon="5.75971">
        <ele>385</ele>
        <time>2018-11-10T14:59:24Z</time>
      </trkpt>
      <trkpt lat="45.12017" lon="5.75964">
        <ele>384.76</ele>
        <time>2018-11-10T14:59:26Z</time>
      </trkpt>
      <trkpt lat="45.1205" lon="5.75959">
        <ele>384.53</ele>
        <time>2018-11-10T14:59:28Z</time>
      </trkpt>
      <trkpt lat="45.12068" lon="5.75957">
        <ele>383.98</ele>
        <time>2018-11-10T14:59:29Z</time>
      </trkpt>
      <trkpt lat="45.1209" lon="5.75958">
        <ele>383.11</ele>
        <time>2018-11-10T14:59:30Z</time>
      </trkpt>
      <trkpt lat="45.12109" lon="5.75958">
        <ele>382.15</ele>
        <time>2018-11-10T14:59:31Z</time>
      </trkpt>
      <trkpt lat="45.1213" lon="5.75962">
        <ele>381.86</ele>
        <time>2018-11-10T14:59:32Z</time>
      </trkpt>
      <trkpt lat="45.1215" lon="5.75966">
        <ele>381.78</ele>
        <time>2018-11-10T14:59:33Z</time>
      </trkpt>
      <trkpt lat="45.12172" lon="5.75969">
        <ele>381.75</ele>
        <time>2018-11-10T14:59:34Z</time>
      </trkpt>
      <trkpt lat="45.12193" lon="5.75962">
        <ele>381.04</ele>
        <time>2018-11-10T14:59:35Z</time>
      </trkpt>
      <trkpt lat="45.12213" lon="5.75959">
        <ele>380.83</ele>
        <time>2018-11-10T14:59:36Z</time>
      </trkpt>
      <trkpt lat="45.12232" lon="5.75962">
        <ele>380.77</ele>
        <time>2018-11-10T14:59:37Z</time>
      </trkpt>
      <trkpt lat="45.12252" lon="5.75964">
        <ele>381.45</ele>
        <time>2018-11-10T14:59:38Z</time>
      </trkpt>
      <trkpt lat="45.12275" lon="5.75971">
        <ele>381.65</ele>
        <time>2018-11-10T14:59:39Z</time>
      </trkpt>
      <trkpt lat="45.12298" lon="5.75974">
        <ele>381.01</ele>
        <time>2018-11-10T14:59:40Z</time>
      </trkpt>
      <trkpt lat="45.12318" lon="5.75974">
        <ele>380.82</ele>
        <time>2018-11-10T14:59:41Z</time>
      </trkpt>
      <trkpt lat="45.12355" lon="5.75972">
        <ele>380.54</ele>
        <time>2018-11-10T14:59:43Z</time>
      </trkpt>
      <trkpt lat="45.12376" lon="5.75972">
        <ele>379.98</ele>
        <time>2018-11-10T14:59:44Z</time>
      </trkpt>
      <trkpt lat="45.12411" lon="5.75982">
        <ele>378.64</ele>
        <time>2018-11-10T14:59:46Z</time>
      </trkpt>
      <trkpt lat="45.1243" lon="5.75985">
        <ele>378.01</ele>
        <time>2018-11-10T14:59:47Z</time>
      </trkpt>
      <trkpt lat="45.12449" lon="5.75993">
        <ele>378.52</ele>
        <time>2018-11-10T14:59:48Z</time>
      </trkpt>
      <trkpt lat="45.12471" lon="5.76009">
        <ele>378.68</ele>
        <time>2018-11-10T14:59:49Z</time>
      </trkpt>
      <trkpt lat="45.12491" lon="5.76026">
        <ele>378.72</ele>
        <time>2018-11-10T14:59:50Z</time>
      </trkpt>
      <trkpt lat="45.12509" lon="5.7604">
        <ele>380.14</ele>
        <time>2018-11-10T14:59:51Z</time>
      </trkpt>
      <trkpt lat="45.12526" lon="5.76053">
        <ele>379.16</ele>
        <time>2018-11-10T14:59:52Z</time>
      </trkpt>
      <trkpt lat="45.12545" lon="5.76062">
        <ele>379.57</ele>
        <time>2018-11-10T14:59:53Z</time>
      </trkpt>
      <trkpt lat="45.12566" lon="5.76074">
        <ele>380.39</ele>
        <time>2018-11-10T14:59:54Z</time>
      </trkpt>
      <trkpt lat="45.12584" lon="5.76087">
        <ele>380.64</ele>
        <time>2018-11-10T14:59:55Z</time>
      </trkpt>
      <trkpt lat="45.12606" lon="5.76099">
        <ele>380.71</ele>
        <time>2018-11-10T14:59:56Z</time>
      </trkpt>
      <trkpt lat="45.1262" lon="5.76114">
        <ele>380.03</ele>
        <time>2018-11-10T14:59:57Z</time>
      </trkpt>
      <trkpt lat="45.12643" lon="5.76133">
        <ele>379.13</ele>
        <time>2018-11-10T14:59:58Z</time>
      </trkpt>
      <trkpt lat="45.12662" lon="5.76144">
        <ele>378.16</ele>
        <time>2018-11-10T14:59:59Z</time>
      </trkpt>
      <trkpt lat="45.12682" lon="5.7616">
        <ele>376.47</ele>
        <time>2018-11-10T15:00:00Z</time>
      </trkpt>
      <trkpt lat="45.12698" lon="5.76177">
        <ele>374.56</ele>
        <time>2018-11-10T15:00:01Z</time>
      </trkpt>
      <trkpt lat="45.12717" lon="5.76191">
        <ele>373.29</ele>
        <time>2018-11-10T15:00:02Z</time>
      </trkpt>
      <trkpt lat="45.12736" lon="5.76212">
        <ele>372.9</ele>
        <time>2018-11-10T15:00:03Z</time>
      </trkpt>
      <trkpt lat="45.12756" lon="5.7623">
        <ele>372.09</ele>
        <time>2018-11-10T15:00:04Z</time>
      </trkpt>
      <trkpt lat="45.12774" lon="5.76248">
        <ele>370.45</ele>
        <time>2018-11-10T15:00:05Z</time>
      </trkpt>
      <trkpt lat="45.12789" lon="5.76268">
        <ele>371.35</ele>
        <time>2018-11-10T15:00:06Z</time>
      </trkpt>
      <trkpt lat="45.1281" lon="5.76306">
        <ele>369.19</ele>
        <time>2018-11-10T15:00:08Z</time>
      </trkpt>
      <trkpt lat="45.1283" lon="5.76333">
        <ele>367.38</ele>
        <time>2018-11-10T15:00:10Z</time>
      </trkpt>
      <trkpt lat="45.12853" lon="5.76361">
        <ele>365.68</ele>
        <time>2018-11-10T15:00:12Z</time>
      </trkpt>
      <trkpt lat="45.12873" lon="5.76375">
        <ele>367.12</ele>
        <time>2018-11-10T15:00:13Z</time>
      </trkpt>
      <trkpt lat="45.1289" lon="5.76391">
        <ele>366.86</ele>
        <time>2018-11-10T15:00:14Z</time>
      </trkpt>
      <trkpt lat="45.12907" lon="5.76408">
        <ele>367.48</ele>
        <time>2018-11-10T15:00:15Z</time>
      </trkpt>
      <trkpt lat="45.12924" lon="5.76424">
        <ele>367.66</ele>
        <time>2018-11-10T15:00:16Z</time>
      </trkpt>
      <trkpt lat="45.12941" lon="5.76439">
        <ele>367.72</ele>
        <time>2018-11-10T15:00:17Z</time>
      </trkpt>
      <trkpt lat="45.12958" lon="5.76454">
        <ele>368.43</ele>
        <time>2018-11-10T15:00:18Z</time>
      </trkpt>
      <trkpt lat="45.12976" lon="5.76469">
        <ele>367.95</ele>
        <time>2018-11-10T15:00:19Z</time>
      </trkpt>
      <trkpt lat="45.12993" lon="5.76483">
        <ele>367.8</ele>
        <time>2018-11-10T15:00:20Z</time>
      </trkpt>
      <trkpt lat="45.13009" lon="5.76497">
        <ele>367.06</ele>
        <time>2018-11-10T15:00:21Z</time>
      </trkpt>
      <trkpt lat="45.13024" lon="5.76512">
        <ele>366.14</ele>
        <time>2018-11-10T15:00:22Z</time>
      </trkpt>
      <trkpt lat="45.13043" lon="5.76524">
        <ele>366.56</ele>
        <time>2018-11-10T15:00:23Z</time>
      </trkpt>
      <trkpt lat="45.13062" lon="5.76537">
        <ele>366.69</ele>
        <time>2018-11-10T15:00:24Z</time>
      </trkpt>
      <trkpt lat="45.1308" lon="5.7655">
        <ele>366.72</ele>
        <time>2018-11-10T15:00:25Z</time>
      </trkpt>
      <trkpt lat="45.13099" lon="5.76562">
        <ele>367.44</ele>
        <time>2018-11-10T15:00:26Z</time>
      </trkpt>
      <trkpt lat="45.13117" lon="5.76576">
        <ele>367.65</ele>
        <time>2018-11-10T15:00:27Z</time>
      </trkpt>
      <trkpt lat="45.13135" lon="5.76588">
        <ele>367.71</ele>
        <time>2018-11-10T15:00:28Z</time>
      </trkpt>
      <trkpt lat="45.13153" lon="5.76601">
        <ele>367.73</ele>
        <time>2018-11-10T15:00:29Z</time>
      </trkpt>
      <trkpt lat="45.13171" lon="5.76615">
        <ele>368.44</ele>
        <time>2018-11-10T15:00:30Z</time>
      </trkpt>
      <trkpt lat="45.13188" lon="5.7663">
        <ele>368.65</ele>
        <time>2018-11-10T15:00:31Z</time>
      </trkpt>
      <trkpt lat="45.13205" lon="5.76643">
        <ele>368.71</ele>
        <time>2018-11-10T15:00:32Z</time>
      </trkpt>
      <trkpt lat="45.13223" lon="5.76657">
        <ele>368.73</ele>
        <time>2018-11-10T15:00:33Z</time>
      </trkpt>
      <trkpt lat="45.13241" lon="5.76672">
        <ele>368.74</ele>
        <time>2018-11-10T15:00:34Z</time>
      </trkpt>
      <trkpt lat="45.13258" lon="5.76687">
        <ele>369.44</ele>
        <time>2018-11-10T15:00:35Z</time>
      </trkpt>
      <trkpt lat="45.13274" lon="5.76702">
        <ele>369.65</ele>
        <time>2018-11-10T15:00:36Z</time>
      </trkpt>
      <trkpt lat="45.13289" lon="5.76717">
        <ele>369.71</ele>
        <time>2018-11-10T15:00:37Z</time>
      </trkpt>
      <trkpt lat="45.13314" lon="5.76753">
        <ele>369.04</ele>
        <time>2018-11-10T15:00:39Z</time>
      </trkpt>
      <trkpt lat="45.13334" lon="5.76796">
        <ele>367.86</ele>
        <time>2018-11-10T15:00:41Z</time>
      </trkpt>
      <trkpt lat="45.13341" lon="5.76823">
        <ele>367.08</ele>
        <time>2018-11-10T15:00:42Z</time>
      </trkpt>
      <trkpt lat="45.1335" lon="5.76845">
        <ele>365.44</ele>
        <time>2018-11-10T15:00:43Z</time>
      </trkpt>
      <trkpt lat="45.13357" lon="5.76872">
        <ele>364.25</ele>
        <time>2018-11-10T15:00:44Z</time>
      </trkpt>
      <trkpt lat="45.13365" lon="5.76899">
        <ele>363.19</ele>
        <time>2018-11-10T15:00:45Z</time>
      </trkpt>
      <trkpt lat="45.13372" lon="5.76925">
        <ele>361.48</ele>
        <time>2018-11-10T15:00:46Z</time>
      </trkpt>
      <trkpt lat="45.13381" lon="5.76949">
        <ele>359.56</ele>
        <time>2018-11-10T15:00:47Z</time>
      </trkpt>
      <trkpt lat="45.13391" lon="5.76975">
        <ele>358.99</ele>
        <time>2018-11-10T15:00:48Z</time>
      </trkpt>
      <trkpt lat="45.13401" lon="5.76998">
        <ele>358.81</ele>
        <time>2018-11-10T15:00:49Z</time>
      </trkpt>
      <trkpt lat="45.13413" lon="5.77018">
        <ele>358.06</ele>
        <time>2018-11-10T15:00:50Z</time>
      </trkpt>
      <trkpt lat="45.13437" lon="5.77053">
        <ele>358.47</ele>
        <time>2018-11-10T15:00:52Z</time>
      </trkpt>
      <trkpt lat="45.13458" lon="5.77082">
        <ele>358.51</ele>
        <time>2018-11-10T15:00:54Z</time>
      </trkpt>
      <trkpt lat="45.13479" lon="5.77106">
        <ele>358.72</ele>
        <time>2018-11-10T15:00:56Z</time>
      </trkpt>
      <trkpt lat="45.13502" lon="5.77121">
        <ele>358.74</ele>
        <time>2018-11-10T15:00:58Z</time>
      </trkpt>
      <trkpt lat="45.1352" lon="5.77141">
        <ele>359.44</ele>
        <time>2018-11-10T15:01:00Z</time>
      </trkpt>
      <trkpt lat="45.13528" lon="5.77171">
        <ele>357.85</ele>
        <time>2018-11-10T15:01:03Z</time>
      </trkpt>
      <trkpt lat="45.13538" lon="5.77193">
        <ele>356.77</ele>
        <time>2018-11-10T15:01:06Z</time>
      </trkpt>
      <trkpt lat="45.13557" lon="5.77197">
        <ele>357.65</ele>
        <time>2018-11-10T15:01:09Z</time>
      </trkpt>
      <trkpt lat="45.13568" lon="5.77174">
        <ele>354.88</ele>
        <time>2018-11-10T15:01:12Z</time>
      </trkpt>
      <trkpt lat="45.13568" lon="5.77146">
        <ele>356.35</ele>
        <time>2018-11-10T15:01:15Z</time>
      </trkpt>
      <trkpt lat="45.13573" lon="5.77116">
        <ele>355.33</ele>
        <time>2018-11-10T15:01:18Z</time>
      </trkpt>
      <trkpt lat="45.13588" lon="5.77091">
        <ele>354.79</ele>
        <time>2018-11-10T15:01:20Z</time>
      </trkpt>
      <trkpt lat="45.136" lon="5.77065">
        <ele>353.84</ele>
        <time>2018-11-10T15:01:22Z</time>
      </trkpt>
      <trkpt lat="45.13616" lon="5.77043">
        <ele>355.15</ele>
        <time>2018-11-10T15:01:24Z</time>
      </trkpt>
      <trkpt lat="45.13633" lon="5.77021">
        <ele>357.3</ele>
        <time>2018-11-10T15:01:26Z</time>
      </trkpt>
      <trkpt lat="45.1365" lon="5.76995">
        <ele>357.94</ele>
        <time>2018-11-10T15:01:29Z</time>
      </trkpt>
      <trkpt lat="45.13666" lon="5.7698">
        <ele>359.42</ele>
        <time>2018-11-10T15:01:32Z</time>
      </trkpt>
      <trkpt lat="45.13692" lon="5.76973">
        <ele>359.04</ele>
        <time>2018-11-10T15:01:36Z</time>
      </trkpt>
      <trkpt lat="45.13714" lon="5.7697">
        <ele>360.36</ele>
        <time>2018-11-10T15:01:39Z</time>
      </trkpt>
      <trkpt lat="45.13736" lon="5.76968">
        <ele>362.55</ele>
        <time>2018-11-10T15:01:42Z</time>
      </trkpt>
      <trkpt lat="45.13764" lon="5.76966">
        <ele>361.83</ele>
        <time>2018-11-10T15:01:45Z</time>
      </trkpt>
      <trkpt lat="45.13789" lon="5.76964">
        <ele>359.65</ele>
        <time>2018-11-10T15:01:47Z</time>
      </trkpt>
      <trkpt lat="45.13815" lon="5.76963">
        <ele>357.21</ele>
        <time>2018-11-10T15:01:49Z</time>
      </trkpt>
      <trkpt lat="45.1384" lon="5.7696">
        <ele>355.17</ele>
        <time>2018-11-10T15:01:51Z</time>
      </trkpt>
      <trkpt lat="45.13875" lon="5.76959">
        <ele>353.38</ele>
        <time>2018-11-10T15:01:53Z</time>
      </trkpt>
      <trkpt lat="45.13912" lon="5.76965">
        <ele>352.8</ele>
        <time>2018-11-10T15:01:55Z</time>
      </trkpt>
      <trkpt lat="45.13932" lon="5.76967">
        <ele>352.76</ele>
        <time>2018-11-10T15:01:56Z</time>
      </trkpt>
      <trkpt lat="45.13953" lon="5.76969">
        <ele>353.45</ele>
        <time>2018-11-10T15:01:57Z</time>
      </trkpt>
      <trkpt lat="45.13974" lon="5.76969">
        <ele>353.65</ele>
        <time>2018-11-10T15:01:58Z</time>
      </trkpt>
      <trkpt lat="45.14005" lon="5.76973">
        <ele>352.82</ele>
        <time>2018-11-10T15:02:00Z</time>
      </trkpt>
      <trkpt lat="45.14029" lon="5.76975">
        <ele>353.24</ele>
        <time>2018-11-10T15:02:02Z</time>
      </trkpt>
      <trkpt lat="45.14055" lon="5.76977">
        <ele>352.79</ele>
        <time>2018-11-10T15:02:04Z</time>
      </trkpt>
      <trkpt lat="45.1408" lon="5.76976">
        <ele>352.05</ele>
        <time>2018-11-10T15:02:06Z</time>
      </trkpt>
      <trkpt lat="45.14105" lon="5.76975">
        <ele>351.07</ele>
        <time>2018-11-10T15:02:08Z</time>
      </trkpt>
      <trkpt lat="45.1413" lon="5.76975">
        <ele>348.25</ele>
        <time>2018-11-10T15:02:10Z</time>
      </trkpt>
      <trkpt lat="45.14156" lon="5.76972">
        <ele>346.88</ele>
        <time>2018-11-10T15:02:12Z</time>
      </trkpt>
      <trkpt lat="45.14187" lon="5.76968">
        <ele>346.05</ele>
        <time>2018-11-10T15:02:14Z</time>
      </trkpt>
      <trkpt lat="45.14222" lon="5.76968">
        <ele>344.37</ele>
        <time>2018-11-10T15:02:16Z</time>
      </trkpt>
      <trkpt lat="45.14252" lon="5.76963">
        <ele>342.4</ele>
        <time>2018-11-10T15:02:18Z</time>
      </trkpt>
      <trkpt lat="45.14282" lon="5.76967">
        <ele>341.8</ele>
        <time>2018-11-10T15:02:20Z</time>
      </trkpt>
      <trkpt lat="45.143" lon="5.76974">
        <ele>340.36</ele>
        <time>2018-11-10T15:02:21Z</time>
      </trkpt>
      <trkpt lat="45.14327" lon="5.76983">
        <ele>340.01</ele>
        <time>2018-11-10T15:02:23Z</time>
      </trkpt>
      <trkpt lat="45.14353" lon="5.76983">
        <ele>339.06</ele>
        <time>2018-11-10T15:02:25Z</time>
      </trkpt>
      <trkpt lat="45.14384" lon="5.76972">
        <ele>338.77</ele>
        <time>2018-11-10T15:02:27Z</time>
      </trkpt>
      <trkpt lat="45.14415" lon="5.76959">
        <ele>339.44</ele>
        <time>2018-11-10T15:02:29Z</time>
      </trkpt>
      <trkpt lat="45.14446" lon="5.76943">
        <ele>339.71</ele>
        <time>2018-11-10T15:02:31Z</time>
      </trkpt>
      <trkpt lat="45.14471" lon="5.76913">
        <ele>339.74</ele>
        <time>2018-11-10T15:02:33Z</time>
      </trkpt>
      <trkpt lat="45.14492" lon="5.76881">
        <ele>339.53</ele>
        <time>2018-11-10T15:02:35Z</time>
      </trkpt>
      <trkpt lat="45.1452" lon="5.76845">
        <ele>338.81</ele>
        <time>2018-11-10T15:02:37Z</time>
      </trkpt>
      <trkpt lat="45.14527" lon="5.76812">
        <ele>335.95</ele>
        <time>2018-11-10T15:02:39Z</time>
      </trkpt>
      <trkpt lat="45.14544" lon="5.76775">
        <ele>335.55</ele>
        <time>2018-11-10T15:02:41Z</time>
      </trkpt>
      <trkpt lat="45.14559" lon="5.76737">
        <ele>334.32</ele>
        <time>2018-11-10T15:02:43Z</time>
      </trkpt>
      <trkpt lat="45.14574" lon="5.76696">
        <ele>334.7</ele>
        <time>2018-11-10T15:02:45Z</time>
      </trkpt>
      <trkpt lat="45.1459" lon="5.76658">
        <ele>334.46</ele>
        <time>2018-11-10T15:02:47Z</time>
      </trkpt>
      <trkpt lat="45.14608" lon="5.76622">
        <ele>332.41</ele>
        <time>2018-11-10T15:02:49Z</time>
      </trkpt>
      <trkpt lat="45.14625" lon="5.76588">
        <ele>332.5</ele>
        <time>2018-11-10T15:02:51Z</time>
      </trkpt>
      <trkpt lat="45.14643" lon="5.76557">
        <ele>332.72</ele>
        <time>2018-11-10T15:02:53Z</time>
      </trkpt>
      <trkpt lat="45.14669" lon="5.76527">
        <ele>332.04</ele>
        <time>2018-11-10T15:02:55Z</time>
      </trkpt>
      <trkpt lat="45.14695" lon="5.76504">
        <ele>331.07</ele>
        <time>2018-11-10T15:02:57Z</time>
      </trkpt>
      <trkpt lat="45.1472" lon="5.76479">
        <ele>329.58</ele>
        <time>2018-11-10T15:02:59Z</time>
      </trkpt>
      <trkpt lat="45.14738" lon="5.76443">
        <ele>328.82</ele>
        <time>2018-11-10T15:03:01Z</time>
      </trkpt>
      <trkpt lat="45.14753" lon="5.76401">
        <ele>327.35</ele>
        <time>2018-11-10T15:03:03Z</time>
      </trkpt>
      <trkpt lat="45.1477" lon="5.76356">
        <ele>325.4</ele>
        <time>2018-11-10T15:03:05Z</time>
      </trkpt>
      <trkpt lat="45.1479" lon="5.76322">
        <ele>324.1</ele>
        <time>2018-11-10T15:03:07Z</time>
      </trkpt>
      <trkpt lat="45.14807" lon="5.7629">
        <ele>323.77</ele>
        <time>2018-11-10T15:03:09Z</time>
      </trkpt>
      <trkpt lat="45.14816" lon="5.7625">
        <ele>321.64</ele>
        <time>2018-11-10T15:03:11Z</time>
      </trkpt>
      <trkpt lat="45.14821" lon="5.76205">
        <ele>318.09</ele>
        <time>2018-11-10T15:03:13Z</time>
      </trkpt>
      <trkpt lat="45.14827" lon="5.76174">
        <ele>311.47</ele>
        <time>2018-11-10T15:03:15Z</time>
      </trkpt>
      <trkpt lat="45.14829" lon="5.7614">
        <ele>306.89</ele>
        <time>2018-11-10T15:03:17Z</time>
      </trkpt>
      <trkpt lat="45.14828" lon="5.76105">
        <ele>302.62</ele>
        <time>2018-11-10T15:03:19Z</time>
      </trkpt>
      <trkpt lat="45.14827" lon="5.7607">
        <ele>300.21</ele>
        <time>2018-11-10T15:03:21Z</time>
      </trkpt>
      <trkpt lat="45.14827" lon="5.76038">
        <ele>298.17</ele>
        <time>2018-11-10T15:03:23Z</time>
      </trkpt>
      <trkpt lat="45.14824" lon="5.76">
        <ele>296.38</ele>
        <time>2018-11-10T15:03:25Z</time>
      </trkpt>
      <trkpt lat="45.14821" lon="5.75968">
        <ele>293.77</ele>
        <time>2018-11-10T15:03:27Z</time>
      </trkpt>
      <trkpt lat="45.1481" lon="5.75935">
        <ele>289.4</ele>
        <time>2018-11-10T15:03:29Z</time>
      </trkpt>
      <trkpt lat="45.14803" lon="5.75901">
        <ele>287.89</ele>
        <time>2018-11-10T15:03:31Z</time>
      </trkpt>
      <trkpt lat="45.14794" lon="5.75868">
        <ele>287.75</ele>
        <time>2018-11-10T15:03:33Z</time>
      </trkpt>
      <trkpt lat="45.14785" lon="5.75837">
        <ele>285.43</ele>
        <time>2018-11-10T15:03:35Z</time>
      </trkpt>
      <trkpt lat="45.14775" lon="5.75807">
        <ele>280.88</ele>
        <time>2018-11-10T15:03:37Z</time>
      </trkpt>
      <trkpt lat="45.14766" lon="5.75774">
        <ele>277.32</ele>
        <time>2018-11-10T15:03:39Z</time>
      </trkpt>
      <trkpt lat="45.14757" lon="5.75742">
        <ele>276.79</ele>
        <time>2018-11-10T15:03:41Z</time>
      </trkpt>
      <trkpt lat="45.1475" lon="5.75712">
        <ele>273.32</ele>
        <time>2018-11-10T15:03:43Z</time>
      </trkpt>
      <trkpt lat="45.14741" lon="5.75681">
        <ele>272.79</ele>
        <time>2018-11-10T15:03:45Z</time>
      </trkpt>
      <trkpt lat="45.14732" lon="5.7565">
        <ele>270.44</ele>
        <time>2018-11-10T15:03:47Z</time>
      </trkpt>
      <trkpt lat="45.14728" lon="5.75623">
        <ele>267.98</ele>
        <time>2018-11-10T15:03:49Z</time>
      </trkpt>
      <trkpt lat="45.14726" lon="5.75593">
        <ele>267.55</ele>
        <time>2018-11-10T15:03:51Z</time>
      </trkpt>
      <trkpt lat="45.14725" lon="5.75566">
        <ele>268.42</ele>
        <time>2018-11-10T15:03:53Z</time>
      </trkpt>
      <trkpt lat="45.14728" lon="5.75535">
        <ele>268.03</ele>
        <time>2018-11-10T15:03:56Z</time>
      </trkpt>
      <trkpt lat="45.14735" lon="5.75507">
        <ele>263.92</ele>
        <time>2018-11-10T15:03:59Z</time>
      </trkpt>
      <trkpt lat="45.14732" lon="5.75469">
        <ele>264.93</ele>
        <time>2018-11-10T15:04:02Z</time>
      </trkpt>
      <trkpt lat="45.14733" lon="5.75439">
        <ele>264.27</ele>
        <time>2018-11-10T15:04:04Z</time>
      </trkpt>
      <trkpt lat="45.14738" lon="5.75405">
        <ele>263.79</ele>
        <time>2018-11-10T15:04:06Z</time>
      </trkpt>
      <trkpt lat="45.14747" lon="5.75371">
        <ele>263.05</ele>
        <time>2018-11-10T15:04:08Z</time>
      </trkpt>
      <trkpt lat="45.14759" lon="5.75334">
        <ele>260.95</ele>
        <time>2018-11-10T15:04:10Z</time>
      </trkpt>
      <trkpt lat="45.14771" lon="5.753">
        <ele>260.76</ele>
        <time>2018-11-10T15:04:12Z</time>
      </trkpt>
      <trkpt lat="45.14783" lon="5.75267">
        <ele>260.74</ele>
        <time>2018-11-10T15:04:14Z</time>
      </trkpt>
      <trkpt lat="45.14794" lon="5.75235">
        <ele>258.43</ele>
        <time>2018-11-10T15:04:16Z</time>
      </trkpt>
      <trkpt lat="45.14806" lon="5.75204">
        <ele>256.89</ele>
        <time>2018-11-10T15:04:18Z</time>
      </trkpt>
      <trkpt lat="45.14819" lon="5.75173">
        <ele>256.54</ele>
        <time>2018-11-10T15:04:20Z</time>
      </trkpt>
      <trkpt lat="45.14831" lon="5.75143">
        <ele>255.81</ele>
        <time>2018-11-10T15:04:22Z</time>
      </trkpt>
      <trkpt lat="45.14841" lon="5.75116">
        <ele>255.75</ele>
        <time>2018-11-10T15:04:24Z</time>
      </trkpt>
      <trkpt lat="45.14853" lon="5.75095">
        <ele>253.83</ele>
        <time>2018-11-10T15:04:29Z</time>
      </trkpt>
      <trkpt lat="45.14869" lon="5.75083">
        <ele>251.06</ele>
        <time>2018-11-10T15:04:33Z</time>
      </trkpt>
      <trkpt lat="45.14886" lon="5.75072">
        <ele>248.87</ele>
        <time>2018-11-10T15:04:36Z</time>
      </trkpt>
      <trkpt lat="45.14904" lon="5.75059">
        <ele>246.84</ele>
        <time>2018-11-10T15:04:40Z</time>
      </trkpt>
      <trkpt lat="45.14923" lon="5.75049">
        <ele>242.86</ele>
        <time>2018-11-10T15:04:47Z</time>
      </trkpt>
      <trkpt lat="45.14943" lon="5.75038">
        <ele>242.31</ele>
        <time>2018-11-10T15:04:51Z</time>
      </trkpt>
      <trkpt lat="45.14962" lon="5.75028">
        <ele>242.91</ele>
        <time>2018-11-10T15:04:53Z</time>
      </trkpt>
      <trkpt lat="45.14982" lon="5.7502">
        <ele>242.27</ele>
        <time>2018-11-10T15:04:55Z</time>
      </trkpt>
      <trkpt lat="45.15001" lon="5.75011">
        <ele>242.49</ele>
        <time>2018-11-10T15:04:57Z</time>
      </trkpt>
      <trkpt lat="45.15023" lon="5.75002">
        <ele>243.63</ele>
        <time>2018-11-10T15:04:59Z</time>
      </trkpt>
      <trkpt lat="45.15042" lon="5.74992">
        <ele>246.32</ele>
        <time>2018-11-10T15:05:01Z</time>
      </trkpt>
      <trkpt lat="45.1506" lon="5.74985">
        <ele>246.77</ele>
        <time>2018-11-10T15:05:03Z</time>
      </trkpt>
      <trkpt lat="45.15087" lon="5.74972">
        <ele>244.25</ele>
        <time>2018-11-10T15:05:06Z</time>
      </trkpt>
      <trkpt lat="45.15105" lon="5.74963">
        <ele>243.16</ele>
        <time>2018-11-10T15:05:08Z</time>
      </trkpt>
      <trkpt lat="45.15128" lon="5.7495">
        <ele>239.71</ele>
        <time>2018-11-10T15:05:11Z</time>
      </trkpt>
      <trkpt lat="45.15145" lon="5.7494">
        <ele>238.2</ele>
        <time>2018-11-10T15:05:13Z</time>
      </trkpt>
      <trkpt lat="45.15162" lon="5.74931">
        <ele>237.15</ele>
        <time>2018-11-10T15:05:15Z</time>
      </trkpt>
      <trkpt lat="45.1518" lon="5.74922">
        <ele>235.45</ele>
        <time>2018-11-10T15:05:17Z</time>
      </trkpt>
      <trkpt lat="45.15199" lon="5.74914">
        <ele>235.29</ele>
        <time>2018-11-10T15:05:19Z</time>
      </trkpt>
      <trkpt lat="45.15217" lon="5.74903">
        <ele>235.07</ele>
        <time>2018-11-10T15:05:21Z</time>
      </trkpt>
      <trkpt lat="45.15241" lon="5.74892">
        <ele>231.49</ele>
        <time>2018-11-10T15:05:24Z</time>
      </trkpt>
      <trkpt lat="45.15259" lon="5.74888">
        <ele>230.02</ele>
        <time>2018-11-10T15:05:31Z</time>
      </trkpt>
      <trkpt lat="45.15279" lon="5.74875">
        <ele>236.76</ele>
        <time>2018-11-10T15:05:59Z</time>
      </trkpt>
      <trkpt lat="45.15301" lon="5.74864">
        <ele>233.76</ele>
        <time>2018-11-10T15:06:02Z</time>
      </trkpt>
      <trkpt lat="45.15325" lon="5.74852">
        <ele>233.99</ele>
        <time>2018-11-10T15:06:05Z</time>
      </trkpt>
      <trkpt lat="45.15343" lon="5.74842">
        <ele>235.86</ele>
        <time>2018-11-10T15:06:07Z</time>
      </trkpt>
      <trkpt lat="45.15364" lon="5.74831">
        <ele>236.03</ele>
        <time>2018-11-10T15:06:09Z</time>
      </trkpt>
      <trkpt lat="45.15386" lon="5.74821">
        <ele>236.26</ele>
        <time>2018-11-10T15:06:11Z</time>
      </trkpt>
      <trkpt lat="45.15403" lon="5.74812">
        <ele>236.07</ele>
        <time>2018-11-10T15:06:13Z</time>
      </trkpt>
      <trkpt lat="45.15422" lon="5.74806">
        <ele>235.84</ele>
        <time>2018-11-10T15:06:15Z</time>
      </trkpt>
      <trkpt lat="45.15439" lon="5.74797">
        <ele>235.33</ele>
        <time>2018-11-10T15:06:17Z</time>
      </trkpt>
      <trkpt lat="45.15463" lon="5.74789">
        <ele>235.06</ele>
        <time>2018-11-10T15:06:20Z</time>
      </trkpt>
      <trkpt lat="45.15485" lon="5.74781">
        <ele>235.75</ele>
        <time>2018-11-10T15:06:22Z</time>
      </trkpt>
      <trkpt lat="45.15506" lon="5.74773">
        <ele>234.41</ele>
        <time>2018-11-10T15:06:24Z</time>
      </trkpt>
      <trkpt lat="45.15534" lon="5.74768">
        <ele>234.08</ele>
        <time>2018-11-10T15:06:26Z</time>
      </trkpt>
      <trkpt lat="45.15562" lon="5.74766">
        <ele>234.96</ele>
        <time>2018-11-10T15:06:28Z</time>
      </trkpt>
      <trkpt lat="45.15589" lon="5.74764">
        <ele>234.34</ele>
        <time>2018-11-10T15:06:30Z</time>
      </trkpt>
      <trkpt lat="45.15618" lon="5.74763">
        <ele>232.47</ele>
        <time>2018-11-10T15:06:32Z</time>
      </trkpt>
      <trkpt lat="45.15643" lon="5.7477">
        <ele>229.57</ele>
        <time>2018-11-10T15:06:34Z</time>
      </trkpt>
      <trkpt lat="45.15669" lon="5.74796">
        <ele>229.1</ele>
        <time>2018-11-10T15:06:36Z</time>
      </trkpt>
      <trkpt lat="45.15696" lon="5.74823">
        <ele>227.44</ele>
        <time>2018-11-10T15:06:38Z</time>
      </trkpt>
      <trkpt lat="45.15712" lon="5.74839">
        <ele>227.17</ele>
        <time>2018-11-10T15:06:39Z</time>
      </trkpt>
      <trkpt lat="45.15729" lon="5.74854">
        <ele>227.08</ele>
        <time>2018-11-10T15:06:40Z</time>
      </trkpt>
      <trkpt lat="45.15744" lon="5.74872">
        <ele>227.06</ele>
        <time>2018-11-10T15:06:41Z</time>
      </trkpt>
      <trkpt lat="45.1576" lon="5.74888">
        <ele>227.05</ele>
        <time>2018-11-10T15:06:42Z</time>
      </trkpt>
      <trkpt lat="45.15776" lon="5.74905">
        <ele>226.35</ele>
        <time>2018-11-10T15:06:43Z</time>
      </trkpt>
      <trkpt lat="45.15791" lon="5.74923">
        <ele>226.14</ele>
        <time>2018-11-10T15:06:44Z</time>
      </trkpt>
      <trkpt lat="45.15809" lon="5.74941">
        <ele>226.78</ele>
        <time>2018-11-10T15:06:45Z</time>
      </trkpt>
      <trkpt lat="45.15828" lon="5.74961">
        <ele>226.97</ele>
        <time>2018-11-10T15:06:46Z</time>
      </trkpt>
      <trkpt lat="45.15846" lon="5.74979">
        <ele>226.32</ele>
        <time>2018-11-10T15:06:47Z</time>
      </trkpt>
      <trkpt lat="45.15864" lon="5.74997">
        <ele>226.13</ele>
        <time>2018-11-10T15:06:48Z</time>
      </trkpt>
      <trkpt lat="45.15881" lon="5.75014">
        <ele>225.16</ele>
        <time>2018-11-10T15:06:49Z</time>
      </trkpt>
      <trkpt lat="45.15896" lon="5.75031">
        <ele>224.17</ele>
        <time>2018-11-10T15:06:50Z</time>
      </trkpt>
      <trkpt lat="45.15911" lon="5.75048">
        <ele>223.87</ele>
        <time>2018-11-10T15:06:51Z</time>
      </trkpt>
      <trkpt lat="45.15926" lon="5.75064">
        <ele>223.08</ele>
        <time>2018-11-10T15:06:52Z</time>
      </trkpt>
      <trkpt lat="45.1594" lon="5.7508">
        <ele>222.14</ele>
        <time>2018-11-10T15:06:53Z</time>
      </trkpt>
      <trkpt lat="45.15955" lon="5.75095">
        <ele>221.86</ele>
        <time>2018-11-10T15:06:54Z</time>
      </trkpt>
      <trkpt lat="45.15971" lon="5.75111">
        <ele>222.48</ele>
        <time>2018-11-10T15:06:55Z</time>
      </trkpt>
      <trkpt lat="45.15988" lon="5.75128">
        <ele>223.36</ele>
        <time>2018-11-10T15:06:56Z</time>
      </trkpt>
      <trkpt lat="45.16005" lon="5.75146">
        <ele>223.63</ele>
        <time>2018-11-10T15:06:57Z</time>
      </trkpt>
      <trkpt lat="45.16022" lon="5.75164">
        <ele>223.71</ele>
        <time>2018-11-10T15:06:58Z</time>
      </trkpt>
      <trkpt lat="45.16037" lon="5.75181">
        <ele>223.03</ele>
        <time>2018-11-10T15:06:59Z</time>
      </trkpt>
      <trkpt lat="45.16053" lon="5.75199">
        <ele>223.53</ele>
        <time>2018-11-10T15:07:00Z</time>
      </trkpt>
      <trkpt lat="45.16068" lon="5.75217">
        <ele>222.98</ele>
        <time>2018-11-10T15:07:01Z</time>
      </trkpt>
      <trkpt lat="45.16084" lon="5.75235">
        <ele>222.81</ele>
        <time>2018-11-10T15:07:02Z</time>
      </trkpt>
      <trkpt lat="45.16099" lon="5.75252">
        <ele>222.76</ele>
        <time>2018-11-10T15:07:03Z</time>
      </trkpt>
      <trkpt lat="45.16115" lon="5.7527">
        <ele>222.75</ele>
        <time>2018-11-10T15:07:04Z</time>
      </trkpt>
      <trkpt lat="45.1613" lon="5.75289">
        <ele>222.74</ele>
        <time>2018-11-10T15:07:05Z</time>
      </trkpt>
      <trkpt lat="45.16146" lon="5.75308">
        <ele>222.74</ele>
        <time>2018-11-10T15:07:06Z</time>
      </trkpt>
      <trkpt lat="45.16162" lon="5.75326">
        <ele>222.74</ele>
        <time>2018-11-10T15:07:07Z</time>
      </trkpt>
      <trkpt lat="45.16178" lon="5.75343">
        <ele>222.74</ele>
        <time>2018-11-10T15:07:08Z</time>
      </trkpt>
      <trkpt lat="45.16193" lon="5.75359">
        <ele>222.74</ele>
        <time>2018-11-10T15:07:09Z</time>
      </trkpt>
      <trkpt lat="45.16208" lon="5.75377">
        <ele>222.04</ele>
        <time>2018-11-10T15:07:10Z</time>
      </trkpt>
      <trkpt lat="45.16223" lon="5.75393">
        <ele>222.53</ele>
        <time>2018-11-10T15:07:11Z</time>
      </trkpt>
      <trkpt lat="45.16237" lon="5.75409">
        <ele>222.68</ele>
        <time>2018-11-10T15:07:12Z</time>
      </trkpt>
      <trkpt lat="45.16253" lon="5.75425">
        <ele>222.02</ele>
        <time>2018-11-10T15:07:13Z</time>
      </trkpt>
      <trkpt lat="45.16281" lon="5.75458">
        <ele>221.07</ele>
        <time>2018-11-10T15:07:15Z</time>
      </trkpt>
      <trkpt lat="45.16295" lon="5.75474">
        <ele>220.84</ele>
        <time>2018-11-10T15:07:16Z</time>
      </trkpt>
      <trkpt lat="45.1632" lon="5.75505">
        <ele>219.14</ele>
        <time>2018-11-10T15:07:18Z</time>
      </trkpt>
      <trkpt lat="45.16337" lon="5.75516">
        <ele>216.76</ele>
        <time>2018-11-10T15:07:19Z</time>
      </trkpt>
      <trkpt lat="45.16351" lon="5.75534">
        <ele>216.05</ele>
        <time>2018-11-10T15:07:20Z</time>
      </trkpt>
      <trkpt lat="45.16366" lon="5.75551">
        <ele>215.13</ele>
        <time>2018-11-10T15:07:21Z</time>
      </trkpt>
      <trkpt lat="45.16385" lon="5.75568">
        <ele>214.86</ele>
        <time>2018-11-10T15:07:22Z</time>
      </trkpt>
      <trkpt lat="45.16398" lon="5.75586">
        <ele>214.78</ele>
        <time>2018-11-10T15:07:23Z</time>
      </trkpt>
      <trkpt lat="45.16414" lon="5.75603">
        <ele>211.95</ele>
        <time>2018-11-10T15:07:24Z</time>
      </trkpt>
      <trkpt lat="45.1643" lon="5.75621">
        <ele>211.1</ele>
        <time>2018-11-10T15:07:25Z</time>
      </trkpt>
      <trkpt lat="45.16445" lon="5.75639">
        <ele>210.15</ele>
        <time>2018-11-10T15:07:26Z</time>
      </trkpt>
      <trkpt lat="45.1646" lon="5.75657">
        <ele>210.56</ele>
        <time>2018-11-10T15:07:27Z</time>
      </trkpt>
      <trkpt lat="45.16475" lon="5.75675">
        <ele>210.69</ele>
        <time>2018-11-10T15:07:28Z</time>
      </trkpt>
      <trkpt lat="45.1649" lon="5.75693">
        <ele>212.83</ele>
        <time>2018-11-10T15:07:29Z</time>
      </trkpt>
      <trkpt lat="45.16506" lon="5.7571">
        <ele>213.47</ele>
        <time>2018-11-10T15:07:30Z</time>
      </trkpt>
      <trkpt lat="45.1652" lon="5.75726">
        <ele>213.66</ele>
        <time>2018-11-10T15:07:31Z</time>
      </trkpt>
      <trkpt lat="45.16534" lon="5.75743">
        <ele>213.72</ele>
        <time>2018-11-10T15:07:32Z</time>
      </trkpt>
      <trkpt lat="45.1656" lon="5.75767">
        <ele>215.77</ele>
        <time>2018-11-10T15:07:34Z</time>
      </trkpt>
      <trkpt lat="45.16576" lon="5.75794">
        <ele>217.35</ele>
        <time>2018-11-10T15:07:36Z</time>
      </trkpt>
      <trkpt lat="45.16588" lon="5.75814">
        <ele>219.32</ele>
        <time>2018-11-10T15:07:38Z</time>
      </trkpt>
      <trkpt lat="45.16606" lon="5.7582">
        <ele>219.83</ele>
        <time>2018-11-10T15:07:45Z</time>
      </trkpt>
      <trkpt lat="45.16629" lon="5.7579">
        <ele>220.23</ele>
        <time>2018-11-10T15:07:48Z</time>
      </trkpt>
      <trkpt lat="45.16645" lon="5.75771">
        <ele>220.59</ele>
        <time>2018-11-10T15:07:49Z</time>
      </trkpt>
      <trkpt lat="45.16668" lon="5.75744">
        <ele>222.55</ele>
        <time>2018-11-10T15:07:51Z</time>
      </trkpt>
      <trkpt lat="45.16684" lon="5.75724">
        <ele>223.42</ele>
        <time>2018-11-10T15:07:53Z</time>
      </trkpt>
      <trkpt lat="45.167" lon="5.75707">
        <ele>223.01</ele>
        <time>2018-11-10T15:07:55Z</time>
      </trkpt>
      <trkpt lat="45.16715" lon="5.7569">
        <ele>222.77</ele>
        <time>2018-11-10T15:07:57Z</time>
      </trkpt>
      <trkpt lat="45.16733" lon="5.75672">
        <ele>222.04</ele>
        <time>2018-11-10T15:07:59Z</time>
      </trkpt>
      <trkpt lat="45.16751" lon="5.75654">
        <ele>220.37</ele>
        <time>2018-11-10T15:08:01Z</time>
      </trkpt>
      <trkpt lat="45.16767" lon="5.75637">
        <ele>219.8</ele>
        <time>2018-11-10T15:08:03Z</time>
      </trkpt>
      <trkpt lat="45.16782" lon="5.75619">
        <ele>220.24</ele>
        <time>2018-11-10T15:08:05Z</time>
      </trkpt>
      <trkpt lat="45.16799" lon="5.75601">
        <ele>220.7</ele>
        <time>2018-11-10T15:08:07Z</time>
      </trkpt>
      <trkpt lat="45.16817" lon="5.75586">
        <ele>221.44</ele>
        <time>2018-11-10T15:08:09Z</time>
      </trkpt>
      <trkpt lat="45.16834" lon="5.75568">
        <ele>217.87</ele>
        <time>2018-11-10T15:08:13Z</time>
      </trkpt>
      <trkpt lat="45.16855" lon="5.75555">
        <ele>218.99</ele>
        <time>2018-11-10T15:08:17Z</time>
      </trkpt>
      <trkpt lat="45.16865" lon="5.75532">
        <ele>220.01</ele>
        <time>2018-11-10T15:08:22Z</time>
      </trkpt>
      <trkpt lat="45.16887" lon="5.75514">
        <ele>220.1</ele>
        <time>2018-11-10T15:08:27Z</time>
      </trkpt>
      <trkpt lat="45.16863" lon="5.7541">
        <ele>207.07</ele>
        <time>2018-11-10T15:16:09Z</time>
      </trkpt>
      <trkpt lat="45.16899" lon="5.75488">
        <ele>192.84</ele>
        <time>2018-11-10T15:16:15Z</time>
      </trkpt>
      <trkpt lat="45.16907" lon="5.75511">
        <ele>202.32</ele>
        <time>2018-11-10T15:16:30Z</time>
      </trkpt>
      <trkpt lat="45.16905" lon="5.75536">
        <ele>207.74</ele>
        <time>2018-11-10T15:34:06Z</time>
      </trkpt>
      <trkpt lat="45.16921" lon="5.75582">
        <ele>203.53</ele>
        <time>2018-11-10T15:34:33Z</time>
      </trkpt>
      <trkpt lat="45.16904" lon="5.75565">
        <ele>201.58</ele>
        <time>2018-11-10T15:34:38Z</time>
      </trkpt>
      <trkpt lat="45.16893" lon="5.75545">
        <ele>212.96</ele>
        <time>2018-11-10T15:34:49Z</time>
      </trkpt>
      <trkpt lat="45.16895" lon="5.75473">
        <ele>215.9</ele>
        <time>2018-11-10T16:31:09Z</time>
      </trkpt>
      <trkpt lat="45.16918" lon="5.75513">
        <ele>198.99</ele>
        <time>2018-11-10T16:31:14Z</time>
      </trkpt>
      <trkpt lat="45.16916" lon="5.75488">
        <ele>209.74</ele>
        <time>2018-11-10T16:32:02Z</time>
      </trkpt>
      <trkpt lat="45.1693" lon="5.75464">
        <ele>207.86</ele>
        <time>2018-11-10T16:33:12Z</time>
      </trkpt>
      <trkpt lat="45.16945" lon="5.75422">
        <ele>214.64</ele>
        <time>2018-11-10T16:33:38Z</time>
      </trkpt>
      <trkpt lat="45.16969" lon="5.75395">
        <ele>209.2</ele>
        <time>2018-11-10T16:33:40Z</time>
      </trkpt>
      <trkpt lat="45.16986" lon="5.75369">
        <ele>207.87</ele>
        <time>2018-11-10T16:33:42Z</time>
      </trkpt>
      <trkpt lat="45.17004" lon="5.75347">
        <ele>206.14</ele>
        <time>2018-11-10T16:33:44Z</time>
      </trkpt>
      <trkpt lat="45.1702" lon="5.75325">
        <ele>205.08</ele>
        <time>2018-11-10T16:33:46Z</time>
      </trkpt>
      <trkpt lat="45.17037" lon="5.75301">
        <ele>206.17</ele>
        <time>2018-11-10T16:33:48Z</time>
      </trkpt>
      <trkpt lat="45.17054" lon="5.75275">
        <ele>205.99</ele>
        <time>2018-11-10T16:33:50Z</time>
      </trkpt>
      <trkpt lat="45.17074" lon="5.75252">
        <ele>205.06</ele>
        <time>2018-11-10T16:33:52Z</time>
      </trkpt>
      <trkpt lat="45.17091" lon="5.75229">
        <ele>206.38</ele>
        <time>2018-11-10T16:33:54Z</time>
      </trkpt>
      <trkpt lat="45.17107" lon="5.75207">
        <ele>207.62</ele>
        <time>2018-11-10T16:33:56Z</time>
      </trkpt>
      <trkpt lat="45.17122" lon="5.75186">
        <ele>206.12</ele>
        <time>2018-11-10T16:33:58Z</time>
      </trkpt>
      <trkpt lat="45.17137" lon="5.75167">
        <ele>207.35</ele>
        <time>2018-11-10T16:34:04Z</time>
      </trkpt>
      <trkpt lat="45.17156" lon="5.75155">
        <ele>207.8</ele>
        <time>2018-11-10T16:34:08Z</time>
      </trkpt>
      <trkpt lat="45.17183" lon="5.75148">
        <ele>207.74</ele>
        <time>2018-11-10T16:34:11Z</time>
      </trkpt>
      <trkpt lat="45.17205" lon="5.75164">
        <ele>209.14</ele>
        <time>2018-11-10T16:34:13Z</time>
      </trkpt>
      <trkpt lat="45.17228" lon="5.75183">
        <ele>212.37</ele>
        <time>2018-11-10T16:34:16Z</time>
      </trkpt>
      <trkpt lat="45.17248" lon="5.75181">
        <ele>211</ele>
        <time>2018-11-10T16:34:19Z</time>
      </trkpt>
      <trkpt lat="45.17254" lon="5.75151">
        <ele>209.85</ele>
        <time>2018-11-10T16:34:21Z</time>
      </trkpt>
      <trkpt lat="45.17262" lon="5.75121">
        <ele>210.45</ele>
        <time>2018-11-10T16:34:23Z</time>
      </trkpt>
      <trkpt lat="45.17269" lon="5.75087">
        <ele>212.53</ele>
        <time>2018-11-10T16:34:25Z</time>
      </trkpt>
      <trkpt lat="45.17287" lon="5.75051">
        <ele>213.42</ele>
        <time>2018-11-10T16:34:27Z</time>
      </trkpt>
      <trkpt lat="45.17303" lon="5.75017">
        <ele>213.71</ele>
        <time>2018-11-10T16:34:29Z</time>
      </trkpt>
      <trkpt lat="45.17315" lon="5.74997">
        <ele>213.25</ele>
        <time>2018-11-10T16:34:30Z</time>
      </trkpt>
      <trkpt lat="45.17335" lon="5.74961">
        <ele>213.07</ele>
        <time>2018-11-10T16:34:32Z</time>
      </trkpt>
      <trkpt lat="45.17348" lon="5.7493">
        <ele>214.66</ele>
        <time>2018-11-10T16:34:34Z</time>
      </trkpt>
      <trkpt lat="45.17357" lon="5.74904">
        <ele>215.71</ele>
        <time>2018-11-10T16:34:36Z</time>
      </trkpt>
      <trkpt lat="45.17366" lon="5.74878">
        <ele>220.85</ele>
        <time>2018-11-10T16:34:38Z</time>
      </trkpt>
      <trkpt lat="45.17374" lon="5.74856">
        <ele>221.03</ele>
        <time>2018-11-10T16:34:40Z</time>
      </trkpt>
      <trkpt lat="45.17389" lon="5.74836">
        <ele>221.32</ele>
        <time>2018-11-10T16:34:44Z</time>
      </trkpt>
      <trkpt lat="45.17407" lon="5.74843">
        <ele>221.06</ele>
        <time>2018-11-10T16:34:47Z</time>
      </trkpt>
      <trkpt lat="45.17424" lon="5.74871">
        <ele>221.69</ele>
        <time>2018-11-10T16:34:50Z</time>
      </trkpt>
      <trkpt lat="45.1745" lon="5.74903">
        <ele>222.93</ele>
        <time>2018-11-10T16:34:52Z</time>
      </trkpt>
      <trkpt lat="45.17471" lon="5.74926">
        <ele>218.7</ele>
        <time>2018-11-10T16:34:54Z</time>
      </trkpt>
      <trkpt lat="45.17495" lon="5.74949">
        <ele>217.41</ele>
        <time>2018-11-10T16:34:56Z</time>
      </trkpt>
      <trkpt lat="45.17513" lon="5.74949">
        <ele>214.36</ele>
        <time>2018-11-10T16:34:57Z</time>
      </trkpt>
      <trkpt lat="45.17531" lon="5.74959">
        <ele>214.08</ele>
        <time>2018-11-10T16:34:59Z</time>
      </trkpt>
      <trkpt lat="45.17553" lon="5.74961">
        <ele>215.66</ele>
        <time>2018-11-10T16:35:01Z</time>
      </trkpt>
      <trkpt lat="45.17573" lon="5.74959">
        <ele>216.22</ele>
        <time>2018-11-10T16:35:03Z</time>
      </trkpt>
      <trkpt lat="45.17592" lon="5.74946">
        <ele>214.24</ele>
        <time>2018-11-10T16:35:05Z</time>
      </trkpt>
      <trkpt lat="45.17593" lon="5.74914">
        <ele>211.66</ele>
        <time>2018-11-10T16:35:09Z</time>
      </trkpt>
      <trkpt lat="45.1759" lon="5.74875">
        <ele>212.04</ele>
        <time>2018-11-10T16:35:12Z</time>
      </trkpt>
      <trkpt lat="45.17575" lon="5.74831">
        <ele>211.84</ele>
        <time>2018-11-10T16:35:14Z</time>
      </trkpt>
      <trkpt lat="45.17565" lon="5.74801">
        <ele>211.99</ele>
        <time>2018-11-10T16:35:15Z</time>
      </trkpt>
      <trkpt lat="45.17545" lon="5.74764">
        <ele>212.95</ele>
        <time>2018-11-10T16:35:17Z</time>
      </trkpt>
      <trkpt lat="45.17532" lon="5.74745">
        <ele>213.72</ele>
        <time>2018-11-10T16:35:18Z</time>
      </trkpt>
      <trkpt lat="45.1752" lon="5.74703">
        <ele>213.32</ele>
        <time>2018-11-10T16:35:20Z</time>
      </trkpt>
      <trkpt lat="45.17514" lon="5.74662">
        <ele>212.16</ele>
        <time>2018-11-10T16:35:22Z</time>
      </trkpt>
      <trkpt lat="45.17505" lon="5.74625">
        <ele>212.76</ele>
        <time>2018-11-10T16:35:24Z</time>
      </trkpt>
      <trkpt lat="45.17498" lon="5.7459">
        <ele>218.54</ele>
        <time>2018-11-10T16:35:27Z</time>
      </trkpt>
      <trkpt lat="45.17496" lon="5.7456">
        <ele>218.08</ele>
        <time>2018-11-10T16:36:03Z</time>
      </trkpt>
      <trkpt lat="45.1749" lon="5.74526">
        <ele>219.23</ele>
        <time>2018-11-10T16:36:07Z</time>
      </trkpt>
      <trkpt lat="45.17483" lon="5.74493">
        <ele>220.66</ele>
        <time>2018-11-10T16:36:10Z</time>
      </trkpt>
      <trkpt lat="45.1747" lon="5.74464">
        <ele>219.43</ele>
        <time>2018-11-10T16:36:13Z</time>
      </trkpt>
      <trkpt lat="45.17456" lon="5.7443">
        <ele>216.75</ele>
        <time>2018-11-10T16:36:16Z</time>
      </trkpt>
      <trkpt lat="45.17449" lon="5.74396">
        <ele>212.02</ele>
        <time>2018-11-10T16:36:19Z</time>
      </trkpt>
      <trkpt lat="45.17445" lon="5.74366">
        <ele>209.4</ele>
        <time>2018-11-10T16:36:22Z</time>
      </trkpt>
      <trkpt lat="45.17439" lon="5.74335">
        <ele>207.81</ele>
        <time>2018-11-10T16:36:25Z</time>
      </trkpt>
      <trkpt lat="45.17426" lon="5.74306">
        <ele>212.72</ele>
        <time>2018-11-10T16:36:28Z</time>
      </trkpt>
      <trkpt lat="45.17424" lon="5.74278">
        <ele>211.16</ele>
        <time>2018-11-10T16:36:31Z</time>
      </trkpt>
      <trkpt lat="45.17417" lon="5.74249">
        <ele>210.85</ele>
        <time>2018-11-10T16:36:33Z</time>
      </trkpt>
      <trkpt lat="45.17407" lon="5.74213">
        <ele>212.23</ele>
        <time>2018-11-10T16:36:36Z</time>
      </trkpt>
      <trkpt lat="45.17405" lon="5.74178">
        <ele>212.06</ele>
        <time>2018-11-10T16:36:38Z</time>
      </trkpt>
      <trkpt lat="45.17393" lon="5.74144">
        <ele>211.14</ele>
        <time>2018-11-10T16:36:40Z</time>
      </trkpt>
      <trkpt lat="45.17385" lon="5.7411">
        <ele>209.66</ele>
        <time>2018-11-10T16:36:42Z</time>
      </trkpt>
      <trkpt lat="45.17369" lon="5.74078">
        <ele>210.92</ele>
        <time>2018-11-10T16:36:44Z</time>
      </trkpt>
      <trkpt lat="45.17358" lon="5.74054">
        <ele>211.95</ele>
        <time>2018-11-10T16:36:46Z</time>
      </trkpt>
      <trkpt lat="45.17353" lon="5.74019">
        <ele>213.44</ele>
        <time>2018-11-10T16:36:48Z</time>
      </trkpt>
      <trkpt lat="45.17355" lon="5.73985">
        <ele>217</ele>
        <time>2018-11-10T16:36:50Z</time>
      </trkpt>
      <trkpt lat="45.17341" lon="5.73951">
        <ele>219.77</ele>
        <time>2018-11-10T16:36:52Z</time>
      </trkpt>
      <trkpt lat="45.17334" lon="5.73922">
        <ele>217.5</ele>
        <time>2018-11-10T16:36:54Z</time>
      </trkpt>
      <trkpt lat="45.17334" lon="5.73894">
        <ele>215.27</ele>
        <time>2018-11-10T16:36:56Z</time>
      </trkpt>
      <trkpt lat="45.17328" lon="5.73868">
        <ele>212.75</ele>
        <time>2018-11-10T16:37:46Z</time>
      </trkpt>
      <trkpt lat="45.17355" lon="5.73849">
        <ele>214.93</ele>
        <time>2018-11-10T16:37:51Z</time>
      </trkpt>
      <trkpt lat="45.17378" lon="5.73839">
        <ele>216.86</ele>
        <time>2018-11-10T16:37:53Z</time>
      </trkpt>
      <trkpt lat="45.17408" lon="5.73824">
        <ele>217.73</ele>
        <time>2018-11-10T16:37:55Z</time>
      </trkpt>
      <trkpt lat="45.17433" lon="5.73811">
        <ele>215.99</ele>
        <time>2018-11-10T16:37:57Z</time>
      </trkpt>
      <trkpt lat="45.1746" lon="5.73798">
        <ele>215.13</ele>
        <time>2018-11-10T16:37:59Z</time>
      </trkpt>
      <trkpt lat="45.17484" lon="5.73785">
        <ele>216.46</ele>
        <time>2018-11-10T16:38:01Z</time>
      </trkpt>
      <trkpt lat="45.17509" lon="5.7377">
        <ele>216.3</ele>
        <time>2018-11-10T16:38:03Z</time>
      </trkpt>
      <trkpt lat="45.17535" lon="5.73757">
        <ele>215.86</ele>
        <time>2018-11-10T16:38:05Z</time>
      </trkpt>
      <trkpt lat="45.17557" lon="5.73741">
        <ele>214.21</ele>
        <time>2018-11-10T16:38:07Z</time>
      </trkpt>
      <trkpt lat="45.17588" lon="5.73731">
        <ele>214.76</ele>
        <time>2018-11-10T16:38:09Z</time>
      </trkpt>
      <trkpt lat="45.17616" lon="5.73716">
        <ele>214.11</ele>
        <time>2018-11-10T16:38:11Z</time>
      </trkpt>
      <trkpt lat="45.17641" lon="5.73705">
        <ele>213.35</ele>
        <time>2018-11-10T16:38:13Z</time>
      </trkpt>
      <trkpt lat="45.17669" lon="5.73691">
        <ele>215.6</ele>
        <time>2018-11-10T16:38:15Z</time>
      </trkpt>
      <trkpt lat="45.17695" lon="5.73681">
        <ele>215.1</ele>
        <time>2018-11-10T16:38:17Z</time>
      </trkpt>
      <trkpt lat="45.17724" lon="5.73668">
        <ele>215.96</ele>
        <time>2018-11-10T16:38:19Z</time>
      </trkpt>
      <trkpt lat="45.1775" lon="5.73651">
        <ele>214.92</ele>
        <time>2018-11-10T16:38:21Z</time>
      </trkpt>
      <trkpt lat="45.1778" lon="5.73639">
        <ele>217.35</ele>
        <time>2018-11-10T16:38:23Z</time>
      </trkpt>
      <trkpt lat="45.1781" lon="5.73625">
        <ele>218.2</ele>
        <time>2018-11-10T16:38:25Z</time>
      </trkpt>
      <trkpt lat="45.17839" lon="5.7361">
        <ele>218.76</ele>
        <time>2018-11-10T16:38:27Z</time>
      </trkpt>
      <trkpt lat="45.17867" lon="5.73596">
        <ele>219.93</ele>
        <time>2018-11-10T16:38:29Z</time>
      </trkpt>
      <trkpt lat="45.17893" lon="5.73586">
        <ele>220.95</ele>
        <time>2018-11-10T16:38:31Z</time>
      </trkpt>
      <trkpt lat="45.17916" lon="5.73573">
        <ele>220.55</ele>
        <time>2018-11-10T16:38:33Z</time>
      </trkpt>
      <trkpt lat="45.17941" lon="5.73562">
        <ele>220.51</ele>
        <time>2018-11-10T16:38:35Z</time>
      </trkpt>
      <trkpt lat="45.17964" lon="5.73551">
        <ele>218.48</ele>
        <time>2018-11-10T16:38:37Z</time>
      </trkpt>
      <trkpt lat="45.17982" lon="5.73546">
        <ele>218.58</ele>
        <time>2018-11-10T16:38:39Z</time>
      </trkpt>
      <trkpt lat="45.18001" lon="5.73537">
        <ele>217.61</ele>
        <time>2018-11-10T16:38:41Z</time>
      </trkpt>
      <trkpt lat="45.18019" lon="5.73528">
        <ele>217.1</ele>
        <time>2018-11-10T16:38:43Z</time>
      </trkpt>
      <trkpt lat="45.18036" lon="5.73514">
        <ele>215.44</ele>
        <time>2018-11-10T16:38:45Z</time>
      </trkpt>
      <trkpt lat="45.18061" lon="5.73502">
        <ele>217.39</ele>
        <time>2018-11-10T16:38:47Z</time>
      </trkpt>
      <trkpt lat="45.18087" lon="5.73489">
        <ele>216.38</ele>
        <time>2018-11-10T16:38:49Z</time>
      </trkpt>
      <trkpt lat="45.18106" lon="5.73482">
        <ele>218.6</ele>
        <time>2018-11-10T16:38:51Z</time>
      </trkpt>
      <trkpt lat="45.18125" lon="5.73469">
        <ele>221.98</ele>
        <time>2018-11-10T16:38:54Z</time>
      </trkpt>
      <trkpt lat="45.18147" lon="5.7346">
        <ele>224.74</ele>
        <time>2018-11-10T16:38:59Z</time>
      </trkpt>
      <trkpt lat="45.18165" lon="5.73449">
        <ele>223.77</ele>
        <time>2018-11-10T16:39:15Z</time>
      </trkpt>
      <trkpt lat="45.18189" lon="5.73442">
        <ele>222.37</ele>
        <time>2018-11-10T16:39:18Z</time>
      </trkpt>
      <trkpt lat="45.18209" lon="5.73436">
        <ele>221.87</ele>
        <time>2018-11-10T16:39:20Z</time>
      </trkpt>
      <trkpt lat="45.18226" lon="5.73426">
        <ele>221.99</ele>
        <time>2018-11-10T16:39:21Z</time>
      </trkpt>
      <trkpt lat="45.18253" lon="5.73414">
        <ele>220.64</ele>
        <time>2018-11-10T16:39:23Z</time>
      </trkpt>
      <trkpt lat="45.18282" lon="5.73397">
        <ele>221.92</ele>
        <time>2018-11-10T16:39:25Z</time>
      </trkpt>
      <trkpt lat="45.18301" lon="5.73384">
        <ele>222.53</ele>
        <time>2018-11-10T16:39:27Z</time>
      </trkpt>
      <trkpt lat="45.18319" lon="5.73373">
        <ele>223.24</ele>
        <time>2018-11-10T16:39:30Z</time>
      </trkpt>
      <trkpt lat="45.18339" lon="5.73358">
        <ele>221.54</ele>
        <time>2018-11-10T16:39:33Z</time>
      </trkpt>
      <trkpt lat="45.18354" lon="5.73338">
        <ele>222.91</ele>
        <time>2018-11-10T16:39:35Z</time>
      </trkpt>
      <trkpt lat="45.18357" lon="5.73307">
        <ele>223.04</ele>
        <time>2018-11-10T16:39:37Z</time>
      </trkpt>
      <trkpt lat="45.18357" lon="5.73271">
        <ele>224.87</ele>
        <time>2018-11-10T16:39:39Z</time>
      </trkpt>
      <trkpt lat="45.18371" lon="5.73241">
        <ele>227.55</ele>
        <time>2018-11-10T16:39:41Z</time>
      </trkpt>
      <trkpt lat="45.18375" lon="5.7321">
        <ele>228.31</ele>
        <time>2018-11-10T16:39:44Z</time>
      </trkpt>
      <trkpt lat="45.18381" lon="5.73186">
        <ele>235.04</ele>
        <time>2018-11-10T16:40:08Z</time>
      </trkpt>
      <trkpt lat="45.18388" lon="5.73154">
        <ele>241.19</ele>
        <time>2018-11-10T16:41:36Z</time>
      </trkpt>
      <trkpt lat="45.18386" lon="5.73127">
        <ele>236.93</ele>
        <time>2018-11-10T16:41:38Z</time>
      </trkpt>
      <trkpt lat="45.18374" lon="5.731">
        <ele>237.53</ele>
        <time>2018-11-10T16:41:40Z</time>
      </trkpt>
      <trkpt lat="45.18359" lon="5.73067">
        <ele>238</ele>
        <time>2018-11-10T16:41:42Z</time>
      </trkpt>
      <trkpt lat="45.18346" lon="5.73041">
        <ele>239.44</ele>
        <time>2018-11-10T16:41:44Z</time>
      </trkpt>
      <trkpt lat="45.1833" lon="5.73008">
        <ele>237.47</ele>
        <time>2018-11-10T16:41:46Z</time>
      </trkpt>
      <trkpt lat="45.18315" lon="5.72974">
        <ele>238.7</ele>
        <time>2018-11-10T16:41:48Z</time>
      </trkpt>
      <trkpt lat="45.18306" lon="5.72938">
        <ele>237.62</ele>
        <time>2018-11-10T16:41:50Z</time>
      </trkpt>
      <trkpt lat="45.18294" lon="5.7291">
        <ele>236.19</ele>
        <time>2018-11-10T16:41:52Z</time>
      </trkpt>
      <trkpt lat="45.1828" lon="5.72884">
        <ele>236.97</ele>
        <time>2018-11-10T16:41:54Z</time>
      </trkpt>
      <trkpt lat="45.18263" lon="5.72862">
        <ele>234.73</ele>
        <time>2018-11-10T16:41:56Z</time>
      </trkpt>
      <trkpt lat="45.18256" lon="5.72833">
        <ele>233.79</ele>
        <time>2018-11-10T16:41:59Z</time>
      </trkpt>
      <trkpt lat="45.18246" lon="5.72807">
        <ele>226.75</ele>
        <time>2018-11-10T16:42:38Z</time>
      </trkpt>
      <trkpt lat="45.18233" lon="5.72785">
        <ele>226.65</ele>
        <time>2018-11-10T16:42:42Z</time>
      </trkpt>
      <trkpt lat="45.18228" lon="5.72759">
        <ele>226.5</ele>
        <time>2018-11-10T16:42:46Z</time>
      </trkpt>
      <trkpt lat="45.18234" lon="5.72734">
        <ele>226.91</ele>
        <time>2018-11-10T16:42:49Z</time>
      </trkpt>
      <trkpt lat="45.18252" lon="5.72722">
        <ele>225.86</ele>
        <time>2018-11-10T16:42:52Z</time>
      </trkpt>
      <trkpt lat="45.1827" lon="5.72716">
        <ele>226.2</ele>
        <time>2018-11-10T16:43:02Z</time>
      </trkpt>
      <trkpt lat="45.183" lon="5.72693">
        <ele>225.11</ele>
        <time>2018-11-10T16:43:08Z</time>
      </trkpt>
      <trkpt lat="45.18328" lon="5.72676">
        <ele>225.05</ele>
        <time>2018-11-10T16:43:10Z</time>
      </trkpt>
      <trkpt lat="45.18348" lon="5.72664">
        <ele>226.24</ele>
        <time>2018-11-10T16:43:12Z</time>
      </trkpt>
      <trkpt lat="45.18366" lon="5.72652">
        <ele>230.13</ele>
        <time>2018-11-10T16:43:14Z</time>
      </trkpt>
      <trkpt lat="45.18385" lon="5.72637">
        <ele>228.81</ele>
        <time>2018-11-10T16:43:17Z</time>
      </trkpt>
      <trkpt lat="45.18401" lon="5.72622">
        <ele>228.1</ele>
        <time>2018-11-10T16:43:24Z</time>
      </trkpt>
      <trkpt lat="45.18417" lon="5.72609">
        <ele>220.29</ele>
        <time>2018-11-10T16:43:53Z</time>
      </trkpt>
      <trkpt lat="45.18434" lon="5.726">
        <ele>215.15</ele>
        <time>2018-11-10T16:44:00Z</time>
      </trkpt>
      <trkpt lat="45.1845" lon="5.72586">
        <ele>214.74</ele>
        <time>2018-11-10T16:44:16Z</time>
      </trkpt>
      <trkpt lat="45.18466" lon="5.72572">
        <ele>219.45</ele>
        <time>2018-11-10T16:44:29Z</time>
      </trkpt>
      <trkpt lat="45.18483" lon="5.72559">
        <ele>218.89</ele>
        <time>2018-11-10T16:44:33Z</time>
      </trkpt>
      <trkpt lat="45.185" lon="5.72545">
        <ele>215.08</ele>
        <time>2018-11-10T16:44:42Z</time>
      </trkpt>
      <trkpt lat="45.18519" lon="5.7253">
        <ele>214.35</ele>
        <time>2018-11-10T16:44:45Z</time>
      </trkpt>
      <trkpt lat="45.18545" lon="5.72514">
        <ele>213.15</ele>
        <time>2018-11-10T16:44:48Z</time>
      </trkpt>
      <trkpt lat="45.18563" lon="5.72501">
        <ele>211.38</ele>
        <time>2018-11-10T16:44:51Z</time>
      </trkpt>
      <trkpt lat="45.18584" lon="5.72491">
        <ele>214.75</ele>
        <time>2018-11-10T16:44:55Z</time>
      </trkpt>
      <trkpt lat="45.18605" lon="5.72478">
        <ele>208.25</ele>
        <time>2018-11-10T16:45:36Z</time>
      </trkpt>
      <trkpt lat="45.18619" lon="5.72461">
        <ele>206.46</ele>
        <time>2018-11-10T16:45:38Z</time>
      </trkpt>
      <trkpt lat="45.18638" lon="5.72439">
        <ele>204.97</ele>
        <time>2018-11-10T16:45:40Z</time>
      </trkpt>
      <trkpt lat="45.1866" lon="5.72428">
        <ele>205.04</ele>
        <time>2018-11-10T16:45:42Z</time>
      </trkpt>
      <trkpt lat="45.18683" lon="5.72418">
        <ele>205.96</ele>
        <time>2018-11-10T16:45:44Z</time>
      </trkpt>
      <trkpt lat="45.18702" lon="5.72408">
        <ele>207.65</ele>
        <time>2018-11-10T16:45:46Z</time>
      </trkpt>
      <trkpt lat="45.1872" lon="5.72399">
        <ele>207.31</ele>
        <time>2018-11-10T16:45:48Z</time>
      </trkpt>
      <trkpt lat="45.18743" lon="5.72385">
        <ele>204.75</ele>
        <time>2018-11-10T16:45:51Z</time>
      </trkpt>
      <trkpt lat="45.18762" lon="5.72369">
        <ele>207.05</ele>
        <time>2018-11-10T16:46:13Z</time>
      </trkpt>
      <trkpt lat="45.18779" lon="5.72355">
        <ele>208.66</ele>
        <time>2018-11-10T16:46:15Z</time>
      </trkpt>
      <trkpt lat="45.18805" lon="5.72341">
        <ele>212.23</ele>
        <time>2018-11-10T16:46:17Z</time>
      </trkpt>
      <trkpt lat="45.18827" lon="5.72325">
        <ele>212.35</ele>
        <time>2018-11-10T16:46:19Z</time>
      </trkpt>
      <trkpt lat="45.18851" lon="5.72307">
        <ele>214.32</ele>
        <time>2018-11-10T16:46:21Z</time>
      </trkpt>
      <trkpt lat="45.18869" lon="5.72295">
        <ele>209.73</ele>
        <time>2018-11-10T16:46:23Z</time>
      </trkpt>
      <trkpt lat="45.18894" lon="5.72282">
        <ele>206.97</ele>
        <time>2018-11-10T16:46:26Z</time>
      </trkpt>
      <trkpt lat="45.18913" lon="5.72267">
        <ele>205.16</ele>
        <time>2018-11-10T16:46:29Z</time>
      </trkpt>
      <trkpt lat="45.18936" lon="5.72246">
        <ele>204.51</ele>
        <time>2018-11-10T16:46:32Z</time>
      </trkpt>
      <trkpt lat="45.18956" lon="5.72235">
        <ele>206.61</ele>
        <time>2018-11-10T16:46:34Z</time>
      </trkpt>
      <trkpt lat="45.18977" lon="5.72226">
        <ele>207.5</ele>
        <time>2018-11-10T16:46:36Z</time>
      </trkpt>
      <trkpt lat="45.1899" lon="5.72208">
        <ele>209.61</ele>
        <time>2018-11-10T16:46:38Z</time>
      </trkpt>
      <trkpt lat="45.19007" lon="5.72198">
        <ele>213.23</ele>
        <time>2018-11-10T16:46:40Z</time>
      </trkpt>
      <trkpt lat="45.19027" lon="5.72182">
        <ele>216.5</ele>
        <time>2018-11-10T16:46:42Z</time>
      </trkpt>
      <trkpt lat="45.19053" lon="5.72169">
        <ele>216.33</ele>
        <time>2018-11-10T16:46:45Z</time>
      </trkpt>
      <trkpt lat="45.1907" lon="5.7216">
        <ele>217.68</ele>
        <time>2018-11-10T16:46:47Z</time>
      </trkpt>
      <trkpt lat="45.19087" lon="5.72146">
        <ele>220.33</ele>
        <time>2018-11-10T16:46:49Z</time>
      </trkpt>
      <trkpt lat="45.19104" lon="5.72133">
        <ele>222</ele>
        <time>2018-11-10T16:46:52Z</time>
      </trkpt>
      <trkpt lat="45.19123" lon="5.72139">
        <ele>221.12</ele>
        <time>2018-11-10T16:46:56Z</time>
      </trkpt>
      <trkpt lat="45.19141" lon="5.72162">
        <ele>220.14</ele>
        <time>2018-11-10T16:46:59Z</time>
      </trkpt>
      <trkpt lat="45.19136" lon="5.72196">
        <ele>219.85</ele>
        <time>2018-11-10T16:47:01Z</time>
      </trkpt>
      <trkpt lat="45.19143" lon="5.72232">
        <ele>221.16</ele>
        <time>2018-11-10T16:47:04Z</time>
      </trkpt>
      <trkpt lat="45.19147" lon="5.72265">
        <ele>224.41</ele>
        <time>2018-11-10T16:47:08Z</time>
      </trkpt>
      <trkpt lat="45.19167" lon="5.7227">
        <ele>224.18</ele>
        <time>2018-11-10T16:47:11Z</time>
      </trkpt>
      <trkpt lat="45.19185" lon="5.72243">
        <ele>224.06</ele>
        <time>2018-11-10T16:47:13Z</time>
      </trkpt>
      <trkpt lat="45.19204" lon="5.7222">
        <ele>224.05</ele>
        <time>2018-11-10T16:47:14Z</time>
      </trkpt>
      <trkpt lat="45.19229" lon="5.72203">
        <ele>226.78</ele>
        <time>2018-11-10T16:47:16Z</time>
      </trkpt>
      <trkpt lat="45.19242" lon="5.72175">
        <ele>225.2</ele>
        <time>2018-11-10T16:47:18Z</time>
      </trkpt>
      <trkpt lat="45.19254" lon="5.72147">
        <ele>222.12</ele>
        <time>2018-11-10T16:47:20Z</time>
      </trkpt>
      <trkpt lat="45.19257" lon="5.72118">
        <ele>224.58</ele>
        <time>2018-11-10T16:47:22Z</time>
      </trkpt>
      <trkpt lat="45.19254" lon="5.72091">
        <ele>229.38</ele>
        <time>2018-11-10T16:47:26Z</time>
      </trkpt>
      <trkpt lat="45.19247" lon="5.72063">
        <ele>229.24</ele>
        <time>2018-11-10T16:47:32Z</time>
      </trkpt>
      <trkpt lat="45.19256" lon="5.72036">
        <ele>230.03</ele>
        <time>2018-11-10T16:47:35Z</time>
      </trkpt>
      <trkpt lat="45.19279" lon="5.72019">
        <ele>231.81</ele>
        <time>2018-11-10T16:47:38Z</time>
      </trkpt>
      <trkpt lat="45.19298" lon="5.72008">
        <ele>234.56</ele>
        <time>2018-11-10T16:47:41Z</time>
      </trkpt>
      <trkpt lat="45.19317" lon="5.71995">
        <ele>232.45</ele>
        <time>2018-11-10T16:47:46Z</time>
      </trkpt>
      <trkpt lat="45.19334" lon="5.71989">
        <ele>229.29</ele>
        <time>2018-11-10T16:47:59Z</time>
      </trkpt>
      <trkpt lat="45.19354" lon="5.71977">
        <ele>227.38</ele>
        <time>2018-11-10T16:48:02Z</time>
      </trkpt>
      <trkpt lat="45.19371" lon="5.71962">
        <ele>228.18</ele>
        <time>2018-11-10T16:48:05Z</time>
      </trkpt>
      <trkpt lat="45.19384" lon="5.7194">
        <ele>226.09</ele>
        <time>2018-11-10T16:48:09Z</time>
      </trkpt>
      <trkpt lat="45.19399" lon="5.71921">
        <ele>224.87</ele>
        <time>2018-11-10T16:48:12Z</time>
      </trkpt>
      <trkpt lat="45.19419" lon="5.71913">
        <ele>222.36</ele>
        <time>2018-11-10T16:48:16Z</time>
      </trkpt>
      <trkpt lat="45.19443" lon="5.71917">
        <ele>219.84</ele>
        <time>2018-11-10T16:48:21Z</time>
      </trkpt>
      <trkpt lat="45.19467" lon="5.71914">
        <ele>219.5</ele>
        <time>2018-11-10T16:48:24Z</time>
      </trkpt>
      <trkpt lat="45.19491" lon="5.71916">
        <ele>217.06</ele>
        <time>2018-11-10T16:48:26Z</time>
      </trkpt>
      <trkpt lat="45.19509" lon="5.71915">
        <ele>216.35</ele>
        <time>2018-11-10T16:48:28Z</time>
      </trkpt>
      <trkpt lat="45.1953" lon="5.71916">
        <ele>218.85</ele>
        <time>2018-11-10T16:48:31Z</time>
      </trkpt>
      <trkpt lat="45.19546" lon="5.71904">
        <ele>216.88</ele>
        <time>2018-11-10T16:48:37Z</time>
      </trkpt>
      <trkpt lat="45.19549" lon="5.71878">
        <ele>219.25</ele>
        <time>2018-11-10T16:48:48Z</time>
      </trkpt>
      <trkpt lat="45.19495" lon="5.71895">
        <ele>232.51</ele>
        <time>2018-11-10T17:01:03Z</time>
      </trkpt>
      <trkpt lat="45.19522" lon="5.71883">
        <ele>261.59</ele>
        <time>2018-11-10T17:01:08Z</time>
      </trkpt>
      <trkpt lat="45.1953" lon="5.71907">
        <ele>228.2</ele>
        <time>2018-11-10T17:02:23Z</time>
      </trkpt>
      <trkpt lat="45.19543" lon="5.71925">
        <ele>225.05</ele>
        <time>2018-11-10T17:02:39Z</time>
      </trkpt>
      <trkpt lat="45.19563" lon="5.71911">
        <ele>224.08</ele>
        <time>2018-11-10T17:02:42Z</time>
      </trkpt>
      <trkpt lat="45.19583" lon="5.719">
        <ele>225.02</ele>
        <time>2018-11-10T17:02:45Z</time>
      </trkpt>
      <trkpt lat="45.19606" lon="5.71905">
        <ele>225.05</ele>
        <time>2018-11-10T17:02:47Z</time>
      </trkpt>
      <trkpt lat="45.19621" lon="5.71887">
        <ele>225.26</ele>
        <time>2018-11-10T17:02:49Z</time>
      </trkpt>
      <trkpt lat="45.19644" lon="5.71877">
        <ele>228.34</ele>
        <time>2018-11-10T17:02:52Z</time>
      </trkpt>
      <trkpt lat="45.19676" lon="5.71873">
        <ele>228.28</ele>
        <time>2018-11-10T17:02:54Z</time>
      </trkpt>
      <trkpt lat="45.19699" lon="5.71869">
        <ele>228.9</ele>
        <time>2018-11-10T17:02:57Z</time>
      </trkpt>
      <trkpt lat="45.19719" lon="5.71865">
        <ele>229.74</ele>
        <time>2018-11-10T17:02:59Z</time>
      </trkpt>
      <trkpt lat="45.19742" lon="5.7186">
        <ele>229.07</ele>
        <time>2018-11-10T17:03:02Z</time>
      </trkpt>
      <trkpt lat="45.19777" lon="5.71842">
        <ele>228.14</ele>
        <time>2018-11-10T17:03:04Z</time>
      </trkpt>
      <trkpt lat="45.19802" lon="5.71832">
        <ele>229.18</ele>
        <time>2018-11-10T17:03:06Z</time>
      </trkpt>
      <trkpt lat="45.19825" lon="5.71824">
        <ele>229.06</ele>
        <time>2018-11-10T17:03:08Z</time>
      </trkpt>
      <trkpt lat="45.19845" lon="5.71821">
        <ele>230.45</ele>
        <time>2018-11-10T17:03:11Z</time>
      </trkpt>
      <trkpt lat="45.19866" lon="5.7182">
        <ele>230.09</ele>
        <time>2018-11-10T17:03:13Z</time>
      </trkpt>
      <trkpt lat="45.19891" lon="5.71814">
        <ele>229.35</ele>
        <time>2018-11-10T17:03:15Z</time>
      </trkpt>
      <trkpt lat="45.19923" lon="5.71807">
        <ele>229.57</ele>
        <time>2018-11-10T17:03:17Z</time>
      </trkpt>
      <trkpt lat="45.19953" lon="5.71796">
        <ele>230.04</ele>
        <time>2018-11-10T17:03:20Z</time>
      </trkpt>
      <trkpt lat="45.19981" lon="5.71784">
        <ele>231.45</ele>
        <time>2018-11-10T17:03:22Z</time>
      </trkpt>
      <trkpt lat="45.20007" lon="5.71776">
        <ele>231.08</ele>
        <time>2018-11-10T17:03:24Z</time>
      </trkpt>
      <trkpt lat="45.20035" lon="5.71778">
        <ele>231.75</ele>
        <time>2018-11-10T17:03:26Z</time>
      </trkpt>
      <trkpt lat="45.20062" lon="5.71765">
        <ele>229.5</ele>
        <time>2018-11-10T17:03:28Z</time>
      </trkpt>
      <trkpt lat="45.20081" lon="5.7175">
        <ele>229.79</ele>
        <time>2018-11-10T17:03:30Z</time>
      </trkpt>
      <trkpt lat="45.20098" lon="5.71739">
        <ele>229.33</ele>
        <time>2018-11-10T17:03:32Z</time>
      </trkpt>
      <trkpt lat="45.20116" lon="5.71736">
        <ele>229.3</ele>
        <time>2018-11-10T17:03:37Z</time>
      </trkpt>
      <trkpt lat="45.20103" lon="5.71762">
        <ele>228.7</ele>
        <time>2018-11-10T17:03:42Z</time>
      </trkpt>
      <trkpt lat="45.20086" lon="5.71784">
        <ele>233.57</ele>
        <time>2018-11-10T17:03:45Z</time>
      </trkpt>
      <trkpt lat="45.20104" lon="5.71796">
        <ele>229.94</ele>
        <time>2018-11-10T17:03:51Z</time>
      </trkpt>
      <trkpt lat="45.20122" lon="5.7179">
        <ele>230.08</ele>
        <time>2018-11-10T17:03:57Z</time>
      </trkpt>
      <trkpt lat="45.20108" lon="5.71815">
        <ele>249.95</ele>
        <time>2018-11-10T17:08:00Z</time>
      </trkpt>
    </trkseg>
  </trk>
</gpx>